<?xml version='1.0' encoding='UTF-8'?><gpx version="1.1" creator="JPX - https://github.com/jenetics/jpx" xmlns="http://www.topografix.com/GPX/1/1"><trk><trkseg><trkpt lat="43.8422531" lon="13.0143647"><ele>17.0</ele><time>2026-04-12T14:58:13.143Z</time></trkpt><trkpt lat="43.8422" lon="13.014175"><ele>17.0</ele><time>2026-04-12T15:00:28.225Z</time></trkpt><trkpt lat="43.8422217" lon="13.0140817"><ele>17.0</ele><time>2026-04-12T15:00:30.225Z</time></trkpt><trkpt lat="43.8422517" lon="13.0139883"><ele>17.0</ele><time>2026-04-12T15:00:33.226Z</time></trkpt><trkpt lat="43.8423183" lon="13.0138867"><ele>17.0</ele><time>2026-04-12T15:00:46.226Z</time></trkpt><trkpt lat="43.842365" lon="13.0138183"><ele>16.833333333333336</ele><time>2026-04-12T15:00:53.226Z</time></trkpt><trkpt lat="43.84241" lon="13.0137167"><ele>16.666666666666668</ele><time>2026-04-12T15:00:56.225Z</time></trkpt><trkpt lat="43.842445" lon="13.013605"><ele>16.5</ele><time>2026-04-12T15:00:59.226Z</time></trkpt><trkpt lat="43.8424033" lon="13.0135383"><ele>16.333333333333332</ele><time>2026-04-12T15:01:01.226Z</time></trkpt><trkpt lat="43.8423383" lon="13.0134867"><ele>16.166666666666664</ele><time>2026-04-12T15:01:03.225Z</time></trkpt><trkpt lat="43.8422533" lon="13.013435"><ele>16.0</ele><time>2026-04-12T15:01:05.226Z</time></trkpt><trkpt lat="43.84215" lon="13.0133483"><ele>16.0</ele><time>2026-04-12T15:01:07.226Z</time></trkpt><trkpt lat="43.8420983" lon="13.0132933"><ele>15.999999999999998</ele><time>2026-04-12T15:01:08.226Z</time></trkpt><trkpt lat="43.8420483" lon="13.0132333"><ele>16.0</ele><time>2026-04-12T15:01:09.226Z</time></trkpt><trkpt lat="43.8419967" lon="13.0131733"><ele>16.0</ele><time>2026-04-12T15:01:10.226Z</time></trkpt><trkpt lat="43.841945" lon="13.0131117"><ele>15.999999999999998</ele><time>2026-04-12T15:01:11.225Z</time></trkpt><trkpt lat="43.8418883" lon="13.0130483"><ele>16.0</ele><time>2026-04-12T15:01:12.225Z</time></trkpt><trkpt lat="43.8418333" lon="13.012985"><ele>16.0</ele><time>2026-04-12T15:01:13.225Z</time></trkpt><trkpt lat="43.8417767" lon="13.0129167"><ele>16.333333333333332</ele><time>2026-04-12T15:01:14.226Z</time></trkpt><trkpt lat="43.841715" lon="13.0128433"><ele>16.666666666666664</ele><time>2026-04-12T15:01:15.225Z</time></trkpt><trkpt lat="43.8416533" lon="13.01277"><ele>17.0</ele><time>2026-04-12T15:01:16.226Z</time></trkpt><trkpt lat="43.841595" lon="13.0126933"><ele>17.333333333333332</ele><time>2026-04-12T15:01:17.226Z</time></trkpt><trkpt lat="43.8415433" lon="13.0126167"><ele>17.666666666666668</ele><time>2026-04-12T15:01:18.226Z</time></trkpt><trkpt lat="43.8414517" lon="13.0125133"><ele>18.0</ele><time>2026-04-12T15:01:20.226Z</time></trkpt><trkpt lat="43.841385" lon="13.012415"><ele>18.0</ele><time>2026-04-12T15:01:22.225Z</time></trkpt><trkpt lat="43.841335" lon="13.0123133"><ele>18.0</ele><time>2026-04-12T15:01:24.225Z</time></trkpt><trkpt lat="43.8412717" lon="13.0121833"><ele>18.0</ele><time>2026-04-12T15:01:26.226Z</time></trkpt><trkpt lat="43.8412133" lon="13.01211"><ele>18.0</ele><time>2026-04-12T15:01:27.226Z</time></trkpt><trkpt lat="43.84114" lon="13.0120433"><ele>18.0</ele><time>2026-04-12T15:01:28.226Z</time></trkpt><trkpt lat="43.8410617" lon="13.0119717"><ele>18.0</ele><time>2026-04-12T15:01:29.225Z</time></trkpt><trkpt lat="43.8409883" lon="13.0118933"><ele>18.0</ele><time>2026-04-12T15:01:30.226Z</time></trkpt><trkpt lat="43.84091" lon="13.011815"><ele>18.0</ele><time>2026-04-12T15:01:31.225Z</time></trkpt><trkpt lat="43.840835" lon="13.0117317"><ele>18.0</ele><time>2026-04-12T15:01:32.226Z</time></trkpt><trkpt lat="43.8407633" lon="13.011645"><ele>18.0</ele><time>2026-04-12T15:01:33.225Z</time></trkpt><trkpt lat="43.84069" lon="13.0115717"><ele>17.2</ele><time>2026-04-12T15:01:34.226Z</time></trkpt><trkpt lat="43.840615" lon="13.0114933"><ele>16.4</ele><time>2026-04-12T15:01:35.226Z</time></trkpt><trkpt lat="43.84055" lon="13.0114067"><ele>15.599999999999998</ele><time>2026-04-12T15:01:36.226Z</time></trkpt><trkpt lat="43.84048" lon="13.01132"><ele>14.799999999999999</ele><time>2026-04-12T15:01:37.225Z</time></trkpt><trkpt lat="43.8404117" lon="13.01122"><ele>14.0</ele><time>2026-04-12T15:01:38.226Z</time></trkpt><trkpt lat="43.8403467" lon="13.0111217"><ele>14.0</ele><time>2026-04-12T15:01:39.226Z</time></trkpt><trkpt lat="43.8402767" lon="13.0110333"><ele>13.999999999999998</ele><time>2026-04-12T15:01:40.226Z</time></trkpt><trkpt lat="43.840205" lon="13.0109533"><ele>13.999999999999998</ele><time>2026-04-12T15:01:41.226Z</time></trkpt><trkpt lat="43.840135" lon="13.01087"><ele>14.0</ele><time>2026-04-12T15:01:42.226Z</time></trkpt><trkpt lat="43.8400567" lon="13.0107967"><ele>14.0</ele><time>2026-04-12T15:01:43.226Z</time></trkpt><trkpt lat="43.83998" lon="13.010705"><ele>14.2</ele><time>2026-04-12T15:01:44.226Z</time></trkpt><trkpt lat="43.8399033" lon="13.0106133"><ele>14.399999999999999</ele><time>2026-04-12T15:01:45.225Z</time></trkpt><trkpt lat="43.8398267" lon="13.0105133"><ele>14.6</ele><time>2026-04-12T15:01:46.225Z</time></trkpt><trkpt lat="43.8397417" lon="13.0104267"><ele>14.8</ele><time>2026-04-12T15:01:47.226Z</time></trkpt><trkpt lat="43.8396667" lon="13.010335"><ele>15.0</ele><time>2026-04-12T15:01:48.225Z</time></trkpt><trkpt lat="43.8395917" lon="13.0102383"><ele>15.0</ele><time>2026-04-12T15:01:49.226Z</time></trkpt><trkpt lat="43.8395183" lon="13.0101483"><ele>15.0</ele><time>2026-04-12T15:01:50.226Z</time></trkpt><trkpt lat="43.8394483" lon="13.0100567"><ele>15.0</ele><time>2026-04-12T15:01:51.226Z</time></trkpt><trkpt lat="43.8393783" lon="13.0099667"><ele>15.0</ele><time>2026-04-12T15:01:52.225Z</time></trkpt><trkpt lat="43.8393067" lon="13.0098833"><ele>15.0</ele><time>2026-04-12T15:01:53.226Z</time></trkpt><trkpt lat="43.8392367" lon="13.0098017"><ele>15.2</ele><time>2026-04-12T15:01:54.226Z</time></trkpt><trkpt lat="43.8391683" lon="13.009715"><ele>15.4</ele><time>2026-04-12T15:01:55.225Z</time></trkpt><trkpt lat="43.83911" lon="13.009625"><ele>15.600000000000001</ele><time>2026-04-12T15:01:56.226Z</time></trkpt><trkpt lat="43.83905" lon="13.009535"><ele>15.8</ele><time>2026-04-12T15:01:57.226Z</time></trkpt><trkpt lat="43.8389817" lon="13.009455"><ele>16.0</ele><time>2026-04-12T15:01:58.226Z</time></trkpt><trkpt lat="43.83891" lon="13.0093667"><ele>16.0</ele><time>2026-04-12T15:01:59.226Z</time></trkpt><trkpt lat="43.8388333" lon="13.0092833"><ele>16.0</ele><time>2026-04-12T15:02:00.226Z</time></trkpt><trkpt lat="43.8387567" lon="13.0091817"><ele>16.0</ele><time>2026-04-12T15:02:01.226Z</time></trkpt><trkpt lat="43.8386717" lon="13.0090833"><ele>16.0</ele><time>2026-04-12T15:02:02.226Z</time></trkpt><trkpt lat="43.8385833" lon="13.0089817"><ele>16.0</ele><time>2026-04-12T15:02:03.226Z</time></trkpt><trkpt lat="43.838495" lon="13.0088683"><ele>16.75</ele><time>2026-04-12T15:02:04.225Z</time></trkpt><trkpt lat="43.8383983" lon="13.00875"><ele>17.5</ele><time>2026-04-12T15:02:05.225Z</time></trkpt><trkpt lat="43.838305" lon="13.0086383"><ele>18.25</ele><time>2026-04-12T15:02:06.226Z</time></trkpt><trkpt lat="43.83821" lon="13.0085217"><ele>19.0</ele><time>2026-04-12T15:02:07.226Z</time></trkpt><trkpt lat="43.8381067" lon="13.0084233"><ele>18.75</ele><time>2026-04-12T15:02:08.226Z</time></trkpt><trkpt lat="43.8380033" lon="13.0083033"><ele>18.5</ele><time>2026-04-12T15:02:09.226Z</time></trkpt><trkpt lat="43.8379" lon="13.00819"><ele>18.25</ele><time>2026-04-12T15:02:10.226Z</time></trkpt><trkpt lat="43.8377983" lon="13.0080733"><ele>18.0</ele><time>2026-04-12T15:02:11.226Z</time></trkpt><trkpt lat="43.8377017" lon="13.00795"><ele>18.25</ele><time>2026-04-12T15:02:12.226Z</time></trkpt><trkpt lat="43.8376067" lon="13.0078333"><ele>18.5</ele><time>2026-04-12T15:02:13.226Z</time></trkpt><trkpt lat="43.83752" lon="13.0077317"><ele>18.75</ele><time>2026-04-12T15:02:14.226Z</time></trkpt><trkpt lat="43.83744" lon="13.007635"><ele>19.0</ele><time>2026-04-12T15:02:15.226Z</time></trkpt><trkpt lat="43.83736" lon="13.0075417"><ele>18.833333333333332</ele><time>2026-04-12T15:02:16.226Z</time></trkpt><trkpt lat="43.837295" lon="13.0074583"><ele>18.666666666666664</ele><time>2026-04-12T15:02:17.226Z</time></trkpt><trkpt lat="43.8372383" lon="13.0073867"><ele>18.5</ele><time>2026-04-12T15:02:18.226Z</time></trkpt><trkpt lat="43.8371883" lon="13.007325"><ele>18.333333333333332</ele><time>2026-04-12T15:02:19.226Z</time></trkpt><trkpt lat="43.83712" lon="13.0072233"><ele>18.166666666666668</ele><time>2026-04-12T15:02:21.225Z</time></trkpt><trkpt lat="43.83706" lon="13.00714"><ele>18.0</ele><time>2026-04-12T15:02:24.226Z</time></trkpt><trkpt lat="43.8369983" lon="13.0070483"><ele>18.0</ele><time>2026-04-12T15:02:27.225Z</time></trkpt><trkpt lat="43.8369433" lon="13.006975"><ele>18.0</ele><time>2026-04-12T15:02:30.226Z</time></trkpt><trkpt lat="43.836905" lon="13.0068867"><ele>18.0</ele><time>2026-04-12T15:02:32.225Z</time></trkpt><trkpt lat="43.8368767" lon="13.006745"><ele>18.0</ele><time>2026-04-12T15:02:34.225Z</time></trkpt><trkpt lat="43.8368417" lon="13.0066017"><ele>18.0</ele><time>2026-04-12T15:02:36.226Z</time></trkpt><trkpt lat="43.8367583" lon="13.0065083"><ele>17.8</ele><time>2026-04-12T15:02:38.226Z</time></trkpt><trkpt lat="43.8366433" lon="13.0065017"><ele>17.6</ele><time>2026-04-12T15:02:40.226Z</time></trkpt><trkpt lat="43.8365633" lon="13.0065817"><ele>17.4</ele><time>2026-04-12T15:02:42.226Z</time></trkpt><trkpt lat="43.8365183" lon="13.006735"><ele>17.2</ele><time>2026-04-12T15:02:44.225Z</time></trkpt><trkpt lat="43.83651" lon="13.0068283"><ele>17.0</ele><time>2026-04-12T15:02:45.226Z</time></trkpt><trkpt lat="43.8364967" lon="13.006925"><ele>17.0</ele><time>2026-04-12T15:02:46.226Z</time></trkpt><trkpt lat="43.8364767" lon="13.0070183"><ele>17.0</ele><time>2026-04-12T15:02:47.225Z</time></trkpt><trkpt lat="43.8364433" lon="13.00712"><ele>17.0</ele><time>2026-04-12T15:02:48.226Z</time></trkpt><trkpt lat="43.8364017" lon="13.0072117"><ele>17.0</ele><time>2026-04-12T15:02:49.226Z</time></trkpt><trkpt lat="43.83635" lon="13.0073033"><ele>17.0</ele><time>2026-04-12T15:02:50.226Z</time></trkpt><trkpt lat="43.836295" lon="13.0074"><ele>17.0</ele><time>2026-04-12T15:02:51.225Z</time></trkpt><trkpt lat="43.836235" lon="13.0075117"><ele>17.0</ele><time>2026-04-12T15:02:52.226Z</time></trkpt><trkpt lat="43.8361667" lon="13.0076167"><ele>17.0</ele><time>2026-04-12T15:02:53.225Z</time></trkpt><trkpt lat="43.836105" lon="13.0077367"><ele>17.0</ele><time>2026-04-12T15:02:54.225Z</time></trkpt><trkpt lat="43.8360467" lon="13.0078517"><ele>17.0</ele><time>2026-04-12T15:02:55.226Z</time></trkpt><trkpt lat="43.835985" lon="13.0079617"><ele>17.0</ele><time>2026-04-12T15:02:56.226Z</time></trkpt><trkpt lat="43.8359267" lon="13.0080717"><ele>17.0</ele><time>2026-04-12T15:02:57.226Z</time></trkpt><trkpt lat="43.8358683" lon="13.0081733"><ele>17.0</ele><time>2026-04-12T15:02:58.225Z</time></trkpt><trkpt lat="43.8358117" lon="13.008275"><ele>17.0</ele><time>2026-04-12T15:02:59.226Z</time></trkpt><trkpt lat="43.835755" lon="13.0083883"><ele>17.0</ele><time>2026-04-12T15:03:00.225Z</time></trkpt><trkpt lat="43.8356983" lon="13.0085067"><ele>17.0</ele><time>2026-04-12T15:03:01.226Z</time></trkpt><trkpt lat="43.83564" lon="13.008635"><ele>17.0</ele><time>2026-04-12T15:03:02.226Z</time></trkpt><trkpt lat="43.8355817" lon="13.0087633"><ele>17.0</ele><time>2026-04-12T15:03:03.225Z</time></trkpt><trkpt lat="43.835525" lon="13.0088917"><ele>17.0</ele><time>2026-04-12T15:03:04.225Z</time></trkpt><trkpt lat="43.83547" lon="13.0090183"><ele>17.0</ele><time>2026-04-12T15:03:05.225Z</time></trkpt><trkpt lat="43.83541" lon="13.009135"><ele>17.0</ele><time>2026-04-12T15:03:06.226Z</time></trkpt><trkpt lat="43.8353533" lon="13.0092433"><ele>17.166666666666668</ele><time>2026-04-12T15:03:07.225Z</time></trkpt><trkpt lat="43.8353033" lon="13.009355"><ele>17.333333333333336</ele><time>2026-04-12T15:03:08.226Z</time></trkpt><trkpt lat="43.8352567" lon="13.009465"><ele>17.5</ele><time>2026-04-12T15:03:09.225Z</time></trkpt><trkpt lat="43.835205" lon="13.0095617"><ele>17.666666666666668</ele><time>2026-04-12T15:03:10.226Z</time></trkpt><trkpt lat="43.8351467" lon="13.00965"><ele>17.833333333333332</ele><time>2026-04-12T15:03:11.226Z</time></trkpt><trkpt lat="43.835075" lon="13.009705"><ele>18.0</ele><time>2026-04-12T15:03:12.226Z</time></trkpt><trkpt lat="43.835005" lon="13.00976"><ele>17.666666666666668</ele><time>2026-04-12T15:03:13.226Z</time></trkpt><trkpt lat="43.834955" lon="13.0098317"><ele>17.333333333333332</ele><time>2026-04-12T15:03:14.226Z</time></trkpt><trkpt lat="43.8349167" lon="13.0099217"><ele>17.0</ele><time>2026-04-12T15:03:15.226Z</time></trkpt><trkpt lat="43.8348917" lon="13.01002"><ele>16.666666666666664</ele><time>2026-04-12T15:03:16.225Z</time></trkpt><trkpt lat="43.834875" lon="13.010125"><ele>16.333333333333332</ele><time>2026-04-12T15:03:17.225Z</time></trkpt><trkpt lat="43.8348517" lon="13.01023"><ele>16.0</ele><time>2026-04-12T15:03:18.226Z</time></trkpt><trkpt lat="43.8348167" lon="13.010335"><ele>15.8</ele><time>2026-04-12T15:03:19.225Z</time></trkpt><trkpt lat="43.8347717" lon="13.0104433"><ele>15.600000000000001</ele><time>2026-04-12T15:03:20.226Z</time></trkpt><trkpt lat="43.8347167" lon="13.0105533"><ele>15.4</ele><time>2026-04-12T15:03:21.226Z</time></trkpt><trkpt lat="43.8346617" lon="13.0106667"><ele>15.2</ele><time>2026-04-12T15:03:22.226Z</time></trkpt><trkpt lat="43.8346083" lon="13.0107783"><ele>15.0</ele><time>2026-04-12T15:03:23.226Z</time></trkpt><trkpt lat="43.83455" lon="13.0108867"><ele>15.0</ele><time>2026-04-12T15:03:24.226Z</time></trkpt><trkpt lat="43.8345" lon="13.0109983"><ele>15.0</ele><time>2026-04-12T15:03:25.225Z</time></trkpt><trkpt lat="43.83445" lon="13.0111117"><ele>15.0</ele><time>2026-04-12T15:03:26.226Z</time></trkpt><trkpt lat="43.834395" lon="13.0112183"><ele>15.0</ele><time>2026-04-12T15:03:27.225Z</time></trkpt><trkpt lat="43.8343433" lon="13.01132"><ele>15.0</ele><time>2026-04-12T15:03:28.225Z</time></trkpt><trkpt lat="43.8342883" lon="13.01142"><ele>14.8</ele><time>2026-04-12T15:03:29.226Z</time></trkpt><trkpt lat="43.8342267" lon="13.011515"><ele>14.6</ele><time>2026-04-12T15:03:30.225Z</time></trkpt><trkpt lat="43.8341633" lon="13.0116083"><ele>14.399999999999999</ele><time>2026-04-12T15:03:31.225Z</time></trkpt><trkpt lat="43.8340983" lon="13.0116883"><ele>14.2</ele><time>2026-04-12T15:03:32.225Z</time></trkpt><trkpt lat="43.8340267" lon="13.0117617"><ele>14.0</ele><time>2026-04-12T15:03:33.226Z</time></trkpt><trkpt lat="43.8339467" lon="13.0118283"><ele>13.799999999999999</ele><time>2026-04-12T15:03:34.226Z</time></trkpt><trkpt lat="43.83386" lon="13.0118733"><ele>13.599999999999998</ele><time>2026-04-12T15:03:35.226Z</time></trkpt><trkpt lat="43.833775" lon="13.011905"><ele>13.4</ele><time>2026-04-12T15:03:36.225Z</time></trkpt><trkpt lat="43.8336833" lon="13.0119317"><ele>13.2</ele><time>2026-04-12T15:03:37.226Z</time></trkpt><trkpt lat="43.83359" lon="13.0119483"><ele>13.0</ele><time>2026-04-12T15:03:38.226Z</time></trkpt><trkpt lat="43.833495" lon="13.011965"><ele>13.4</ele><time>2026-04-12T15:03:39.226Z</time></trkpt><trkpt lat="43.8334017" lon="13.0119683"><ele>13.8</ele><time>2026-04-12T15:03:40.226Z</time></trkpt><trkpt lat="43.8333017" lon="13.0119783"><ele>14.2</ele><time>2026-04-12T15:03:41.225Z</time></trkpt><trkpt lat="43.833195" lon="13.0119833"><ele>14.6</ele><time>2026-04-12T15:03:42.226Z</time></trkpt><trkpt lat="43.8330867" lon="13.0119833"><ele>15.0</ele><time>2026-04-12T15:03:43.225Z</time></trkpt><trkpt lat="43.8329733" lon="13.01199"><ele>15.0</ele><time>2026-04-12T15:03:44.226Z</time></trkpt><trkpt lat="43.8328633" lon="13.012"><ele>15.0</ele><time>2026-04-12T15:03:45.225Z</time></trkpt><trkpt lat="43.83276" lon="13.0120167"><ele>15.0</ele><time>2026-04-12T15:03:46.226Z</time></trkpt><trkpt lat="43.8326567" lon="13.0120467"><ele>15.0</ele><time>2026-04-12T15:03:47.226Z</time></trkpt><trkpt lat="43.83256" lon="13.0120883"><ele>15.0</ele><time>2026-04-12T15:03:48.226Z</time></trkpt><trkpt lat="43.8324717" lon="13.0121417"><ele>15.0</ele><time>2026-04-12T15:03:49.226Z</time></trkpt><trkpt lat="43.8323967" lon="13.01221"><ele>15.0</ele><time>2026-04-12T15:03:50.225Z</time></trkpt><trkpt lat="43.8323233" lon="13.0122817"><ele>15.0</ele><time>2026-04-12T15:03:51.226Z</time></trkpt><trkpt lat="43.832255" lon="13.012355"><ele>15.0</ele><time>2026-04-12T15:03:52.226Z</time></trkpt><trkpt lat="43.832195" lon="13.0124333"><ele>15.0</ele><time>2026-04-12T15:03:53.226Z</time></trkpt><trkpt lat="43.8321417" lon="13.012515"><ele>15.0</ele><time>2026-04-12T15:03:54.226Z</time></trkpt><trkpt lat="43.8320917" lon="13.0126017"><ele>14.666666666666666</ele><time>2026-04-12T15:03:55.226Z</time></trkpt><trkpt lat="43.8320517" lon="13.0126917"><ele>14.333333333333332</ele><time>2026-04-12T15:03:56.225Z</time></trkpt><trkpt lat="43.832005" lon="13.01279"><ele>14.0</ele><time>2026-04-12T15:03:58.226Z</time></trkpt><trkpt lat="43.8319617" lon="13.0128667"><ele>13.666666666666666</ele><time>2026-04-12T15:04:03.225Z</time></trkpt><trkpt lat="43.8319033" lon="13.0129817"><ele>13.333333333333332</ele><time>2026-04-12T15:04:30.225Z</time></trkpt><trkpt lat="43.8318667" lon="13.0130717"><ele>13.0</ele><time>2026-04-12T15:04:35.226Z</time></trkpt><trkpt lat="43.831815" lon="13.0131533"><ele>13.499999999999998</ele><time>2026-04-12T15:04:40.225Z</time></trkpt><trkpt lat="43.83176" lon="13.0132167"><ele>14.0</ele><time>2026-04-12T15:04:46.225Z</time></trkpt><trkpt lat="43.831695" lon="13.0132433"><ele>14.5</ele><time>2026-04-12T15:04:48.226Z</time></trkpt><trkpt lat="43.83157" lon="13.0132833"><ele>15.0</ele><time>2026-04-12T15:04:50.226Z</time></trkpt><trkpt lat="43.8314983" lon="13.0133217"><ele>15.499999999999998</ele><time>2026-04-12T15:04:51.226Z</time></trkpt><trkpt lat="43.83143" lon="13.0133867"><ele>16.0</ele><time>2026-04-12T15:04:52.225Z</time></trkpt><trkpt lat="43.83136" lon="13.0134817"><ele>16.0</ele><time>2026-04-12T15:04:53.225Z</time></trkpt><trkpt lat="43.8312867" lon="13.0135917"><ele>16.0</ele><time>2026-04-12T15:04:54.226Z</time></trkpt><trkpt lat="43.8311983" lon="13.0137067"><ele>16.0</ele><time>2026-04-12T15:04:55.226Z</time></trkpt><trkpt lat="43.8311033" lon="13.013805"><ele>16.0</ele><time>2026-04-12T15:04:56.226Z</time></trkpt><trkpt lat="43.8309917" lon="13.0138917"><ele>16.0</ele><time>2026-04-12T15:04:57.226Z</time></trkpt><trkpt lat="43.8308733" lon="13.013965"><ele>16.0</ele><time>2026-04-12T15:04:58.225Z</time></trkpt><trkpt lat="43.8307433" lon="13.0140217"><ele>16.0</ele><time>2026-04-12T15:04:59.225Z</time></trkpt><trkpt lat="43.83061" lon="13.01407"><ele>16.0</ele><time>2026-04-12T15:05:00.226Z</time></trkpt><trkpt lat="43.8304683" lon="13.0141133"><ele>16.0</ele><time>2026-04-12T15:05:01.226Z</time></trkpt><trkpt lat="43.8303133" lon="13.0141517"><ele>16.0</ele><time>2026-04-12T15:05:02.225Z</time></trkpt><trkpt lat="43.8301517" lon="13.0141833"><ele>16.0</ele><time>2026-04-12T15:05:03.226Z</time></trkpt><trkpt lat="43.82998" lon="13.0142083"><ele>15.0</ele><time>2026-04-12T15:05:04.226Z</time></trkpt><trkpt lat="43.8298" lon="13.01424"><ele>14.0</ele><time>2026-04-12T15:05:05.225Z</time></trkpt><trkpt lat="43.8296133" lon="13.0142833"><ele>13.0</ele><time>2026-04-12T15:05:06.226Z</time></trkpt><trkpt lat="43.8294183" lon="13.0143183"><ele>13.666666666666666</ele><time>2026-04-12T15:05:07.226Z</time></trkpt><trkpt lat="43.8292183" lon="13.0143567"><ele>14.333333333333332</ele><time>2026-04-12T15:05:08.226Z</time></trkpt><trkpt lat="43.8290133" lon="13.0144033"><ele>15.0</ele><time>2026-04-12T15:05:09.226Z</time></trkpt><trkpt lat="43.8288133" lon="13.0144417"><ele>15.0</ele><time>2026-04-12T15:05:10.226Z</time></trkpt><trkpt lat="43.828615" lon="13.0144817"><ele>15.0</ele><time>2026-04-12T15:05:11.225Z</time></trkpt><trkpt lat="43.828415" lon="13.01451"><ele>15.0</ele><time>2026-04-12T15:05:12.226Z</time></trkpt><trkpt lat="43.82822" lon="13.0145417"><ele>15.333333333333332</ele><time>2026-04-12T15:05:13.226Z</time></trkpt><trkpt lat="43.8280267" lon="13.01457"><ele>15.666666666666666</ele><time>2026-04-12T15:05:14.225Z</time></trkpt><trkpt lat="43.8278267" lon="13.0145967"><ele>16.0</ele><time>2026-04-12T15:05:15.225Z</time></trkpt><trkpt lat="43.827625" lon="13.0146267"><ele>16.0</ele><time>2026-04-12T15:05:16.226Z</time></trkpt><trkpt lat="43.82743" lon="13.0146633"><ele>16.0</ele><time>2026-04-12T15:05:17.225Z</time></trkpt><trkpt lat="43.8272317" lon="13.0146983"><ele>16.0</ele><time>2026-04-12T15:05:18.225Z</time></trkpt><trkpt lat="43.8270383" lon="13.0147383"><ele>16.0</ele><time>2026-04-12T15:05:19.225Z</time></trkpt><trkpt lat="43.8268467" lon="13.0147717"><ele>16.0</ele><time>2026-04-12T15:05:20.226Z</time></trkpt><trkpt lat="43.82666" lon="13.0148067"><ele>16.0</ele><time>2026-04-12T15:05:21.226Z</time></trkpt><trkpt lat="43.8264783" lon="13.0148417"><ele>16.666666666666664</ele><time>2026-04-12T15:05:22.225Z</time></trkpt><trkpt lat="43.8263" lon="13.01487"><ele>17.333333333333332</ele><time>2026-04-12T15:05:23.226Z</time></trkpt><trkpt lat="43.8261233" lon="13.0149"><ele>18.0</ele><time>2026-04-12T15:05:24.226Z</time></trkpt><trkpt lat="43.8259567" lon="13.0149233"><ele>19.0</ele><time>2026-04-12T15:05:25.226Z</time></trkpt><trkpt lat="43.8257867" lon="13.0149417"><ele>20.0</ele><time>2026-04-12T15:05:26.226Z</time></trkpt><trkpt lat="43.82562" lon="13.0149583"><ele>21.0</ele><time>2026-04-12T15:05:27.226Z</time></trkpt><trkpt lat="43.825455" lon="13.01496"><ele>21.0</ele><time>2026-04-12T15:05:28.226Z</time></trkpt><trkpt lat="43.8252917" lon="13.0149517"><ele>21.0</ele><time>2026-04-12T15:05:29.225Z</time></trkpt><trkpt lat="43.8251233" lon="13.0149283"><ele>21.0</ele><time>2026-04-12T15:05:30.226Z</time></trkpt><trkpt lat="43.82495" lon="13.0148867"><ele>20.666666666666668</ele><time>2026-04-12T15:05:31.226Z</time></trkpt><trkpt lat="43.824775" lon="13.0148333"><ele>20.333333333333336</ele><time>2026-04-12T15:05:32.226Z</time></trkpt><trkpt lat="43.8245983" lon="13.0147767"><ele>20.0</ele><time>2026-04-12T15:05:33.226Z</time></trkpt><trkpt lat="43.824415" lon="13.0147233"><ele>20.0</ele><time>2026-04-12T15:05:34.226Z</time></trkpt><trkpt lat="43.8242317" lon="13.014665"><ele>20.0</ele><time>2026-04-12T15:05:35.226Z</time></trkpt><trkpt lat="43.8240567" lon="13.0145983"><ele>20.0</ele><time>2026-04-12T15:05:36.225Z</time></trkpt><trkpt lat="43.8238783" lon="13.0145067"><ele>20.0</ele><time>2026-04-12T15:05:37.225Z</time></trkpt><trkpt lat="43.8237167" lon="13.0143783"><ele>20.0</ele><time>2026-04-12T15:05:38.226Z</time></trkpt><trkpt lat="43.8235833" lon="13.0142217"><ele>20.0</ele><time>2026-04-12T15:05:39.226Z</time></trkpt><trkpt lat="43.82346" lon="13.0140383"><ele>20.0</ele><time>2026-04-12T15:05:40.226Z</time></trkpt><trkpt lat="43.8233467" lon="13.0138617"><ele>20.0</ele><time>2026-04-12T15:05:41.225Z</time></trkpt><trkpt lat="43.8232383" lon="13.0136983"><ele>20.0</ele><time>2026-04-12T15:05:42.226Z</time></trkpt><trkpt lat="43.8231117" lon="13.0135617"><ele>20.0</ele><time>2026-04-12T15:05:43.226Z</time></trkpt><trkpt lat="43.8229717" lon="13.01345"><ele>20.0</ele><time>2026-04-12T15:05:44.226Z</time></trkpt><trkpt lat="43.82282" lon="13.013375"><ele>20.0</ele><time>2026-04-12T15:05:45.226Z</time></trkpt><trkpt lat="43.8226667" lon="13.0133267"><ele>19.666666666666668</ele><time>2026-04-12T15:05:46.226Z</time></trkpt><trkpt lat="43.8225167" lon="13.0133117"><ele>19.333333333333332</ele><time>2026-04-12T15:05:47.226Z</time></trkpt><trkpt lat="43.822365" lon="13.0133433"><ele>19.0</ele><time>2026-04-12T15:05:48.225Z</time></trkpt><trkpt lat="43.8222167" lon="13.01343"><ele>19.0</ele><time>2026-04-12T15:05:49.225Z</time></trkpt><trkpt lat="43.8220717" lon="13.0135417"><ele>19.0</ele><time>2026-04-12T15:05:50.225Z</time></trkpt><trkpt lat="43.8219283" lon="13.0136667"><ele>19.0</ele><time>2026-04-12T15:05:51.225Z</time></trkpt><trkpt lat="43.8217883" lon="13.0137883"><ele>19.0</ele><time>2026-04-12T15:05:52.226Z</time></trkpt><trkpt lat="43.82164" lon="13.0139083"><ele>19.0</ele><time>2026-04-12T15:05:53.226Z</time></trkpt><trkpt lat="43.821485" lon="13.0140067"><ele>19.0</ele><time>2026-04-12T15:05:54.226Z</time></trkpt><trkpt lat="43.8213333" lon="13.0140767"><ele>19.0</ele><time>2026-04-12T15:05:55.225Z</time></trkpt><trkpt lat="43.8211867" lon="13.0141167"><ele>19.0</ele><time>2026-04-12T15:05:56.226Z</time></trkpt><trkpt lat="43.8210517" lon="13.01413"><ele>19.0</ele><time>2026-04-12T15:05:57.226Z</time></trkpt><trkpt lat="43.82093" lon="13.0141167"><ele>19.0</ele><time>2026-04-12T15:05:58.226Z</time></trkpt><trkpt lat="43.8208317" lon="13.014095"><ele>18.857142857142858</ele><time>2026-04-12T15:05:59.225Z</time></trkpt><trkpt lat="43.8207633" lon="13.0140617"><ele>18.714285714285715</ele><time>2026-04-12T15:06:00.226Z</time></trkpt><trkpt lat="43.8207017" lon="13.01402"><ele>18.571428571428573</ele><time>2026-04-12T15:06:01.225Z</time></trkpt><trkpt lat="43.82064" lon="13.0139783"><ele>18.42857142857143</ele><time>2026-04-12T15:06:02.226Z</time></trkpt><trkpt lat="43.82057" lon="13.0139467"><ele>18.285714285714285</ele><time>2026-04-12T15:06:03.225Z</time></trkpt><trkpt lat="43.8205017" lon="13.013935"><ele>18.142857142857146</ele><time>2026-04-12T15:06:04.226Z</time></trkpt><trkpt lat="43.82044" lon="13.0139683"><ele>18.0</ele><time>2026-04-12T15:06:05.226Z</time></trkpt><trkpt lat="43.820395" lon="13.014045"><ele>18.000000000000004</ele><time>2026-04-12T15:06:06.225Z</time></trkpt><trkpt lat="43.8203767" lon="13.0141367"><ele>18.0</ele><time>2026-04-12T15:06:07.225Z</time></trkpt><trkpt lat="43.8203883" lon="13.0142317"><ele>18.0</ele><time>2026-04-12T15:06:08.226Z</time></trkpt><trkpt lat="43.8204233" lon="13.014315"><ele>18.0</ele><time>2026-04-12T15:06:09.226Z</time></trkpt><trkpt lat="43.820465" lon="13.0143983"><ele>18.0</ele><time>2026-04-12T15:06:10.226Z</time></trkpt><trkpt lat="43.820495" lon="13.014485"><ele>18.000000000000004</ele><time>2026-04-12T15:06:11.226Z</time></trkpt><trkpt lat="43.8204983" lon="13.01458"><ele>18.0</ele><time>2026-04-12T15:06:12.225Z</time></trkpt><trkpt lat="43.82048" lon="13.0146917"><ele>18.0</ele><time>2026-04-12T15:06:13.225Z</time></trkpt><trkpt lat="43.8204367" lon="13.0148217"><ele>18.0</ele><time>2026-04-12T15:06:14.225Z</time></trkpt><trkpt lat="43.82037" lon="13.0149567"><ele>18.0</ele><time>2026-04-12T15:06:15.226Z</time></trkpt><trkpt lat="43.8202883" lon="13.01508"><ele>18.0</ele><time>2026-04-12T15:06:16.225Z</time></trkpt><trkpt lat="43.8201867" lon="13.0151883"><ele>17.5</ele><time>2026-04-12T15:06:17.226Z</time></trkpt><trkpt lat="43.8200633" lon="13.0152933"><ele>17.0</ele><time>2026-04-12T15:06:18.225Z</time></trkpt><trkpt lat="43.81993" lon="13.01539"><ele>16.5</ele><time>2026-04-12T15:06:19.225Z</time></trkpt><trkpt lat="43.8197933" lon="13.0154883"><ele>16.0</ele><time>2026-04-12T15:06:20.225Z</time></trkpt><trkpt lat="43.819645" lon="13.0155917"><ele>16.0</ele><time>2026-04-12T15:06:21.226Z</time></trkpt><trkpt lat="43.8194883" lon="13.015705"><ele>16.0</ele><time>2026-04-12T15:06:22.226Z</time></trkpt><trkpt lat="43.8193333" lon="13.01583"><ele>16.0</ele><time>2026-04-12T15:06:23.226Z</time></trkpt><trkpt lat="43.8191783" lon="13.0159333"><ele>16.0</ele><time>2026-04-12T15:06:24.226Z</time></trkpt><trkpt lat="43.8190167" lon="13.0160133"><ele>16.0</ele><time>2026-04-12T15:06:25.225Z</time></trkpt><trkpt lat="43.8188617" lon="13.016075"><ele>16.0</ele><time>2026-04-12T15:06:26.226Z</time></trkpt><trkpt lat="43.818715" lon="13.0161083"><ele>16.0</ele><time>2026-04-12T15:06:27.225Z</time></trkpt><trkpt lat="43.81856" lon="13.0161083"><ele>16.0</ele><time>2026-04-12T15:06:28.225Z</time></trkpt><trkpt lat="43.8184083" lon="13.01607"><ele>16.0</ele><time>2026-04-12T15:06:29.226Z</time></trkpt><trkpt lat="43.818265" lon="13.0160017"><ele>16.5</ele><time>2026-04-12T15:06:30.226Z</time></trkpt><trkpt lat="43.818135" lon="13.015915"><ele>17.0</ele><time>2026-04-12T15:06:31.225Z</time></trkpt><trkpt lat="43.8180267" lon="13.0158"><ele>17.5</ele><time>2026-04-12T15:06:32.226Z</time></trkpt><trkpt lat="43.81794" lon="13.0156917"><ele>18.0</ele><time>2026-04-12T15:06:33.225Z</time></trkpt><trkpt lat="43.817865" lon="13.0155867"><ele>18.0</ele><time>2026-04-12T15:06:34.226Z</time></trkpt><trkpt lat="43.8178067" lon="13.015485"><ele>18.0</ele><time>2026-04-12T15:06:35.226Z</time></trkpt><trkpt lat="43.817765" lon="13.0153767"><ele>18.0</ele><time>2026-04-12T15:06:36.226Z</time></trkpt><trkpt lat="43.8177333" lon="13.0152767"><ele>18.0</ele><time>2026-04-12T15:06:37.226Z</time></trkpt><trkpt lat="43.8177083" lon="13.0151883"><ele>18.0</ele><time>2026-04-12T15:06:38.226Z</time></trkpt><trkpt lat="43.817685" lon="13.0150933"><ele>18.0</ele><time>2026-04-12T15:06:39.226Z</time></trkpt><trkpt lat="43.8176633" lon="13.0150033"><ele>18.4</ele><time>2026-04-12T15:06:40.226Z</time></trkpt><trkpt lat="43.8176383" lon="13.01492"><ele>18.8</ele><time>2026-04-12T15:06:41.226Z</time></trkpt><trkpt lat="43.8175683" lon="13.01479"><ele>19.2</ele><time>2026-04-12T15:06:43.225Z</time></trkpt><trkpt lat="43.8174783" lon="13.01467"><ele>19.6</ele><time>2026-04-12T15:06:45.224Z</time></trkpt><trkpt lat="43.8174033" lon="13.0145733"><ele>20.0</ele><time>2026-04-12T15:06:47.225Z</time></trkpt><trkpt lat="43.8173467" lon="13.0145067"><ele>20.0</ele><time>2026-04-12T15:06:49.225Z</time></trkpt><trkpt lat="43.8172933" lon="13.0144483"><ele>20.0</ele><time>2026-04-12T15:06:51.224Z</time></trkpt><trkpt lat="43.81722" lon="13.0143483"><ele>20.0</ele><time>2026-04-12T15:07:00.225Z</time></trkpt><trkpt lat="43.81714" lon="13.0142733"><ele>20.0</ele><time>2026-04-12T15:07:02.225Z</time></trkpt><trkpt lat="43.8170767" lon="13.01422"><ele>20.0</ele><time>2026-04-12T15:07:03.225Z</time></trkpt><trkpt lat="43.817005" lon="13.0141817"><ele>20.0</ele><time>2026-04-12T15:07:04.224Z</time></trkpt><trkpt lat="43.8169333" lon="13.0141467"><ele>20.0</ele><time>2026-04-12T15:07:05.224Z</time></trkpt><trkpt lat="43.81686" lon="13.0141117"><ele>20.0</ele><time>2026-04-12T15:07:06.225Z</time></trkpt><trkpt lat="43.816785" lon="13.01408"><ele>20.0</ele><time>2026-04-12T15:07:07.225Z</time></trkpt><trkpt lat="43.8166967" lon="13.0140367"><ele>20.0</ele><time>2026-04-12T15:07:08.225Z</time></trkpt><trkpt lat="43.81663" lon="13.0139833"><ele>20.0</ele><time>2026-04-12T15:07:09.225Z</time></trkpt><trkpt lat="43.8165567" lon="13.01392"><ele>20.0</ele><time>2026-04-12T15:07:10.224Z</time></trkpt><trkpt lat="43.81648" lon="13.0138483"><ele>20.0</ele><time>2026-04-12T15:07:11.225Z</time></trkpt><trkpt lat="43.8164017" lon="13.0137633"><ele>20.0</ele><time>2026-04-12T15:07:12.225Z</time></trkpt><trkpt lat="43.81632" lon="13.0136683"><ele>20.0</ele><time>2026-04-12T15:07:13.225Z</time></trkpt><trkpt lat="43.8162417" lon="13.0135733"><ele>20.0</ele><time>2026-04-12T15:07:14.225Z</time></trkpt><trkpt lat="43.81616" lon="13.0134817"><ele>20.0</ele><time>2026-04-12T15:07:15.225Z</time></trkpt><trkpt lat="43.8160767" lon="13.0133917"><ele>19.8</ele><time>2026-04-12T15:07:16.225Z</time></trkpt><trkpt lat="43.8159867" lon="13.01332"><ele>19.6</ele><time>2026-04-12T15:07:17.225Z</time></trkpt><trkpt lat="43.815905" lon="13.0132667"><ele>19.4</ele><time>2026-04-12T15:07:18.224Z</time></trkpt><trkpt lat="43.81582" lon="13.0132367"><ele>19.2</ele><time>2026-04-12T15:07:19.225Z</time></trkpt><trkpt lat="43.815735" lon="13.0132183"><ele>19.0</ele><time>2026-04-12T15:07:20.224Z</time></trkpt><trkpt lat="43.8156517" lon="13.0132"><ele>19.0</ele><time>2026-04-12T15:07:21.225Z</time></trkpt><trkpt lat="43.81557" lon="13.0131883"><ele>19.0</ele><time>2026-04-12T15:07:22.224Z</time></trkpt><trkpt lat="43.8154833" lon="13.01318"><ele>19.0</ele><time>2026-04-12T15:07:23.225Z</time></trkpt><trkpt lat="43.8154" lon="13.0131717"><ele>19.0</ele><time>2026-04-12T15:07:24.225Z</time></trkpt><trkpt lat="43.815315" lon="13.01316"><ele>19.0</ele><time>2026-04-12T15:07:25.225Z</time></trkpt><trkpt lat="43.8152317" lon="13.0131467"><ele>19.0</ele><time>2026-04-12T15:07:26.225Z</time></trkpt><trkpt lat="43.81515" lon="13.0131333"><ele>19.333333333333332</ele><time>2026-04-12T15:07:27.225Z</time></trkpt><trkpt lat="43.8150733" lon="13.0131183"><ele>19.666666666666664</ele><time>2026-04-12T15:07:28.225Z</time></trkpt><trkpt lat="43.8149933" lon="13.0131067"><ele>20.0</ele><time>2026-04-12T15:07:29.225Z</time></trkpt><trkpt lat="43.814915" lon="13.0130983"><ele>20.333333333333332</ele><time>2026-04-12T15:07:30.224Z</time></trkpt><trkpt lat="43.814835" lon="13.01309"><ele>20.666666666666668</ele><time>2026-04-12T15:07:31.224Z</time></trkpt><trkpt lat="43.8147567" lon="13.0130833"><ele>21.0</ele><time>2026-04-12T15:07:32.225Z</time></trkpt><trkpt lat="43.8146867" lon="13.01307"><ele>21.0</ele><time>2026-04-12T15:07:33.225Z</time></trkpt><trkpt lat="43.8146183" lon="13.0130517"><ele>21.0</ele><time>2026-04-12T15:07:34.225Z</time></trkpt><trkpt lat="43.8145433" lon="13.01302"><ele>21.0</ele><time>2026-04-12T15:07:35.224Z</time></trkpt><trkpt lat="43.8144667" lon="13.01298"><ele>21.0</ele><time>2026-04-12T15:07:36.224Z</time></trkpt><trkpt lat="43.81439" lon="13.0129267"><ele>21.0</ele><time>2026-04-12T15:07:37.224Z</time></trkpt><trkpt lat="43.8143217" lon="13.012855"><ele>21.0</ele><time>2026-04-12T15:07:38.225Z</time></trkpt><trkpt lat="43.8142567" lon="13.012775"><ele>20.833333333333332</ele><time>2026-04-12T15:07:39.225Z</time></trkpt><trkpt lat="43.814205" lon="13.0126783"><ele>20.666666666666668</ele><time>2026-04-12T15:07:40.224Z</time></trkpt><trkpt lat="43.8141617" lon="13.0125717"><ele>20.5</ele><time>2026-04-12T15:07:41.225Z</time></trkpt><trkpt lat="43.8141283" lon="13.0124517"><ele>20.333333333333336</ele><time>2026-04-12T15:07:42.225Z</time></trkpt><trkpt lat="43.8141117" lon="13.0123317"><ele>20.166666666666668</ele><time>2026-04-12T15:07:43.225Z</time></trkpt><trkpt lat="43.814105" lon="13.0122033"><ele>20.0</ele><time>2026-04-12T15:07:44.225Z</time></trkpt><trkpt lat="43.8141117" lon="13.0120733"><ele>20.0</ele><time>2026-04-12T15:07:45.224Z</time></trkpt><trkpt lat="43.814135" lon="13.01195"><ele>20.0</ele><time>2026-04-12T15:07:46.225Z</time></trkpt><trkpt lat="43.8141733" lon="13.01183"><ele>20.0</ele><time>2026-04-12T15:07:47.225Z</time></trkpt><trkpt lat="43.8142217" lon="13.011715"><ele>20.0</ele><time>2026-04-12T15:07:48.224Z</time></trkpt><trkpt lat="43.8142833" lon="13.0116133"><ele>20.0</ele><time>2026-04-12T15:07:49.225Z</time></trkpt><trkpt lat="43.8143583" lon="13.0115267"><ele>19.8</ele><time>2026-04-12T15:07:50.225Z</time></trkpt><trkpt lat="43.8144417" lon="13.011465"><ele>19.6</ele><time>2026-04-12T15:07:51.225Z</time></trkpt><trkpt lat="43.8145317" lon="13.0114317"><ele>19.4</ele><time>2026-04-12T15:07:52.224Z</time></trkpt><trkpt lat="43.8146317" lon="13.0114283"><ele>19.2</ele><time>2026-04-12T15:07:53.224Z</time></trkpt><trkpt lat="43.814725" lon="13.0114583"><ele>19.0</ele><time>2026-04-12T15:07:54.225Z</time></trkpt><trkpt lat="43.8148083" lon="13.0115133"><ele>19.0</ele><time>2026-04-12T15:07:55.225Z</time></trkpt><trkpt lat="43.8148817" lon="13.0116017"><ele>19.0</ele><time>2026-04-12T15:07:56.224Z</time></trkpt><trkpt lat="43.814935" lon="13.0117017"><ele>19.0</ele><time>2026-04-12T15:07:57.225Z</time></trkpt><trkpt lat="43.8149667" lon="13.0118183"><ele>19.0</ele><time>2026-04-12T15:07:58.225Z</time></trkpt><trkpt lat="43.81498" lon="13.0119483"><ele>19.0</ele><time>2026-04-12T15:07:59.225Z</time></trkpt><trkpt lat="43.81498" lon="13.0120633"><ele>19.0</ele><time>2026-04-12T15:08:00.224Z</time></trkpt><trkpt lat="43.8149533" lon="13.01219"><ele>19.0</ele><time>2026-04-12T15:08:01.225Z</time></trkpt><trkpt lat="43.8149283" lon="13.012315"><ele>19.0</ele><time>2026-04-12T15:08:02.225Z</time></trkpt><trkpt lat="43.814895" lon="13.0124383"><ele>19.0</ele><time>2026-04-12T15:08:03.224Z</time></trkpt><trkpt lat="43.8148667" lon="13.0125517"><ele>19.0</ele><time>2026-04-12T15:08:04.224Z</time></trkpt><trkpt lat="43.8148433" lon="13.0126583"><ele>19.333333333333332</ele><time>2026-04-12T15:08:05.225Z</time></trkpt><trkpt lat="43.8148283" lon="13.0127517"><ele>19.666666666666664</ele><time>2026-04-12T15:08:06.225Z</time></trkpt><trkpt lat="43.81481" lon="13.01284"><ele>20.0</ele><time>2026-04-12T15:08:07.224Z</time></trkpt><trkpt lat="43.8147783" lon="13.0129967"><ele>20.333333333333332</ele><time>2026-04-12T15:08:09.224Z</time></trkpt><trkpt lat="43.8147517" lon="13.0131183"><ele>20.666666666666668</ele><time>2026-04-12T15:08:11.225Z</time></trkpt><trkpt lat="43.8147133" lon="13.0132"><ele>21.0</ele><time>2026-04-12T15:08:13.225Z</time></trkpt><trkpt lat="43.8147" lon="13.0133567"><ele>21.200000000000003</ele><time>2026-04-12T15:08:38.225Z</time></trkpt><trkpt lat="43.8146917" lon="13.013445"><ele>21.400000000000002</ele><time>2026-04-12T15:08:39.225Z</time></trkpt><trkpt lat="43.81468" lon="13.013565"><ele>21.6</ele><time>2026-04-12T15:08:40.225Z</time></trkpt><trkpt lat="43.814665" lon="13.0137167"><ele>21.8</ele><time>2026-04-12T15:08:41.225Z</time></trkpt><trkpt lat="43.81464" lon="13.0139017"><ele>22.0</ele><time>2026-04-12T15:08:42.225Z</time></trkpt><trkpt lat="43.8146133" lon="13.0141183"><ele>21.666666666666664</ele><time>2026-04-12T15:08:43.225Z</time></trkpt><trkpt lat="43.8145917" lon="13.01435"><ele>21.333333333333332</ele><time>2026-04-12T15:08:44.225Z</time></trkpt><trkpt lat="43.814575" lon="13.0145983"><ele>21.0</ele><time>2026-04-12T15:08:45.224Z</time></trkpt><trkpt lat="43.814555" lon="13.0148633"><ele>20.333333333333332</ele><time>2026-04-12T15:08:46.224Z</time></trkpt><trkpt lat="43.814535" lon="13.015145"><ele>19.666666666666664</ele><time>2026-04-12T15:08:47.225Z</time></trkpt><trkpt lat="43.814515" lon="13.01544"><ele>19.0</ele><time>2026-04-12T15:08:48.225Z</time></trkpt><trkpt lat="43.8144917" lon="13.0157433"><ele>18.5</ele><time>2026-04-12T15:08:49.225Z</time></trkpt><trkpt lat="43.814465" lon="13.016065"><ele>18.0</ele><time>2026-04-12T15:08:50.224Z</time></trkpt><trkpt lat="43.8144433" lon="13.0163933"><ele>18.0</ele><time>2026-04-12T15:08:51.225Z</time></trkpt><trkpt lat="43.8144233" lon="13.016725"><ele>18.0</ele><time>2026-04-12T15:08:52.225Z</time></trkpt><trkpt lat="43.8143967" lon="13.0170617"><ele>18.0</ele><time>2026-04-12T15:08:53.225Z</time></trkpt><trkpt lat="43.8143717" lon="13.0173967"><ele>18.0</ele><time>2026-04-12T15:08:54.225Z</time></trkpt><trkpt lat="43.81435" lon="13.01774"><ele>18.0</ele><time>2026-04-12T15:08:55.225Z</time></trkpt><trkpt lat="43.81432" lon="13.0180817"><ele>18.0</ele><time>2026-04-12T15:08:56.225Z</time></trkpt><trkpt lat="43.8142933" lon="13.0184283"><ele>18.0</ele><time>2026-04-12T15:08:57.225Z</time></trkpt><trkpt lat="43.8142617" lon="13.01878"><ele>18.0</ele><time>2026-04-12T15:08:58.225Z</time></trkpt><trkpt lat="43.814235" lon="13.019135"><ele>18.5</ele><time>2026-04-12T15:08:59.224Z</time></trkpt><trkpt lat="43.8142017" lon="13.019495"><ele>19.0</ele><time>2026-04-12T15:09:00.225Z</time></trkpt><trkpt lat="43.81417" lon="13.0198567"><ele>18.5</ele><time>2026-04-12T15:09:01.225Z</time></trkpt><trkpt lat="43.81414" lon="13.0202167"><ele>18.0</ele><time>2026-04-12T15:09:02.224Z</time></trkpt><trkpt lat="43.8141117" lon="13.0205783"><ele>19.0</ele><time>2026-04-12T15:09:03.225Z</time></trkpt><trkpt lat="43.814085" lon="13.0209367"><ele>20.0</ele><time>2026-04-12T15:09:04.225Z</time></trkpt><trkpt lat="43.8140567" lon="13.0213183"><ele>19.0</ele><time>2026-04-12T15:09:05.224Z</time></trkpt><trkpt lat="43.8140333" lon="13.02169"><ele>18.0</ele><time>2026-04-12T15:09:06.225Z</time></trkpt><trkpt lat="43.8140067" lon="13.0220567"><ele>18.0</ele><time>2026-04-12T15:09:07.225Z</time></trkpt><trkpt lat="43.81398" lon="13.0224233"><ele>18.0</ele><time>2026-04-12T15:09:08.225Z</time></trkpt><trkpt lat="43.81395" lon="13.0228017"><ele>17.0</ele><time>2026-04-12T15:09:09.225Z</time></trkpt><trkpt lat="43.813925" lon="13.0231817"><ele>16.0</ele><time>2026-04-12T15:09:10.224Z</time></trkpt><trkpt lat="43.813895" lon="13.023565"><ele>16.0</ele><time>2026-04-12T15:09:11.225Z</time></trkpt><trkpt lat="43.81387" lon="13.0239533"><ele>16.0</ele><time>2026-04-12T15:09:12.224Z</time></trkpt><trkpt lat="43.8138367" lon="13.0243467"><ele>16.0</ele><time>2026-04-12T15:09:13.225Z</time></trkpt><trkpt lat="43.8138033" lon="13.02474"><ele>16.0</ele><time>2026-04-12T15:09:14.225Z</time></trkpt><trkpt lat="43.8137733" lon="13.0251283"><ele>15.5</ele><time>2026-04-12T15:09:15.225Z</time></trkpt><trkpt lat="43.8137433" lon="13.0255117"><ele>15.0</ele><time>2026-04-12T15:09:16.225Z</time></trkpt><trkpt lat="43.8137183" lon="13.025895"><ele>15.0</ele><time>2026-04-12T15:09:17.225Z</time></trkpt><trkpt lat="43.8136917" lon="13.0262717"><ele>15.0</ele><time>2026-04-12T15:09:18.225Z</time></trkpt><trkpt lat="43.8136667" lon="13.0266517"><ele>15.0</ele><time>2026-04-12T15:09:19.225Z</time></trkpt><trkpt lat="43.8136367" lon="13.02702"><ele>15.0</ele><time>2026-04-12T15:09:20.224Z</time></trkpt><trkpt lat="43.8136067" lon="13.02739"><ele>15.5</ele><time>2026-04-12T15:09:21.225Z</time></trkpt><trkpt lat="43.8135817" lon="13.02776"><ele>16.0</ele><time>2026-04-12T15:09:22.225Z</time></trkpt><trkpt lat="43.81355" lon="13.028125"><ele>16.0</ele><time>2026-04-12T15:09:23.225Z</time></trkpt><trkpt lat="43.8135217" lon="13.028485"><ele>16.0</ele><time>2026-04-12T15:09:24.225Z</time></trkpt><trkpt lat="43.813495" lon="13.0288483"><ele>16.0</ele><time>2026-04-12T15:09:25.225Z</time></trkpt><trkpt lat="43.8134783" lon="13.0292333"><ele>16.0</ele><time>2026-04-12T15:09:26.225Z</time></trkpt><trkpt lat="43.81344" lon="13.0295883"><ele>16.0</ele><time>2026-04-12T15:09:27.224Z</time></trkpt><trkpt lat="43.8134017" lon="13.0299433"><ele>16.0</ele><time>2026-04-12T15:09:28.225Z</time></trkpt><trkpt lat="43.8133717" lon="13.030305"><ele>14.5</ele><time>2026-04-12T15:09:29.224Z</time></trkpt><trkpt lat="43.813335" lon="13.0306767"><ele>13.0</ele><time>2026-04-12T15:09:30.225Z</time></trkpt><trkpt lat="43.8132867" lon="13.0310417"><ele>13.0</ele><time>2026-04-12T15:09:31.224Z</time></trkpt><trkpt lat="43.813255" lon="13.0314167"><ele>13.0</ele><time>2026-04-12T15:09:32.224Z</time></trkpt><trkpt lat="43.8132117" lon="13.0318067"><ele>13.5</ele><time>2026-04-12T15:09:33.224Z</time></trkpt><trkpt lat="43.81317" lon="13.0322"><ele>14.0</ele><time>2026-04-12T15:09:34.225Z</time></trkpt><trkpt lat="43.8131167" lon="13.0325867"><ele>13.0</ele><time>2026-04-12T15:09:35.225Z</time></trkpt><trkpt lat="43.8130567" lon="13.03297"><ele>12.0</ele><time>2026-04-12T15:09:36.225Z</time></trkpt><trkpt lat="43.813" lon="13.03334"><ele>11.5</ele><time>2026-04-12T15:09:37.225Z</time></trkpt><trkpt lat="43.8129267" lon="13.033715"><ele>11.0</ele><time>2026-04-12T15:09:38.225Z</time></trkpt><trkpt lat="43.812855" lon="13.0340817"><ele>9.0</ele><time>2026-04-12T15:09:39.225Z</time></trkpt><trkpt lat="43.8127733" lon="13.0344467"><ele>7.0</ele><time>2026-04-12T15:09:40.225Z</time></trkpt><trkpt lat="43.8126933" lon="13.0348083"><ele>7.5</ele><time>2026-04-12T15:09:41.225Z</time></trkpt><trkpt lat="43.8126067" lon="13.0351717"><ele>8.0</ele><time>2026-04-12T15:09:42.224Z</time></trkpt><trkpt lat="43.8125217" lon="13.035535"><ele>7.5</ele><time>2026-04-12T15:09:43.225Z</time></trkpt><trkpt lat="43.8124333" lon="13.0359033"><ele>7.0</ele><time>2026-04-12T15:09:44.225Z</time></trkpt><trkpt lat="43.812345" lon="13.036275"><ele>7.0</ele><time>2026-04-12T15:09:45.225Z</time></trkpt><trkpt lat="43.8122533" lon="13.0366433"><ele>7.0</ele><time>2026-04-12T15:09:46.225Z</time></trkpt><trkpt lat="43.8121583" lon="13.0370183"><ele>7.0</ele><time>2026-04-12T15:09:47.225Z</time></trkpt><trkpt lat="43.8120633" lon="13.0373933"><ele>7.0</ele><time>2026-04-12T15:09:48.225Z</time></trkpt><trkpt lat="43.8119717" lon="13.037775"><ele>7.0</ele><time>2026-04-12T15:09:49.225Z</time></trkpt><trkpt lat="43.8118783" lon="13.0381533"><ele>7.0</ele><time>2026-04-12T15:09:50.225Z</time></trkpt><trkpt lat="43.8117817" lon="13.0385317"><ele>7.0</ele><time>2026-04-12T15:09:51.224Z</time></trkpt><trkpt lat="43.811685" lon="13.03891"><ele>7.0</ele><time>2026-04-12T15:09:52.225Z</time></trkpt><trkpt lat="43.81159" lon="13.03929"><ele>4.5</ele><time>2026-04-12T15:09:53.224Z</time></trkpt><trkpt lat="43.8115" lon="13.0396683"><ele>2.0</ele><time>2026-04-12T15:09:54.224Z</time></trkpt><trkpt lat="43.8114083" lon="13.0400433"><ele>2.0</ele><time>2026-04-12T15:09:55.224Z</time></trkpt><trkpt lat="43.81132" lon="13.0404117"><ele>2.0</ele><time>2026-04-12T15:09:56.225Z</time></trkpt><trkpt lat="43.8112317" lon="13.0407767"><ele>3.0</ele><time>2026-04-12T15:09:57.224Z</time></trkpt><trkpt lat="43.8111383" lon="13.0411417"><ele>4.0</ele><time>2026-04-12T15:09:58.225Z</time></trkpt><trkpt lat="43.8110483" lon="13.04151"><ele>6.0</ele><time>2026-04-12T15:09:59.225Z</time></trkpt><trkpt lat="43.8109583" lon="13.04188"><ele>8.0</ele><time>2026-04-12T15:10:00.224Z</time></trkpt><trkpt lat="43.810865" lon="13.0422617"><ele>6.5</ele><time>2026-04-12T15:10:01.225Z</time></trkpt><trkpt lat="43.8107733" lon="13.0426317"><ele>5.0</ele><time>2026-04-12T15:10:02.225Z</time></trkpt><trkpt lat="43.8106817" lon="13.043005"><ele>5.5</ele><time>2026-04-12T15:10:03.224Z</time></trkpt><trkpt lat="43.8105917" lon="13.0433717"><ele>6.0</ele><time>2026-04-12T15:10:04.225Z</time></trkpt><trkpt lat="43.8104967" lon="13.0437367"><ele>6.0</ele><time>2026-04-12T15:10:05.225Z</time></trkpt><trkpt lat="43.8104067" lon="13.0441"><ele>6.0</ele><time>2026-04-12T15:10:06.224Z</time></trkpt><trkpt lat="43.8103183" lon="13.0444617"><ele>6.5</ele><time>2026-04-12T15:10:07.225Z</time></trkpt><trkpt lat="43.8102283" lon="13.044825"><ele>7.0</ele><time>2026-04-12T15:10:08.225Z</time></trkpt><trkpt lat="43.810135" lon="13.0451967"><ele>7.0</ele><time>2026-04-12T15:10:09.225Z</time></trkpt><trkpt lat="43.8100467" lon="13.0455667"><ele>7.0</ele><time>2026-04-12T15:10:10.225Z</time></trkpt><trkpt lat="43.8099533" lon="13.04593"><ele>7.0</ele><time>2026-04-12T15:10:11.225Z</time></trkpt><trkpt lat="43.809855" lon="13.0462917"><ele>7.0</ele><time>2026-04-12T15:10:12.225Z</time></trkpt><trkpt lat="43.8097633" lon="13.0466517"><ele>5.5</ele><time>2026-04-12T15:10:13.225Z</time></trkpt><trkpt lat="43.8096717" lon="13.0470167"><ele>4.0</ele><time>2026-04-12T15:10:14.224Z</time></trkpt><trkpt lat="43.8095883" lon="13.0473767"><ele>5.0</ele><time>2026-04-12T15:10:15.225Z</time></trkpt><trkpt lat="43.809505" lon="13.04773"><ele>6.0</ele><time>2026-04-12T15:10:16.225Z</time></trkpt><trkpt lat="43.8094183" lon="13.04808"><ele>6.0</ele><time>2026-04-12T15:10:17.224Z</time></trkpt><trkpt lat="43.8093317" lon="13.0484283"><ele>6.0</ele><time>2026-04-12T15:10:18.225Z</time></trkpt><trkpt lat="43.8092483" lon="13.0487783"><ele>6.0</ele><time>2026-04-12T15:10:19.224Z</time></trkpt><trkpt lat="43.8091733" lon="13.04912"><ele>6.0</ele><time>2026-04-12T15:10:20.225Z</time></trkpt><trkpt lat="43.809085" lon="13.0494683"><ele>6.0</ele><time>2026-04-12T15:10:21.225Z</time></trkpt><trkpt lat="43.8089933" lon="13.0498233"><ele>6.0</ele><time>2026-04-12T15:10:22.224Z</time></trkpt><trkpt lat="43.8089067" lon="13.0501767"><ele>6.0</ele><time>2026-04-12T15:10:23.225Z</time></trkpt><trkpt lat="43.80882" lon="13.0505433"><ele>6.0</ele><time>2026-04-12T15:10:24.225Z</time></trkpt><trkpt lat="43.8087267" lon="13.05091"><ele>6.5</ele><time>2026-04-12T15:10:25.225Z</time></trkpt><trkpt lat="43.8086383" lon="13.0512833"><ele>7.0</ele><time>2026-04-12T15:10:26.224Z</time></trkpt><trkpt lat="43.8085383" lon="13.051665"><ele>8.5</ele><time>2026-04-12T15:10:27.225Z</time></trkpt><trkpt lat="43.80844" lon="13.0520283"><ele>10.0</ele><time>2026-04-12T15:10:28.224Z</time></trkpt><trkpt lat="43.808345" lon="13.0523867"><ele>9.5</ele><time>2026-04-12T15:10:29.225Z</time></trkpt><trkpt lat="43.8082467" lon="13.0527583"><ele>9.0</ele><time>2026-04-12T15:10:30.224Z</time></trkpt><trkpt lat="43.8081567" lon="13.0531333"><ele>9.5</ele><time>2026-04-12T15:10:31.225Z</time></trkpt><trkpt lat="43.80807" lon="13.0535067"><ele>10.0</ele><time>2026-04-12T15:10:32.225Z</time></trkpt><trkpt lat="43.8079817" lon="13.05388"><ele>10.0</ele><time>2026-04-12T15:10:33.225Z</time></trkpt><trkpt lat="43.8078917" lon="13.0542567"><ele>10.0</ele><time>2026-04-12T15:10:34.224Z</time></trkpt><trkpt lat="43.8077983" lon="13.054635"><ele>10.5</ele><time>2026-04-12T15:10:35.225Z</time></trkpt><trkpt lat="43.8077083" lon="13.0550117"><ele>11.0</ele><time>2026-04-12T15:10:36.225Z</time></trkpt><trkpt lat="43.8076183" lon="13.0553833"><ele>10.5</ele><time>2026-04-12T15:10:37.225Z</time></trkpt><trkpt lat="43.80753" lon="13.0557617"><ele>10.0</ele><time>2026-04-12T15:10:38.225Z</time></trkpt><trkpt lat="43.8074383" lon="13.05614"><ele>10.0</ele><time>2026-04-12T15:10:39.225Z</time></trkpt><trkpt lat="43.807345" lon="13.056515"><ele>10.0</ele><time>2026-04-12T15:10:40.225Z</time></trkpt><trkpt lat="43.8072517" lon="13.05689"><ele>10.0</ele><time>2026-04-12T15:10:41.224Z</time></trkpt><trkpt lat="43.8071617" lon="13.0572617"><ele>10.0</ele><time>2026-04-12T15:10:42.225Z</time></trkpt><trkpt lat="43.8070717" lon="13.0576467"><ele>10.0</ele><time>2026-04-12T15:10:43.224Z</time></trkpt><trkpt lat="43.8069767" lon="13.0580267"><ele>10.0</ele><time>2026-04-12T15:10:44.225Z</time></trkpt><trkpt lat="43.8068883" lon="13.0583967"><ele>10.0</ele><time>2026-04-12T15:10:45.225Z</time></trkpt><trkpt lat="43.8067983" lon="13.05877"><ele>10.0</ele><time>2026-04-12T15:10:46.224Z</time></trkpt><trkpt lat="43.80671" lon="13.0591383"><ele>10.0</ele><time>2026-04-12T15:10:47.225Z</time></trkpt><trkpt lat="43.806605" lon="13.0595"><ele>10.0</ele><time>2026-04-12T15:10:48.224Z</time></trkpt><trkpt lat="43.8065117" lon="13.059855"><ele>9.5</ele><time>2026-04-12T15:10:49.224Z</time></trkpt><trkpt lat="43.806415" lon="13.0602117"><ele>9.0</ele><time>2026-04-12T15:10:50.225Z</time></trkpt><trkpt lat="43.8063217" lon="13.0605633"><ele>9.5</ele><time>2026-04-12T15:10:51.225Z</time></trkpt><trkpt lat="43.806225" lon="13.0609117"><ele>10.0</ele><time>2026-04-12T15:10:52.225Z</time></trkpt><trkpt lat="43.8061233" lon="13.06125"><ele>10.0</ele><time>2026-04-12T15:10:53.224Z</time></trkpt><trkpt lat="43.8060167" lon="13.0615967"><ele>10.0</ele><time>2026-04-12T15:10:54.225Z</time></trkpt><trkpt lat="43.8058983" lon="13.06192"><ele>10.0</ele><time>2026-04-12T15:10:55.225Z</time></trkpt><trkpt lat="43.8057783" lon="13.0622383"><ele>10.0</ele><time>2026-04-12T15:10:56.225Z</time></trkpt><trkpt lat="43.8056533" lon="13.0625633"><ele>10.0</ele><time>2026-04-12T15:10:57.225Z</time></trkpt><trkpt lat="43.80553" lon="13.0628833"><ele>10.0</ele><time>2026-04-12T15:10:58.225Z</time></trkpt><trkpt lat="43.8053783" lon="13.0632083"><ele>10.5</ele><time>2026-04-12T15:10:59.224Z</time></trkpt><trkpt lat="43.8052283" lon="13.0635117"><ele>11.0</ele><time>2026-04-12T15:11:00.225Z</time></trkpt><trkpt lat="43.8050717" lon="13.0638183"><ele>11.0</ele><time>2026-04-12T15:11:01.224Z</time></trkpt><trkpt lat="43.8049033" lon="13.0641283"><ele>11.0</ele><time>2026-04-12T15:11:02.225Z</time></trkpt><trkpt lat="43.8047367" lon="13.06443"><ele>11.0</ele><time>2026-04-12T15:11:03.225Z</time></trkpt><trkpt lat="43.80455" lon="13.0647417"><ele>11.0</ele><time>2026-04-12T15:11:04.225Z</time></trkpt><trkpt lat="43.804365" lon="13.065055"><ele>11.5</ele><time>2026-04-12T15:11:05.225Z</time></trkpt><trkpt lat="43.804175" lon="13.0653633"><ele>12.0</ele><time>2026-04-12T15:11:06.225Z</time></trkpt><trkpt lat="43.8039833" lon="13.065675"><ele>11.0</ele><time>2026-04-12T15:11:07.225Z</time></trkpt><trkpt lat="43.8037967" lon="13.06598"><ele>10.0</ele><time>2026-04-12T15:11:08.224Z</time></trkpt><trkpt lat="43.8036083" lon="13.06629"><ele>10.5</ele><time>2026-04-12T15:11:09.224Z</time></trkpt><trkpt lat="43.80342" lon="13.066595"><ele>11.0</ele><time>2026-04-12T15:11:10.224Z</time></trkpt><trkpt lat="43.8032283" lon="13.0669017"><ele>11.0</ele><time>2026-04-12T15:11:11.224Z</time></trkpt><trkpt lat="43.8030383" lon="13.0672067"><ele>11.0</ele><time>2026-04-12T15:11:12.225Z</time></trkpt><trkpt lat="43.8028483" lon="13.067515"><ele>12.5</ele><time>2026-04-12T15:11:13.224Z</time></trkpt><trkpt lat="43.8026583" lon="13.067825"><ele>14.0</ele><time>2026-04-12T15:11:14.225Z</time></trkpt><trkpt lat="43.8024667" lon="13.0681383"><ele>13.0</ele><time>2026-04-12T15:11:15.225Z</time></trkpt><trkpt lat="43.8022767" lon="13.0684483"><ele>12.0</ele><time>2026-04-12T15:11:16.225Z</time></trkpt><trkpt lat="43.802085" lon="13.068765"><ele>12.0</ele><time>2026-04-12T15:11:17.224Z</time></trkpt><trkpt lat="43.8018883" lon="13.0690833"><ele>12.0</ele><time>2026-04-12T15:11:18.225Z</time></trkpt><trkpt lat="43.8016983" lon="13.0694"><ele>12.5</ele><time>2026-04-12T15:11:19.225Z</time></trkpt><trkpt lat="43.8015083" lon="13.0697183"><ele>13.0</ele><time>2026-04-12T15:11:20.225Z</time></trkpt><trkpt lat="43.8013167" lon="13.0700283"><ele>13.5</ele><time>2026-04-12T15:11:21.224Z</time></trkpt><trkpt lat="43.801125" lon="13.07034"><ele>14.0</ele><time>2026-04-12T15:11:22.225Z</time></trkpt><trkpt lat="43.800935" lon="13.0706433"><ele>11.5</ele><time>2026-04-12T15:11:23.225Z</time></trkpt><trkpt lat="43.800745" lon="13.07096"><ele>9.0</ele><time>2026-04-12T15:11:24.224Z</time></trkpt><trkpt lat="43.8005567" lon="13.071275"><ele>9.0</ele><time>2026-04-12T15:11:25.225Z</time></trkpt><trkpt lat="43.8003667" lon="13.0715883"><ele>9.0</ele><time>2026-04-12T15:11:26.224Z</time></trkpt><trkpt lat="43.8001767" lon="13.0718883"><ele>9.0</ele><time>2026-04-12T15:11:27.224Z</time></trkpt><trkpt lat="43.7999833" lon="13.0721917"><ele>9.0</ele><time>2026-04-12T15:11:28.225Z</time></trkpt><trkpt lat="43.7997917" lon="13.0725017"><ele>9.0</ele><time>2026-04-12T15:11:29.225Z</time></trkpt><trkpt lat="43.7996067" lon="13.0728217"><ele>9.0</ele><time>2026-04-12T15:11:30.225Z</time></trkpt><trkpt lat="43.7994167" lon="13.0731367"><ele>10.0</ele><time>2026-04-12T15:11:31.225Z</time></trkpt><trkpt lat="43.7992267" lon="13.0734467"><ele>11.0</ele><time>2026-04-12T15:11:32.224Z</time></trkpt><trkpt lat="43.7990367" lon="13.0737583"><ele>11.0</ele><time>2026-04-12T15:11:33.225Z</time></trkpt><trkpt lat="43.798845" lon="13.0740683"><ele>11.0</ele><time>2026-04-12T15:11:34.225Z</time></trkpt><trkpt lat="43.7986517" lon="13.07438"><ele>11.0</ele><time>2026-04-12T15:11:35.225Z</time></trkpt><trkpt lat="43.7984617" lon="13.0746883"><ele>11.0</ele><time>2026-04-12T15:11:36.225Z</time></trkpt><trkpt lat="43.7982717" lon="13.075"><ele>11.0</ele><time>2026-04-12T15:11:37.224Z</time></trkpt><trkpt lat="43.7980817" lon="13.07531"><ele>11.0</ele><time>2026-04-12T15:11:38.225Z</time></trkpt><trkpt lat="43.79789" lon="13.0756217"><ele>10.5</ele><time>2026-04-12T15:11:39.225Z</time></trkpt><trkpt lat="43.7976933" lon="13.0759283"><ele>10.0</ele><time>2026-04-12T15:11:40.225Z</time></trkpt><trkpt lat="43.7975033" lon="13.0762383"><ele>11.0</ele><time>2026-04-12T15:11:41.225Z</time></trkpt><trkpt lat="43.7973083" lon="13.0765433"><ele>12.0</ele><time>2026-04-12T15:11:42.225Z</time></trkpt><trkpt lat="43.7971133" lon="13.0768533"><ele>12.0</ele><time>2026-04-12T15:11:43.224Z</time></trkpt><trkpt lat="43.7969233" lon="13.07716"><ele>12.0</ele><time>2026-04-12T15:11:44.224Z</time></trkpt><trkpt lat="43.7967367" lon="13.077475"><ele>13.0</ele><time>2026-04-12T15:11:45.225Z</time></trkpt><trkpt lat="43.7965433" lon="13.0777783"><ele>14.0</ele><time>2026-04-12T15:11:46.225Z</time></trkpt><trkpt lat="43.796355" lon="13.07809"><ele>13.0</ele><time>2026-04-12T15:11:47.224Z</time></trkpt><trkpt lat="43.7961733" lon="13.07841"><ele>12.0</ele><time>2026-04-12T15:11:48.224Z</time></trkpt><trkpt lat="43.7959917" lon="13.0787267"><ele>12.0</ele><time>2026-04-12T15:11:49.225Z</time></trkpt><trkpt lat="43.7958017" lon="13.079035"><ele>12.0</ele><time>2026-04-12T15:11:50.224Z</time></trkpt><trkpt lat="43.795615" lon="13.0793467"><ele>10.0</ele><time>2026-04-12T15:11:51.225Z</time></trkpt><trkpt lat="43.7954283" lon="13.079655"><ele>8.0</ele><time>2026-04-12T15:11:52.224Z</time></trkpt><trkpt lat="43.7952383" lon="13.0799633"><ele>9.5</ele><time>2026-04-12T15:11:53.225Z</time></trkpt><trkpt lat="43.79505" lon="13.0802717"><ele>11.0</ele><time>2026-04-12T15:11:54.225Z</time></trkpt><trkpt lat="43.79486" lon="13.0805867"><ele>10.5</ele><time>2026-04-12T15:11:55.225Z</time></trkpt><trkpt lat="43.7946717" lon="13.0809"><ele>10.0</ele><time>2026-04-12T15:11:56.225Z</time></trkpt><trkpt lat="43.79448" lon="13.0812117"><ele>13.0</ele><time>2026-04-12T15:11:57.225Z</time></trkpt><trkpt lat="43.79429" lon="13.0815217"><ele>16.0</ele><time>2026-04-12T15:11:58.225Z</time></trkpt><trkpt lat="43.7941017" lon="13.0818367"><ele>16.0</ele><time>2026-04-12T15:11:59.225Z</time></trkpt><trkpt lat="43.7939083" lon="13.08215"><ele>16.0</ele><time>2026-04-12T15:12:00.225Z</time></trkpt><trkpt lat="43.7937117" lon="13.082455"><ele>16.5</ele><time>2026-04-12T15:12:01.225Z</time></trkpt><trkpt lat="43.7935183" lon="13.0827567"><ele>17.0</ele><time>2026-04-12T15:12:02.225Z</time></trkpt><trkpt lat="43.7933267" lon="13.08306"><ele>16.0</ele><time>2026-04-12T15:12:03.225Z</time></trkpt><trkpt lat="43.7931283" lon="13.0833617"><ele>15.0</ele><time>2026-04-12T15:12:04.225Z</time></trkpt><trkpt lat="43.79293" lon="13.0836617"><ele>15.0</ele><time>2026-04-12T15:12:05.225Z</time></trkpt><trkpt lat="43.7927283" lon="13.083955"><ele>15.0</ele><time>2026-04-12T15:12:06.225Z</time></trkpt><trkpt lat="43.792525" lon="13.0842517"><ele>16.0</ele><time>2026-04-12T15:12:07.225Z</time></trkpt><trkpt lat="43.79232" lon="13.0845467"><ele>17.0</ele><time>2026-04-12T15:12:08.224Z</time></trkpt><trkpt lat="43.7921133" lon="13.0848367"><ele>18.0</ele><time>2026-04-12T15:12:09.225Z</time></trkpt><trkpt lat="43.7919067" lon="13.0851267"><ele>19.0</ele><time>2026-04-12T15:12:10.225Z</time></trkpt><trkpt lat="43.7916933" lon="13.0854067"><ele>19.0</ele><time>2026-04-12T15:12:11.225Z</time></trkpt><trkpt lat="43.79148" lon="13.0856917"><ele>19.0</ele><time>2026-04-12T15:12:12.225Z</time></trkpt><trkpt lat="43.79127" lon="13.08598"><ele>19.5</ele><time>2026-04-12T15:12:13.225Z</time></trkpt><trkpt lat="43.791055" lon="13.0862683"><ele>20.0</ele><time>2026-04-12T15:12:14.225Z</time></trkpt><trkpt lat="43.790845" lon="13.0865583"><ele>18.0</ele><time>2026-04-12T15:12:15.225Z</time></trkpt><trkpt lat="43.7906317" lon="13.0868467"><ele>16.0</ele><time>2026-04-12T15:12:16.225Z</time></trkpt><trkpt lat="43.7904233" lon="13.0871383"><ele>14.5</ele><time>2026-04-12T15:12:17.224Z</time></trkpt><trkpt lat="43.7902133" lon="13.087435"><ele>13.0</ele><time>2026-04-12T15:12:18.225Z</time></trkpt><trkpt lat="43.7899917" lon="13.08772"><ele>14.5</ele><time>2026-04-12T15:12:19.224Z</time></trkpt><trkpt lat="43.789775" lon="13.0880067"><ele>16.0</ele><time>2026-04-12T15:12:20.225Z</time></trkpt><trkpt lat="43.789555" lon="13.0882983"><ele>20.5</ele><time>2026-04-12T15:12:21.224Z</time></trkpt><trkpt lat="43.7893383" lon="13.08858"><ele>25.0</ele><time>2026-04-12T15:12:22.225Z</time></trkpt><trkpt lat="43.7891283" lon="13.0888717"><ele>22.5</ele><time>2026-04-12T15:12:23.224Z</time></trkpt><trkpt lat="43.7889117" lon="13.0891633"><ele>20.0</ele><time>2026-04-12T15:12:24.225Z</time></trkpt><trkpt lat="43.7887" lon="13.089455"><ele>20.5</ele><time>2026-04-12T15:12:25.224Z</time></trkpt><trkpt lat="43.788485" lon="13.0897467"><ele>21.0</ele><time>2026-04-12T15:12:26.225Z</time></trkpt><trkpt lat="43.7882667" lon="13.0900383"><ele>21.0</ele><time>2026-04-12T15:12:27.225Z</time></trkpt><trkpt lat="43.7880467" lon="13.09033"><ele>21.0</ele><time>2026-04-12T15:12:28.225Z</time></trkpt><trkpt lat="43.7878267" lon="13.09063"><ele>22.0</ele><time>2026-04-12T15:12:29.225Z</time></trkpt><trkpt lat="43.7876083" lon="13.0909233"><ele>23.0</ele><time>2026-04-12T15:12:30.224Z</time></trkpt><trkpt lat="43.7873883" lon="13.0912183"><ele>23.0</ele><time>2026-04-12T15:12:31.224Z</time></trkpt><trkpt lat="43.78717" lon="13.0915117"><ele>23.0</ele><time>2026-04-12T15:12:32.224Z</time></trkpt><trkpt lat="43.786955" lon="13.0918083"><ele>24.5</ele><time>2026-04-12T15:12:33.225Z</time></trkpt><trkpt lat="43.7867367" lon="13.0921067"><ele>26.0</ele><time>2026-04-12T15:12:34.225Z</time></trkpt><trkpt lat="43.7865233" lon="13.0924017"><ele>24.0</ele><time>2026-04-12T15:12:35.224Z</time></trkpt><trkpt lat="43.7863017" lon="13.0927"><ele>22.0</ele><time>2026-04-12T15:12:36.225Z</time></trkpt><trkpt lat="43.7860817" lon="13.09299"><ele>23.5</ele><time>2026-04-12T15:12:37.225Z</time></trkpt><trkpt lat="43.7858667" lon="13.093285"><ele>25.0</ele><time>2026-04-12T15:12:38.225Z</time></trkpt><trkpt lat="43.7856517" lon="13.093585"><ele>25.0</ele><time>2026-04-12T15:12:39.224Z</time></trkpt><trkpt lat="43.7854333" lon="13.0938783"><ele>25.0</ele><time>2026-04-12T15:12:40.225Z</time></trkpt><trkpt lat="43.7852117" lon="13.0941667"><ele>26.5</ele><time>2026-04-12T15:12:41.225Z</time></trkpt><trkpt lat="43.7849883" lon="13.0944567"><ele>28.0</ele><time>2026-04-12T15:12:42.225Z</time></trkpt><trkpt lat="43.7847683" lon="13.0947467"><ele>30.5</ele><time>2026-04-12T15:12:43.225Z</time></trkpt><trkpt lat="43.78455" lon="13.0950383"><ele>33.0</ele><time>2026-04-12T15:12:44.225Z</time></trkpt><trkpt lat="43.7843317" lon="13.0953333"><ele>33.0</ele><time>2026-04-12T15:12:45.224Z</time></trkpt><trkpt lat="43.784115" lon="13.09563"><ele>33.0</ele><time>2026-04-12T15:12:46.225Z</time></trkpt><trkpt lat="43.783895" lon="13.0959217"><ele>31.5</ele><time>2026-04-12T15:12:47.225Z</time></trkpt><trkpt lat="43.7836733" lon="13.096215"><ele>30.0</ele><time>2026-04-12T15:12:48.224Z</time></trkpt><trkpt lat="43.7834567" lon="13.0965133"><ele>28.5</ele><time>2026-04-12T15:12:49.224Z</time></trkpt><trkpt lat="43.78324" lon="13.0968183"><ele>27.0</ele><time>2026-04-12T15:12:50.225Z</time></trkpt><trkpt lat="43.783025" lon="13.0971167"><ele>27.0</ele><time>2026-04-12T15:12:51.225Z</time></trkpt><trkpt lat="43.782805" lon="13.0974083"><ele>27.0</ele><time>2026-04-12T15:12:52.224Z</time></trkpt><trkpt lat="43.7825933" lon="13.09771"><ele>26.0</ele><time>2026-04-12T15:12:53.225Z</time></trkpt><trkpt lat="43.7823667" lon="13.098015"><ele>25.0</ele><time>2026-04-12T15:12:54.225Z</time></trkpt><trkpt lat="43.7821433" lon="13.098315"><ele>21.0</ele><time>2026-04-12T15:12:55.225Z</time></trkpt><trkpt lat="43.78193" lon="13.09862"><ele>17.0</ele><time>2026-04-12T15:12:56.224Z</time></trkpt><trkpt lat="43.7817167" lon="13.0989217"><ele>16.0</ele><time>2026-04-12T15:12:57.225Z</time></trkpt><trkpt lat="43.7815067" lon="13.0992233"><ele>15.0</ele><time>2026-04-12T15:12:58.225Z</time></trkpt><trkpt lat="43.78129" lon="13.0995217"><ele>15.0</ele><time>2026-04-12T15:12:59.225Z</time></trkpt><trkpt lat="43.7810733" lon="13.09982"><ele>15.0</ele><time>2026-04-12T15:13:00.225Z</time></trkpt><trkpt lat="43.7808533" lon="13.10011"><ele>15.5</ele><time>2026-04-12T15:13:01.225Z</time></trkpt><trkpt lat="43.7806367" lon="13.1004017"><ele>16.0</ele><time>2026-04-12T15:13:02.225Z</time></trkpt><trkpt lat="43.7804117" lon="13.1006917"><ele>15.5</ele><time>2026-04-12T15:13:03.224Z</time></trkpt><trkpt lat="43.7801983" lon="13.1009833"><ele>15.0</ele><time>2026-04-12T15:13:04.224Z</time></trkpt><trkpt lat="43.7799833" lon="13.1012817"><ele>17.0</ele><time>2026-04-12T15:13:05.225Z</time></trkpt><trkpt lat="43.77977" lon="13.1015767"><ele>19.0</ele><time>2026-04-12T15:13:06.225Z</time></trkpt><trkpt lat="43.7795567" lon="13.10187"><ele>21.0</ele><time>2026-04-12T15:13:07.224Z</time></trkpt><trkpt lat="43.7793417" lon="13.10216"><ele>23.0</ele><time>2026-04-12T15:13:08.225Z</time></trkpt><trkpt lat="43.779125" lon="13.1024533"><ele>23.0</ele><time>2026-04-12T15:13:09.224Z</time></trkpt><trkpt lat="43.7788983" lon="13.10274"><ele>23.0</ele><time>2026-04-12T15:13:10.225Z</time></trkpt><trkpt lat="43.7786717" lon="13.1030183"><ele>25.5</ele><time>2026-04-12T15:13:11.224Z</time></trkpt><trkpt lat="43.7784467" lon="13.10331"><ele>28.0</ele><time>2026-04-12T15:13:12.225Z</time></trkpt><trkpt lat="43.77823" lon="13.1035917"><ele>28.0</ele><time>2026-04-12T15:13:13.224Z</time></trkpt><trkpt lat="43.7780133" lon="13.1038883"><ele>28.0</ele><time>2026-04-12T15:13:14.225Z</time></trkpt><trkpt lat="43.7778" lon="13.1041867"><ele>27.5</ele><time>2026-04-12T15:13:15.225Z</time></trkpt><trkpt lat="43.77759" lon="13.104485"><ele>27.0</ele><time>2026-04-12T15:13:16.225Z</time></trkpt><trkpt lat="43.7773817" lon="13.1047883"><ele>25.0</ele><time>2026-04-12T15:13:17.224Z</time></trkpt><trkpt lat="43.77717" lon="13.1050967"><ele>23.0</ele><time>2026-04-12T15:13:18.224Z</time></trkpt><trkpt lat="43.776965" lon="13.1054083"><ele>26.0</ele><time>2026-04-12T15:13:19.225Z</time></trkpt><trkpt lat="43.77676" lon="13.10572"><ele>29.0</ele><time>2026-04-12T15:13:20.225Z</time></trkpt><trkpt lat="43.7765567" lon="13.1060383"><ele>29.0</ele><time>2026-04-12T15:13:21.225Z</time></trkpt><trkpt lat="43.7763583" lon="13.1063617"><ele>29.0</ele><time>2026-04-12T15:13:22.225Z</time></trkpt><trkpt lat="43.77616" lon="13.106675"><ele>32.5</ele><time>2026-04-12T15:13:23.225Z</time></trkpt><trkpt lat="43.775965" lon="13.107005"><ele>36.0</ele><time>2026-04-12T15:13:24.225Z</time></trkpt><trkpt lat="43.775775" lon="13.1073333"><ele>33.5</ele><time>2026-04-12T15:13:25.225Z</time></trkpt><trkpt lat="43.7755783" lon="13.1076733"><ele>31.0</ele><time>2026-04-12T15:13:26.225Z</time></trkpt><trkpt lat="43.7753967" lon="13.1080033"><ele>29.0</ele><time>2026-04-12T15:13:27.225Z</time></trkpt><trkpt lat="43.7752117" lon="13.1083417"><ele>27.0</ele><time>2026-04-12T15:13:28.225Z</time></trkpt><trkpt lat="43.77503" lon="13.1086783"><ele>27.0</ele><time>2026-04-12T15:13:29.224Z</time></trkpt><trkpt lat="43.7748417" lon="13.1090133"><ele>27.0</ele><time>2026-04-12T15:13:30.225Z</time></trkpt><trkpt lat="43.7746567" lon="13.1093567"><ele>27.5</ele><time>2026-04-12T15:13:31.225Z</time></trkpt><trkpt lat="43.7744667" lon="13.1096967"><ele>28.0</ele><time>2026-04-12T15:13:32.225Z</time></trkpt><trkpt lat="43.7742817" lon="13.110035"><ele>28.0</ele><time>2026-04-12T15:13:33.224Z</time></trkpt><trkpt lat="43.7740967" lon="13.1103733"><ele>28.0</ele><time>2026-04-12T15:13:34.225Z</time></trkpt><trkpt lat="43.773915" lon="13.1107083"><ele>26.5</ele><time>2026-04-12T15:13:35.225Z</time></trkpt><trkpt lat="43.7737367" lon="13.1110467"><ele>25.0</ele><time>2026-04-12T15:13:36.224Z</time></trkpt><trkpt lat="43.7735567" lon="13.1113867"><ele>24.5</ele><time>2026-04-12T15:13:37.225Z</time></trkpt><trkpt lat="43.7733783" lon="13.11172"><ele>24.0</ele><time>2026-04-12T15:13:38.225Z</time></trkpt><trkpt lat="43.7731967" lon="13.1120533"><ele>24.0</ele><time>2026-04-12T15:13:39.225Z</time></trkpt><trkpt lat="43.7730117" lon="13.11239"><ele>24.0</ele><time>2026-04-12T15:13:40.225Z</time></trkpt><trkpt lat="43.7728267" lon="13.112725"><ele>23.5</ele><time>2026-04-12T15:13:41.224Z</time></trkpt><trkpt lat="43.7726433" lon="13.1130567"><ele>23.0</ele><time>2026-04-12T15:13:42.224Z</time></trkpt><trkpt lat="43.7724633" lon="13.1133883"><ele>23.0</ele><time>2026-04-12T15:13:43.225Z</time></trkpt><trkpt lat="43.7722783" lon="13.1137267"><ele>23.0</ele><time>2026-04-12T15:13:44.224Z</time></trkpt><trkpt lat="43.7720933" lon="13.1140617"><ele>21.5</ele><time>2026-04-12T15:13:45.224Z</time></trkpt><trkpt lat="43.7719117" lon="13.1144017"><ele>20.0</ele><time>2026-04-12T15:13:46.224Z</time></trkpt><trkpt lat="43.7717267" lon="13.114745"><ele>22.5</ele><time>2026-04-12T15:13:47.224Z</time></trkpt><trkpt lat="43.7715417" lon="13.1150833"><ele>25.0</ele><time>2026-04-12T15:13:48.225Z</time></trkpt><trkpt lat="43.7713567" lon="13.1154233"><ele>24.0</ele><time>2026-04-12T15:13:49.225Z</time></trkpt><trkpt lat="43.7711717" lon="13.1157583"><ele>23.0</ele><time>2026-04-12T15:13:50.225Z</time></trkpt><trkpt lat="43.7709883" lon="13.1161017"><ele>23.0</ele><time>2026-04-12T15:13:51.225Z</time></trkpt><trkpt lat="43.7708083" lon="13.11644"><ele>23.0</ele><time>2026-04-12T15:13:52.225Z</time></trkpt><trkpt lat="43.7706317" lon="13.1167717"><ele>22.5</ele><time>2026-04-12T15:13:53.224Z</time></trkpt><trkpt lat="43.7704483" lon="13.11711"><ele>22.0</ele><time>2026-04-12T15:13:54.224Z</time></trkpt><trkpt lat="43.77026" lon="13.1174433"><ele>23.0</ele><time>2026-04-12T15:13:55.224Z</time></trkpt><trkpt lat="43.770075" lon="13.1177783"><ele>24.0</ele><time>2026-04-12T15:13:56.225Z</time></trkpt><trkpt lat="43.769895" lon="13.1181117"><ele>22.0</ele><time>2026-04-12T15:13:57.225Z</time></trkpt><trkpt lat="43.7697167" lon="13.1184517"><ele>20.0</ele><time>2026-04-12T15:13:58.225Z</time></trkpt><trkpt lat="43.7695333" lon="13.1187917"><ele>19.5</ele><time>2026-04-12T15:13:59.224Z</time></trkpt><trkpt lat="43.7693483" lon="13.119125"><ele>19.0</ele><time>2026-04-12T15:14:00.225Z</time></trkpt><trkpt lat="43.769165" lon="13.1194633"><ele>19.0</ele><time>2026-04-12T15:14:01.225Z</time></trkpt><trkpt lat="43.7689917" lon="13.1198067"><ele>19.0</ele><time>2026-04-12T15:14:02.225Z</time></trkpt><trkpt lat="43.768805" lon="13.1201483"><ele>18.0</ele><time>2026-04-12T15:14:03.225Z</time></trkpt><trkpt lat="43.7686217" lon="13.1204833"><ele>17.0</ele><time>2026-04-12T15:14:04.224Z</time></trkpt><trkpt lat="43.7684333" lon="13.1208233"><ele>19.0</ele><time>2026-04-12T15:14:05.225Z</time></trkpt><trkpt lat="43.7682467" lon="13.1211567"><ele>21.0</ele><time>2026-04-12T15:14:06.224Z</time></trkpt><trkpt lat="43.76806" lon="13.1214833"><ele>21.0</ele><time>2026-04-12T15:14:07.225Z</time></trkpt><trkpt lat="43.7678667" lon="13.1218133"><ele>21.0</ele><time>2026-04-12T15:14:08.225Z</time></trkpt><trkpt lat="43.7676733" lon="13.12214"><ele>20.5</ele><time>2026-04-12T15:14:09.224Z</time></trkpt><trkpt lat="43.767475" lon="13.1224617"><ele>20.0</ele><time>2026-04-12T15:14:10.225Z</time></trkpt><trkpt lat="43.7672767" lon="13.1227817"><ele>20.0</ele><time>2026-04-12T15:14:11.225Z</time></trkpt><trkpt lat="43.7670767" lon="13.123085"><ele>20.0</ele><time>2026-04-12T15:14:12.224Z</time></trkpt><trkpt lat="43.76687" lon="13.1234033"><ele>22.0</ele><time>2026-04-12T15:14:13.224Z</time></trkpt><trkpt lat="43.766665" lon="13.1237233"><ele>24.0</ele><time>2026-04-12T15:14:14.225Z</time></trkpt><trkpt lat="43.7664633" lon="13.1240367"><ele>22.0</ele><time>2026-04-12T15:14:15.225Z</time></trkpt><trkpt lat="43.7662667" lon="13.124355"><ele>20.0</ele><time>2026-04-12T15:14:16.224Z</time></trkpt><trkpt lat="43.7660667" lon="13.1246717"><ele>18.5</ele><time>2026-04-12T15:14:17.225Z</time></trkpt><trkpt lat="43.76586" lon="13.1249817"><ele>17.0</ele><time>2026-04-12T15:14:18.225Z</time></trkpt><trkpt lat="43.7656617" lon="13.1252967"><ele>17.0</ele><time>2026-04-12T15:14:19.225Z</time></trkpt><trkpt lat="43.7654567" lon="13.1256133"><ele>17.0</ele><time>2026-04-12T15:14:20.225Z</time></trkpt><trkpt lat="43.765255" lon="13.125925"><ele>17.5</ele><time>2026-04-12T15:14:21.225Z</time></trkpt><trkpt lat="43.76505" lon="13.1262383"><ele>18.0</ele><time>2026-04-12T15:14:22.224Z</time></trkpt><trkpt lat="43.7648467" lon="13.12655"><ele>16.5</ele><time>2026-04-12T15:14:23.225Z</time></trkpt><trkpt lat="43.76464" lon="13.126865"><ele>15.0</ele><time>2026-04-12T15:14:24.224Z</time></trkpt><trkpt lat="43.764435" lon="13.1271833"><ele>15.5</ele><time>2026-04-12T15:14:25.225Z</time></trkpt><trkpt lat="43.7642367" lon="13.1275"><ele>16.0</ele><time>2026-04-12T15:14:26.225Z</time></trkpt><trkpt lat="43.764045" lon="13.1278083"><ele>16.0</ele><time>2026-04-12T15:14:27.225Z</time></trkpt><trkpt lat="43.76386" lon="13.1281117"><ele>16.0</ele><time>2026-04-12T15:14:28.225Z</time></trkpt><trkpt lat="43.7636767" lon="13.12841"><ele>17.0</ele><time>2026-04-12T15:14:29.225Z</time></trkpt><trkpt lat="43.7634867" lon="13.1287133"><ele>18.0</ele><time>2026-04-12T15:14:30.225Z</time></trkpt><trkpt lat="43.7632983" lon="13.1290267"><ele>17.0</ele><time>2026-04-12T15:14:31.225Z</time></trkpt><trkpt lat="43.7630967" lon="13.1293367"><ele>16.0</ele><time>2026-04-12T15:14:32.225Z</time></trkpt><trkpt lat="43.762895" lon="13.129655"><ele>16.5</ele><time>2026-04-12T15:14:33.225Z</time></trkpt><trkpt lat="43.762695" lon="13.1299667"><ele>17.0</ele><time>2026-04-12T15:14:34.224Z</time></trkpt><trkpt lat="43.7624917" lon="13.13028"><ele>17.0</ele><time>2026-04-12T15:14:35.225Z</time></trkpt><trkpt lat="43.7622883" lon="13.1305867"><ele>17.0</ele><time>2026-04-12T15:14:36.225Z</time></trkpt><trkpt lat="43.7620817" lon="13.1309017"><ele>17.5</ele><time>2026-04-12T15:14:37.225Z</time></trkpt><trkpt lat="43.7618787" lon="13.1312153"><ele>18.0</ele><time>2026-04-12T15:14:38.224Z</time></trkpt><trkpt lat="43.7616721" lon="13.1315315"><ele>17.0</ele><time>2026-04-12T15:14:39.225Z</time></trkpt><trkpt lat="43.7614705" lon="13.1318439"><ele>16.0</ele><time>2026-04-12T15:14:40.225Z</time></trkpt><trkpt lat="43.7612729" lon="13.1321525"><ele>15.5</ele><time>2026-04-12T15:14:41.225Z</time></trkpt><trkpt lat="43.7610816" lon="13.1324713"><ele>15.0</ele><time>2026-04-12T15:14:42.225Z</time></trkpt><trkpt lat="43.7608914" lon="13.1328005"><ele>15.0</ele><time>2026-04-12T15:14:43.224Z</time></trkpt><trkpt lat="43.7607049" lon="13.1331342"><ele>15.0</ele><time>2026-04-12T15:14:44.225Z</time></trkpt><trkpt lat="43.760522" lon="13.1334658"><ele>15.0</ele><time>2026-04-12T15:14:45.225Z</time></trkpt><trkpt lat="43.7603387" lon="13.1338058"><ele>15.0</ele><time>2026-04-12T15:14:46.225Z</time></trkpt><trkpt lat="43.7601599" lon="13.1341507"><ele>17.0</ele><time>2026-04-12T15:14:47.225Z</time></trkpt><trkpt lat="43.7599849" lon="13.1344985"><ele>19.0</ele><time>2026-04-12T15:14:48.224Z</time></trkpt><trkpt lat="43.7598159" lon="13.1348489"><ele>18.5</ele><time>2026-04-12T15:14:49.224Z</time></trkpt><trkpt lat="43.7596536" lon="13.1352029"><ele>18.0</ele><time>2026-04-12T15:14:50.224Z</time></trkpt><trkpt lat="43.7594886" lon="13.1355598"><ele>18.0</ele><time>2026-04-12T15:14:51.225Z</time></trkpt><trkpt lat="43.7593173" lon="13.1359152"><ele>18.0</ele><time>2026-04-12T15:14:52.225Z</time></trkpt><trkpt lat="43.7591514" lon="13.1362729"><ele>16.0</ele><time>2026-04-12T15:14:53.224Z</time></trkpt><trkpt lat="43.758992" lon="13.1366347"><ele>14.0</ele><time>2026-04-12T15:14:54.225Z</time></trkpt><trkpt lat="43.7588367" lon="13.1369925"><ele>14.0</ele><time>2026-04-12T15:14:55.225Z</time></trkpt><trkpt lat="43.7586737" lon="13.1373513"><ele>14.0</ele><time>2026-04-12T15:14:56.224Z</time></trkpt><trkpt lat="43.7585118" lon="13.1377182"><ele>13.5</ele><time>2026-04-12T15:14:57.225Z</time></trkpt><trkpt lat="43.7583503" lon="13.1380778"><ele>13.0</ele><time>2026-04-12T15:14:58.225Z</time></trkpt><trkpt lat="43.7581866" lon="13.1384324"><ele>13.0</ele><time>2026-04-12T15:14:59.224Z</time></trkpt><trkpt lat="43.7580294" lon="13.1387808"><ele>13.0</ele><time>2026-04-12T15:15:00.225Z</time></trkpt><trkpt lat="43.7578782" lon="13.1391275"><ele>13.0</ele><time>2026-04-12T15:15:01.224Z</time></trkpt><trkpt lat="43.7577324" lon="13.1394683"><ele>13.0</ele><time>2026-04-12T15:15:02.225Z</time></trkpt><trkpt lat="43.7575741" lon="13.1398144"><ele>12.5</ele><time>2026-04-12T15:15:03.225Z</time></trkpt><trkpt lat="43.7574153" lon="13.1401628"><ele>12.0</ele><time>2026-04-12T15:15:04.225Z</time></trkpt><trkpt lat="43.7572539" lon="13.1405157"><ele>11.5</ele><time>2026-04-12T15:15:05.224Z</time></trkpt><trkpt lat="43.7570898" lon="13.1408718"><ele>11.0</ele><time>2026-04-12T15:15:06.225Z</time></trkpt><trkpt lat="43.7569222" lon="13.1412318"><ele>11.5</ele><time>2026-04-12T15:15:07.225Z</time></trkpt><trkpt lat="43.7567576" lon="13.1415919"><ele>12.0</ele><time>2026-04-12T15:15:08.225Z</time></trkpt><trkpt lat="43.7565946" lon="13.1419595"><ele>12.0</ele><time>2026-04-12T15:15:09.224Z</time></trkpt><trkpt lat="43.75643" lon="13.1423182"><ele>12.0</ele><time>2026-04-12T15:15:10.224Z</time></trkpt><trkpt lat="43.7562633" lon="13.1426696"><ele>12.0</ele><time>2026-04-12T15:15:11.224Z</time></trkpt><trkpt lat="43.756094" lon="13.1430177"><ele>12.0</ele><time>2026-04-12T15:15:12.224Z</time></trkpt><trkpt lat="43.7559328" lon="13.1433639"><ele>12.0</ele><time>2026-04-12T15:15:13.224Z</time></trkpt><trkpt lat="43.755767" lon="13.1437135"><ele>12.0</ele><time>2026-04-12T15:15:14.224Z</time></trkpt><trkpt lat="43.7556069" lon="13.1440679"><ele>12.5</ele><time>2026-04-12T15:15:15.225Z</time></trkpt><trkpt lat="43.7554482" lon="13.1444272"><ele>13.0</ele><time>2026-04-12T15:15:16.224Z</time></trkpt><trkpt lat="43.7552869" lon="13.1447845"><ele>13.0</ele><time>2026-04-12T15:15:17.224Z</time></trkpt><trkpt lat="43.7551281" lon="13.1451342"><ele>13.0</ele><time>2026-04-12T15:15:18.225Z</time></trkpt><trkpt lat="43.7549697" lon="13.1454827"><ele>12.5</ele><time>2026-04-12T15:15:19.225Z</time></trkpt><trkpt lat="43.7548086" lon="13.1458337"><ele>12.0</ele><time>2026-04-12T15:15:20.225Z</time></trkpt><trkpt lat="43.7546471" lon="13.1461867"><ele>12.0</ele><time>2026-04-12T15:15:21.224Z</time></trkpt><trkpt lat="43.7544854" lon="13.1465373"><ele>12.0</ele><time>2026-04-12T15:15:22.224Z</time></trkpt><trkpt lat="43.7543208" lon="13.1468891"><ele>12.0</ele><time>2026-04-12T15:15:23.225Z</time></trkpt><trkpt lat="43.7541559" lon="13.147242"><ele>12.0</ele><time>2026-04-12T15:15:24.225Z</time></trkpt><trkpt lat="43.7539922" lon="13.1475942"><ele>11.5</ele><time>2026-04-12T15:15:25.225Z</time></trkpt><trkpt lat="43.7538299" lon="13.1479535"><ele>11.0</ele><time>2026-04-12T15:15:26.225Z</time></trkpt><trkpt lat="43.7536669" lon="13.1483104"><ele>10.5</ele><time>2026-04-12T15:15:27.225Z</time></trkpt><trkpt lat="43.753505" lon="13.1486642"><ele>10.0</ele><time>2026-04-12T15:15:28.225Z</time></trkpt><trkpt lat="43.7533435" lon="13.1490172"><ele>10.5</ele><time>2026-04-12T15:15:29.224Z</time></trkpt><trkpt lat="43.7531861" lon="13.1493761"><ele>11.0</ele><time>2026-04-12T15:15:30.225Z</time></trkpt><trkpt lat="43.7530234" lon="13.1497308"><ele>11.0</ele><time>2026-04-12T15:15:31.225Z</time></trkpt><trkpt lat="43.7528563" lon="13.1500852"><ele>11.0</ele><time>2026-04-12T15:15:32.224Z</time></trkpt><trkpt lat="43.7526909" lon="13.1504302"><ele>11.5</ele><time>2026-04-12T15:15:33.225Z</time></trkpt><trkpt lat="43.7525271" lon="13.150784"><ele>12.0</ele><time>2026-04-12T15:15:34.224Z</time></trkpt><trkpt lat="43.7523636" lon="13.1511376"><ele>12.0</ele><time>2026-04-12T15:15:35.224Z</time></trkpt><trkpt lat="43.7522003" lon="13.1514924"><ele>12.0</ele><time>2026-04-12T15:15:36.225Z</time></trkpt><trkpt lat="43.7520299" lon="13.1518444"><ele>12.0</ele><time>2026-04-12T15:15:37.225Z</time></trkpt><trkpt lat="43.7518591" lon="13.1521929"><ele>12.0</ele><time>2026-04-12T15:15:38.225Z</time></trkpt><trkpt lat="43.7516785" lon="13.1525378"><ele>12.5</ele><time>2026-04-12T15:15:39.225Z</time></trkpt><trkpt lat="43.751493" lon="13.1528685"><ele>13.0</ele><time>2026-04-12T15:15:40.225Z</time></trkpt><trkpt lat="43.7513003" lon="13.1531962"><ele>13.0</ele><time>2026-04-12T15:15:41.224Z</time></trkpt><trkpt lat="43.7510938" lon="13.1535043"><ele>13.0</ele><time>2026-04-12T15:15:42.225Z</time></trkpt><trkpt lat="43.7508779" lon="13.1537968"><ele>12.5</ele><time>2026-04-12T15:15:43.225Z</time></trkpt><trkpt lat="43.7506567" lon="13.1540776"><ele>12.0</ele><time>2026-04-12T15:15:44.225Z</time></trkpt><trkpt lat="43.7504348" lon="13.1543594"><ele>12.0</ele><time>2026-04-12T15:15:45.225Z</time></trkpt><trkpt lat="43.7502107" lon="13.1546387"><ele>12.0</ele><time>2026-04-12T15:15:46.225Z</time></trkpt><trkpt lat="43.7499889" lon="13.1549209"><ele>12.0</ele><time>2026-04-12T15:15:47.225Z</time></trkpt><trkpt lat="43.7497653" lon="13.1552026"><ele>12.0</ele><time>2026-04-12T15:15:48.224Z</time></trkpt><trkpt lat="43.7495368" lon="13.1554857"><ele>12.5</ele><time>2026-04-12T15:15:49.225Z</time></trkpt><trkpt lat="43.7493032" lon="13.1557612"><ele>13.0</ele><time>2026-04-12T15:15:50.224Z</time></trkpt><trkpt lat="43.7490707" lon="13.1560422"><ele>13.0</ele><time>2026-04-12T15:15:51.225Z</time></trkpt><trkpt lat="43.7488398" lon="13.156325"><ele>13.0</ele><time>2026-04-12T15:15:52.225Z</time></trkpt><trkpt lat="43.7486081" lon="13.1566013"><ele>13.5</ele><time>2026-04-12T15:15:53.225Z</time></trkpt><trkpt lat="43.7483766" lon="13.1568813"><ele>14.0</ele><time>2026-04-12T15:15:54.225Z</time></trkpt><trkpt lat="43.7481474" lon="13.1571576"><ele>13.0</ele><time>2026-04-12T15:15:55.225Z</time></trkpt><trkpt lat="43.7479141" lon="13.1574317"><ele>12.0</ele><time>2026-04-12T15:15:56.226Z</time></trkpt><trkpt lat="43.7476819" lon="13.1577016"><ele>12.0</ele><time>2026-04-12T15:15:57.226Z</time></trkpt><trkpt lat="43.747449" lon="13.1579812"><ele>12.0</ele><time>2026-04-12T15:15:58.225Z</time></trkpt><trkpt lat="43.7472232" lon="13.1582573"><ele>11.0</ele><time>2026-04-12T15:15:59.226Z</time></trkpt><trkpt lat="43.7469931" lon="13.1585325"><ele>10.0</ele><time>2026-04-12T15:16:00.225Z</time></trkpt><trkpt lat="43.7467631" lon="13.1588064"><ele>8.5</ele><time>2026-04-12T15:16:01.225Z</time></trkpt><trkpt lat="43.7465319" lon="13.1590811"><ele>7.0</ele><time>2026-04-12T15:16:02.225Z</time></trkpt><trkpt lat="43.7462993" lon="13.1593582"><ele>7.0</ele><time>2026-04-12T15:16:03.226Z</time></trkpt><trkpt lat="43.7460638" lon="13.1596326"><ele>7.0</ele><time>2026-04-12T15:16:04.225Z</time></trkpt><trkpt lat="43.7458299" lon="13.159905"><ele>7.5</ele><time>2026-04-12T15:16:05.226Z</time></trkpt><trkpt lat="43.7455989" lon="13.1601827"><ele>8.0</ele><time>2026-04-12T15:16:06.226Z</time></trkpt><trkpt lat="43.7453699" lon="13.1604596"><ele>7.5</ele><time>2026-04-12T15:16:07.225Z</time></trkpt><trkpt lat="43.7451376" lon="13.1607342"><ele>7.0</ele><time>2026-04-12T15:16:08.225Z</time></trkpt><trkpt lat="43.7449057" lon="13.1610067"><ele>7.0</ele><time>2026-04-12T15:16:09.225Z</time></trkpt><trkpt lat="43.7446753" lon="13.1612808"><ele>7.0</ele><time>2026-04-12T15:16:10.226Z</time></trkpt><trkpt lat="43.744444" lon="13.1615544"><ele>7.0</ele><time>2026-04-12T15:16:11.226Z</time></trkpt><trkpt lat="43.7442123" lon="13.1618255"><ele>7.0</ele><time>2026-04-12T15:16:12.226Z</time></trkpt><trkpt lat="43.7439806" lon="13.1620983"><ele>7.0</ele><time>2026-04-12T15:16:13.225Z</time></trkpt><trkpt lat="43.7437453" lon="13.1623727"><ele>7.0</ele><time>2026-04-12T15:16:14.226Z</time></trkpt><trkpt lat="43.7435117" lon="13.1626525"><ele>7.5</ele><time>2026-04-12T15:16:15.226Z</time></trkpt><trkpt lat="43.7432837" lon="13.1629285"><ele>8.0</ele><time>2026-04-12T15:16:16.225Z</time></trkpt><trkpt lat="43.743056" lon="13.1632007"><ele>8.0</ele><time>2026-04-12T15:16:17.226Z</time></trkpt><trkpt lat="43.7428229" lon="13.163475"><ele>8.0</ele><time>2026-04-12T15:16:18.226Z</time></trkpt><trkpt lat="43.7425935" lon="13.1637518"><ele>7.5</ele><time>2026-04-12T15:16:19.226Z</time></trkpt><trkpt lat="43.7423699" lon="13.1640421"><ele>7.0</ele><time>2026-04-12T15:16:20.226Z</time></trkpt><trkpt lat="43.7421558" lon="13.164333"><ele>7.0</ele><time>2026-04-12T15:16:21.226Z</time></trkpt><trkpt lat="43.7419376" lon="13.164625"><ele>7.0</ele><time>2026-04-12T15:16:22.225Z</time></trkpt><trkpt lat="43.7417262" lon="13.1649252"><ele>6.5</ele><time>2026-04-12T15:16:23.226Z</time></trkpt><trkpt lat="43.7415153" lon="13.1652286"><ele>6.0</ele><time>2026-04-12T15:16:24.226Z</time></trkpt><trkpt lat="43.7413086" lon="13.1655347"><ele>5.5</ele><time>2026-04-12T15:16:25.226Z</time></trkpt><trkpt lat="43.7411051" lon="13.1658457"><ele>5.0</ele><time>2026-04-12T15:16:26.225Z</time></trkpt><trkpt lat="43.7409024" lon="13.1661606"><ele>6.5</ele><time>2026-04-12T15:16:27.226Z</time></trkpt><trkpt lat="43.7407019" lon="13.1664807"><ele>8.0</ele><time>2026-04-12T15:16:28.226Z</time></trkpt><trkpt lat="43.7404983" lon="13.1667976"><ele>8.5</ele><time>2026-04-12T15:16:29.226Z</time></trkpt><trkpt lat="43.7402926" lon="13.1671114"><ele>9.0</ele><time>2026-04-12T15:16:30.226Z</time></trkpt><trkpt lat="43.740087" lon="13.1674234"><ele>12.5</ele><time>2026-04-12T15:16:31.225Z</time></trkpt><trkpt lat="43.7398925" lon="13.1677472"><ele>16.0</ele><time>2026-04-12T15:16:32.226Z</time></trkpt><trkpt lat="43.7396951" lon="13.1680732"><ele>15.5</ele><time>2026-04-12T15:16:33.226Z</time></trkpt><trkpt lat="43.739496" lon="13.1684"><ele>15.0</ele><time>2026-04-12T15:16:34.226Z</time></trkpt><trkpt lat="43.7392981" lon="13.1687222"><ele>15.5</ele><time>2026-04-12T15:16:35.226Z</time></trkpt><trkpt lat="43.739099" lon="13.1690394"><ele>16.0</ele><time>2026-04-12T15:16:36.226Z</time></trkpt><trkpt lat="43.7389018" lon="13.1693633"><ele>16.0</ele><time>2026-04-12T15:16:37.225Z</time></trkpt><trkpt lat="43.7387079" lon="13.169687"><ele>16.0</ele><time>2026-04-12T15:16:38.226Z</time></trkpt><trkpt lat="43.738516" lon="13.170008"><ele>17.0</ele><time>2026-04-12T15:16:39.226Z</time></trkpt><trkpt lat="43.738319" lon="13.1703292"><ele>18.0</ele><time>2026-04-12T15:16:40.226Z</time></trkpt><trkpt lat="43.7381245" lon="13.1706484"><ele>16.0</ele><time>2026-04-12T15:16:41.226Z</time></trkpt><trkpt lat="43.7379236" lon="13.1709669"><ele>14.0</ele><time>2026-04-12T15:16:42.226Z</time></trkpt><trkpt lat="43.7377245" lon="13.1712877"><ele>14.5</ele><time>2026-04-12T15:16:43.225Z</time></trkpt><trkpt lat="43.737527" lon="13.1716057"><ele>15.0</ele><time>2026-04-12T15:16:44.226Z</time></trkpt><trkpt lat="43.7373289" lon="13.1719252"><ele>15.0</ele><time>2026-04-12T15:16:45.226Z</time></trkpt><trkpt lat="43.7371293" lon="13.1722379"><ele>15.0</ele><time>2026-04-12T15:16:46.225Z</time></trkpt><trkpt lat="43.736927" lon="13.1725583"><ele>14.5</ele><time>2026-04-12T15:16:47.226Z</time></trkpt><trkpt lat="43.7367264" lon="13.1728772"><ele>14.0</ele><time>2026-04-12T15:16:48.225Z</time></trkpt><trkpt lat="43.736525" lon="13.1731945"><ele>14.0</ele><time>2026-04-12T15:16:49.226Z</time></trkpt><trkpt lat="43.736326" lon="13.1735087"><ele>14.0</ele><time>2026-04-12T15:16:50.226Z</time></trkpt><trkpt lat="43.7361243" lon="13.1738262"><ele>14.5</ele><time>2026-04-12T15:16:51.225Z</time></trkpt><trkpt lat="43.7359241" lon="13.1741457"><ele>15.0</ele><time>2026-04-12T15:16:52.226Z</time></trkpt><trkpt lat="43.7357228" lon="13.1744654"><ele>15.0</ele><time>2026-04-12T15:16:53.225Z</time></trkpt><trkpt lat="43.7355269" lon="13.1747825"><ele>15.0</ele><time>2026-04-12T15:16:54.225Z</time></trkpt><trkpt lat="43.7353303" lon="13.1750992"><ele>16.5</ele><time>2026-04-12T15:16:55.226Z</time></trkpt><trkpt lat="43.7351354" lon="13.1754111"><ele>18.0</ele><time>2026-04-12T15:16:56.226Z</time></trkpt><trkpt lat="43.7349436" lon="13.1757151"><ele>18.0</ele><time>2026-04-12T15:16:57.225Z</time></trkpt><trkpt lat="43.7347599" lon="13.1760215"><ele>18.0</ele><time>2026-04-12T15:16:58.226Z</time></trkpt><trkpt lat="43.7345797" lon="13.1763318"><ele>18.5</ele><time>2026-04-12T15:16:59.226Z</time></trkpt><trkpt lat="43.7343954" lon="13.1766419"><ele>19.0</ele><time>2026-04-12T15:17:00.226Z</time></trkpt><trkpt lat="43.7341982" lon="13.1769521"><ele>19.0</ele><time>2026-04-12T15:17:01.226Z</time></trkpt><trkpt lat="43.7340009" lon="13.1772643"><ele>19.0</ele><time>2026-04-12T15:17:02.226Z</time></trkpt><trkpt lat="43.7338054" lon="13.1775805"><ele>17.5</ele><time>2026-04-12T15:17:03.226Z</time></trkpt><trkpt lat="43.7336104" lon="13.1778998"><ele>16.0</ele><time>2026-04-12T15:17:04.225Z</time></trkpt><trkpt lat="43.7334098" lon="13.1782111"><ele>15.5</ele><time>2026-04-12T15:17:05.225Z</time></trkpt><trkpt lat="43.7332124" lon="13.1785273"><ele>15.0</ele><time>2026-04-12T15:17:06.226Z</time></trkpt><trkpt lat="43.7330135" lon="13.1788362"><ele>16.0</ele><time>2026-04-12T15:17:07.226Z</time></trkpt><trkpt lat="43.7328157" lon="13.1791565"><ele>17.0</ele><time>2026-04-12T15:17:08.225Z</time></trkpt><trkpt lat="43.7326166" lon="13.1794806"><ele>17.0</ele><time>2026-04-12T15:17:09.226Z</time></trkpt><trkpt lat="43.7324228" lon="13.1798035"><ele>17.0</ele><time>2026-04-12T15:17:10.225Z</time></trkpt><trkpt lat="43.7322238" lon="13.1801254"><ele>17.0</ele><time>2026-04-12T15:17:11.226Z</time></trkpt><trkpt lat="43.7320185" lon="13.1804483"><ele>17.0</ele><time>2026-04-12T15:17:12.225Z</time></trkpt><trkpt lat="43.7318232" lon="13.1807688"><ele>17.0</ele><time>2026-04-12T15:17:13.225Z</time></trkpt><trkpt lat="43.7316226" lon="13.1810833"><ele>17.0</ele><time>2026-04-12T15:17:14.226Z</time></trkpt><trkpt lat="43.7314194" lon="13.1814013"><ele>17.5</ele><time>2026-04-12T15:17:15.226Z</time></trkpt><trkpt lat="43.7312189" lon="13.1817238"><ele>18.0</ele><time>2026-04-12T15:17:16.226Z</time></trkpt><trkpt lat="43.7310132" lon="13.1820388"><ele>14.5</ele><time>2026-04-12T15:17:17.226Z</time></trkpt><trkpt lat="43.7308095" lon="13.1823536"><ele>11.0</ele><time>2026-04-12T15:17:18.226Z</time></trkpt><trkpt lat="43.7306118" lon="13.1826728"><ele>11.0</ele><time>2026-04-12T15:17:19.226Z</time></trkpt><trkpt lat="43.7304178" lon="13.1829939"><ele>11.0</ele><time>2026-04-12T15:17:20.226Z</time></trkpt><trkpt lat="43.7302187" lon="13.1833086"><ele>13.5</ele><time>2026-04-12T15:17:21.226Z</time></trkpt><trkpt lat="43.7300188" lon="13.1836292"><ele>16.0</ele><time>2026-04-12T15:17:22.225Z</time></trkpt><trkpt lat="43.729816" lon="13.1839551"><ele>14.5</ele><time>2026-04-12T15:17:23.226Z</time></trkpt><trkpt lat="43.7296078" lon="13.1842855"><ele>13.0</ele><time>2026-04-12T15:17:24.226Z</time></trkpt><trkpt lat="43.7294047" lon="13.1846128"><ele>15.0</ele><time>2026-04-12T15:17:25.225Z</time></trkpt><trkpt lat="43.7292028" lon="13.1849382"><ele>17.0</ele><time>2026-04-12T15:17:26.226Z</time></trkpt><trkpt lat="43.7289996" lon="13.1852638"><ele>17.0</ele><time>2026-04-12T15:17:27.226Z</time></trkpt><trkpt lat="43.7287938" lon="13.18559"><ele>17.0</ele><time>2026-04-12T15:17:28.225Z</time></trkpt><trkpt lat="43.7285897" lon="13.1859165"><ele>16.5</ele><time>2026-04-12T15:17:29.226Z</time></trkpt><trkpt lat="43.7283865" lon="13.1862355"><ele>16.0</ele><time>2026-04-12T15:17:30.225Z</time></trkpt><trkpt lat="43.7281825" lon="13.1865532"><ele>16.0</ele><time>2026-04-12T15:17:31.226Z</time></trkpt><trkpt lat="43.7279782" lon="13.1868683"><ele>16.0</ele><time>2026-04-12T15:17:32.226Z</time></trkpt><trkpt lat="43.7277759" lon="13.1871842"><ele>16.5</ele><time>2026-04-12T15:17:33.226Z</time></trkpt><trkpt lat="43.7275766" lon="13.1874982"><ele>17.0</ele><time>2026-04-12T15:17:34.226Z</time></trkpt><trkpt lat="43.7273793" lon="13.1878151"><ele>17.0</ele><time>2026-04-12T15:17:35.225Z</time></trkpt><trkpt lat="43.7271802" lon="13.1881323"><ele>17.0</ele><time>2026-04-12T15:17:36.226Z</time></trkpt><trkpt lat="43.7269811" lon="13.1884497"><ele>16.0</ele><time>2026-04-12T15:17:37.226Z</time></trkpt><trkpt lat="43.7267828" lon="13.1887668"><ele>15.0</ele><time>2026-04-12T15:17:38.226Z</time></trkpt><trkpt lat="43.7265832" lon="13.1890838"><ele>15.0</ele><time>2026-04-12T15:17:39.226Z</time></trkpt><trkpt lat="43.7263846" lon="13.189398"><ele>15.0</ele><time>2026-04-12T15:17:40.226Z</time></trkpt><trkpt lat="43.7261874" lon="13.1897165"><ele>16.5</ele><time>2026-04-12T15:17:41.226Z</time></trkpt><trkpt lat="43.7259892" lon="13.1900374"><ele>18.0</ele><time>2026-04-12T15:17:42.226Z</time></trkpt><trkpt lat="43.7257869" lon="13.1903551"><ele>18.0</ele><time>2026-04-12T15:17:43.225Z</time></trkpt><trkpt lat="43.7255858" lon="13.1906726"><ele>18.0</ele><time>2026-04-12T15:17:44.225Z</time></trkpt><trkpt lat="43.725387" lon="13.1909879"><ele>17.5</ele><time>2026-04-12T15:17:45.225Z</time></trkpt><trkpt lat="43.7251877" lon="13.1913021"><ele>17.0</ele><time>2026-04-12T15:17:46.226Z</time></trkpt><trkpt lat="43.7249873" lon="13.1916201"><ele>17.0</ele><time>2026-04-12T15:17:47.226Z</time></trkpt><trkpt lat="43.7247897" lon="13.1919411"><ele>17.0</ele><time>2026-04-12T15:17:48.226Z</time></trkpt><trkpt lat="43.7245908" lon="13.1922609"><ele>16.5</ele><time>2026-04-12T15:17:49.226Z</time></trkpt><trkpt lat="43.7243901" lon="13.1925761"><ele>16.0</ele><time>2026-04-12T15:17:50.226Z</time></trkpt><trkpt lat="43.7241911" lon="13.1928987"><ele>16.0</ele><time>2026-04-12T15:17:51.225Z</time></trkpt><trkpt lat="43.7239863" lon="13.1932149"><ele>16.0</ele><time>2026-04-12T15:17:52.225Z</time></trkpt><trkpt lat="43.723785" lon="13.1935304"><ele>16.0</ele><time>2026-04-12T15:17:53.226Z</time></trkpt><trkpt lat="43.7235858" lon="13.1938502"><ele>16.0</ele><time>2026-04-12T15:17:54.226Z</time></trkpt><trkpt lat="43.7233822" lon="13.1941699"><ele>17.5</ele><time>2026-04-12T15:17:55.226Z</time></trkpt><trkpt lat="43.7231771" lon="13.194487"><ele>19.0</ele><time>2026-04-12T15:17:56.226Z</time></trkpt><trkpt lat="43.7229749" lon="13.1948068"><ele>16.5</ele><time>2026-04-12T15:17:57.226Z</time></trkpt><trkpt lat="43.7227756" lon="13.1951282"><ele>14.0</ele><time>2026-04-12T15:17:58.226Z</time></trkpt><trkpt lat="43.7225736" lon="13.1954485"><ele>16.0</ele><time>2026-04-12T15:17:59.226Z</time></trkpt><trkpt lat="43.722368" lon="13.1957653"><ele>18.0</ele><time>2026-04-12T15:18:00.226Z</time></trkpt><trkpt lat="43.7221627" lon="13.1960797"><ele>18.0</ele><time>2026-04-12T15:18:01.226Z</time></trkpt><trkpt lat="43.7219663" lon="13.1964015"><ele>18.0</ele><time>2026-04-12T15:18:02.226Z</time></trkpt><trkpt lat="43.7217647" lon="13.1967211"><ele>17.0</ele><time>2026-04-12T15:18:03.226Z</time></trkpt><trkpt lat="43.7215679" lon="13.1970407"><ele>16.0</ele><time>2026-04-12T15:18:04.225Z</time></trkpt><trkpt lat="43.721376" lon="13.1973642"><ele>15.5</ele><time>2026-04-12T15:18:05.225Z</time></trkpt><trkpt lat="43.721182" lon="13.1976839"><ele>15.0</ele><time>2026-04-12T15:18:06.226Z</time></trkpt><trkpt lat="43.7209867" lon="13.1980049"><ele>14.0</ele><time>2026-04-12T15:18:07.226Z</time></trkpt><trkpt lat="43.7207928" lon="13.1983212"><ele>13.0</ele><time>2026-04-12T15:18:08.225Z</time></trkpt><trkpt lat="43.7205929" lon="13.1986358"><ele>13.0</ele><time>2026-04-12T15:18:09.226Z</time></trkpt><trkpt lat="43.72039" lon="13.1989513"><ele>13.0</ele><time>2026-04-12T15:18:10.225Z</time></trkpt><trkpt lat="43.7201761" lon="13.1992507"><ele>15.5</ele><time>2026-04-12T15:18:11.225Z</time></trkpt><trkpt lat="43.7199576" lon="13.1995317"><ele>18.0</ele><time>2026-04-12T15:18:12.225Z</time></trkpt><trkpt lat="43.7197318" lon="13.1998099"><ele>18.0</ele><time>2026-04-12T15:18:13.225Z</time></trkpt><trkpt lat="43.7195036" lon="13.2000758"><ele>18.0</ele><time>2026-04-12T15:18:14.226Z</time></trkpt><trkpt lat="43.7192688" lon="13.2003376"><ele>18.5</ele><time>2026-04-12T15:18:15.226Z</time></trkpt><trkpt lat="43.7190371" lon="13.200595"><ele>19.0</ele><time>2026-04-12T15:18:16.225Z</time></trkpt><trkpt lat="43.7187925" lon="13.2008405"><ele>21.5</ele><time>2026-04-12T15:18:17.226Z</time></trkpt><trkpt lat="43.7185397" lon="13.2010777"><ele>24.0</ele><time>2026-04-12T15:18:18.226Z</time></trkpt><trkpt lat="43.7182825" lon="13.2013101"><ele>21.5</ele><time>2026-04-12T15:18:19.225Z</time></trkpt><trkpt lat="43.7180204" lon="13.2015279"><ele>19.0</ele><time>2026-04-12T15:18:20.226Z</time></trkpt><trkpt lat="43.7177558" lon="13.2017316"><ele>25.5</ele><time>2026-04-12T15:18:21.226Z</time></trkpt><trkpt lat="43.7174845" lon="13.2019195"><ele>32.0</ele><time>2026-04-12T15:18:22.226Z</time></trkpt><trkpt lat="43.7172081" lon="13.2020908"><ele>32.0</ele><time>2026-04-12T15:18:23.226Z</time></trkpt><trkpt lat="43.7169228" lon="13.2022454"><ele>32.0</ele><time>2026-04-12T15:18:24.225Z</time></trkpt><trkpt lat="43.7166353" lon="13.2023893"><ele>32.5</ele><time>2026-04-12T15:18:25.226Z</time></trkpt><trkpt lat="43.7163466" lon="13.2025257"><ele>33.0</ele><time>2026-04-12T15:18:26.226Z</time></trkpt><trkpt lat="43.716055" lon="13.2026507"><ele>33.0</ele><time>2026-04-12T15:18:27.225Z</time></trkpt><trkpt lat="43.7157586" lon="13.2027555"><ele>33.0</ele><time>2026-04-12T15:18:28.226Z</time></trkpt><trkpt lat="43.715461" lon="13.2028452"><ele>32.5</ele><time>2026-04-12T15:18:29.226Z</time></trkpt><trkpt lat="43.7151596" lon="13.2029181"><ele>32.0</ele><time>2026-04-12T15:18:30.226Z</time></trkpt><trkpt lat="43.7148548" lon="13.2029804"><ele>32.0</ele><time>2026-04-12T15:18:31.226Z</time></trkpt><trkpt lat="43.7145443" lon="13.2030361"><ele>32.0</ele><time>2026-04-12T15:18:32.226Z</time></trkpt><trkpt lat="43.7142457" lon="13.2030852"><ele>31.5</ele><time>2026-04-12T15:18:33.226Z</time></trkpt><trkpt lat="43.7139425" lon="13.2031144"><ele>31.0</ele><time>2026-04-12T15:18:34.226Z</time></trkpt><trkpt lat="43.7136414" lon="13.2031294"><ele>29.5</ele><time>2026-04-12T15:18:35.226Z</time></trkpt><trkpt lat="43.713336" lon="13.2031452"><ele>28.0</ele><time>2026-04-12T15:18:36.226Z</time></trkpt><trkpt lat="43.7130269" lon="13.203157"><ele>27.0</ele><time>2026-04-12T15:18:37.225Z</time></trkpt><trkpt lat="43.712717" lon="13.203166"><ele>26.0</ele><time>2026-04-12T15:18:38.225Z</time></trkpt><trkpt lat="43.7124082" lon="13.2031805"><ele>26.0</ele><time>2026-04-12T15:18:39.225Z</time></trkpt><trkpt lat="43.7121" lon="13.2031982"><ele>26.0</ele><time>2026-04-12T15:18:40.225Z</time></trkpt><trkpt lat="43.7117929" lon="13.2032163"><ele>23.5</ele><time>2026-04-12T15:18:41.226Z</time></trkpt><trkpt lat="43.7114813" lon="13.2032258"><ele>21.0</ele><time>2026-04-12T15:18:42.225Z</time></trkpt><trkpt lat="43.7111721" lon="13.2032403"><ele>21.5</ele><time>2026-04-12T15:18:43.226Z</time></trkpt><trkpt lat="43.7108599" lon="13.2032678"><ele>22.0</ele><time>2026-04-12T15:18:44.226Z</time></trkpt><trkpt lat="43.7105506" lon="13.2032858"><ele>22.0</ele><time>2026-04-12T15:18:45.226Z</time></trkpt><trkpt lat="43.7102437" lon="13.2033063"><ele>22.0</ele><time>2026-04-12T15:18:46.226Z</time></trkpt><trkpt lat="43.7099388" lon="13.2033328"><ele>20.5</ele><time>2026-04-12T15:18:47.226Z</time></trkpt><trkpt lat="43.7096367" lon="13.2033676"><ele>19.0</ele><time>2026-04-12T15:18:48.226Z</time></trkpt><trkpt lat="43.7093365" lon="13.2034161"><ele>17.0</ele><time>2026-04-12T15:18:49.226Z</time></trkpt><trkpt lat="43.7090368" lon="13.2034826"><ele>15.0</ele><time>2026-04-12T15:18:50.226Z</time></trkpt><trkpt lat="43.7087423" lon="13.2035577"><ele>15.0</ele><time>2026-04-12T15:18:51.226Z</time></trkpt><trkpt lat="43.7084506" lon="13.2036564"><ele>15.0</ele><time>2026-04-12T15:18:52.226Z</time></trkpt><trkpt lat="43.7081613" lon="13.2037747"><ele>15.0</ele><time>2026-04-12T15:18:53.226Z</time></trkpt><trkpt lat="43.707876" lon="13.2039087"><ele>15.0</ele><time>2026-04-12T15:18:54.226Z</time></trkpt><trkpt lat="43.7075943" lon="13.2040768"><ele>11.5</ele><time>2026-04-12T15:18:55.226Z</time></trkpt><trkpt lat="43.70732" lon="13.2042592"><ele>8.0</ele><time>2026-04-12T15:18:56.225Z</time></trkpt><trkpt lat="43.7070527" lon="13.2044518"><ele>7.5</ele><time>2026-04-12T15:18:57.226Z</time></trkpt><trkpt lat="43.7067924" lon="13.2046578"><ele>7.0</ele><time>2026-04-12T15:18:58.226Z</time></trkpt><trkpt lat="43.7065377" lon="13.2048798"><ele>7.0</ele><time>2026-04-12T15:18:59.226Z</time></trkpt><trkpt lat="43.7062839" lon="13.20511"><ele>7.0</ele><time>2026-04-12T15:19:00.226Z</time></trkpt><trkpt lat="43.7060437" lon="13.2053585"><ele>7.0</ele><time>2026-04-12T15:19:01.225Z</time></trkpt><trkpt lat="43.7058049" lon="13.2056209"><ele>7.0</ele><time>2026-04-12T15:19:02.226Z</time></trkpt><trkpt lat="43.7055761" lon="13.2059015"><ele>7.5</ele><time>2026-04-12T15:19:03.226Z</time></trkpt><trkpt lat="43.7053561" lon="13.206196"><ele>8.0</ele><time>2026-04-12T15:19:04.225Z</time></trkpt><trkpt lat="43.7051411" lon="13.2064995"><ele>7.0</ele><time>2026-04-12T15:19:05.225Z</time></trkpt><trkpt lat="43.704936" lon="13.2068161"><ele>6.0</ele><time>2026-04-12T15:19:06.225Z</time></trkpt><trkpt lat="43.7047451" lon="13.2071386"><ele>6.0</ele><time>2026-04-12T15:19:07.226Z</time></trkpt><trkpt lat="43.704557" lon="13.2074656"><ele>6.0</ele><time>2026-04-12T15:19:08.226Z</time></trkpt><trkpt lat="43.7043796" lon="13.2078069"><ele>5.5</ele><time>2026-04-12T15:19:09.226Z</time></trkpt><trkpt lat="43.7042049" lon="13.2081477"><ele>5.0</ele><time>2026-04-12T15:19:10.226Z</time></trkpt><trkpt lat="43.704039" lon="13.2085025"><ele>5.0</ele><time>2026-04-12T15:19:11.226Z</time></trkpt><trkpt lat="43.7038704" lon="13.2088553"><ele>5.0</ele><time>2026-04-12T15:19:12.226Z</time></trkpt><trkpt lat="43.7036989" lon="13.2092049"><ele>5.0</ele><time>2026-04-12T15:19:13.226Z</time></trkpt><trkpt lat="43.7035275" lon="13.2095616"><ele>5.0</ele><time>2026-04-12T15:19:14.226Z</time></trkpt><trkpt lat="43.7033572" lon="13.2099184"><ele>5.5</ele><time>2026-04-12T15:19:15.226Z</time></trkpt><trkpt lat="43.70319" lon="13.2102792"><ele>6.0</ele><time>2026-04-12T15:19:16.226Z</time></trkpt><trkpt lat="43.703026" lon="13.2106366"><ele>5.5</ele><time>2026-04-12T15:19:17.226Z</time></trkpt><trkpt lat="43.7028613" lon="13.2109931"><ele>5.0</ele><time>2026-04-12T15:19:18.226Z</time></trkpt><trkpt lat="43.702692" lon="13.2113472"><ele>6.0</ele><time>2026-04-12T15:19:19.225Z</time></trkpt><trkpt lat="43.7025278" lon="13.2117004"><ele>7.0</ele><time>2026-04-12T15:19:20.226Z</time></trkpt><trkpt lat="43.7023602" lon="13.212048"><ele>6.5</ele><time>2026-04-12T15:19:21.226Z</time></trkpt><trkpt lat="43.7021878" lon="13.2123977"><ele>6.0</ele><time>2026-04-12T15:19:22.226Z</time></trkpt><trkpt lat="43.7020216" lon="13.2127533"><ele>7.5</ele><time>2026-04-12T15:19:23.226Z</time></trkpt><trkpt lat="43.7018601" lon="13.213107"><ele>9.0</ele><time>2026-04-12T15:19:24.226Z</time></trkpt><trkpt lat="43.7016983" lon="13.2134609"><ele>9.5</ele><time>2026-04-12T15:19:25.226Z</time></trkpt><trkpt lat="43.7015366" lon="13.2138116"><ele>10.0</ele><time>2026-04-12T15:19:26.226Z</time></trkpt><trkpt lat="43.7013679" lon="13.2141659"><ele>11.0</ele><time>2026-04-12T15:19:27.225Z</time></trkpt><trkpt lat="43.701194" lon="13.2145178"><ele>12.0</ele><time>2026-04-12T15:19:28.225Z</time></trkpt><trkpt lat="43.701022" lon="13.2148638"><ele>15.0</ele><time>2026-04-12T15:19:29.225Z</time></trkpt><trkpt lat="43.7008553" lon="13.2152151"><ele>18.0</ele><time>2026-04-12T15:19:30.226Z</time></trkpt><trkpt lat="43.7006856" lon="13.2155685"><ele>16.5</ele><time>2026-04-12T15:19:31.226Z</time></trkpt><trkpt lat="43.7005141" lon="13.2159165"><ele>15.0</ele><time>2026-04-12T15:19:32.226Z</time></trkpt><trkpt lat="43.7003439" lon="13.2162662"><ele>18.0</ele><time>2026-04-12T15:19:33.226Z</time></trkpt><trkpt lat="43.7001788" lon="13.216618"><ele>21.0</ele><time>2026-04-12T15:19:34.225Z</time></trkpt><trkpt lat="43.7000118" lon="13.216969"><ele>21.0</ele><time>2026-04-12T15:19:35.226Z</time></trkpt><trkpt lat="43.6998443" lon="13.2173128"><ele>21.0</ele><time>2026-04-12T15:19:36.226Z</time></trkpt><trkpt lat="43.6996728" lon="13.2176623"><ele>19.0</ele><time>2026-04-12T15:19:37.226Z</time></trkpt><trkpt lat="43.6995011" lon="13.2180122"><ele>17.0</ele><time>2026-04-12T15:19:38.226Z</time></trkpt><trkpt lat="43.6993339" lon="13.2183601"><ele>16.0</ele><time>2026-04-12T15:19:39.226Z</time></trkpt><trkpt lat="43.6991615" lon="13.2187046"><ele>15.0</ele><time>2026-04-12T15:19:40.225Z</time></trkpt><trkpt lat="43.6989781" lon="13.2190374"><ele>14.0</ele><time>2026-04-12T15:19:41.225Z</time></trkpt><trkpt lat="43.6987832" lon="13.2193539"><ele>13.0</ele><time>2026-04-12T15:19:42.226Z</time></trkpt><trkpt lat="43.6985795" lon="13.2196589"><ele>14.0</ele><time>2026-04-12T15:19:43.226Z</time></trkpt><trkpt lat="43.6983575" lon="13.2199395"><ele>15.0</ele><time>2026-04-12T15:19:44.226Z</time></trkpt><trkpt lat="43.6981256" lon="13.2202023"><ele>15.0</ele><time>2026-04-12T15:19:45.226Z</time></trkpt><trkpt lat="43.6978861" lon="13.2204437"><ele>15.0</ele><time>2026-04-12T15:19:46.225Z</time></trkpt><trkpt lat="43.6976337" lon="13.2206652"><ele>14.5</ele><time>2026-04-12T15:19:47.226Z</time></trkpt><trkpt lat="43.6973692" lon="13.2208634"><ele>14.0</ele><time>2026-04-12T15:19:48.225Z</time></trkpt><trkpt lat="43.6970957" lon="13.2210309"><ele>16.0</ele><time>2026-04-12T15:19:49.225Z</time></trkpt><trkpt lat="43.6968106" lon="13.2211828"><ele>18.0</ele><time>2026-04-12T15:19:50.225Z</time></trkpt><trkpt lat="43.6965242" lon="13.221323"><ele>18.0</ele><time>2026-04-12T15:19:51.226Z</time></trkpt><trkpt lat="43.696236" lon="13.2214459"><ele>18.0</ele><time>2026-04-12T15:19:52.226Z</time></trkpt><trkpt lat="43.6959425" lon="13.2215524"><ele>21.5</ele><time>2026-04-12T15:19:53.226Z</time></trkpt><trkpt lat="43.6956457" lon="13.2216508"><ele>25.0</ele><time>2026-04-12T15:19:54.225Z</time></trkpt><trkpt lat="43.695351" lon="13.2217624"><ele>25.5</ele><time>2026-04-12T15:19:55.226Z</time></trkpt><trkpt lat="43.6950586" lon="13.2218916"><ele>26.0</ele><time>2026-04-12T15:19:56.225Z</time></trkpt><trkpt lat="43.69477" lon="13.2220384"><ele>26.0</ele><time>2026-04-12T15:19:57.226Z</time></trkpt><trkpt lat="43.6944892" lon="13.2222076"><ele>26.0</ele><time>2026-04-12T15:19:58.225Z</time></trkpt><trkpt lat="43.6942171" lon="13.2224008"><ele>29.5</ele><time>2026-04-12T15:19:59.226Z</time></trkpt><trkpt lat="43.6939537" lon="13.2226143"><ele>33.0</ele><time>2026-04-12T15:20:00.226Z</time></trkpt><trkpt lat="43.6936995" lon="13.222851"><ele>34.0</ele><time>2026-04-12T15:20:01.226Z</time></trkpt><trkpt lat="43.693465" lon="13.2231108"><ele>35.0</ele><time>2026-04-12T15:20:02.225Z</time></trkpt><trkpt lat="43.6932421" lon="13.2233945"><ele>35.0</ele><time>2026-04-12T15:20:03.226Z</time></trkpt><trkpt lat="43.6930316" lon="13.223695"><ele>35.0</ele><time>2026-04-12T15:20:04.225Z</time></trkpt><trkpt lat="43.6928346" lon="13.2240119"><ele>33.0</ele><time>2026-04-12T15:20:05.226Z</time></trkpt><trkpt lat="43.692644" lon="13.2243441"><ele>31.0</ele><time>2026-04-12T15:20:06.226Z</time></trkpt><trkpt lat="43.6924596" lon="13.2246785"><ele>33.0</ele><time>2026-04-12T15:20:07.225Z</time></trkpt><trkpt lat="43.6922946" lon="13.2250249"><ele>35.0</ele><time>2026-04-12T15:20:08.226Z</time></trkpt><trkpt lat="43.6921425" lon="13.225383"><ele>36.5</ele><time>2026-04-12T15:20:09.225Z</time></trkpt><trkpt lat="43.6919987" lon="13.2257547"><ele>38.0</ele><time>2026-04-12T15:20:10.226Z</time></trkpt><trkpt lat="43.6918716" lon="13.2261335"><ele>40.0</ele><time>2026-04-12T15:20:11.226Z</time></trkpt><trkpt lat="43.6917443" lon="13.226515"><ele>42.0</ele><time>2026-04-12T15:20:12.225Z</time></trkpt><trkpt lat="43.6916245" lon="13.2269055"><ele>42.0</ele><time>2026-04-12T15:20:13.226Z</time></trkpt><trkpt lat="43.6915146" lon="13.2273065"><ele>42.0</ele><time>2026-04-12T15:20:14.226Z</time></trkpt><trkpt lat="43.691406" lon="13.2277078"><ele>43.5</ele><time>2026-04-12T15:20:15.226Z</time></trkpt><trkpt lat="43.6913075" lon="13.2281063"><ele>45.0</ele><time>2026-04-12T15:20:16.225Z</time></trkpt><trkpt lat="43.6912015" lon="13.2284954"><ele>51.0</ele><time>2026-04-12T15:20:17.226Z</time></trkpt><trkpt lat="43.6910866" lon="13.2288821"><ele>57.0</ele><time>2026-04-12T15:20:18.226Z</time></trkpt><trkpt lat="43.6909721" lon="13.2292658"><ele>59.5</ele><time>2026-04-12T15:20:19.226Z</time></trkpt><trkpt lat="43.6908607" lon="13.2296412"><ele>62.0</ele><time>2026-04-12T15:20:20.226Z</time></trkpt><trkpt lat="43.6907479" lon="13.2300207"><ele>65.5</ele><time>2026-04-12T15:20:21.226Z</time></trkpt><trkpt lat="43.6906378" lon="13.2304102"><ele>69.0</ele><time>2026-04-12T15:20:22.225Z</time></trkpt><trkpt lat="43.6899233" lon="13.236325"><ele>55.0</ele><time>2026-04-12T15:20:36.226Z</time></trkpt><trkpt lat="43.6899617" lon="13.2367467"><ele>41.0</ele><time>2026-04-12T15:20:37.227Z</time></trkpt><trkpt lat="43.6899867" lon="13.2371917"><ele>39.5</ele><time>2026-04-12T15:20:38.227Z</time></trkpt><trkpt lat="43.6900183" lon="13.2376267"><ele>38.0</ele><time>2026-04-12T15:20:39.227Z</time></trkpt><trkpt lat="43.69006" lon="13.238065"><ele>37.5</ele><time>2026-04-12T15:20:40.226Z</time></trkpt><trkpt lat="43.6901017" lon="13.238505"><ele>37.0</ele><time>2026-04-12T15:20:41.227Z</time></trkpt><trkpt lat="43.69015" lon="13.2389383"><ele>34.5</ele><time>2026-04-12T15:20:42.226Z</time></trkpt><trkpt lat="43.6901917" lon="13.239375"><ele>32.0</ele><time>2026-04-12T15:20:43.227Z</time></trkpt><trkpt lat="43.690235" lon="13.2398067"><ele>28.5</ele><time>2026-04-12T15:20:44.226Z</time></trkpt><trkpt lat="43.6902783" lon="13.24024"><ele>25.0</ele><time>2026-04-12T15:20:45.227Z</time></trkpt><trkpt lat="43.6903217" lon="13.24067"><ele>22.5</ele><time>2026-04-12T15:20:46.227Z</time></trkpt><trkpt lat="43.6903583" lon="13.2411033"><ele>20.0</ele><time>2026-04-12T15:20:47.227Z</time></trkpt><trkpt lat="43.6903983" lon="13.2415317"><ele>19.5</ele><time>2026-04-12T15:20:48.227Z</time></trkpt><trkpt lat="43.6904467" lon="13.241945"><ele>19.0</ele><time>2026-04-12T15:20:49.227Z</time></trkpt><trkpt lat="43.6904933" lon="13.2423617"><ele>19.0</ele><time>2026-04-12T15:20:50.227Z</time></trkpt><trkpt lat="43.690535" lon="13.2427717"><ele>19.0</ele><time>2026-04-12T15:20:51.227Z</time></trkpt><trkpt lat="43.6905783" lon="13.2431783"><ele>20.5</ele><time>2026-04-12T15:20:52.227Z</time></trkpt><trkpt lat="43.6906233" lon="13.243585"><ele>22.0</ele><time>2026-04-12T15:20:53.227Z</time></trkpt><trkpt lat="43.69067" lon="13.24399"><ele>24.0</ele><time>2026-04-12T15:20:54.227Z</time></trkpt><trkpt lat="43.69072" lon="13.24439"><ele>26.0</ele><time>2026-04-12T15:20:55.227Z</time></trkpt><trkpt lat="43.69077" lon="13.2447933"><ele>28.5</ele><time>2026-04-12T15:20:56.227Z</time></trkpt><trkpt lat="43.6908117" lon="13.24519"><ele>31.0</ele><time>2026-04-12T15:20:57.226Z</time></trkpt><trkpt lat="43.6908583" lon="13.2455967"><ele>34.0</ele><time>2026-04-12T15:20:58.227Z</time></trkpt><trkpt lat="43.6909033" lon="13.2460083"><ele>37.0</ele><time>2026-04-12T15:20:59.227Z</time></trkpt><trkpt lat="43.6909433" lon="13.246425"><ele>41.0</ele><time>2026-04-12T15:21:00.227Z</time></trkpt><trkpt lat="43.690975" lon="13.2468317"><ele>45.0</ele><time>2026-04-12T15:21:01.226Z</time></trkpt><trkpt lat="43.6909933" lon="13.247235"><ele>47.0</ele><time>2026-04-12T15:21:02.227Z</time></trkpt><trkpt lat="43.691" lon="13.2476417"><ele>49.0</ele><time>2026-04-12T15:21:03.226Z</time></trkpt><trkpt lat="43.690985" lon="13.2480483"><ele>48.0</ele><time>2026-04-12T15:21:04.227Z</time></trkpt><trkpt lat="43.69096" lon="13.24846"><ele>47.0</ele><time>2026-04-12T15:21:05.227Z</time></trkpt><trkpt lat="43.6909217" lon="13.248865"><ele>45.0</ele><time>2026-04-12T15:21:06.227Z</time></trkpt><trkpt lat="43.69087" lon="13.249265"><ele>43.0</ele><time>2026-04-12T15:21:07.226Z</time></trkpt><trkpt lat="43.6908" lon="13.2496617"><ele>40.5</ele><time>2026-04-12T15:21:08.227Z</time></trkpt><trkpt lat="43.690715" lon="13.2500517"><ele>38.0</ele><time>2026-04-12T15:21:09.227Z</time></trkpt><trkpt lat="43.69061" lon="13.2504383"><ele>36.0</ele><time>2026-04-12T15:21:10.227Z</time></trkpt><trkpt lat="43.690485" lon="13.2508117"><ele>34.0</ele><time>2026-04-12T15:21:11.227Z</time></trkpt><trkpt lat="43.690345" lon="13.2511767"><ele>36.5</ele><time>2026-04-12T15:21:12.226Z</time></trkpt><trkpt lat="43.6901883" lon="13.251525"><ele>39.0</ele><time>2026-04-12T15:21:13.226Z</time></trkpt><trkpt lat="43.6900183" lon="13.2518633"><ele>39.0</ele><time>2026-04-12T15:21:14.227Z</time></trkpt><trkpt lat="43.6898417" lon="13.2521917"><ele>39.0</ele><time>2026-04-12T15:21:15.226Z</time></trkpt><trkpt lat="43.6896483" lon="13.252505"><ele>37.0</ele><time>2026-04-12T15:21:16.227Z</time></trkpt><trkpt lat="43.6894383" lon="13.252805"><ele>35.0</ele><time>2026-04-12T15:21:17.227Z</time></trkpt><trkpt lat="43.689225" lon="13.2530983"><ele>37.5</ele><time>2026-04-12T15:21:18.227Z</time></trkpt><trkpt lat="43.689005" lon="13.253395"><ele>40.0</ele><time>2026-04-12T15:21:19.227Z</time></trkpt><trkpt lat="43.6887867" lon="13.2536933"><ele>41.5</ele><time>2026-04-12T15:21:20.226Z</time></trkpt><trkpt lat="43.6885717" lon="13.2539967"><ele>43.0</ele><time>2026-04-12T15:21:21.226Z</time></trkpt><trkpt lat="43.6883633" lon="13.254305"><ele>43.0</ele><time>2026-04-12T15:21:22.227Z</time></trkpt><trkpt lat="43.6881517" lon="13.254615"><ele>43.0</ele><time>2026-04-12T15:21:23.227Z</time></trkpt><trkpt lat="43.687935" lon="13.25491"><ele>42.5</ele><time>2026-04-12T15:21:24.226Z</time></trkpt><trkpt lat="43.6877233" lon="13.2552183"><ele>42.0</ele><time>2026-04-12T15:21:25.226Z</time></trkpt><trkpt lat="43.6875133" lon="13.25553"><ele>40.5</ele><time>2026-04-12T15:21:26.226Z</time></trkpt><trkpt lat="43.6873" lon="13.2558333"><ele>39.0</ele><time>2026-04-12T15:21:27.227Z</time></trkpt><trkpt lat="43.6870867" lon="13.2561367"><ele>40.5</ele><time>2026-04-12T15:21:28.226Z</time></trkpt><trkpt lat="43.6868733" lon="13.2564383"><ele>42.0</ele><time>2026-04-12T15:21:29.227Z</time></trkpt><trkpt lat="43.6866583" lon="13.256735"><ele>42.0</ele><time>2026-04-12T15:21:30.227Z</time></trkpt><trkpt lat="43.6864433" lon="13.2570383"><ele>42.0</ele><time>2026-04-12T15:21:31.227Z</time></trkpt><trkpt lat="43.6862233" lon="13.2573367"><ele>44.0</ele><time>2026-04-12T15:21:32.227Z</time></trkpt><trkpt lat="43.6859933" lon="13.25762"><ele>46.0</ele><time>2026-04-12T15:21:33.227Z</time></trkpt><trkpt lat="43.68576" lon="13.2578983"><ele>44.0</ele><time>2026-04-12T15:21:34.227Z</time></trkpt><trkpt lat="43.68552" lon="13.258175"><ele>42.0</ele><time>2026-04-12T15:21:35.227Z</time></trkpt><trkpt lat="43.68528" lon="13.2584383"><ele>45.5</ele><time>2026-04-12T15:21:36.227Z</time></trkpt><trkpt lat="43.68503" lon="13.25869"><ele>49.0</ele><time>2026-04-12T15:21:37.227Z</time></trkpt><trkpt lat="43.684775" lon="13.258935"><ele>48.5</ele><time>2026-04-12T15:21:38.227Z</time></trkpt><trkpt lat="43.6845167" lon="13.259175"><ele>48.0</ele><time>2026-04-12T15:21:39.227Z</time></trkpt><trkpt lat="43.6842517" lon="13.2594067"><ele>48.0</ele><time>2026-04-12T15:21:40.227Z</time></trkpt><trkpt lat="43.6839867" lon="13.2596283"><ele>48.0</ele><time>2026-04-12T15:21:41.227Z</time></trkpt><trkpt lat="43.6837183" lon="13.2598483"><ele>48.5</ele><time>2026-04-12T15:21:42.227Z</time></trkpt><trkpt lat="43.6834517" lon="13.26006"><ele>49.0</ele><time>2026-04-12T15:21:43.226Z</time></trkpt><trkpt lat="43.6831833" lon="13.2602783"><ele>49.0</ele><time>2026-04-12T15:21:44.227Z</time></trkpt><trkpt lat="43.6829183" lon="13.260505"><ele>49.0</ele><time>2026-04-12T15:21:45.227Z</time></trkpt><trkpt lat="43.682665" lon="13.260745"><ele>51.0</ele><time>2026-04-12T15:21:46.227Z</time></trkpt><trkpt lat="43.6824117" lon="13.26099"><ele>53.0</ele><time>2026-04-12T15:21:47.226Z</time></trkpt><trkpt lat="43.6821667" lon="13.2612533"><ele>51.5</ele><time>2026-04-12T15:21:48.227Z</time></trkpt><trkpt lat="43.6819267" lon="13.2615283"><ele>50.0</ele><time>2026-04-12T15:21:49.226Z</time></trkpt><trkpt lat="43.6816867" lon="13.26181"><ele>50.0</ele><time>2026-04-12T15:21:50.226Z</time></trkpt><trkpt lat="43.681455" lon="13.2621033"><ele>50.0</ele><time>2026-04-12T15:21:51.226Z</time></trkpt><trkpt lat="43.681235" lon="13.262405"><ele>54.0</ele><time>2026-04-12T15:21:52.227Z</time></trkpt><trkpt lat="43.6810183" lon="13.2627167"><ele>58.0</ele><time>2026-04-12T15:21:53.227Z</time></trkpt><trkpt lat="43.6808067" lon="13.2630333"><ele>56.0</ele><time>2026-04-12T15:21:54.227Z</time></trkpt><trkpt lat="43.680595" lon="13.2633517"><ele>54.0</ele><time>2026-04-12T15:21:55.226Z</time></trkpt><trkpt lat="43.6803833" lon="13.2636717"><ele>55.5</ele><time>2026-04-12T15:21:56.227Z</time></trkpt><trkpt lat="43.680175" lon="13.2639917"><ele>57.0</ele><time>2026-04-12T15:21:57.227Z</time></trkpt><trkpt lat="43.679965" lon="13.2643217"><ele>57.0</ele><time>2026-04-12T15:21:58.227Z</time></trkpt><trkpt lat="43.6797583" lon="13.2646467"><ele>57.0</ele><time>2026-04-12T15:21:59.227Z</time></trkpt><trkpt lat="43.6795483" lon="13.2649717"><ele>58.0</ele><time>2026-04-12T15:22:00.227Z</time></trkpt><trkpt lat="43.6793367" lon="13.2653033"><ele>59.0</ele><time>2026-04-12T15:22:01.226Z</time></trkpt><trkpt lat="43.6791367" lon="13.26564"><ele>59.0</ele><time>2026-04-12T15:22:02.227Z</time></trkpt><trkpt lat="43.6789417" lon="13.2659883"><ele>59.0</ele><time>2026-04-12T15:22:03.227Z</time></trkpt><trkpt lat="43.67876" lon="13.2663433"><ele>61.5</ele><time>2026-04-12T15:22:04.226Z</time></trkpt><trkpt lat="43.6785883" lon="13.2667083"><ele>64.0</ele><time>2026-04-12T15:22:05.227Z</time></trkpt><trkpt lat="43.67843" lon="13.2670817"><ele>60.0</ele><time>2026-04-12T15:22:06.226Z</time></trkpt><trkpt lat="43.6782883" lon="13.2674667"><ele>56.0</ele><time>2026-04-12T15:22:07.227Z</time></trkpt><trkpt lat="43.6781467" lon="13.2678667"><ele>51.5</ele><time>2026-04-12T15:22:08.227Z</time></trkpt><trkpt lat="43.6780167" lon="13.268275"><ele>47.0</ele><time>2026-04-12T15:22:09.226Z</time></trkpt><trkpt lat="43.6778933" lon="13.2686817"><ele>44.0</ele><time>2026-04-12T15:22:10.227Z</time></trkpt><trkpt lat="43.67777" lon="13.2690917"><ele>41.0</ele><time>2026-04-12T15:22:11.226Z</time></trkpt><trkpt lat="43.6776433" lon="13.2695"><ele>46.5</ele><time>2026-04-12T15:22:12.227Z</time></trkpt><trkpt lat="43.677525" lon="13.2699133"><ele>52.0</ele><time>2026-04-12T15:22:13.227Z</time></trkpt><trkpt lat="43.6774067" lon="13.27032"><ele>51.0</ele><time>2026-04-12T15:22:14.227Z</time></trkpt><trkpt lat="43.6772883" lon="13.2707317"><ele>50.0</ele><time>2026-04-12T15:22:15.227Z</time></trkpt><trkpt lat="43.67717" lon="13.2711417"><ele>48.5</ele><time>2026-04-12T15:22:16.226Z</time></trkpt><trkpt lat="43.6770483" lon="13.2715533"><ele>47.0</ele><time>2026-04-12T15:22:17.227Z</time></trkpt><trkpt lat="43.6769283" lon="13.27196"><ele>51.0</ele><time>2026-04-12T15:22:18.227Z</time></trkpt><trkpt lat="43.676805" lon="13.272365"><ele>55.0</ele><time>2026-04-12T15:22:19.226Z</time></trkpt><trkpt lat="43.67669" lon="13.2727683"><ele>54.5</ele><time>2026-04-12T15:22:20.227Z</time></trkpt><trkpt lat="43.676575" lon="13.2731883"><ele>54.0</ele><time>2026-04-12T15:22:21.227Z</time></trkpt><trkpt lat="43.6764567" lon="13.2735983"><ele>52.5</ele><time>2026-04-12T15:22:22.226Z</time></trkpt><trkpt lat="43.676335" lon="13.274005"><ele>51.0</ele><time>2026-04-12T15:22:23.227Z</time></trkpt><trkpt lat="43.67621" lon="13.2744117"><ele>52.0</ele><time>2026-04-12T15:22:24.227Z</time></trkpt><trkpt lat="43.6760833" lon="13.2748117"><ele>53.0</ele><time>2026-04-12T15:22:25.227Z</time></trkpt><trkpt lat="43.6759417" lon="13.2752117"><ele>53.0</ele><time>2026-04-12T15:22:26.226Z</time></trkpt><trkpt lat="43.67579" lon="13.2756"><ele>53.0</ele><time>2026-04-12T15:22:27.227Z</time></trkpt><trkpt lat="43.6756317" lon="13.275985"><ele>51.0</ele><time>2026-04-12T15:22:28.226Z</time></trkpt><trkpt lat="43.67546" lon="13.2763633"><ele>49.0</ele><time>2026-04-12T15:22:29.226Z</time></trkpt><trkpt lat="43.6752783" lon="13.2767333"><ele>48.5</ele><time>2026-04-12T15:22:30.227Z</time></trkpt><trkpt lat="43.675085" lon="13.2770883"><ele>48.0</ele><time>2026-04-12T15:22:31.227Z</time></trkpt><trkpt lat="43.6748817" lon="13.2774383"><ele>48.0</ele><time>2026-04-12T15:22:32.227Z</time></trkpt><trkpt lat="43.674675" lon="13.2777783"><ele>48.0</ele><time>2026-04-12T15:22:33.227Z</time></trkpt><trkpt lat="43.6744533" lon="13.2781083"><ele>50.0</ele><time>2026-04-12T15:22:34.227Z</time></trkpt><trkpt lat="43.6742217" lon="13.27843"><ele>52.0</ele><time>2026-04-12T15:22:35.226Z</time></trkpt><trkpt lat="43.6739883" lon="13.2787383"><ele>52.0</ele><time>2026-04-12T15:22:36.227Z</time></trkpt><trkpt lat="43.6737633" lon="13.2790567"><ele>52.0</ele><time>2026-04-12T15:22:37.226Z</time></trkpt><trkpt lat="43.6735383" lon="13.2793717"><ele>52.0</ele><time>2026-04-12T15:22:38.226Z</time></trkpt><trkpt lat="43.67332" lon="13.2797017"><ele>52.0</ele><time>2026-04-12T15:22:39.227Z</time></trkpt><trkpt lat="43.673105" lon="13.2800267"><ele>51.5</ele><time>2026-04-12T15:22:40.226Z</time></trkpt><trkpt lat="43.6729033" lon="13.2803617"><ele>51.0</ele><time>2026-04-12T15:22:41.227Z</time></trkpt><trkpt lat="43.67271" lon="13.2807083"><ele>51.0</ele><time>2026-04-12T15:22:42.226Z</time></trkpt><trkpt lat="43.672535" lon="13.2810667"><ele>51.0</ele><time>2026-04-12T15:22:43.226Z</time></trkpt><trkpt lat="43.672365" lon="13.2814283"><ele>49.0</ele><time>2026-04-12T15:22:44.227Z</time></trkpt><trkpt lat="43.6721967" lon="13.2817967"><ele>47.0</ele><time>2026-04-12T15:22:45.227Z</time></trkpt><trkpt lat="43.6720533" lon="13.2821767"><ele>50.5</ele><time>2026-04-12T15:22:46.227Z</time></trkpt><trkpt lat="43.6719217" lon="13.2825733"><ele>54.0</ele><time>2026-04-12T15:22:47.226Z</time></trkpt><trkpt lat="43.6718017" lon="13.2829667"><ele>52.0</ele><time>2026-04-12T15:22:48.227Z</time></trkpt><trkpt lat="43.6716917" lon="13.28337"><ele>50.0</ele><time>2026-04-12T15:22:49.227Z</time></trkpt><trkpt lat="43.671595" lon="13.2837833"><ele>48.0</ele><time>2026-04-12T15:22:50.227Z</time></trkpt><trkpt lat="43.67151" lon="13.2842083"><ele>46.0</ele><time>2026-04-12T15:22:51.227Z</time></trkpt><trkpt lat="43.6714333" lon="13.284635"><ele>45.0</ele><time>2026-04-12T15:22:52.227Z</time></trkpt><trkpt lat="43.6713683" lon="13.28507"><ele>44.0</ele><time>2026-04-12T15:22:53.227Z</time></trkpt><trkpt lat="43.671305" lon="13.2855017"><ele>43.5</ele><time>2026-04-12T15:22:54.226Z</time></trkpt><trkpt lat="43.6712433" lon="13.2859517"><ele>43.0</ele><time>2026-04-12T15:22:55.227Z</time></trkpt><trkpt lat="43.6711783" lon="13.28639"><ele>47.0</ele><time>2026-04-12T15:22:56.226Z</time></trkpt><trkpt lat="43.6711017" lon="13.2868283"><ele>51.0</ele><time>2026-04-12T15:22:57.227Z</time></trkpt><trkpt lat="43.671015" lon="13.2872583"><ele>48.5</ele><time>2026-04-12T15:22:58.226Z</time></trkpt><trkpt lat="43.670915" lon="13.2876817"><ele>46.0</ele><time>2026-04-12T15:22:59.226Z</time></trkpt><trkpt lat="43.6707983" lon="13.288095"><ele>44.0</ele><time>2026-04-12T15:23:00.227Z</time></trkpt><trkpt lat="43.6706833" lon="13.2885117"><ele>42.0</ele><time>2026-04-12T15:23:01.227Z</time></trkpt><trkpt lat="43.67056" lon="13.2889233"><ele>39.5</ele><time>2026-04-12T15:23:02.227Z</time></trkpt><trkpt lat="43.67043" lon="13.2893333"><ele>37.0</ele><time>2026-04-12T15:23:03.227Z</time></trkpt><trkpt lat="43.6703017" lon="13.2897417"><ele>36.5</ele><time>2026-04-12T15:23:04.227Z</time></trkpt><trkpt lat="43.6701783" lon="13.2901517"><ele>36.0</ele><time>2026-04-12T15:23:05.226Z</time></trkpt><trkpt lat="43.67005" lon="13.29056"><ele>34.0</ele><time>2026-04-12T15:23:06.227Z</time></trkpt><trkpt lat="43.6699267" lon="13.290965"><ele>32.0</ele><time>2026-04-12T15:23:07.227Z</time></trkpt><trkpt lat="43.6697983" lon="13.2913717"><ele>29.5</ele><time>2026-04-12T15:23:08.227Z</time></trkpt><trkpt lat="43.669675" lon="13.2917933"><ele>27.0</ele><time>2026-04-12T15:23:09.227Z</time></trkpt><trkpt lat="43.6695583" lon="13.2922067"><ele>30.5</ele><time>2026-04-12T15:23:10.227Z</time></trkpt><trkpt lat="43.6694367" lon="13.292615"><ele>34.0</ele><time>2026-04-12T15:23:11.227Z</time></trkpt><trkpt lat="43.6693133" lon="13.293025"><ele>31.5</ele><time>2026-04-12T15:23:12.226Z</time></trkpt><trkpt lat="43.669195" lon="13.293435"><ele>29.0</ele><time>2026-04-12T15:23:13.227Z</time></trkpt><trkpt lat="43.6690717" lon="13.29384"><ele>28.0</ele><time>2026-04-12T15:23:14.227Z</time></trkpt><trkpt lat="43.6689483" lon="13.294245"><ele>27.0</ele><time>2026-04-12T15:23:15.227Z</time></trkpt><trkpt lat="43.6688283" lon="13.294645"><ele>26.5</ele><time>2026-04-12T15:23:16.227Z</time></trkpt><trkpt lat="43.6687" lon="13.295055"><ele>26.0</ele><time>2026-04-12T15:23:17.227Z</time></trkpt><trkpt lat="43.6685717" lon="13.2954633"><ele>28.0</ele><time>2026-04-12T15:23:18.227Z</time></trkpt><trkpt lat="43.6684267" lon="13.2958667"><ele>30.0</ele><time>2026-04-12T15:23:19.227Z</time></trkpt><trkpt lat="43.6682717" lon="13.29626"><ele>27.5</ele><time>2026-04-12T15:23:20.227Z</time></trkpt><trkpt lat="43.668105" lon="13.29665"><ele>25.0</ele><time>2026-04-12T15:23:21.227Z</time></trkpt><trkpt lat="43.6679317" lon="13.29702"><ele>27.5</ele><time>2026-04-12T15:23:22.226Z</time></trkpt><trkpt lat="43.66774" lon="13.2973883"><ele>30.0</ele><time>2026-04-12T15:23:23.227Z</time></trkpt><trkpt lat="43.66755" lon="13.2977517"><ele>28.5</ele><time>2026-04-12T15:23:24.226Z</time></trkpt><trkpt lat="43.667345" lon="13.298095"><ele>27.0</ele><time>2026-04-12T15:23:25.227Z</time></trkpt><trkpt lat="43.6671383" lon="13.2984317"><ele>29.5</ele><time>2026-04-12T15:23:26.227Z</time></trkpt><trkpt lat="43.66692" lon="13.2987617"><ele>32.0</ele><time>2026-04-12T15:23:27.227Z</time></trkpt><trkpt lat="43.6666933" lon="13.299085"><ele>32.0</ele><time>2026-04-12T15:23:28.226Z</time></trkpt><trkpt lat="43.6664717" lon="13.2994067"><ele>32.0</ele><time>2026-04-12T15:23:29.227Z</time></trkpt><trkpt lat="43.6662517" lon="13.2997283"><ele>33.5</ele><time>2026-04-12T15:23:30.227Z</time></trkpt><trkpt lat="43.666035" lon="13.30005"><ele>35.0</ele><time>2026-04-12T15:23:31.227Z</time></trkpt><trkpt lat="43.6658133" lon="13.3003733"><ele>33.0</ele><time>2026-04-12T15:23:32.226Z</time></trkpt><trkpt lat="43.665595" lon="13.3006883"><ele>31.0</ele><time>2026-04-12T15:23:33.227Z</time></trkpt><trkpt lat="43.6653783" lon="13.300995"><ele>33.0</ele><time>2026-04-12T15:23:34.226Z</time></trkpt><trkpt lat="43.665175" lon="13.30131"><ele>35.0</ele><time>2026-04-12T15:23:35.227Z</time></trkpt><trkpt lat="43.6649667" lon="13.3016167"><ele>35.0</ele><time>2026-04-12T15:23:36.227Z</time></trkpt><trkpt lat="43.6647567" lon="13.3019183"><ele>35.0</ele><time>2026-04-12T15:23:37.226Z</time></trkpt><trkpt lat="43.664545" lon="13.3022233"><ele>37.5</ele><time>2026-04-12T15:23:38.226Z</time></trkpt><trkpt lat="43.6643333" lon="13.3025333"><ele>40.0</ele><time>2026-04-12T15:23:39.226Z</time></trkpt><trkpt lat="43.664125" lon="13.3028333"><ele>37.5</ele><time>2026-04-12T15:23:40.226Z</time></trkpt><trkpt lat="43.6639167" lon="13.3031467"><ele>35.0</ele><time>2026-04-12T15:23:41.227Z</time></trkpt><trkpt lat="43.6637167" lon="13.303475"><ele>37.5</ele><time>2026-04-12T15:23:42.227Z</time></trkpt><trkpt lat="43.66351" lon="13.3037983"><ele>40.0</ele><time>2026-04-12T15:23:43.227Z</time></trkpt><trkpt lat="43.6632967" lon="13.3041233"><ele>40.0</ele><time>2026-04-12T15:23:44.227Z</time></trkpt><trkpt lat="43.6630717" lon="13.3044417"><ele>40.0</ele><time>2026-04-12T15:23:45.226Z</time></trkpt><trkpt lat="43.6628417" lon="13.3047633"><ele>41.5</ele><time>2026-04-12T15:23:46.226Z</time></trkpt><trkpt lat="43.6626133" lon="13.305085"><ele>43.0</ele><time>2026-04-12T15:23:47.227Z</time></trkpt><trkpt lat="43.66239" lon="13.3054083"><ele>39.5</ele><time>2026-04-12T15:23:48.226Z</time></trkpt><trkpt lat="43.6621667" lon="13.3057283"><ele>36.0</ele><time>2026-04-12T15:23:49.227Z</time></trkpt><trkpt lat="43.66195" lon="13.306055"><ele>36.0</ele><time>2026-04-12T15:23:50.227Z</time></trkpt><trkpt lat="43.661735" lon="13.3063883"><ele>36.0</ele><time>2026-04-12T15:23:51.227Z</time></trkpt><trkpt lat="43.6615333" lon="13.3067283"><ele>36.0</ele><time>2026-04-12T15:23:52.227Z</time></trkpt><trkpt lat="43.66134" lon="13.3070817"><ele>36.0</ele><time>2026-04-12T15:23:53.226Z</time></trkpt><trkpt lat="43.6611533" lon="13.3074433"><ele>35.0</ele><time>2026-04-12T15:23:54.227Z</time></trkpt><trkpt lat="43.6609783" lon="13.30782"><ele>34.0</ele><time>2026-04-12T15:23:55.227Z</time></trkpt><trkpt lat="43.6608233" lon="13.3082067"><ele>34.0</ele><time>2026-04-12T15:23:56.227Z</time></trkpt><trkpt lat="43.6606733" lon="13.3085917"><ele>34.0</ele><time>2026-04-12T15:23:57.227Z</time></trkpt><trkpt lat="43.6605333" lon="13.308995"><ele>34.0</ele><time>2026-04-12T15:23:58.227Z</time></trkpt><trkpt lat="43.66041" lon="13.3094017"><ele>34.0</ele><time>2026-04-12T15:23:59.227Z</time></trkpt><trkpt lat="43.6602983" lon="13.3098167"><ele>37.0</ele><time>2026-04-12T15:24:00.226Z</time></trkpt><trkpt lat="43.6601917" lon="13.3102333"><ele>40.0</ele><time>2026-04-12T15:24:01.227Z</time></trkpt><trkpt lat="43.6601" lon="13.3106283"><ele>40.0</ele><time>2026-04-12T15:24:02.227Z</time></trkpt><trkpt lat="43.6599817" lon="13.3110533"><ele>40.0</ele><time>2026-04-12T15:24:03.227Z</time></trkpt><trkpt lat="43.6598683" lon="13.3114783"><ele>38.5</ele><time>2026-04-12T15:24:04.227Z</time></trkpt><trkpt lat="43.6597583" lon="13.3118967"><ele>37.0</ele><time>2026-04-12T15:24:05.227Z</time></trkpt><trkpt lat="43.6596483" lon="13.312315"><ele>36.0</ele><time>2026-04-12T15:24:06.226Z</time></trkpt><trkpt lat="43.6595367" lon="13.3127317"><ele>35.0</ele><time>2026-04-12T15:24:07.226Z</time></trkpt><trkpt lat="43.6594217" lon="13.3131467"><ele>37.5</ele><time>2026-04-12T15:24:08.227Z</time></trkpt><trkpt lat="43.659305" lon="13.3135733"><ele>40.0</ele><time>2026-04-12T15:24:09.227Z</time></trkpt><trkpt lat="43.6591817" lon="13.313985"><ele>40.0</ele><time>2026-04-12T15:24:10.227Z</time></trkpt><trkpt lat="43.65905" lon="13.3144"><ele>40.0</ele><time>2026-04-12T15:24:11.227Z</time></trkpt><trkpt lat="43.6589117" lon="13.3147933"><ele>41.5</ele><time>2026-04-12T15:24:12.227Z</time></trkpt><trkpt lat="43.65876" lon="13.31519"><ele>43.0</ele><time>2026-04-12T15:24:13.226Z</time></trkpt><trkpt lat="43.6586017" lon="13.3155817"><ele>43.0</ele><time>2026-04-12T15:24:14.227Z</time></trkpt><trkpt lat="43.6584417" lon="13.3159717"><ele>43.0</ele><time>2026-04-12T15:24:15.227Z</time></trkpt><trkpt lat="43.65827" lon="13.3163533"><ele>41.0</ele><time>2026-04-12T15:24:16.227Z</time></trkpt><trkpt lat="43.6581033" lon="13.31673"><ele>39.0</ele><time>2026-04-12T15:24:17.226Z</time></trkpt><trkpt lat="43.65793" lon="13.3171117"><ele>41.0</ele><time>2026-04-12T15:24:18.227Z</time></trkpt><trkpt lat="43.65776" lon="13.3174967"><ele>43.0</ele><time>2026-04-12T15:24:19.227Z</time></trkpt><trkpt lat="43.6575883" lon="13.3178683"><ele>42.0</ele><time>2026-04-12T15:24:20.227Z</time></trkpt><trkpt lat="43.657415" lon="13.3182267"><ele>41.0</ele><time>2026-04-12T15:24:21.227Z</time></trkpt><trkpt lat="43.6572533" lon="13.3185967"><ele>41.5</ele><time>2026-04-12T15:24:22.227Z</time></trkpt><trkpt lat="43.6570933" lon="13.3189633"><ele>42.0</ele><time>2026-04-12T15:24:23.227Z</time></trkpt><trkpt lat="43.6569333" lon="13.319345"><ele>41.0</ele><time>2026-04-12T15:24:24.227Z</time></trkpt><trkpt lat="43.656775" lon="13.319735"><ele>40.0</ele><time>2026-04-12T15:24:25.227Z</time></trkpt><trkpt lat="43.65661" lon="13.3201117"><ele>40.0</ele><time>2026-04-12T15:24:26.226Z</time></trkpt><trkpt lat="43.6564467" lon="13.3205"><ele>40.0</ele><time>2026-04-12T15:24:27.227Z</time></trkpt><trkpt lat="43.6562767" lon="13.320875"><ele>39.5</ele><time>2026-04-12T15:24:28.227Z</time></trkpt><trkpt lat="43.6561067" lon="13.32125"><ele>39.0</ele><time>2026-04-12T15:24:29.227Z</time></trkpt><trkpt lat="43.6559333" lon="13.32163"><ele>39.0</ele><time>2026-04-12T15:24:30.226Z</time></trkpt><trkpt lat="43.6557583" lon="13.3220117"><ele>39.0</ele><time>2026-04-12T15:24:31.227Z</time></trkpt><trkpt lat="43.6555883" lon="13.3223883"><ele>39.5</ele><time>2026-04-12T15:24:32.226Z</time></trkpt><trkpt lat="43.65542" lon="13.3227617"><ele>40.0</ele><time>2026-04-12T15:24:33.226Z</time></trkpt><trkpt lat="43.6552483" lon="13.3231433"><ele>40.0</ele><time>2026-04-12T15:24:34.227Z</time></trkpt><trkpt lat="43.6550767" lon="13.3235167"><ele>40.0</ele><time>2026-04-12T15:24:35.226Z</time></trkpt><trkpt lat="43.6549033" lon="13.323895"><ele>40.5</ele><time>2026-04-12T15:24:36.227Z</time></trkpt><trkpt lat="43.6547333" lon="13.324265"><ele>41.0</ele><time>2026-04-12T15:24:37.227Z</time></trkpt><trkpt lat="43.65456" lon="13.32464"><ele>41.0</ele><time>2026-04-12T15:24:38.226Z</time></trkpt><trkpt lat="43.6543833" lon="13.3250117"><ele>41.0</ele><time>2026-04-12T15:24:39.226Z</time></trkpt><trkpt lat="43.6542067" lon="13.325375"><ele>39.0</ele><time>2026-04-12T15:24:40.226Z</time></trkpt><trkpt lat="43.65401" lon="13.3257217"><ele>37.0</ele><time>2026-04-12T15:24:41.227Z</time></trkpt><trkpt lat="43.6538033" lon="13.3260567"><ele>39.0</ele><time>2026-04-12T15:24:42.226Z</time></trkpt><trkpt lat="43.65358" lon="13.3263817"><ele>41.0</ele><time>2026-04-12T15:24:43.227Z</time></trkpt><trkpt lat="43.6533483" lon="13.3266983"><ele>41.0</ele><time>2026-04-12T15:24:44.227Z</time></trkpt><trkpt lat="43.6531067" lon="13.3269983"><ele>41.0</ele><time>2026-04-12T15:24:45.227Z</time></trkpt><trkpt lat="43.6528633" lon="13.32729"><ele>42.0</ele><time>2026-04-12T15:24:46.227Z</time></trkpt><trkpt lat="43.6526017" lon="13.32756"><ele>43.0</ele><time>2026-04-12T15:24:47.227Z</time></trkpt><trkpt lat="43.65234" lon="13.3278083"><ele>43.0</ele><time>2026-04-12T15:24:48.226Z</time></trkpt><trkpt lat="43.652055" lon="13.3280583"><ele>43.0</ele><time>2026-04-12T15:24:49.227Z</time></trkpt><trkpt lat="43.6517717" lon="13.3282783"><ele>40.5</ele><time>2026-04-12T15:24:50.227Z</time></trkpt><trkpt lat="43.6514817" lon="13.3284867"><ele>38.0</ele><time>2026-04-12T15:24:51.227Z</time></trkpt><trkpt lat="43.6511867" lon="13.3286717"><ele>38.5</ele><time>2026-04-12T15:24:52.227Z</time></trkpt><trkpt lat="43.6508867" lon="13.3288383"><ele>39.0</ele><time>2026-04-12T15:24:53.227Z</time></trkpt><trkpt lat="43.6505817" lon="13.3289983"><ele>37.0</ele><time>2026-04-12T15:24:54.227Z</time></trkpt><trkpt lat="43.6502767" lon="13.3291467"><ele>35.0</ele><time>2026-04-12T15:24:55.227Z</time></trkpt><trkpt lat="43.6499683" lon="13.32928"><ele>35.0</ele><time>2026-04-12T15:24:56.226Z</time></trkpt><trkpt lat="43.6496533" lon="13.32941"><ele>35.0</ele><time>2026-04-12T15:24:57.227Z</time></trkpt><trkpt lat="43.649345" lon="13.32954"><ele>35.5</ele><time>2026-04-12T15:24:58.227Z</time></trkpt><trkpt lat="43.6490317" lon="13.3296767"><ele>36.0</ele><time>2026-04-12T15:24:59.226Z</time></trkpt><trkpt lat="43.64872" lon="13.3298117"><ele>38.0</ele><time>2026-04-12T15:25:00.227Z</time></trkpt><trkpt lat="43.6484083" lon="13.3299467"><ele>40.0</ele><time>2026-04-12T15:25:01.227Z</time></trkpt><trkpt lat="43.6481" lon="13.3300783"><ele>36.5</ele><time>2026-04-12T15:25:02.227Z</time></trkpt><trkpt lat="43.6477917" lon="13.3302133"><ele>33.0</ele><time>2026-04-12T15:25:03.227Z</time></trkpt><trkpt lat="43.6474833" lon="13.3303417"><ele>33.0</ele><time>2026-04-12T15:25:04.227Z</time></trkpt><trkpt lat="43.6471683" lon="13.33048"><ele>33.0</ele><time>2026-04-12T15:25:05.227Z</time></trkpt><trkpt lat="43.64685" lon="13.3306117"><ele>32.5</ele><time>2026-04-12T15:25:06.227Z</time></trkpt><trkpt lat="43.6465333" lon="13.3307467"><ele>32.0</ele><time>2026-04-12T15:25:07.227Z</time></trkpt><trkpt lat="43.6462183" lon="13.3308867"><ele>28.5</ele><time>2026-04-12T15:25:08.227Z</time></trkpt><trkpt lat="43.6459" lon="13.33102"><ele>25.0</ele><time>2026-04-12T15:25:09.227Z</time></trkpt><trkpt lat="43.6455783" lon="13.331145"><ele>22.5</ele><time>2026-04-12T15:25:10.227Z</time></trkpt><trkpt lat="43.6452633" lon="13.3312783"><ele>20.0</ele><time>2026-04-12T15:25:11.227Z</time></trkpt><trkpt lat="43.6449417" lon="13.33141"><ele>20.0</ele><time>2026-04-12T15:25:12.227Z</time></trkpt><trkpt lat="43.6446317" lon="13.331545"><ele>20.0</ele><time>2026-04-12T15:25:13.227Z</time></trkpt><trkpt lat="43.64432" lon="13.331685"><ele>16.5</ele><time>2026-04-12T15:25:14.227Z</time></trkpt><trkpt lat="43.64401" lon="13.3318233"><ele>13.0</ele><time>2026-04-12T15:25:15.227Z</time></trkpt><trkpt lat="43.6437" lon="13.3319583"><ele>11.0</ele><time>2026-04-12T15:25:16.227Z</time></trkpt><trkpt lat="43.6433917" lon="13.3320833"><ele>9.0</ele><time>2026-04-12T15:25:17.226Z</time></trkpt><trkpt lat="43.64308" lon="13.332205"><ele>8.5</ele><time>2026-04-12T15:25:18.227Z</time></trkpt><trkpt lat="43.6427683" lon="13.3323367"><ele>8.0</ele><time>2026-04-12T15:25:19.227Z</time></trkpt><trkpt lat="43.6424583" lon="13.3324633"><ele>8.0</ele><time>2026-04-12T15:25:20.227Z</time></trkpt><trkpt lat="43.642145" lon="13.332595"><ele>8.0</ele><time>2026-04-12T15:25:21.227Z</time></trkpt><trkpt lat="43.6418333" lon="13.332725"><ele>7.0</ele><time>2026-04-12T15:25:22.226Z</time></trkpt><trkpt lat="43.6415267" lon="13.3328667"><ele>6.0</ele><time>2026-04-12T15:25:23.227Z</time></trkpt><trkpt lat="43.6412167" lon="13.333005"><ele>5.5</ele><time>2026-04-12T15:25:24.226Z</time></trkpt><trkpt lat="43.640905" lon="13.3331483"><ele>5.0</ele><time>2026-04-12T15:25:25.227Z</time></trkpt><trkpt lat="43.64059" lon="13.33328"><ele>6.5</ele><time>2026-04-12T15:25:26.227Z</time></trkpt><trkpt lat="43.6402817" lon="13.333395"><ele>8.0</ele><time>2026-04-12T15:25:27.226Z</time></trkpt><trkpt lat="43.6399717" lon="13.3335033"><ele>8.0</ele><time>2026-04-12T15:25:28.227Z</time></trkpt><trkpt lat="43.639655" lon="13.3336"><ele>8.0</ele><time>2026-04-12T15:25:29.227Z</time></trkpt><trkpt lat="43.6393383" lon="13.3336983"><ele>7.0</ele><time>2026-04-12T15:25:30.226Z</time></trkpt><trkpt lat="43.6390233" lon="13.3337767"><ele>6.0</ele><time>2026-04-12T15:25:31.227Z</time></trkpt><trkpt lat="43.6387017" lon="13.33384"><ele>5.5</ele><time>2026-04-12T15:25:32.227Z</time></trkpt><trkpt lat="43.6383817" lon="13.3338983"><ele>5.0</ele><time>2026-04-12T15:25:33.227Z</time></trkpt><trkpt lat="43.6380617" lon="13.33394"><ele>5.0</ele><time>2026-04-12T15:25:34.227Z</time></trkpt><trkpt lat="43.6377367" lon="13.3339817"><ele>5.0</ele><time>2026-04-12T15:25:35.227Z</time></trkpt><trkpt lat="43.637415" lon="13.334015"><ele>5.0</ele><time>2026-04-12T15:25:36.227Z</time></trkpt><trkpt lat="43.63709" lon="13.3340333"><ele>5.0</ele><time>2026-04-12T15:25:37.226Z</time></trkpt><trkpt lat="43.6367633" lon="13.334055"><ele>5.0</ele><time>2026-04-12T15:25:38.227Z</time></trkpt><trkpt lat="43.6364383" lon="13.3340733"><ele>5.0</ele><time>2026-04-12T15:25:39.227Z</time></trkpt><trkpt lat="43.6361133" lon="13.3340933"><ele>4.5</ele><time>2026-04-12T15:25:40.226Z</time></trkpt><trkpt lat="43.63579" lon="13.3341133"><ele>4.0</ele><time>2026-04-12T15:25:41.227Z</time></trkpt><trkpt lat="43.6354683" lon="13.3341267"><ele>4.5</ele><time>2026-04-12T15:25:42.227Z</time></trkpt><trkpt lat="43.63515" lon="13.3341433"><ele>5.0</ele><time>2026-04-12T15:25:43.227Z</time></trkpt><trkpt lat="43.6348317" lon="13.3341533"><ele>5.0</ele><time>2026-04-12T15:25:44.227Z</time></trkpt><trkpt lat="43.6345167" lon="13.3341683"><ele>5.0</ele><time>2026-04-12T15:25:45.227Z</time></trkpt><trkpt lat="43.6341967" lon="13.3341817"><ele>5.0</ele><time>2026-04-12T15:25:46.227Z</time></trkpt><trkpt lat="43.6338767" lon="13.334195"><ele>5.0</ele><time>2026-04-12T15:25:47.227Z</time></trkpt><trkpt lat="43.6335567" lon="13.3342067"><ele>5.0</ele><time>2026-04-12T15:25:48.227Z</time></trkpt><trkpt lat="43.63324" lon="13.33422"><ele>5.0</ele><time>2026-04-12T15:25:49.227Z</time></trkpt><trkpt lat="43.632925" lon="13.334235"><ele>5.0</ele><time>2026-04-12T15:25:50.226Z</time></trkpt><trkpt lat="43.6326067" lon="13.33425"><ele>5.0</ele><time>2026-04-12T15:25:51.227Z</time></trkpt><trkpt lat="43.6322933" lon="13.3342617"><ele>5.0</ele><time>2026-04-12T15:25:52.226Z</time></trkpt><trkpt lat="43.631975" lon="13.334275"><ele>5.0</ele><time>2026-04-12T15:25:53.227Z</time></trkpt><trkpt lat="43.6316583" lon="13.3342817"><ele>6.0</ele><time>2026-04-12T15:25:54.227Z</time></trkpt><trkpt lat="43.6313433" lon="13.3342933"><ele>7.0</ele><time>2026-04-12T15:25:55.226Z</time></trkpt><trkpt lat="43.6310267" lon="13.3343033"><ele>8.5</ele><time>2026-04-12T15:25:56.227Z</time></trkpt><trkpt lat="43.6307" lon="13.3343067"><ele>10.0</ele><time>2026-04-12T15:25:57.227Z</time></trkpt><trkpt lat="43.63038" lon="13.3343267"><ele>9.5</ele><time>2026-04-12T15:25:58.227Z</time></trkpt><trkpt lat="43.63006" lon="13.33434"><ele>9.0</ele><time>2026-04-12T15:25:59.227Z</time></trkpt><trkpt lat="43.6297367" lon="13.33435"><ele>9.5</ele><time>2026-04-12T15:26:00.227Z</time></trkpt><trkpt lat="43.6294083" lon="13.334365"><ele>10.0</ele><time>2026-04-12T15:26:01.227Z</time></trkpt><trkpt lat="43.6290833" lon="13.334385"><ele>10.0</ele><time>2026-04-12T15:26:02.226Z</time></trkpt><trkpt lat="43.6287667" lon="13.3344083"><ele>10.0</ele><time>2026-04-12T15:26:03.227Z</time></trkpt><trkpt lat="43.62845" lon="13.3344267"><ele>10.5</ele><time>2026-04-12T15:26:04.227Z</time></trkpt><trkpt lat="43.6281317" lon="13.334445"><ele>11.0</ele><time>2026-04-12T15:26:05.226Z</time></trkpt><trkpt lat="43.6278017" lon="13.3344533"><ele>11.5</ele><time>2026-04-12T15:26:06.227Z</time></trkpt><trkpt lat="43.6274817" lon="13.3344733"><ele>12.0</ele><time>2026-04-12T15:26:07.227Z</time></trkpt><trkpt lat="43.6271617" lon="13.3344883"><ele>11.5</ele><time>2026-04-12T15:26:08.227Z</time></trkpt><trkpt lat="43.6268417" lon="13.3345"><ele>11.0</ele><time>2026-04-12T15:26:09.227Z</time></trkpt><trkpt lat="43.6265133" lon="13.3345033"><ele>11.0</ele><time>2026-04-12T15:26:10.227Z</time></trkpt><trkpt lat="43.6261917" lon="13.3345267"><ele>11.0</ele><time>2026-04-12T15:26:11.227Z</time></trkpt><trkpt lat="43.6258683" lon="13.334545"><ele>11.5</ele><time>2026-04-12T15:26:12.227Z</time></trkpt><trkpt lat="43.6255517" lon="13.33456"><ele>12.0</ele><time>2026-04-12T15:26:13.226Z</time></trkpt><trkpt lat="43.6252317" lon="13.3345733"><ele>12.0</ele><time>2026-04-12T15:26:14.227Z</time></trkpt><trkpt lat="43.624915" lon="13.3345867"><ele>12.0</ele><time>2026-04-12T15:26:15.226Z</time></trkpt><trkpt lat="43.6245983" lon="13.3345983"><ele>12.5</ele><time>2026-04-12T15:26:16.226Z</time></trkpt><trkpt lat="43.6242783" lon="13.33461"><ele>13.0</ele><time>2026-04-12T15:26:17.227Z</time></trkpt><trkpt lat="43.62396" lon="13.3346217"><ele>12.5</ele><time>2026-04-12T15:26:18.227Z</time></trkpt><trkpt lat="43.6236417" lon="13.334635"><ele>12.0</ele><time>2026-04-12T15:26:19.227Z</time></trkpt><trkpt lat="43.623325" lon="13.3346433"><ele>12.0</ele><time>2026-04-12T15:26:20.227Z</time></trkpt><trkpt lat="43.623" lon="13.3346467"><ele>12.0</ele><time>2026-04-12T15:26:21.227Z</time></trkpt><trkpt lat="43.6226817" lon="13.3346567"><ele>11.5</ele><time>2026-04-12T15:26:22.226Z</time></trkpt><trkpt lat="43.6223633" lon="13.3346767"><ele>11.0</ele><time>2026-04-12T15:26:23.227Z</time></trkpt><trkpt lat="43.6220467" lon="13.3346883"><ele>11.5</ele><time>2026-04-12T15:26:24.227Z</time></trkpt><trkpt lat="43.6217283" lon="13.3347"><ele>12.0</ele><time>2026-04-12T15:26:25.227Z</time></trkpt><trkpt lat="43.621405" lon="13.3347117"><ele>11.5</ele><time>2026-04-12T15:26:26.227Z</time></trkpt><trkpt lat="43.6210833" lon="13.33473"><ele>11.0</ele><time>2026-04-12T15:26:27.227Z</time></trkpt><trkpt lat="43.6207633" lon="13.334755"><ele>11.0</ele><time>2026-04-12T15:26:28.227Z</time></trkpt><trkpt lat="43.6204433" lon="13.3347767"><ele>11.0</ele><time>2026-04-12T15:26:29.227Z</time></trkpt><trkpt lat="43.6201217" lon="13.3347917"><ele>10.5</ele><time>2026-04-12T15:26:30.227Z</time></trkpt><trkpt lat="43.619795" lon="13.3348017"><ele>10.0</ele><time>2026-04-12T15:26:31.226Z</time></trkpt><trkpt lat="43.6194783" lon="13.334815"><ele>11.0</ele><time>2026-04-12T15:26:32.227Z</time></trkpt><trkpt lat="43.6191567" lon="13.33483"><ele>12.0</ele><time>2026-04-12T15:26:33.227Z</time></trkpt><trkpt lat="43.6188367" lon="13.334855"><ele>12.5</ele><time>2026-04-12T15:26:34.227Z</time></trkpt><trkpt lat="43.6185167" lon="13.334885"><ele>13.0</ele><time>2026-04-12T15:26:35.227Z</time></trkpt><trkpt lat="43.618195" lon="13.3349217"><ele>13.0</ele><time>2026-04-12T15:26:36.227Z</time></trkpt><trkpt lat="43.617875" lon="13.3349683"><ele>13.0</ele><time>2026-04-12T15:26:37.227Z</time></trkpt><trkpt lat="43.61756" lon="13.3350383"><ele>12.0</ele><time>2026-04-12T15:26:38.226Z</time></trkpt><trkpt lat="43.617245" lon="13.3351217"><ele>11.0</ele><time>2026-04-12T15:26:39.227Z</time></trkpt><trkpt lat="43.6169333" lon="13.3352217"><ele>10.5</ele><time>2026-04-12T15:26:40.227Z</time></trkpt><trkpt lat="43.6166233" lon="13.3353317"><ele>10.0</ele><time>2026-04-12T15:26:41.226Z</time></trkpt><trkpt lat="43.616315" lon="13.335455"><ele>11.0</ele><time>2026-04-12T15:26:42.226Z</time></trkpt><trkpt lat="43.6160017" lon="13.335585"><ele>12.0</ele><time>2026-04-12T15:26:43.226Z</time></trkpt><trkpt lat="43.6156967" lon="13.3357217"><ele>12.0</ele><time>2026-04-12T15:26:44.227Z</time></trkpt><trkpt lat="43.61539" lon="13.3358633"><ele>12.0</ele><time>2026-04-12T15:26:45.226Z</time></trkpt><trkpt lat="43.6150833" lon="13.3359983"><ele>12.5</ele><time>2026-04-12T15:26:46.227Z</time></trkpt><trkpt lat="43.614785" lon="13.3361333"><ele>13.0</ele><time>2026-04-12T15:26:47.227Z</time></trkpt><trkpt lat="43.6144783" lon="13.3362667"><ele>13.5</ele><time>2026-04-12T15:26:48.227Z</time></trkpt><trkpt lat="43.6141833" lon="13.336405"><ele>14.0</ele><time>2026-04-12T15:26:49.227Z</time></trkpt><trkpt lat="43.6138817" lon="13.3365367"><ele>14.0</ele><time>2026-04-12T15:26:50.227Z</time></trkpt><trkpt lat="43.6135833" lon="13.3366667"><ele>14.0</ele><time>2026-04-12T15:26:51.227Z</time></trkpt><trkpt lat="43.6132883" lon="13.336795"><ele>14.0</ele><time>2026-04-12T15:26:52.227Z</time></trkpt><trkpt lat="43.612995" lon="13.336935"><ele>14.0</ele><time>2026-04-12T15:26:53.226Z</time></trkpt><trkpt lat="43.6127" lon="13.33708"><ele>12.5</ele><time>2026-04-12T15:26:54.227Z</time></trkpt><trkpt lat="43.612405" lon="13.33722"><ele>11.0</ele><time>2026-04-12T15:26:55.227Z</time></trkpt><trkpt lat="43.6121183" lon="13.3373583"><ele>11.0</ele><time>2026-04-12T15:26:56.227Z</time></trkpt><trkpt lat="43.61183" lon="13.3374883"><ele>11.0</ele><time>2026-04-12T15:26:57.226Z</time></trkpt><trkpt lat="43.61154" lon="13.337625"><ele>11.0</ele><time>2026-04-12T15:26:58.227Z</time></trkpt><trkpt lat="43.6112533" lon="13.3377533"><ele>11.0</ele><time>2026-04-12T15:26:59.226Z</time></trkpt><trkpt lat="43.6109667" lon="13.3378867"><ele>9.5</ele><time>2026-04-12T15:27:00.227Z</time></trkpt><trkpt lat="43.61068" lon="13.3380217"><ele>8.0</ele><time>2026-04-12T15:27:01.227Z</time></trkpt><trkpt lat="43.6103917" lon="13.338155"><ele>9.5</ele><time>2026-04-12T15:27:02.227Z</time></trkpt><trkpt lat="43.610105" lon="13.3382883"><ele>11.0</ele><time>2026-04-12T15:27:03.226Z</time></trkpt><trkpt lat="43.6098133" lon="13.338425"><ele>11.0</ele><time>2026-04-12T15:27:04.227Z</time></trkpt><trkpt lat="43.6095217" lon="13.3385533"><ele>11.0</ele><time>2026-04-12T15:27:05.226Z</time></trkpt><trkpt lat="43.6092333" lon="13.3386817"><ele>11.5</ele><time>2026-04-12T15:27:06.227Z</time></trkpt><trkpt lat="43.6089483" lon="13.33881"><ele>12.0</ele><time>2026-04-12T15:27:07.226Z</time></trkpt><trkpt lat="43.6086633" lon="13.3389317"><ele>13.0</ele><time>2026-04-12T15:27:08.227Z</time></trkpt><trkpt lat="43.608375" lon="13.3390383"><ele>14.0</ele><time>2026-04-12T15:27:09.227Z</time></trkpt><trkpt lat="43.6080833" lon="13.33913"><ele>13.5</ele><time>2026-04-12T15:27:10.227Z</time></trkpt><trkpt lat="43.6077883" lon="13.3392117"><ele>13.0</ele><time>2026-04-12T15:27:11.227Z</time></trkpt><trkpt lat="43.60749" lon="13.3392717"><ele>13.0</ele><time>2026-04-12T15:27:12.227Z</time></trkpt><trkpt lat="43.6071933" lon="13.3393167"><ele>13.0</ele><time>2026-04-12T15:27:13.227Z</time></trkpt><trkpt lat="43.6068983" lon="13.3393467"><ele>11.5</ele><time>2026-04-12T15:27:14.227Z</time></trkpt><trkpt lat="43.606595" lon="13.339345"><ele>10.0</ele><time>2026-04-12T15:27:15.227Z</time></trkpt><trkpt lat="43.6062917" lon="13.339345"><ele>11.5</ele><time>2026-04-12T15:27:16.227Z</time></trkpt><trkpt lat="43.60599" lon="13.33932"><ele>13.0</ele><time>2026-04-12T15:27:17.226Z</time></trkpt><trkpt lat="43.6056933" lon="13.339285"><ele>13.0</ele><time>2026-04-12T15:27:18.227Z</time></trkpt><trkpt lat="43.6054" lon="13.3392617"><ele>13.0</ele><time>2026-04-12T15:27:19.226Z</time></trkpt><trkpt lat="43.6051067" lon="13.339205"><ele>12.5</ele><time>2026-04-12T15:27:20.226Z</time></trkpt><trkpt lat="43.6048133" lon="13.33915"><ele>12.0</ele><time>2026-04-12T15:27:21.227Z</time></trkpt><trkpt lat="43.6045233" lon="13.339105"><ele>12.0</ele><time>2026-04-12T15:27:22.227Z</time></trkpt><trkpt lat="43.6042317" lon="13.3390533"><ele>12.0</ele><time>2026-04-12T15:27:23.227Z</time></trkpt><trkpt lat="43.6039483" lon="13.3390017"><ele>12.0</ele><time>2026-04-12T15:27:24.227Z</time></trkpt><trkpt lat="43.603665" lon="13.3389483"><ele>12.0</ele><time>2026-04-12T15:27:25.227Z</time></trkpt><trkpt lat="43.603385" lon="13.3388967"><ele>13.0</ele><time>2026-04-12T15:27:26.227Z</time></trkpt><trkpt lat="43.60311" lon="13.3388517"><ele>14.0</ele><time>2026-04-12T15:27:27.226Z</time></trkpt><trkpt lat="43.6028367" lon="13.3388017"><ele>14.0</ele><time>2026-04-12T15:27:28.227Z</time></trkpt><trkpt lat="43.6025667" lon="13.3387467"><ele>14.0</ele><time>2026-04-12T15:27:29.227Z</time></trkpt><trkpt lat="43.6022967" lon="13.3387"><ele>14.0</ele><time>2026-04-12T15:27:30.227Z</time></trkpt><trkpt lat="43.6020317" lon="13.3386467"><ele>14.0</ele><time>2026-04-12T15:27:31.227Z</time></trkpt><trkpt lat="43.6017617" lon="13.3385983"><ele>15.5</ele><time>2026-04-12T15:27:32.227Z</time></trkpt><trkpt lat="43.6014933" lon="13.3385583"><ele>17.0</ele><time>2026-04-12T15:27:33.227Z</time></trkpt><trkpt lat="43.6012283" lon="13.3385367"><ele>17.0</ele><time>2026-04-12T15:27:34.227Z</time></trkpt><trkpt lat="43.6009667" lon="13.3385183"><ele>17.0</ele><time>2026-04-12T15:27:35.227Z</time></trkpt><trkpt lat="43.6007083" lon="13.3385067"><ele>17.0</ele><time>2026-04-12T15:27:36.227Z</time></trkpt><trkpt lat="43.6004483" lon="13.338505"><ele>17.0</ele><time>2026-04-12T15:27:37.226Z</time></trkpt><trkpt lat="43.6001933" lon="13.33851"><ele>17.5</ele><time>2026-04-12T15:27:38.227Z</time></trkpt><trkpt lat="43.59994" lon="13.33853"><ele>18.0</ele><time>2026-04-12T15:27:39.227Z</time></trkpt><trkpt lat="43.5996917" lon="13.3385667"><ele>18.0</ele><time>2026-04-12T15:27:40.227Z</time></trkpt><trkpt lat="43.5994467" lon="13.3386133"><ele>18.0</ele><time>2026-04-12T15:27:41.226Z</time></trkpt><trkpt lat="43.59921" lon="13.338665"><ele>18.0</ele><time>2026-04-12T15:27:42.226Z</time></trkpt><trkpt lat="43.598985" lon="13.3387233"><ele>18.0</ele><time>2026-04-12T15:27:43.227Z</time></trkpt><trkpt lat="43.5987617" lon="13.3387983"><ele>19.5</ele><time>2026-04-12T15:27:44.227Z</time></trkpt><trkpt lat="43.5985417" lon="13.3388867"><ele>21.0</ele><time>2026-04-12T15:27:45.227Z</time></trkpt><trkpt lat="43.5983183" lon="13.3389817"><ele>21.0</ele><time>2026-04-12T15:27:46.227Z</time></trkpt><trkpt lat="43.5980933" lon="13.3390867"><ele>21.0</ele><time>2026-04-12T15:27:47.227Z</time></trkpt><trkpt lat="43.5978733" lon="13.339195"><ele>19.5</ele><time>2026-04-12T15:27:48.226Z</time></trkpt><trkpt lat="43.5976567" lon="13.3393167"><ele>18.0</ele><time>2026-04-12T15:27:49.226Z</time></trkpt><trkpt lat="43.5974467" lon="13.33945"><ele>18.0</ele><time>2026-04-12T15:27:50.227Z</time></trkpt><trkpt lat="43.5972433" lon="13.3395933"><ele>18.0</ele><time>2026-04-12T15:27:51.226Z</time></trkpt><trkpt lat="43.5970383" lon="13.3397433"><ele>19.0</ele><time>2026-04-12T15:27:52.226Z</time></trkpt><trkpt lat="43.5968383" lon="13.3398983"><ele>20.0</ele><time>2026-04-12T15:27:53.227Z</time></trkpt><trkpt lat="43.5966333" lon="13.3400683"><ele>20.0</ele><time>2026-04-12T15:27:54.227Z</time></trkpt><trkpt lat="43.5964383" lon="13.3402433"><ele>20.0</ele><time>2026-04-12T15:27:55.227Z</time></trkpt><trkpt lat="43.5962433" lon="13.340425"><ele>18.5</ele><time>2026-04-12T15:27:56.227Z</time></trkpt><trkpt lat="43.5960667" lon="13.3406167"><ele>17.0</ele><time>2026-04-12T15:27:57.226Z</time></trkpt><trkpt lat="43.5958867" lon="13.340815"><ele>17.0</ele><time>2026-04-12T15:27:58.226Z</time></trkpt><trkpt lat="43.5957133" lon="13.3410217"><ele>17.0</ele><time>2026-04-12T15:27:59.227Z</time></trkpt><trkpt lat="43.5955433" lon="13.34123"><ele>18.0</ele><time>2026-04-12T15:28:00.227Z</time></trkpt><trkpt lat="43.5953717" lon="13.34145"><ele>19.0</ele><time>2026-04-12T15:28:01.226Z</time></trkpt><trkpt lat="43.5952083" lon="13.3416783"><ele>20.5</ele><time>2026-04-12T15:28:02.227Z</time></trkpt><trkpt lat="43.5950483" lon="13.3419183"><ele>22.0</ele><time>2026-04-12T15:28:03.227Z</time></trkpt><trkpt lat="43.5948917" lon="13.3421667"><ele>20.5</ele><time>2026-04-12T15:28:04.227Z</time></trkpt><trkpt lat="43.5947467" lon="13.3424183"><ele>19.0</ele><time>2026-04-12T15:28:05.227Z</time></trkpt><trkpt lat="43.5946083" lon="13.34268"><ele>19.0</ele><time>2026-04-12T15:28:06.227Z</time></trkpt><trkpt lat="43.5944733" lon="13.342945"><ele>19.0</ele><time>2026-04-12T15:28:07.227Z</time></trkpt><trkpt lat="43.5943467" lon="13.3432217"><ele>19.0</ele><time>2026-04-12T15:28:08.227Z</time></trkpt><trkpt lat="43.594225" lon="13.3435017"><ele>19.0</ele><time>2026-04-12T15:28:09.227Z</time></trkpt><trkpt lat="43.5941117" lon="13.3437833"><ele>19.0</ele><time>2026-04-12T15:28:10.226Z</time></trkpt><trkpt lat="43.5940017" lon="13.34407"><ele>19.0</ele><time>2026-04-12T15:28:11.227Z</time></trkpt><trkpt lat="43.5939" lon="13.3443633"><ele>19.0</ele><time>2026-04-12T15:28:12.227Z</time></trkpt><trkpt lat="43.5938067" lon="13.3446683"><ele>19.0</ele><time>2026-04-12T15:28:13.227Z</time></trkpt><trkpt lat="43.59372" lon="13.3449683"><ele>19.0</ele><time>2026-04-12T15:28:14.227Z</time></trkpt><trkpt lat="43.5936367" lon="13.3452767"><ele>19.0</ele><time>2026-04-12T15:28:15.227Z</time></trkpt><trkpt lat="43.5935533" lon="13.3455917"><ele>19.0</ele><time>2026-04-12T15:28:16.227Z</time></trkpt><trkpt lat="43.5934867" lon="13.3459033"><ele>19.0</ele><time>2026-04-12T15:28:17.226Z</time></trkpt><trkpt lat="43.5934217" lon="13.34621"><ele>20.0</ele><time>2026-04-12T15:28:18.227Z</time></trkpt><trkpt lat="43.5933683" lon="13.34652"><ele>21.0</ele><time>2026-04-12T15:28:19.227Z</time></trkpt><trkpt lat="43.59332" lon="13.3468267"><ele>21.0</ele><time>2026-04-12T15:28:20.227Z</time></trkpt><trkpt lat="43.59328" lon="13.3471367"><ele>21.0</ele><time>2026-04-12T15:28:21.226Z</time></trkpt><trkpt lat="43.593245" lon="13.34745"><ele>21.0</ele><time>2026-04-12T15:28:22.227Z</time></trkpt><trkpt lat="43.5932167" lon="13.3477683"><ele>21.0</ele><time>2026-04-12T15:28:23.227Z</time></trkpt><trkpt lat="43.593205" lon="13.34809"><ele>21.0</ele><time>2026-04-12T15:28:24.227Z</time></trkpt><trkpt lat="43.5931983" lon="13.3484083"><ele>21.0</ele><time>2026-04-12T15:28:25.227Z</time></trkpt><trkpt lat="43.5932" lon="13.34871"><ele>21.0</ele><time>2026-04-12T15:28:26.227Z</time></trkpt><trkpt lat="43.5931967" lon="13.34902"><ele>21.0</ele><time>2026-04-12T15:28:27.227Z</time></trkpt><trkpt lat="43.5932017" lon="13.3493017"><ele>21.0</ele><time>2026-04-12T15:28:28.226Z</time></trkpt><trkpt lat="43.5932067" lon="13.349565"><ele>21.0</ele><time>2026-04-12T15:28:29.227Z</time></trkpt><trkpt lat="43.5932183" lon="13.3498333"><ele>21.0</ele><time>2026-04-12T15:28:30.226Z</time></trkpt><trkpt lat="43.59323" lon="13.35009"><ele>21.0</ele><time>2026-04-12T15:28:31.227Z</time></trkpt><trkpt lat="43.593245" lon="13.35035"><ele>21.0</ele><time>2026-04-12T15:28:32.226Z</time></trkpt><trkpt lat="43.5932617" lon="13.3506067"><ele>21.0</ele><time>2026-04-12T15:28:33.227Z</time></trkpt><trkpt lat="43.59328" lon="13.350855"><ele>21.0</ele><time>2026-04-12T15:28:34.227Z</time></trkpt><trkpt lat="43.593305" lon="13.35111"><ele>21.0</ele><time>2026-04-12T15:28:35.227Z</time></trkpt><trkpt lat="43.5933367" lon="13.35135"><ele>22.0</ele><time>2026-04-12T15:28:36.226Z</time></trkpt><trkpt lat="43.5933533" lon="13.351585"><ele>23.0</ele><time>2026-04-12T15:28:37.227Z</time></trkpt><trkpt lat="43.593375" lon="13.3518283"><ele>24.0</ele><time>2026-04-12T15:28:38.227Z</time></trkpt><trkpt lat="43.5933833" lon="13.3520667"><ele>23.0</ele><time>2026-04-12T15:28:39.227Z</time></trkpt><trkpt lat="43.5933967" lon="13.3522967"><ele>22.0</ele><time>2026-04-12T15:28:40.227Z</time></trkpt><trkpt lat="43.59341" lon="13.35252"><ele>21.0</ele><time>2026-04-12T15:28:41.227Z</time></trkpt><trkpt lat="43.593435" lon="13.352735"><ele>21.0</ele><time>2026-04-12T15:28:42.226Z</time></trkpt><trkpt lat="43.5934467" lon="13.352935"><ele>21.0</ele><time>2026-04-12T15:28:43.226Z</time></trkpt><trkpt lat="43.593455" lon="13.353135"><ele>21.0</ele><time>2026-04-12T15:28:44.227Z</time></trkpt><trkpt lat="43.5934567" lon="13.3533233"><ele>21.0</ele><time>2026-04-12T15:28:45.227Z</time></trkpt><trkpt lat="43.5934483" lon="13.3535083"><ele>20.75</ele><time>2026-04-12T15:28:46.227Z</time></trkpt><trkpt lat="43.593425" lon="13.3536883"><ele>20.5</ele><time>2026-04-12T15:28:47.226Z</time></trkpt><trkpt lat="43.5933817" lon="13.35387"><ele>20.25</ele><time>2026-04-12T15:28:48.227Z</time></trkpt><trkpt lat="43.593315" lon="13.354035"><ele>20.0</ele><time>2026-04-12T15:28:49.227Z</time></trkpt><trkpt lat="43.59323" lon="13.3541917"><ele>20.0</ele><time>2026-04-12T15:28:50.227Z</time></trkpt><trkpt lat="43.59312" lon="13.3543183"><ele>20.0</ele><time>2026-04-12T15:28:51.227Z</time></trkpt><trkpt lat="43.5930033" lon="13.3544333"><ele>20.0</ele><time>2026-04-12T15:28:52.227Z</time></trkpt><trkpt lat="43.5928983" lon="13.35455"><ele>20.0</ele><time>2026-04-12T15:28:53.227Z</time></trkpt><trkpt lat="43.59281" lon="13.3546967"><ele>19.25</ele><time>2026-04-12T15:28:54.226Z</time></trkpt><trkpt lat="43.592735" lon="13.3548483"><ele>18.5</ele><time>2026-04-12T15:28:55.227Z</time></trkpt><trkpt lat="43.5926867" lon="13.35502"><ele>17.75</ele><time>2026-04-12T15:28:56.227Z</time></trkpt><trkpt lat="43.59266" lon="13.3552033"><ele>17.0</ele><time>2026-04-12T15:28:57.227Z</time></trkpt><trkpt lat="43.5926733" lon="13.3553933"><ele>17.25</ele><time>2026-04-12T15:28:58.227Z</time></trkpt><trkpt lat="43.5927083" lon="13.355585"><ele>17.5</ele><time>2026-04-12T15:28:59.227Z</time></trkpt><trkpt lat="43.59277" lon="13.3557517"><ele>17.75</ele><time>2026-04-12T15:29:00.227Z</time></trkpt><trkpt lat="43.5928583" lon="13.355895"><ele>18.0</ele><time>2026-04-12T15:29:01.227Z</time></trkpt><trkpt lat="43.5929633" lon="13.3560033"><ele>18.0</ele><time>2026-04-12T15:29:02.226Z</time></trkpt><trkpt lat="43.5930867" lon="13.3560833"><ele>18.0</ele><time>2026-04-12T15:29:03.227Z</time></trkpt><trkpt lat="43.5932117" lon="13.356125"><ele>18.0</ele><time>2026-04-12T15:29:04.226Z</time></trkpt><trkpt lat="43.59334" lon="13.3561283"><ele>18.0</ele><time>2026-04-12T15:29:05.226Z</time></trkpt><trkpt lat="43.59346" lon="13.356105"><ele>18.0</ele><time>2026-04-12T15:29:06.227Z</time></trkpt><trkpt lat="43.593575" lon="13.356065"><ele>18.0</ele><time>2026-04-12T15:29:07.227Z</time></trkpt><trkpt lat="43.59369" lon="13.3560183"><ele>18.0</ele><time>2026-04-12T15:29:08.226Z</time></trkpt><trkpt lat="43.5938033" lon="13.3559717"><ele>18.0</ele><time>2026-04-12T15:29:09.227Z</time></trkpt><trkpt lat="43.593915" lon="13.35592"><ele>18.25</ele><time>2026-04-12T15:29:10.227Z</time></trkpt><trkpt lat="43.5940267" lon="13.3558733"><ele>18.5</ele><time>2026-04-12T15:29:11.227Z</time></trkpt><trkpt lat="43.5941317" lon="13.3558317"><ele>18.75</ele><time>2026-04-12T15:29:12.227Z</time></trkpt><trkpt lat="43.5942433" lon="13.35579"><ele>19.0</ele><time>2026-04-12T15:29:13.227Z</time></trkpt><trkpt lat="43.5943533" lon="13.35576"><ele>19.0</ele><time>2026-04-12T15:29:14.226Z</time></trkpt><trkpt lat="43.5944667" lon="13.35574"><ele>19.0</ele><time>2026-04-12T15:29:15.226Z</time></trkpt><trkpt lat="43.5945817" lon="13.3557367"><ele>19.0</ele><time>2026-04-12T15:29:16.227Z</time></trkpt><trkpt lat="43.5946933" lon="13.3557517"><ele>19.0</ele><time>2026-04-12T15:29:17.227Z</time></trkpt><trkpt lat="43.5948083" lon="13.35579"><ele>18.75</ele><time>2026-04-12T15:29:18.226Z</time></trkpt><trkpt lat="43.5949267" lon="13.3558567"><ele>18.5</ele><time>2026-04-12T15:29:19.227Z</time></trkpt><trkpt lat="43.59503" lon="13.35595"><ele>18.25</ele><time>2026-04-12T15:29:20.227Z</time></trkpt><trkpt lat="43.5951217" lon="13.356065"><ele>18.0</ele><time>2026-04-12T15:29:21.226Z</time></trkpt><trkpt lat="43.5951983" lon="13.3561933"><ele>18.0</ele><time>2026-04-12T15:29:22.227Z</time></trkpt><trkpt lat="43.5952533" lon="13.3563433"><ele>18.0</ele><time>2026-04-12T15:29:23.227Z</time></trkpt><trkpt lat="43.5952967" lon="13.3564717"><ele>18.0</ele><time>2026-04-12T15:29:24.227Z</time></trkpt><trkpt lat="43.5953367" lon="13.3565783"><ele>18.0</ele><time>2026-04-12T15:29:25.227Z</time></trkpt><trkpt lat="43.5953783" lon="13.3566833"><ele>18.0</ele><time>2026-04-12T15:29:26.227Z</time></trkpt><trkpt lat="43.5954283" lon="13.35679"><ele>18.0</ele><time>2026-04-12T15:29:27.227Z</time></trkpt><trkpt lat="43.59549" lon="13.3568917"><ele>18.0</ele><time>2026-04-12T15:29:28.227Z</time></trkpt><trkpt lat="43.595545" lon="13.3569917"><ele>18.0</ele><time>2026-04-12T15:29:29.226Z</time></trkpt><trkpt lat="43.595595" lon="13.35709"><ele>18.0</ele><time>2026-04-12T15:29:30.227Z</time></trkpt><trkpt lat="43.5956367" lon="13.3571783"><ele>18.0</ele><time>2026-04-12T15:29:31.227Z</time></trkpt><trkpt lat="43.5956767" lon="13.3572633"><ele>18.0</ele><time>2026-04-12T15:29:32.227Z</time></trkpt><trkpt lat="43.5957183" lon="13.3573417"><ele>18.0</ele><time>2026-04-12T15:29:33.226Z</time></trkpt><trkpt lat="43.59576" lon="13.357415"><ele>18.0</ele><time>2026-04-12T15:29:34.226Z</time></trkpt><trkpt lat="43.595825" lon="13.357525"><ele>18.0</ele><time>2026-04-12T15:29:36.226Z</time></trkpt><trkpt lat="43.5958817" lon="13.3575983"><ele>18.0</ele><time>2026-04-12T15:29:38.227Z</time></trkpt><trkpt lat="43.595935" lon="13.357665"><ele>18.0</ele><time>2026-04-12T15:29:40.226Z</time></trkpt><trkpt lat="43.595995" lon="13.357725"><ele>18.0</ele><time>2026-04-12T15:29:42.227Z</time></trkpt><trkpt lat="43.5960583" lon="13.3578117"><ele>18.0</ele><time>2026-04-12T15:29:45.226Z</time></trkpt><trkpt lat="43.5961" lon="13.3579117"><ele>18.0</ele><time>2026-04-12T15:29:48.227Z</time></trkpt><trkpt lat="43.59612" lon="13.3580083"><ele>18.0</ele><time>2026-04-12T15:29:50.227Z</time></trkpt><trkpt lat="43.5961317" lon="13.35813"><ele>18.0</ele><time>2026-04-12T15:29:52.227Z</time></trkpt><trkpt lat="43.596145" lon="13.358285"><ele>18.0</ele><time>2026-04-12T15:29:54.226Z</time></trkpt><trkpt lat="43.5962017" lon="13.3584217"><ele>17.75</ele><time>2026-04-12T15:29:56.226Z</time></trkpt><trkpt lat="43.59629" lon="13.3584917"><ele>17.5</ele><time>2026-04-12T15:29:58.226Z</time></trkpt><trkpt lat="43.5964067" lon="13.3585117"><ele>17.25</ele><time>2026-04-12T15:30:00.227Z</time></trkpt><trkpt lat="43.5965083" lon="13.3584183"><ele>17.0</ele><time>2026-04-12T15:30:02.227Z</time></trkpt><trkpt lat="43.5965567" lon="13.3582667"><ele>17.0</ele><time>2026-04-12T15:30:04.227Z</time></trkpt><trkpt lat="43.5965483" lon="13.3581167"><ele>17.0</ele><time>2026-04-12T15:30:06.227Z</time></trkpt><trkpt lat="43.5965" lon="13.3580083"><ele>17.0</ele><time>2026-04-12T15:30:08.227Z</time></trkpt><trkpt lat="43.5964283" lon="13.3579467"><ele>17.0</ele><time>2026-04-12T15:30:10.227Z</time></trkpt><trkpt lat="43.5963467" lon="13.357935"><ele>17.0</ele><time>2026-04-12T15:30:12.226Z</time></trkpt><trkpt lat="43.5962667" lon="13.3579583"><ele>17.0</ele><time>2026-04-12T15:30:14.226Z</time></trkpt><trkpt lat="43.5961967" lon="13.3580233"><ele>17.0</ele><time>2026-04-12T15:30:16.226Z</time></trkpt><trkpt lat="43.5961633" lon="13.35811"><ele>17.0</ele><time>2026-04-12T15:30:18.226Z</time></trkpt><trkpt lat="43.5961533" lon="13.3582083"><ele>17.0</ele><time>2026-04-12T15:30:20.226Z</time></trkpt><trkpt lat="43.5961683" lon="13.3583333"><ele>17.0</ele><time>2026-04-12T15:30:22.227Z</time></trkpt><trkpt lat="43.5962233" lon="13.3584383"><ele>17.0</ele><time>2026-04-12T15:30:24.227Z</time></trkpt><trkpt lat="43.596305" lon="13.35852"><ele>17.0</ele><time>2026-04-12T15:30:26.226Z</time></trkpt><trkpt lat="43.5963583" lon="13.3585817"><ele>17.0</ele><time>2026-04-12T15:30:27.227Z</time></trkpt><trkpt lat="43.5964117" lon="13.35865"><ele>17.0</ele><time>2026-04-12T15:30:28.227Z</time></trkpt><trkpt lat="43.5964583" lon="13.3587117"><ele>17.0</ele><time>2026-04-12T15:30:29.226Z</time></trkpt><trkpt lat="43.5965217" lon="13.358815"><ele>17.0</ele><time>2026-04-12T15:30:31.227Z</time></trkpt><trkpt lat="43.5965767" lon="13.3589"><ele>17.0</ele><time>2026-04-12T15:30:34.227Z</time></trkpt><trkpt lat="43.596645" lon="13.3590133"><ele>17.0</ele><time>2026-04-12T15:32:02.227Z</time></trkpt><trkpt lat="43.5966983" lon="13.3590867"><ele>17.2</ele><time>2026-04-12T15:32:03.227Z</time></trkpt><trkpt lat="43.596765" lon="13.3591733"><ele>17.4</ele><time>2026-04-12T15:32:04.227Z</time></trkpt><trkpt lat="43.5968417" lon="13.3592667"><ele>17.6</ele><time>2026-04-12T15:32:05.227Z</time></trkpt><trkpt lat="43.5969233" lon="13.3593667"><ele>17.8</ele><time>2026-04-12T15:32:06.227Z</time></trkpt><trkpt lat="43.5970133" lon="13.3594633"><ele>18.0</ele><time>2026-04-12T15:32:07.227Z</time></trkpt><trkpt lat="43.5971133" lon="13.3595483"><ele>18.0</ele><time>2026-04-12T15:32:08.227Z</time></trkpt><trkpt lat="43.5972333" lon="13.359625"><ele>18.0</ele><time>2026-04-12T15:32:09.227Z</time></trkpt><trkpt lat="43.5973683" lon="13.3596883"><ele>18.0</ele><time>2026-04-12T15:32:10.227Z</time></trkpt><trkpt lat="43.597515" lon="13.3597217"><ele>18.0</ele><time>2026-04-12T15:32:11.227Z</time></trkpt><trkpt lat="43.59767" lon="13.3597283"><ele>18.0</ele><time>2026-04-12T15:32:12.227Z</time></trkpt><trkpt lat="43.5978333" lon="13.3597"><ele>18.0</ele><time>2026-04-12T15:32:13.227Z</time></trkpt><trkpt lat="43.5979917" lon="13.359635"><ele>18.0</ele><time>2026-04-12T15:32:14.227Z</time></trkpt><trkpt lat="43.5981517" lon="13.3595333"><ele>18.333333333333332</ele><time>2026-04-12T15:32:15.227Z</time></trkpt><trkpt lat="43.5983183" lon="13.3594233"><ele>18.666666666666664</ele><time>2026-04-12T15:32:16.227Z</time></trkpt><trkpt lat="43.59849" lon="13.3593017"><ele>19.0</ele><time>2026-04-12T15:32:17.226Z</time></trkpt><trkpt lat="43.5986617" lon="13.3591833"><ele>18.333333333333332</ele><time>2026-04-12T15:32:18.227Z</time></trkpt><trkpt lat="43.598825" lon="13.3590683"><ele>17.666666666666668</ele><time>2026-04-12T15:32:19.227Z</time></trkpt><trkpt lat="43.5989817" lon="13.3589683"><ele>17.0</ele><time>2026-04-12T15:32:20.227Z</time></trkpt><trkpt lat="43.5991367" lon="13.3588733"><ele>17.25</ele><time>2026-04-12T15:32:21.227Z</time></trkpt><trkpt lat="43.5992733" lon="13.3587583"><ele>17.5</ele><time>2026-04-12T15:32:22.227Z</time></trkpt><trkpt lat="43.5993917" lon="13.3586733"><ele>17.75</ele><time>2026-04-12T15:32:23.226Z</time></trkpt><trkpt lat="43.599515" lon="13.3586133"><ele>18.0</ele><time>2026-04-12T15:32:24.226Z</time></trkpt><trkpt lat="43.59963" lon="13.3586017"><ele>18.0</ele><time>2026-04-12T15:32:25.227Z</time></trkpt><trkpt lat="43.5997367" lon="13.3586417"><ele>18.0</ele><time>2026-04-12T15:32:26.227Z</time></trkpt><trkpt lat="43.59984" lon="13.3587267"><ele>18.0</ele><time>2026-04-12T15:32:27.226Z</time></trkpt><trkpt lat="43.5999133" lon="13.3588533"><ele>18.0</ele><time>2026-04-12T15:32:28.227Z</time></trkpt><trkpt lat="43.599945" lon="13.358995"><ele>18.0</ele><time>2026-04-12T15:32:29.226Z</time></trkpt><trkpt lat="43.599945" lon="13.359135"><ele>18.0</ele><time>2026-04-12T15:32:30.226Z</time></trkpt><trkpt lat="43.5999117" lon="13.3592733"><ele>18.0</ele><time>2026-04-12T15:32:31.226Z</time></trkpt><trkpt lat="43.59985" lon="13.3593933"><ele>18.0</ele><time>2026-04-12T15:32:32.227Z</time></trkpt><trkpt lat="43.5997683" lon="13.35947"><ele>18.0</ele><time>2026-04-12T15:32:33.227Z</time></trkpt><trkpt lat="43.59967" lon="13.3595083"><ele>18.0</ele><time>2026-04-12T15:32:34.227Z</time></trkpt><trkpt lat="43.5995633" lon="13.359505"><ele>18.0</ele><time>2026-04-12T15:32:35.227Z</time></trkpt><trkpt lat="43.5994567" lon="13.3594617"><ele>18.0</ele><time>2026-04-12T15:32:36.227Z</time></trkpt><trkpt lat="43.5993667" lon="13.3593717"><ele>18.0</ele><time>2026-04-12T15:32:37.227Z</time></trkpt><trkpt lat="43.5992917" lon="13.3592467"><ele>18.0</ele><time>2026-04-12T15:32:38.227Z</time></trkpt><trkpt lat="43.59923" lon="13.3590967"><ele>18.0</ele><time>2026-04-12T15:32:39.227Z</time></trkpt><trkpt lat="43.5991717" lon="13.3589333"><ele>18.0</ele><time>2026-04-12T15:32:40.227Z</time></trkpt><trkpt lat="43.5991117" lon="13.3587517"><ele>18.0</ele><time>2026-04-12T15:32:41.226Z</time></trkpt><trkpt lat="43.5990433" lon="13.3585667"><ele>18.0</ele><time>2026-04-12T15:32:42.227Z</time></trkpt><trkpt lat="43.5989717" lon="13.358365"><ele>18.0</ele><time>2026-04-12T15:32:43.226Z</time></trkpt><trkpt lat="43.5988933" lon="13.358145"><ele>18.0</ele><time>2026-04-12T15:32:44.227Z</time></trkpt><trkpt lat="43.598815" lon="13.357905"><ele>18.0</ele><time>2026-04-12T15:32:45.226Z</time></trkpt><trkpt lat="43.59873" lon="13.3576417"><ele>18.333333333333332</ele><time>2026-04-12T15:32:46.226Z</time></trkpt><trkpt lat="43.5986483" lon="13.35736"><ele>18.666666666666664</ele><time>2026-04-12T15:32:47.226Z</time></trkpt><trkpt lat="43.59857" lon="13.357065"><ele>19.0</ele><time>2026-04-12T15:32:48.226Z</time></trkpt><trkpt lat="43.5984917" lon="13.3567517"><ele>19.0</ele><time>2026-04-12T15:32:49.226Z</time></trkpt><trkpt lat="43.598415" lon="13.35642"><ele>19.0</ele><time>2026-04-12T15:32:50.227Z</time></trkpt><trkpt lat="43.5983383" lon="13.3560783"><ele>19.0</ele><time>2026-04-12T15:32:51.226Z</time></trkpt><trkpt lat="43.5982583" lon="13.3557333"><ele>19.0</ele><time>2026-04-12T15:32:52.226Z</time></trkpt><trkpt lat="43.598155" lon="13.3553867"><ele>19.0</ele><time>2026-04-12T15:32:53.226Z</time></trkpt><trkpt lat="43.5980483" lon="13.3550533"><ele>19.0</ele><time>2026-04-12T15:32:54.227Z</time></trkpt><trkpt lat="43.5979283" lon="13.354735"><ele>19.0</ele><time>2026-04-12T15:32:55.227Z</time></trkpt><trkpt lat="43.5977967" lon="13.354435"><ele>19.0</ele><time>2026-04-12T15:32:56.227Z</time></trkpt><trkpt lat="43.5976517" lon="13.354145"><ele>19.0</ele><time>2026-04-12T15:32:57.227Z</time></trkpt><trkpt lat="43.59749" lon="13.35386"><ele>19.0</ele><time>2026-04-12T15:32:58.226Z</time></trkpt><trkpt lat="43.597315" lon="13.3535783"><ele>19.0</ele><time>2026-04-12T15:32:59.227Z</time></trkpt><trkpt lat="43.5971283" lon="13.3533133"><ele>19.0</ele><time>2026-04-12T15:33:00.227Z</time></trkpt><trkpt lat="43.5969333" lon="13.35306"><ele>19.0</ele><time>2026-04-12T15:33:01.226Z</time></trkpt><trkpt lat="43.5967233" lon="13.3528233"><ele>19.0</ele><time>2026-04-12T15:33:02.227Z</time></trkpt><trkpt lat="43.5965083" lon="13.3525983"><ele>19.0</ele><time>2026-04-12T15:33:03.226Z</time></trkpt><trkpt lat="43.5962833" lon="13.35239"><ele>19.0</ele><time>2026-04-12T15:33:04.227Z</time></trkpt><trkpt lat="43.5960467" lon="13.3521983"><ele>19.0</ele><time>2026-04-12T15:33:05.226Z</time></trkpt><trkpt lat="43.595805" lon="13.3520367"><ele>19.0</ele><time>2026-04-12T15:33:06.226Z</time></trkpt><trkpt lat="43.5955483" lon="13.3518833"><ele>20.5</ele><time>2026-04-12T15:33:07.227Z</time></trkpt><trkpt lat="43.595285" lon="13.3517567"><ele>22.0</ele><time>2026-04-12T15:33:08.226Z</time></trkpt><trkpt lat="43.5950133" lon="13.351655"><ele>22.0</ele><time>2026-04-12T15:33:09.227Z</time></trkpt><trkpt lat="43.5947417" lon="13.3515733"><ele>22.0</ele><time>2026-04-12T15:33:10.227Z</time></trkpt><trkpt lat="43.5944683" lon="13.3515167"><ele>21.0</ele><time>2026-04-12T15:33:11.226Z</time></trkpt><trkpt lat="43.59419" lon="13.3514817"><ele>20.0</ele><time>2026-04-12T15:33:12.226Z</time></trkpt><trkpt lat="43.5939133" lon="13.35147"><ele>22.0</ele><time>2026-04-12T15:33:13.227Z</time></trkpt><trkpt lat="43.5936417" lon="13.35146"><ele>24.0</ele><time>2026-04-12T15:33:14.227Z</time></trkpt><trkpt lat="43.5933717" lon="13.3514567"><ele>24.0</ele><time>2026-04-12T15:33:15.227Z</time></trkpt><trkpt lat="43.5931017" lon="13.35146"><ele>24.0</ele><time>2026-04-12T15:33:16.227Z</time></trkpt><trkpt lat="43.5928317" lon="13.3514467"><ele>23.5</ele><time>2026-04-12T15:33:17.227Z</time></trkpt><trkpt lat="43.5925567" lon="13.35142"><ele>23.0</ele><time>2026-04-12T15:33:18.227Z</time></trkpt><trkpt lat="43.59228" lon="13.3513717"><ele>23.0</ele><time>2026-04-12T15:33:19.226Z</time></trkpt><trkpt lat="43.5920083" lon="13.3513017"><ele>23.0</ele><time>2026-04-12T15:33:20.227Z</time></trkpt><trkpt lat="43.5917367" lon="13.3512117"><ele>23.5</ele><time>2026-04-12T15:33:21.227Z</time></trkpt><trkpt lat="43.5914667" lon="13.351105"><ele>24.0</ele><time>2026-04-12T15:33:22.227Z</time></trkpt><trkpt lat="43.5911967" lon="13.3509733"><ele>24.0</ele><time>2026-04-12T15:33:23.226Z</time></trkpt><trkpt lat="43.5909333" lon="13.3508333"><ele>24.0</ele><time>2026-04-12T15:33:24.227Z</time></trkpt><trkpt lat="43.590675" lon="13.350665"><ele>24.0</ele><time>2026-04-12T15:33:25.226Z</time></trkpt><trkpt lat="43.5904233" lon="13.35048"><ele>24.0</ele><time>2026-04-12T15:33:26.227Z</time></trkpt><trkpt lat="43.5901783" lon="13.3502733"><ele>24.5</ele><time>2026-04-12T15:33:27.226Z</time></trkpt><trkpt lat="43.5899417" lon="13.3500467"><ele>25.0</ele><time>2026-04-12T15:33:28.226Z</time></trkpt><trkpt lat="43.5897167" lon="13.349805"><ele>25.5</ele><time>2026-04-12T15:33:29.227Z</time></trkpt><trkpt lat="43.589495" lon="13.3495517"><ele>26.0</ele><time>2026-04-12T15:33:30.226Z</time></trkpt><trkpt lat="43.5892833" lon="13.3492783"><ele>26.0</ele><time>2026-04-12T15:33:31.227Z</time></trkpt><trkpt lat="43.5890833" lon="13.3489883"><ele>26.0</ele><time>2026-04-12T15:33:32.227Z</time></trkpt><trkpt lat="43.5888933" lon="13.3486817"><ele>24.5</ele><time>2026-04-12T15:33:33.226Z</time></trkpt><trkpt lat="43.58872" lon="13.3483667"><ele>23.0</ele><time>2026-04-12T15:33:34.227Z</time></trkpt><trkpt lat="43.588555" lon="13.3480417"><ele>23.0</ele><time>2026-04-12T15:33:35.227Z</time></trkpt><trkpt lat="43.5884067" lon="13.3477067"><ele>23.0</ele><time>2026-04-12T15:33:36.227Z</time></trkpt><trkpt lat="43.5882733" lon="13.3473633"><ele>23.0</ele><time>2026-04-12T15:33:37.226Z</time></trkpt><trkpt lat="43.5881517" lon="13.347015"><ele>23.0</ele><time>2026-04-12T15:33:38.227Z</time></trkpt><trkpt lat="43.588045" lon="13.3466467"><ele>23.0</ele><time>2026-04-12T15:33:39.227Z</time></trkpt><trkpt lat="43.587945" lon="13.3462783"><ele>23.0</ele><time>2026-04-12T15:33:40.227Z</time></trkpt><trkpt lat="43.58786" lon="13.3459067"><ele>24.0</ele><time>2026-04-12T15:33:41.227Z</time></trkpt><trkpt lat="43.5877717" lon="13.3455283"><ele>25.0</ele><time>2026-04-12T15:33:42.226Z</time></trkpt><trkpt lat="43.5876867" lon="13.3451583"><ele>25.0</ele><time>2026-04-12T15:33:43.226Z</time></trkpt><trkpt lat="43.5876017" lon="13.34479"><ele>25.0</ele><time>2026-04-12T15:33:44.227Z</time></trkpt><trkpt lat="43.58752" lon="13.3444217"><ele>24.5</ele><time>2026-04-12T15:33:45.227Z</time></trkpt><trkpt lat="43.5874283" lon="13.3440483"><ele>24.0</ele><time>2026-04-12T15:33:46.227Z</time></trkpt><trkpt lat="43.5873367" lon="13.34367"><ele>24.0</ele><time>2026-04-12T15:33:47.226Z</time></trkpt><trkpt lat="43.5872483" lon="13.3432983"><ele>24.0</ele><time>2026-04-12T15:33:48.227Z</time></trkpt><trkpt lat="43.5871567" lon="13.3429217"><ele>23.0</ele><time>2026-04-12T15:33:49.227Z</time></trkpt><trkpt lat="43.5870717" lon="13.3425533"><ele>22.0</ele><time>2026-04-12T15:33:50.227Z</time></trkpt><trkpt lat="43.586985" lon="13.3421917"><ele>21.0</ele><time>2026-04-12T15:33:51.227Z</time></trkpt><trkpt lat="43.5869" lon="13.3418367"><ele>20.0</ele><time>2026-04-12T15:33:52.226Z</time></trkpt><trkpt lat="43.586805" lon="13.3414917"><ele>20.5</ele><time>2026-04-12T15:33:53.227Z</time></trkpt><trkpt lat="43.5867083" lon="13.34115"><ele>21.0</ele><time>2026-04-12T15:33:54.227Z</time></trkpt><trkpt lat="43.5865967" lon="13.3408033"><ele>21.0</ele><time>2026-04-12T15:33:55.227Z</time></trkpt><trkpt lat="43.5864717" lon="13.3404733"><ele>21.0</ele><time>2026-04-12T15:33:56.227Z</time></trkpt><trkpt lat="43.586315" lon="13.3401533"><ele>21.0</ele><time>2026-04-12T15:33:57.226Z</time></trkpt><trkpt lat="43.5861817" lon="13.339835"><ele>21.0</ele><time>2026-04-12T15:33:58.227Z</time></trkpt><trkpt lat="43.5860367" lon="13.3395283"><ele>21.0</ele><time>2026-04-12T15:33:59.227Z</time></trkpt><trkpt lat="43.58588" lon="13.3392317"><ele>21.0</ele><time>2026-04-12T15:34:00.227Z</time></trkpt><trkpt lat="43.58571" lon="13.33895"><ele>21.0</ele><time>2026-04-12T15:34:01.227Z</time></trkpt><trkpt lat="43.5855383" lon="13.3386733"><ele>21.0</ele><time>2026-04-12T15:34:02.227Z</time></trkpt><trkpt lat="43.5853633" lon="13.3384017"><ele>22.0</ele><time>2026-04-12T15:34:03.227Z</time></trkpt><trkpt lat="43.5851767" lon="13.3381383"><ele>23.0</ele><time>2026-04-12T15:34:04.227Z</time></trkpt><trkpt lat="43.58498" lon="13.3378883"><ele>23.0</ele><time>2026-04-12T15:34:05.227Z</time></trkpt><trkpt lat="43.584775" lon="13.3376417"><ele>23.0</ele><time>2026-04-12T15:34:06.227Z</time></trkpt><trkpt lat="43.58457" lon="13.337405"><ele>23.0</ele><time>2026-04-12T15:34:07.227Z</time></trkpt><trkpt lat="43.58436" lon="13.3371633"><ele>23.0</ele><time>2026-04-12T15:34:08.227Z</time></trkpt><trkpt lat="43.5841483" lon="13.3369167"><ele>23.0</ele><time>2026-04-12T15:34:09.226Z</time></trkpt><trkpt lat="43.5839383" lon="13.3366633"><ele>23.0</ele><time>2026-04-12T15:34:10.226Z</time></trkpt><trkpt lat="43.5837267" lon="13.3364133"><ele>24.0</ele><time>2026-04-12T15:34:11.227Z</time></trkpt><trkpt lat="43.58351" lon="13.3361583"><ele>25.0</ele><time>2026-04-12T15:34:12.226Z</time></trkpt><trkpt lat="43.5833" lon="13.3359067"><ele>25.0</ele><time>2026-04-12T15:34:13.226Z</time></trkpt><trkpt lat="43.58309" lon="13.3356617"><ele>25.0</ele><time>2026-04-12T15:34:14.226Z</time></trkpt><trkpt lat="43.5828833" lon="13.3354133"><ele>25.5</ele><time>2026-04-12T15:34:15.226Z</time></trkpt><trkpt lat="43.5826767" lon="13.3351667"><ele>26.0</ele><time>2026-04-12T15:34:16.227Z</time></trkpt><trkpt lat="43.5824733" lon="13.3349217"><ele>25.5</ele><time>2026-04-12T15:34:17.227Z</time></trkpt><trkpt lat="43.5822633" lon="13.3346733"><ele>25.0</ele><time>2026-04-12T15:34:18.226Z</time></trkpt><trkpt lat="43.5820533" lon="13.334425"><ele>25.0</ele><time>2026-04-12T15:34:19.227Z</time></trkpt><trkpt lat="43.5818433" lon="13.3341817"><ele>25.0</ele><time>2026-04-12T15:34:20.227Z</time></trkpt><trkpt lat="43.5816383" lon="13.333935"><ele>24.0</ele><time>2026-04-12T15:34:21.227Z</time></trkpt><trkpt lat="43.58142" lon="13.3336867"><ele>23.0</ele><time>2026-04-12T15:34:22.227Z</time></trkpt><trkpt lat="43.5812117" lon="13.3334367"><ele>23.0</ele><time>2026-04-12T15:34:23.226Z</time></trkpt><trkpt lat="43.580995" lon="13.33319"><ele>23.0</ele><time>2026-04-12T15:34:24.226Z</time></trkpt><trkpt lat="43.5807783" lon="13.3329417"><ele>24.5</ele><time>2026-04-12T15:34:25.226Z</time></trkpt><trkpt lat="43.5805667" lon="13.3326967"><ele>26.0</ele><time>2026-04-12T15:34:26.227Z</time></trkpt><trkpt lat="43.5803533" lon="13.332445"><ele>25.0</ele><time>2026-04-12T15:34:27.227Z</time></trkpt><trkpt lat="43.58014" lon="13.332195"><ele>24.0</ele><time>2026-04-12T15:34:28.227Z</time></trkpt><trkpt lat="43.5799217" lon="13.3319467"><ele>24.0</ele><time>2026-04-12T15:34:29.227Z</time></trkpt><trkpt lat="43.57971" lon="13.3316883"><ele>24.0</ele><time>2026-04-12T15:34:30.227Z</time></trkpt><trkpt lat="43.5795033" lon="13.3314067"><ele>23.5</ele><time>2026-04-12T15:34:31.226Z</time></trkpt><trkpt lat="43.5793033" lon="13.33112"><ele>23.0</ele><time>2026-04-12T15:34:32.227Z</time></trkpt><trkpt lat="43.5791117" lon="13.3308233"><ele>24.0</ele><time>2026-04-12T15:34:33.227Z</time></trkpt><trkpt lat="43.5789317" lon="13.3305133"><ele>25.0</ele><time>2026-04-12T15:34:34.226Z</time></trkpt><trkpt lat="43.5787567" lon="13.330195"><ele>25.0</ele><time>2026-04-12T15:34:35.227Z</time></trkpt><trkpt lat="43.57859" lon="13.3298633"><ele>25.0</ele><time>2026-04-12T15:34:36.226Z</time></trkpt><trkpt lat="43.5784383" lon="13.3295383"><ele>25.0</ele><time>2026-04-12T15:34:37.226Z</time></trkpt><trkpt lat="43.578295" lon="13.3292017"><ele>25.0</ele><time>2026-04-12T15:34:38.227Z</time></trkpt><trkpt lat="43.5781633" lon="13.3288517"><ele>25.5</ele><time>2026-04-12T15:34:39.227Z</time></trkpt><trkpt lat="43.578035" lon="13.3285033"><ele>26.0</ele><time>2026-04-12T15:34:40.227Z</time></trkpt><trkpt lat="43.577925" lon="13.328145"><ele>26.5</ele><time>2026-04-12T15:34:41.227Z</time></trkpt><trkpt lat="43.5778183" lon="13.3277817"><ele>27.0</ele><time>2026-04-12T15:34:42.227Z</time></trkpt><trkpt lat="43.5777117" lon="13.3274133"><ele>27.0</ele><time>2026-04-12T15:34:43.227Z</time></trkpt><trkpt lat="43.5776117" lon="13.3270533"><ele>27.0</ele><time>2026-04-12T15:34:44.227Z</time></trkpt><trkpt lat="43.577505" lon="13.3266933"><ele>26.0</ele><time>2026-04-12T15:34:45.226Z</time></trkpt><trkpt lat="43.577395" lon="13.3263317"><ele>25.0</ele><time>2026-04-12T15:34:46.227Z</time></trkpt><trkpt lat="43.5772867" lon="13.3259717"><ele>25.0</ele><time>2026-04-12T15:34:47.227Z</time></trkpt><trkpt lat="43.57718" lon="13.3256117"><ele>25.0</ele><time>2026-04-12T15:34:48.227Z</time></trkpt><trkpt lat="43.5770733" lon="13.3252567"><ele>27.0</ele><time>2026-04-12T15:34:49.226Z</time></trkpt><trkpt lat="43.5769667" lon="13.3249017"><ele>29.0</ele><time>2026-04-12T15:34:50.227Z</time></trkpt><trkpt lat="43.5768633" lon="13.3245433"><ele>29.0</ele><time>2026-04-12T15:34:51.227Z</time></trkpt><trkpt lat="43.5767567" lon="13.324185"><ele>29.0</ele><time>2026-04-12T15:34:52.227Z</time></trkpt><trkpt lat="43.5766483" lon="13.323825"><ele>28.0</ele><time>2026-04-12T15:34:53.226Z</time></trkpt><trkpt lat="43.576545" lon="13.32346"><ele>27.0</ele><time>2026-04-12T15:34:54.227Z</time></trkpt><trkpt lat="43.576435" lon="13.3230983"><ele>26.5</ele><time>2026-04-12T15:34:55.226Z</time></trkpt><trkpt lat="43.5763283" lon="13.3227317"><ele>26.0</ele><time>2026-04-12T15:34:56.227Z</time></trkpt><trkpt lat="43.57622" lon="13.32237"><ele>27.5</ele><time>2026-04-12T15:34:57.227Z</time></trkpt><trkpt lat="43.5761083" lon="13.3220067"><ele>29.0</ele><time>2026-04-12T15:34:58.227Z</time></trkpt><trkpt lat="43.5760033" lon="13.32164"><ele>29.0</ele><time>2026-04-12T15:34:59.227Z</time></trkpt><trkpt lat="43.5758933" lon="13.3212733"><ele>29.0</ele><time>2026-04-12T15:35:00.226Z</time></trkpt><trkpt lat="43.5757833" lon="13.32091"><ele>29.5</ele><time>2026-04-12T15:35:01.227Z</time></trkpt><trkpt lat="43.5756733" lon="13.320545"><ele>30.0</ele><time>2026-04-12T15:35:02.226Z</time></trkpt><trkpt lat="43.5755633" lon="13.3201767"><ele>30.0</ele><time>2026-04-12T15:35:03.227Z</time></trkpt><trkpt lat="43.5754533" lon="13.3198083"><ele>30.0</ele><time>2026-04-12T15:35:04.227Z</time></trkpt><trkpt lat="43.5753433" lon="13.3194433"><ele>30.0</ele><time>2026-04-12T15:35:05.227Z</time></trkpt><trkpt lat="43.5752367" lon="13.319075"><ele>30.0</ele><time>2026-04-12T15:35:06.226Z</time></trkpt><trkpt lat="43.57513" lon="13.31871"><ele>30.0</ele><time>2026-04-12T15:35:07.226Z</time></trkpt><trkpt lat="43.5750183" lon="13.3183433"><ele>30.0</ele><time>2026-04-12T15:35:08.227Z</time></trkpt><trkpt lat="43.5749" lon="13.317985"><ele>29.5</ele><time>2026-04-12T15:35:09.227Z</time></trkpt><trkpt lat="43.5747783" lon="13.3176217"><ele>29.0</ele><time>2026-04-12T15:35:10.227Z</time></trkpt><trkpt lat="43.5746433" lon="13.3172633"><ele>30.0</ele><time>2026-04-12T15:35:11.226Z</time></trkpt><trkpt lat="43.5745033" lon="13.3169217"><ele>31.0</ele><time>2026-04-12T15:35:12.227Z</time></trkpt><trkpt lat="43.5743583" lon="13.3165917"><ele>30.5</ele><time>2026-04-12T15:35:13.227Z</time></trkpt><trkpt lat="43.5742067" lon="13.31626"><ele>30.0</ele><time>2026-04-12T15:35:14.227Z</time></trkpt><trkpt lat="43.5740433" lon="13.315935"><ele>30.0</ele><time>2026-04-12T15:35:15.227Z</time></trkpt><trkpt lat="43.5738733" lon="13.31562"><ele>30.0</ele><time>2026-04-12T15:35:16.226Z</time></trkpt><trkpt lat="43.5736967" lon="13.315315"><ele>31.0</ele><time>2026-04-12T15:35:17.227Z</time></trkpt><trkpt lat="43.57351" lon="13.3150283"><ele>32.0</ele><time>2026-04-12T15:35:18.226Z</time></trkpt><trkpt lat="43.5733133" lon="13.314745"><ele>30.5</ele><time>2026-04-12T15:35:19.226Z</time></trkpt><trkpt lat="43.5731133" lon="13.314465"><ele>29.0</ele><time>2026-04-12T15:35:20.227Z</time></trkpt><trkpt lat="43.5729033" lon="13.31419"><ele>29.0</ele><time>2026-04-12T15:35:21.227Z</time></trkpt><trkpt lat="43.572695" lon="13.3139267"><ele>29.0</ele><time>2026-04-12T15:35:22.227Z</time></trkpt><trkpt lat="43.5724817" lon="13.3136733"><ele>29.0</ele><time>2026-04-12T15:35:23.227Z</time></trkpt><trkpt lat="43.5722617" lon="13.3134233"><ele>29.0</ele><time>2026-04-12T15:35:24.227Z</time></trkpt><trkpt lat="43.5720367" lon="13.3131867"><ele>30.0</ele><time>2026-04-12T15:35:25.227Z</time></trkpt><trkpt lat="43.571805" lon="13.3129583"><ele>31.0</ele><time>2026-04-12T15:35:26.227Z</time></trkpt><trkpt lat="43.5715733" lon="13.3127383"><ele>31.0</ele><time>2026-04-12T15:35:27.227Z</time></trkpt><trkpt lat="43.5713333" lon="13.31252"><ele>31.0</ele><time>2026-04-12T15:35:28.227Z</time></trkpt><trkpt lat="43.5710883" lon="13.3123233"><ele>33.0</ele><time>2026-04-12T15:35:29.227Z</time></trkpt><trkpt lat="43.5708333" lon="13.3121283"><ele>35.0</ele><time>2026-04-12T15:35:30.227Z</time></trkpt><trkpt lat="43.5705833" lon="13.311935"><ele>35.5</ele><time>2026-04-12T15:35:31.226Z</time></trkpt><trkpt lat="43.5703367" lon="13.3117467"><ele>36.0</ele><time>2026-04-12T15:35:32.227Z</time></trkpt><trkpt lat="43.57009" lon="13.3115583"><ele>34.5</ele><time>2026-04-12T15:35:33.226Z</time></trkpt><trkpt lat="43.5698433" lon="13.3113617"><ele>33.0</ele><time>2026-04-12T15:35:34.226Z</time></trkpt><trkpt lat="43.5696017" lon="13.3111683"><ele>33.5</ele><time>2026-04-12T15:35:35.227Z</time></trkpt><trkpt lat="43.569355" lon="13.3109783"><ele>34.0</ele><time>2026-04-12T15:35:36.227Z</time></trkpt><trkpt lat="43.5691067" lon="13.3107867"><ele>34.0</ele><time>2026-04-12T15:35:37.227Z</time></trkpt><trkpt lat="43.568855" lon="13.310595"><ele>34.0</ele><time>2026-04-12T15:35:38.227Z</time></trkpt><trkpt lat="43.5686017" lon="13.3104033"><ele>33.5</ele><time>2026-04-12T15:35:39.227Z</time></trkpt><trkpt lat="43.56835" lon="13.3102133"><ele>33.0</ele><time>2026-04-12T15:35:40.227Z</time></trkpt><trkpt lat="43.568095" lon="13.31003"><ele>34.0</ele><time>2026-04-12T15:35:41.226Z</time></trkpt><trkpt lat="43.5678433" lon="13.3098533"><ele>35.0</ele><time>2026-04-12T15:35:42.227Z</time></trkpt><trkpt lat="43.5675867" lon="13.3096733"><ele>35.0</ele><time>2026-04-12T15:35:43.227Z</time></trkpt><trkpt lat="43.5673317" lon="13.309495"><ele>35.0</ele><time>2026-04-12T15:35:44.227Z</time></trkpt><trkpt lat="43.5670733" lon="13.30932"><ele>34.0</ele><time>2026-04-12T15:35:45.227Z</time></trkpt><trkpt lat="43.5668217" lon="13.309145"><ele>33.0</ele><time>2026-04-12T15:35:46.227Z</time></trkpt><trkpt lat="43.5665567" lon="13.3089617"><ele>33.0</ele><time>2026-04-12T15:35:47.226Z</time></trkpt><trkpt lat="43.5662967" lon="13.3087767"><ele>33.0</ele><time>2026-04-12T15:35:48.227Z</time></trkpt><trkpt lat="43.5660367" lon="13.3085967"><ele>33.0</ele><time>2026-04-12T15:35:49.227Z</time></trkpt><trkpt lat="43.5657783" lon="13.308415"><ele>33.0</ele><time>2026-04-12T15:35:50.227Z</time></trkpt><trkpt lat="43.5655183" lon="13.3082367"><ele>32.5</ele><time>2026-04-12T15:35:51.226Z</time></trkpt><trkpt lat="43.5652567" lon="13.308055"><ele>32.0</ele><time>2026-04-12T15:35:52.227Z</time></trkpt><trkpt lat="43.5649983" lon="13.30787"><ele>32.0</ele><time>2026-04-12T15:35:53.226Z</time></trkpt><trkpt lat="43.5647383" lon="13.3076833"><ele>32.0</ele><time>2026-04-12T15:35:54.226Z</time></trkpt><trkpt lat="43.564475" lon="13.307495"><ele>32.5</ele><time>2026-04-12T15:35:55.227Z</time></trkpt><trkpt lat="43.5642167" lon="13.307305"><ele>33.0</ele><time>2026-04-12T15:35:56.226Z</time></trkpt><trkpt lat="43.563965" lon="13.3071083"><ele>33.0</ele><time>2026-04-12T15:35:57.227Z</time></trkpt><trkpt lat="43.5637" lon="13.306915"><ele>33.0</ele><time>2026-04-12T15:35:58.227Z</time></trkpt><trkpt lat="43.5634467" lon="13.306725"><ele>33.0</ele><time>2026-04-12T15:35:59.226Z</time></trkpt><trkpt lat="43.5631867" lon="13.3065383"><ele>33.0</ele><time>2026-04-12T15:36:00.227Z</time></trkpt><trkpt lat="43.5629333" lon="13.306345"><ele>33.5</ele><time>2026-04-12T15:36:01.226Z</time></trkpt><trkpt lat="43.5626817" lon="13.3061617"><ele>34.0</ele><time>2026-04-12T15:36:02.226Z</time></trkpt><trkpt lat="43.5624283" lon="13.3059833"><ele>34.0</ele><time>2026-04-12T15:36:03.227Z</time></trkpt><trkpt lat="43.562175" lon="13.3058"><ele>34.0</ele><time>2026-04-12T15:36:04.227Z</time></trkpt><trkpt lat="43.5619217" lon="13.30562"><ele>33.5</ele><time>2026-04-12T15:36:05.227Z</time></trkpt><trkpt lat="43.5616683" lon="13.3054267"><ele>33.0</ele><time>2026-04-12T15:36:06.227Z</time></trkpt><trkpt lat="43.5614183" lon="13.3052433"><ele>35.5</ele><time>2026-04-12T15:36:07.227Z</time></trkpt><trkpt lat="43.5611683" lon="13.3050567"><ele>38.0</ele><time>2026-04-12T15:36:08.227Z</time></trkpt><trkpt lat="43.5609133" lon="13.30488"><ele>38.0</ele><time>2026-04-12T15:36:09.227Z</time></trkpt><trkpt lat="43.5606583" lon="13.30469"><ele>38.0</ele><time>2026-04-12T15:36:10.226Z</time></trkpt><trkpt lat="43.560405" lon="13.3045017"><ele>37.5</ele><time>2026-04-12T15:36:11.227Z</time></trkpt><trkpt lat="43.5601517" lon="13.3043117"><ele>37.0</ele><time>2026-04-12T15:36:12.227Z</time></trkpt><trkpt lat="43.5598967" lon="13.3041267"><ele>37.0</ele><time>2026-04-12T15:36:13.226Z</time></trkpt><trkpt lat="43.5596367" lon="13.3039467"><ele>37.0</ele><time>2026-04-12T15:36:14.226Z</time></trkpt><trkpt lat="43.559375" lon="13.3037717"><ele>37.0</ele><time>2026-04-12T15:36:15.226Z</time></trkpt><trkpt lat="43.5591133" lon="13.3035933"><ele>37.0</ele><time>2026-04-12T15:36:16.227Z</time></trkpt><trkpt lat="43.55886" lon="13.3034117"><ele>37.0</ele><time>2026-04-12T15:36:17.227Z</time></trkpt><trkpt lat="43.558605" lon="13.3032233"><ele>37.0</ele><time>2026-04-12T15:36:18.227Z</time></trkpt><trkpt lat="43.5583367" lon="13.3030317"><ele>37.0</ele><time>2026-04-12T15:36:19.227Z</time></trkpt><trkpt lat="43.5580733" lon="13.30284"><ele>37.0</ele><time>2026-04-12T15:36:20.226Z</time></trkpt><trkpt lat="43.5578167" lon="13.3026517"><ele>39.0</ele><time>2026-04-12T15:36:21.226Z</time></trkpt><trkpt lat="43.557575" lon="13.3024733"><ele>41.0</ele><time>2026-04-12T15:36:22.227Z</time></trkpt><trkpt lat="43.5573367" lon="13.3022983"><ele>40.0</ele><time>2026-04-12T15:36:23.227Z</time></trkpt><trkpt lat="43.557095" lon="13.3021267"><ele>39.0</ele><time>2026-04-12T15:36:24.227Z</time></trkpt><trkpt lat="43.556855" lon="13.3019533"><ele>39.0</ele><time>2026-04-12T15:36:25.226Z</time></trkpt><trkpt lat="43.556605" lon="13.3017717"><ele>39.0</ele><time>2026-04-12T15:36:26.227Z</time></trkpt><trkpt lat="43.5563567" lon="13.3015917"><ele>40.0</ele><time>2026-04-12T15:36:27.227Z</time></trkpt><trkpt lat="43.5561" lon="13.30141"><ele>41.0</ele><time>2026-04-12T15:36:28.227Z</time></trkpt><trkpt lat="43.5558383" lon="13.3012317"><ele>41.0</ele><time>2026-04-12T15:36:29.226Z</time></trkpt><trkpt lat="43.5555817" lon="13.3010483"><ele>41.0</ele><time>2026-04-12T15:36:30.227Z</time></trkpt><trkpt lat="43.5553367" lon="13.3008417"><ele>41.5</ele><time>2026-04-12T15:36:31.227Z</time></trkpt><trkpt lat="43.555055" lon="13.3006717"><ele>42.0</ele><time>2026-04-12T15:36:32.227Z</time></trkpt><trkpt lat="43.5547917" lon="13.3004833"><ele>41.0</ele><time>2026-04-12T15:36:33.226Z</time></trkpt><trkpt lat="43.554535" lon="13.3003067"><ele>40.0</ele><time>2026-04-12T15:36:34.226Z</time></trkpt><trkpt lat="43.5542767" lon="13.3001183"><ele>40.0</ele><time>2026-04-12T15:36:35.227Z</time></trkpt><trkpt lat="43.5540117" lon="13.2999317"><ele>40.0</ele><time>2026-04-12T15:36:36.227Z</time></trkpt><trkpt lat="43.5537633" lon="13.2997417"><ele>41.5</ele><time>2026-04-12T15:36:37.226Z</time></trkpt><trkpt lat="43.5535067" lon="13.2995583"><ele>43.0</ele><time>2026-04-12T15:36:38.226Z</time></trkpt><trkpt lat="43.5532467" lon="13.2993817"><ele>43.0</ele><time>2026-04-12T15:36:39.226Z</time></trkpt><trkpt lat="43.5529833" lon="13.2991983"><ele>43.0</ele><time>2026-04-12T15:36:40.227Z</time></trkpt><trkpt lat="43.552725" lon="13.2990167"><ele>40.5</ele><time>2026-04-12T15:36:41.227Z</time></trkpt><trkpt lat="43.55246" lon="13.2988283"><ele>38.0</ele><time>2026-04-12T15:36:42.226Z</time></trkpt><trkpt lat="43.5522" lon="13.2986417"><ele>39.0</ele><time>2026-04-12T15:36:43.227Z</time></trkpt><trkpt lat="43.55194" lon="13.29846"><ele>40.0</ele><time>2026-04-12T15:36:44.227Z</time></trkpt><trkpt lat="43.5516867" lon="13.2982783"><ele>40.0</ele><time>2026-04-12T15:36:45.227Z</time></trkpt><trkpt lat="43.5514317" lon="13.2980983"><ele>40.0</ele><time>2026-04-12T15:36:46.227Z</time></trkpt><trkpt lat="43.551175" lon="13.2979183"><ele>38.5</ele><time>2026-04-12T15:36:47.227Z</time></trkpt><trkpt lat="43.5509217" lon="13.2977333"><ele>37.0</ele><time>2026-04-12T15:36:48.227Z</time></trkpt><trkpt lat="43.5506633" lon="13.2975467"><ele>37.0</ele><time>2026-04-12T15:36:49.227Z</time></trkpt><trkpt lat="43.5504083" lon="13.297365"><ele>37.0</ele><time>2026-04-12T15:36:50.227Z</time></trkpt><trkpt lat="43.5501367" lon="13.2971833"><ele>38.0</ele><time>2026-04-12T15:36:51.227Z</time></trkpt><trkpt lat="43.5498633" lon="13.2970017"><ele>39.0</ele><time>2026-04-12T15:36:52.227Z</time></trkpt><trkpt lat="43.549615" lon="13.2968117"><ele>39.5</ele><time>2026-04-12T15:36:53.226Z</time></trkpt><trkpt lat="43.549355" lon="13.2966283"><ele>40.0</ele><time>2026-04-12T15:36:54.226Z</time></trkpt><trkpt lat="43.549095" lon="13.2964433"><ele>39.5</ele><time>2026-04-12T15:36:55.227Z</time></trkpt><trkpt lat="43.54883" lon="13.2962583"><ele>39.0</ele><time>2026-04-12T15:36:56.226Z</time></trkpt><trkpt lat="43.5485667" lon="13.29607"><ele>40.0</ele><time>2026-04-12T15:36:57.227Z</time></trkpt><trkpt lat="43.548305" lon="13.2958833"><ele>41.0</ele><time>2026-04-12T15:36:58.227Z</time></trkpt><trkpt lat="43.5480467" lon="13.2956917"><ele>41.5</ele><time>2026-04-12T15:36:59.227Z</time></trkpt><trkpt lat="43.5477767" lon="13.2954967"><ele>42.0</ele><time>2026-04-12T15:37:00.227Z</time></trkpt><trkpt lat="43.5475133" lon="13.2953117"><ele>42.0</ele><time>2026-04-12T15:37:01.226Z</time></trkpt><trkpt lat="43.54725" lon="13.2951217"><ele>42.0</ele><time>2026-04-12T15:37:02.227Z</time></trkpt><trkpt lat="43.546985" lon="13.2949317"><ele>40.5</ele><time>2026-04-12T15:37:03.227Z</time></trkpt><trkpt lat="43.5467217" lon="13.294735"><ele>39.0</ele><time>2026-04-12T15:37:04.227Z</time></trkpt><trkpt lat="43.5464617" lon="13.2945383"><ele>40.5</ele><time>2026-04-12T15:37:05.226Z</time></trkpt><trkpt lat="43.5462017" lon="13.29435"><ele>42.0</ele><time>2026-04-12T15:37:06.227Z</time></trkpt><trkpt lat="43.54595" lon="13.2941633"><ele>42.0</ele><time>2026-04-12T15:37:07.227Z</time></trkpt><trkpt lat="43.5456933" lon="13.2939817"><ele>42.0</ele><time>2026-04-12T15:37:08.227Z</time></trkpt><trkpt lat="43.5454367" lon="13.2938"><ele>43.0</ele><time>2026-04-12T15:37:09.227Z</time></trkpt><trkpt lat="43.5451733" lon="13.2936167"><ele>44.0</ele><time>2026-04-12T15:37:10.227Z</time></trkpt><trkpt lat="43.54491" lon="13.2934283"><ele>44.0</ele><time>2026-04-12T15:37:11.227Z</time></trkpt><trkpt lat="43.5446467" lon="13.293245"><ele>44.0</ele><time>2026-04-12T15:37:12.226Z</time></trkpt><trkpt lat="43.544385" lon="13.2930567"><ele>43.5</ele><time>2026-04-12T15:37:13.227Z</time></trkpt><trkpt lat="43.5441267" lon="13.2928717"><ele>43.0</ele><time>2026-04-12T15:37:14.227Z</time></trkpt><trkpt lat="43.5438683" lon="13.2926783"><ele>42.5</ele><time>2026-04-12T15:37:15.227Z</time></trkpt><trkpt lat="43.543605" lon="13.292485"><ele>42.0</ele><time>2026-04-12T15:37:16.227Z</time></trkpt><trkpt lat="43.5433467" lon="13.2923017"><ele>42.5</ele><time>2026-04-12T15:37:17.226Z</time></trkpt><trkpt lat="43.5430867" lon="13.2921217"><ele>43.0</ele><time>2026-04-12T15:37:18.227Z</time></trkpt><trkpt lat="43.54283" lon="13.2919383"><ele>43.5</ele><time>2026-04-12T15:37:19.227Z</time></trkpt><trkpt lat="43.5425683" lon="13.291755"><ele>44.0</ele><time>2026-04-12T15:37:20.226Z</time></trkpt><trkpt lat="43.5423083" lon="13.291575"><ele>44.5</ele><time>2026-04-12T15:37:21.227Z</time></trkpt><trkpt lat="43.54205" lon="13.29139"><ele>45.0</ele><time>2026-04-12T15:37:22.227Z</time></trkpt><trkpt lat="43.5417867" lon="13.2912083"><ele>45.0</ele><time>2026-04-12T15:37:23.227Z</time></trkpt><trkpt lat="43.5415317" lon="13.2910283"><ele>45.0</ele><time>2026-04-12T15:37:24.226Z</time></trkpt><trkpt lat="43.5412733" lon="13.2908383"><ele>45.5</ele><time>2026-04-12T15:37:25.226Z</time></trkpt><trkpt lat="43.5410133" lon="13.2906517"><ele>46.0</ele><time>2026-04-12T15:37:26.227Z</time></trkpt><trkpt lat="43.5407533" lon="13.2904733"><ele>46.5</ele><time>2026-04-12T15:37:27.227Z</time></trkpt><trkpt lat="43.5404967" lon="13.29029"><ele>47.0</ele><time>2026-04-12T15:37:28.227Z</time></trkpt><trkpt lat="43.54024" lon="13.2901033"><ele>47.0</ele><time>2026-04-12T15:37:29.227Z</time></trkpt><trkpt lat="43.539985" lon="13.2899167"><ele>47.0</ele><time>2026-04-12T15:37:30.227Z</time></trkpt><trkpt lat="43.5397233" lon="13.2897267"><ele>46.0</ele><time>2026-04-12T15:37:31.227Z</time></trkpt><trkpt lat="43.5394667" lon="13.2895433"><ele>45.0</ele><time>2026-04-12T15:37:32.227Z</time></trkpt><trkpt lat="43.5392067" lon="13.2893583"><ele>45.0</ele><time>2026-04-12T15:37:33.227Z</time></trkpt><trkpt lat="43.5389483" lon="13.2891817"><ele>45.0</ele><time>2026-04-12T15:37:34.227Z</time></trkpt><trkpt lat="43.53869" lon="13.2889983"><ele>45.0</ele><time>2026-04-12T15:37:35.227Z</time></trkpt><trkpt lat="43.538435" lon="13.28881"><ele>45.0</ele><time>2026-04-12T15:37:36.226Z</time></trkpt><trkpt lat="43.538185" lon="13.288625"><ele>45.0</ele><time>2026-04-12T15:37:37.227Z</time></trkpt><trkpt lat="43.5379317" lon="13.2884433"><ele>45.0</ele><time>2026-04-12T15:37:38.227Z</time></trkpt><trkpt lat="43.5376767" lon="13.2882633"><ele>44.5</ele><time>2026-04-12T15:37:39.227Z</time></trkpt><trkpt lat="43.53742" lon="13.2880917"><ele>44.0</ele><time>2026-04-12T15:37:40.227Z</time></trkpt><trkpt lat="43.5371633" lon="13.2879067"><ele>45.0</ele><time>2026-04-12T15:37:41.226Z</time></trkpt><trkpt lat="43.5369117" lon="13.28773"><ele>46.0</ele><time>2026-04-12T15:37:42.226Z</time></trkpt><trkpt lat="43.5366617" lon="13.2875517"><ele>46.0</ele><time>2026-04-12T15:37:43.227Z</time></trkpt><trkpt lat="43.536405" lon="13.28737"><ele>46.0</ele><time>2026-04-12T15:37:44.227Z</time></trkpt><trkpt lat="43.5361517" lon="13.28719"><ele>47.0</ele><time>2026-04-12T15:37:45.227Z</time></trkpt><trkpt lat="43.5358967" lon="13.2870033"><ele>48.0</ele><time>2026-04-12T15:37:46.227Z</time></trkpt><trkpt lat="43.5356367" lon="13.2868183"><ele>48.0</ele><time>2026-04-12T15:37:47.227Z</time></trkpt><trkpt lat="43.5353783" lon="13.286635"><ele>48.0</ele><time>2026-04-12T15:37:48.227Z</time></trkpt><trkpt lat="43.5351233" lon="13.286445"><ele>48.5</ele><time>2026-04-12T15:37:49.227Z</time></trkpt><trkpt lat="43.5348617" lon="13.28626"><ele>49.0</ele><time>2026-04-12T15:37:50.226Z</time></trkpt><trkpt lat="43.5345967" lon="13.2860733"><ele>48.0</ele><time>2026-04-12T15:37:51.227Z</time></trkpt><trkpt lat="43.53433" lon="13.285885"><ele>47.0</ele><time>2026-04-12T15:37:52.227Z</time></trkpt><trkpt lat="43.5340617" lon="13.2857033"><ele>47.0</ele><time>2026-04-12T15:37:53.226Z</time></trkpt><trkpt lat="43.5337983" lon="13.2855183"><ele>47.0</ele><time>2026-04-12T15:37:54.226Z</time></trkpt><trkpt lat="43.533535" lon="13.2853317"><ele>47.0</ele><time>2026-04-12T15:37:55.226Z</time></trkpt><trkpt lat="43.5332667" lon="13.2851483"><ele>47.0</ele><time>2026-04-12T15:37:56.227Z</time></trkpt><trkpt lat="43.5330083" lon="13.2849617"><ele>47.0</ele><time>2026-04-12T15:37:57.226Z</time></trkpt><trkpt lat="43.5327433" lon="13.28478"><ele>47.0</ele><time>2026-04-12T15:37:58.227Z</time></trkpt><trkpt lat="43.5324867" lon="13.2845933"><ele>47.5</ele><time>2026-04-12T15:37:59.226Z</time></trkpt><trkpt lat="43.532225" lon="13.28441"><ele>48.0</ele><time>2026-04-12T15:38:00.226Z</time></trkpt><trkpt lat="43.5319583" lon="13.2842217"><ele>48.5</ele><time>2026-04-12T15:38:01.227Z</time></trkpt><trkpt lat="43.531695" lon="13.2840383"><ele>49.0</ele><time>2026-04-12T15:38:02.227Z</time></trkpt><trkpt lat="43.5314317" lon="13.28385"><ele>49.5</ele><time>2026-04-12T15:38:03.226Z</time></trkpt><trkpt lat="43.53117" lon="13.28366"><ele>50.0</ele><time>2026-04-12T15:38:04.227Z</time></trkpt><trkpt lat="43.5309033" lon="13.2834767"><ele>50.0</ele><time>2026-04-12T15:38:05.227Z</time></trkpt><trkpt lat="43.5306417" lon="13.2832933"><ele>50.0</ele><time>2026-04-12T15:38:06.227Z</time></trkpt><trkpt lat="43.5303783" lon="13.2831083"><ele>50.5</ele><time>2026-04-12T15:38:07.227Z</time></trkpt><trkpt lat="43.5301217" lon="13.2829267"><ele>51.0</ele><time>2026-04-12T15:38:08.227Z</time></trkpt><trkpt lat="43.5298567" lon="13.2827483"><ele>51.0</ele><time>2026-04-12T15:38:09.227Z</time></trkpt><trkpt lat="43.5296" lon="13.2825567"><ele>51.0</ele><time>2026-04-12T15:38:10.226Z</time></trkpt><trkpt lat="43.5293383" lon="13.2823767"><ele>51.0</ele><time>2026-04-12T15:38:11.227Z</time></trkpt><trkpt lat="43.5290783" lon="13.2821867"><ele>51.0</ele><time>2026-04-12T15:38:12.226Z</time></trkpt><trkpt lat="43.5288133" lon="13.282"><ele>51.0</ele><time>2026-04-12T15:38:13.226Z</time></trkpt><trkpt lat="43.52855" lon="13.2818133"><ele>51.0</ele><time>2026-04-12T15:38:14.227Z</time></trkpt><trkpt lat="43.5282883" lon="13.2816283"><ele>51.0</ele><time>2026-04-12T15:38:15.227Z</time></trkpt><trkpt lat="43.5280283" lon="13.2814417"><ele>51.0</ele><time>2026-04-12T15:38:16.226Z</time></trkpt><trkpt lat="43.527765" lon="13.2812517"><ele>51.5</ele><time>2026-04-12T15:38:17.227Z</time></trkpt><trkpt lat="43.5274983" lon="13.2810617"><ele>52.0</ele><time>2026-04-12T15:38:18.226Z</time></trkpt><trkpt lat="43.5272317" lon="13.2808783"><ele>51.5</ele><time>2026-04-12T15:38:19.227Z</time></trkpt><trkpt lat="43.52697" lon="13.2806883"><ele>51.0</ele><time>2026-04-12T15:38:20.226Z</time></trkpt><trkpt lat="43.5267067" lon="13.2804983"><ele>50.0</ele><time>2026-04-12T15:38:21.227Z</time></trkpt><trkpt lat="43.5264417" lon="13.2803117"><ele>49.0</ele><time>2026-04-12T15:38:22.227Z</time></trkpt><trkpt lat="43.5261783" lon="13.2801283"><ele>50.0</ele><time>2026-04-12T15:38:23.226Z</time></trkpt><trkpt lat="43.525915" lon="13.2799367"><ele>51.0</ele><time>2026-04-12T15:38:24.227Z</time></trkpt><trkpt lat="43.5256517" lon="13.2797467"><ele>52.5</ele><time>2026-04-12T15:38:25.227Z</time></trkpt><trkpt lat="43.5253833" lon="13.279555"><ele>54.0</ele><time>2026-04-12T15:38:26.227Z</time></trkpt><trkpt lat="43.525115" lon="13.2793617"><ele>54.0</ele><time>2026-04-12T15:38:27.227Z</time></trkpt><trkpt lat="43.5248417" lon="13.2791717"><ele>54.0</ele><time>2026-04-12T15:38:28.227Z</time></trkpt><trkpt lat="43.52457" lon="13.2789717"><ele>53.0</ele><time>2026-04-12T15:38:29.227Z</time></trkpt><trkpt lat="43.5242883" lon="13.27877"><ele>52.0</ele><time>2026-04-12T15:38:30.226Z</time></trkpt><trkpt lat="43.5239967" lon="13.278565"><ele>52.5</ele><time>2026-04-12T15:38:31.227Z</time></trkpt><trkpt lat="43.5237117" lon="13.2783583"><ele>53.0</ele><time>2026-04-12T15:38:32.227Z</time></trkpt><trkpt lat="43.523425" lon="13.278155"><ele>53.0</ele><time>2026-04-12T15:38:33.226Z</time></trkpt><trkpt lat="43.5231517" lon="13.2779433"><ele>53.0</ele><time>2026-04-12T15:38:34.227Z</time></trkpt><trkpt lat="43.522885" lon="13.2777417"><ele>53.0</ele><time>2026-04-12T15:38:35.227Z</time></trkpt><trkpt lat="43.5226133" lon="13.2775467"><ele>53.0</ele><time>2026-04-12T15:38:36.226Z</time></trkpt><trkpt lat="43.522345" lon="13.2773533"><ele>52.5</ele><time>2026-04-12T15:38:37.227Z</time></trkpt><trkpt lat="43.5220833" lon="13.277165"><ele>52.0</ele><time>2026-04-12T15:38:38.226Z</time></trkpt><trkpt lat="43.52182" lon="13.2769783"><ele>52.0</ele><time>2026-04-12T15:38:39.227Z</time></trkpt><trkpt lat="43.5215567" lon="13.2767867"><ele>52.0</ele><time>2026-04-12T15:38:40.227Z</time></trkpt><trkpt lat="43.5212983" lon="13.2766033"><ele>52.0</ele><time>2026-04-12T15:38:41.226Z</time></trkpt><trkpt lat="43.5210417" lon="13.2764233"><ele>52.0</ele><time>2026-04-12T15:38:42.227Z</time></trkpt><trkpt lat="43.5207867" lon="13.2762433"><ele>52.0</ele><time>2026-04-12T15:38:43.226Z</time></trkpt><trkpt lat="43.5205283" lon="13.2760583"><ele>52.0</ele><time>2026-04-12T15:38:44.226Z</time></trkpt><trkpt lat="43.520265" lon="13.2758733"><ele>52.0</ele><time>2026-04-12T15:38:45.226Z</time></trkpt><trkpt lat="43.5199983" lon="13.2756917"><ele>52.0</ele><time>2026-04-12T15:38:46.227Z</time></trkpt><trkpt lat="43.519735" lon="13.2755"><ele>53.0</ele><time>2026-04-12T15:38:47.227Z</time></trkpt><trkpt lat="43.519475" lon="13.27532"><ele>54.0</ele><time>2026-04-12T15:38:48.226Z</time></trkpt><trkpt lat="43.519215" lon="13.275125"><ele>54.0</ele><time>2026-04-12T15:38:49.227Z</time></trkpt><trkpt lat="43.5189583" lon="13.274945"><ele>54.0</ele><time>2026-04-12T15:38:50.227Z</time></trkpt><trkpt lat="43.5186967" lon="13.2747533"><ele>55.0</ele><time>2026-04-12T15:38:51.227Z</time></trkpt><trkpt lat="43.518435" lon="13.274575"><ele>56.0</ele><time>2026-04-12T15:38:52.227Z</time></trkpt><trkpt lat="43.5181733" lon="13.2743883"><ele>56.0</ele><time>2026-04-12T15:38:53.227Z</time></trkpt><trkpt lat="43.5179117" lon="13.274195"><ele>56.0</ele><time>2026-04-12T15:38:54.227Z</time></trkpt><trkpt lat="43.51765" lon="13.2740117"><ele>55.5</ele><time>2026-04-12T15:38:55.226Z</time></trkpt><trkpt lat="43.5173833" lon="13.2738233"><ele>55.0</ele><time>2026-04-12T15:38:56.227Z</time></trkpt><trkpt lat="43.517125" lon="13.273645"><ele>57.0</ele><time>2026-04-12T15:38:57.227Z</time></trkpt><trkpt lat="43.5168633" lon="13.27346"><ele>59.0</ele><time>2026-04-12T15:38:58.227Z</time></trkpt><trkpt lat="43.5165917" lon="13.2732733"><ele>59.0</ele><time>2026-04-12T15:38:59.227Z</time></trkpt><trkpt lat="43.516325" lon="13.2730917"><ele>59.0</ele><time>2026-04-12T15:39:00.226Z</time></trkpt><trkpt lat="43.5160583" lon="13.2729133"><ele>59.0</ele><time>2026-04-12T15:39:01.227Z</time></trkpt><trkpt lat="43.515795" lon="13.2727283"><ele>59.0</ele><time>2026-04-12T15:39:02.227Z</time></trkpt><trkpt lat="43.5155333" lon="13.27255"><ele>59.0</ele><time>2026-04-12T15:39:03.227Z</time></trkpt><trkpt lat="43.515275" lon="13.2723683"><ele>59.0</ele><time>2026-04-12T15:39:04.227Z</time></trkpt><trkpt lat="43.5150117" lon="13.272175"><ele>58.0</ele><time>2026-04-12T15:39:05.226Z</time></trkpt><trkpt lat="43.5147533" lon="13.27199"><ele>57.0</ele><time>2026-04-12T15:39:06.227Z</time></trkpt><trkpt lat="43.5145" lon="13.271795"><ele>57.0</ele><time>2026-04-12T15:39:07.227Z</time></trkpt><trkpt lat="43.51426" lon="13.2715767"><ele>57.0</ele><time>2026-04-12T15:39:08.227Z</time></trkpt><trkpt lat="43.5140167" lon="13.2713433"><ele>56.5</ele><time>2026-04-12T15:39:09.226Z</time></trkpt><trkpt lat="43.5137867" lon="13.2710967"><ele>56.0</ele><time>2026-04-12T15:39:10.227Z</time></trkpt><trkpt lat="43.5135667" lon="13.2708433"><ele>56.5</ele><time>2026-04-12T15:39:11.227Z</time></trkpt><trkpt lat="43.51335" lon="13.2705783"><ele>57.0</ele><time>2026-04-12T15:39:12.227Z</time></trkpt><trkpt lat="43.513145" lon="13.2703033"><ele>57.0</ele><time>2026-04-12T15:39:13.226Z</time></trkpt><trkpt lat="43.5129517" lon="13.2700167"><ele>57.0</ele><time>2026-04-12T15:39:14.227Z</time></trkpt><trkpt lat="43.512755" lon="13.2697183"><ele>58.0</ele><time>2026-04-12T15:39:15.227Z</time></trkpt><trkpt lat="43.5125617" lon="13.2694267"><ele>59.0</ele><time>2026-04-12T15:39:16.227Z</time></trkpt><trkpt lat="43.5123617" lon="13.26913"><ele>59.0</ele><time>2026-04-12T15:39:17.226Z</time></trkpt><trkpt lat="43.512165" lon="13.268835"><ele>59.0</ele><time>2026-04-12T15:39:18.227Z</time></trkpt><trkpt lat="43.51197" lon="13.2685417"><ele>59.0</ele><time>2026-04-12T15:39:19.227Z</time></trkpt><trkpt lat="43.5117733" lon="13.26825"><ele>59.0</ele><time>2026-04-12T15:39:20.227Z</time></trkpt><trkpt lat="43.5115767" lon="13.26796"><ele>59.0</ele><time>2026-04-12T15:39:21.226Z</time></trkpt><trkpt lat="43.5113833" lon="13.2676683"><ele>59.0</ele><time>2026-04-12T15:39:22.227Z</time></trkpt><trkpt lat="43.51119" lon="13.2673767"><ele>61.5</ele><time>2026-04-12T15:39:23.227Z</time></trkpt><trkpt lat="43.5109933" lon="13.2670883"><ele>64.0</ele><time>2026-04-12T15:39:24.226Z</time></trkpt><trkpt lat="43.5107933" lon="13.2667917"><ele>64.0</ele><time>2026-04-12T15:39:25.227Z</time></trkpt><trkpt lat="43.5105967" lon="13.266495"><ele>64.0</ele><time>2026-04-12T15:39:26.226Z</time></trkpt><trkpt lat="43.5104" lon="13.2661983"><ele>64.0</ele><time>2026-04-12T15:39:27.227Z</time></trkpt><trkpt lat="43.5102" lon="13.2659067"><ele>64.0</ele><time>2026-04-12T15:39:28.227Z</time></trkpt><trkpt lat="43.5099983" lon="13.2655967"><ele>64.0</ele><time>2026-04-12T15:39:29.227Z</time></trkpt><trkpt lat="43.50979" lon="13.26529"><ele>64.0</ele><time>2026-04-12T15:39:30.227Z</time></trkpt><trkpt lat="43.5095917" lon="13.2649883"><ele>64.0</ele><time>2026-04-12T15:39:31.226Z</time></trkpt><trkpt lat="43.5093967" lon="13.2646817"><ele>64.0</ele><time>2026-04-12T15:39:32.227Z</time></trkpt><trkpt lat="43.50921" lon="13.26437"><ele>64.0</ele><time>2026-04-12T15:39:33.227Z</time></trkpt><trkpt lat="43.50903" lon="13.2640483"><ele>64.0</ele><time>2026-04-12T15:39:34.227Z</time></trkpt><trkpt lat="43.50886" lon="13.2637267"><ele>63.5</ele><time>2026-04-12T15:39:35.227Z</time></trkpt><trkpt lat="43.508695" lon="13.2634033"><ele>63.0</ele><time>2026-04-12T15:39:36.227Z</time></trkpt><trkpt lat="43.508535" lon="13.2630717"><ele>63.0</ele><time>2026-04-12T15:39:37.227Z</time></trkpt><trkpt lat="43.5083883" lon="13.26274"><ele>63.0</ele><time>2026-04-12T15:39:38.227Z</time></trkpt><trkpt lat="43.508245" lon="13.2623883"><ele>63.5</ele><time>2026-04-12T15:39:39.226Z</time></trkpt><trkpt lat="43.5080983" lon="13.2620567"><ele>64.0</ele><time>2026-04-12T15:39:40.227Z</time></trkpt><trkpt lat="43.5079617" lon="13.2617317"><ele>64.0</ele><time>2026-04-12T15:39:41.226Z</time></trkpt><trkpt lat="43.5078233" lon="13.2614"><ele>64.0</ele><time>2026-04-12T15:39:42.227Z</time></trkpt><trkpt lat="43.50769" lon="13.2610733"><ele>64.0</ele><time>2026-04-12T15:39:43.227Z</time></trkpt><trkpt lat="43.5075517" lon="13.2607517"><ele>64.0</ele><time>2026-04-12T15:39:44.226Z</time></trkpt><trkpt lat="43.5074133" lon="13.26043"><ele>64.0</ele><time>2026-04-12T15:39:45.227Z</time></trkpt><trkpt lat="43.5072767" lon="13.26011"><ele>64.0</ele><time>2026-04-12T15:39:46.226Z</time></trkpt><trkpt lat="43.507135" lon="13.2597867"><ele>64.0</ele><time>2026-04-12T15:39:47.227Z</time></trkpt><trkpt lat="43.5069983" lon="13.2594667"><ele>64.0</ele><time>2026-04-12T15:39:48.227Z</time></trkpt><trkpt lat="43.5068633" lon="13.259145"><ele>64.0</ele><time>2026-04-12T15:39:49.226Z</time></trkpt><trkpt lat="43.5067333" lon="13.2588233"><ele>64.0</ele><time>2026-04-12T15:39:50.227Z</time></trkpt><trkpt lat="43.5065917" lon="13.2585083"><ele>64.0</ele><time>2026-04-12T15:39:51.226Z</time></trkpt><trkpt lat="43.5064533" lon="13.2581933"><ele>64.0</ele><time>2026-04-12T15:39:52.227Z</time></trkpt><trkpt lat="43.5063117" lon="13.257865"><ele>63.5</ele><time>2026-04-12T15:39:53.226Z</time></trkpt><trkpt lat="43.5061683" lon="13.2575383"><ele>63.0</ele><time>2026-04-12T15:39:54.227Z</time></trkpt><trkpt lat="43.5060267" lon="13.2572067"><ele>63.0</ele><time>2026-04-12T15:39:55.227Z</time></trkpt><trkpt lat="43.5058917" lon="13.2568817"><ele>63.0</ele><time>2026-04-12T15:39:56.227Z</time></trkpt><trkpt lat="43.5057467" lon="13.2565533"><ele>63.5</ele><time>2026-04-12T15:39:57.227Z</time></trkpt><trkpt lat="43.50561" lon="13.2562233"><ele>64.0</ele><time>2026-04-12T15:39:58.227Z</time></trkpt><trkpt lat="43.505465" lon="13.2558983"><ele>63.0</ele><time>2026-04-12T15:39:59.227Z</time></trkpt><trkpt lat="43.5053283" lon="13.2555667"><ele>62.0</ele><time>2026-04-12T15:40:00.227Z</time></trkpt><trkpt lat="43.5051833" lon="13.2552333"><ele>62.0</ele><time>2026-04-12T15:40:01.227Z</time></trkpt><trkpt lat="43.5050433" lon="13.2549033"><ele>62.0</ele><time>2026-04-12T15:40:02.227Z</time></trkpt><trkpt lat="43.5049017" lon="13.2545683"><ele>62.0</ele><time>2026-04-12T15:40:03.227Z</time></trkpt><trkpt lat="43.50476" lon="13.254235"><ele>62.0</ele><time>2026-04-12T15:40:04.227Z</time></trkpt><trkpt lat="43.5046233" lon="13.2539017"><ele>62.5</ele><time>2026-04-12T15:40:05.226Z</time></trkpt><trkpt lat="43.504485" lon="13.2535667"><ele>63.0</ele><time>2026-04-12T15:40:06.227Z</time></trkpt><trkpt lat="43.50435" lon="13.2532333"><ele>63.5</ele><time>2026-04-12T15:40:07.227Z</time></trkpt><trkpt lat="43.5042117" lon="13.2528917"><ele>64.0</ele><time>2026-04-12T15:40:08.227Z</time></trkpt><trkpt lat="43.5040733" lon="13.2525467"><ele>63.5</ele><time>2026-04-12T15:40:09.227Z</time></trkpt><trkpt lat="43.5039383" lon="13.252205"><ele>63.0</ele><time>2026-04-12T15:40:10.226Z</time></trkpt><trkpt lat="43.5038017" lon="13.2518567"><ele>63.5</ele><time>2026-04-12T15:40:11.227Z</time></trkpt><trkpt lat="43.5036583" lon="13.251495"><ele>64.0</ele><time>2026-04-12T15:40:12.227Z</time></trkpt><trkpt lat="43.50352" lon="13.2511333"><ele>64.0</ele><time>2026-04-12T15:40:13.227Z</time></trkpt><trkpt lat="43.50337" lon="13.2507467"><ele>64.0</ele><time>2026-04-12T15:40:14.227Z</time></trkpt><trkpt lat="43.5032217" lon="13.25035"><ele>64.0</ele><time>2026-04-12T15:40:15.227Z</time></trkpt><trkpt lat="43.5030667" lon="13.24995"><ele>64.0</ele><time>2026-04-12T15:40:16.227Z</time></trkpt><trkpt lat="43.502905" lon="13.249545"><ele>64.5</ele><time>2026-04-12T15:40:17.226Z</time></trkpt><trkpt lat="43.5027367" lon="13.2491317"><ele>65.0</ele><time>2026-04-12T15:40:18.227Z</time></trkpt><trkpt lat="43.5025767" lon="13.2487183"><ele>65.0</ele><time>2026-04-12T15:40:19.226Z</time></trkpt><trkpt lat="43.5024133" lon="13.2483"><ele>65.0</ele><time>2026-04-12T15:40:20.227Z</time></trkpt><trkpt lat="43.50225" lon="13.247885"><ele>65.0</ele><time>2026-04-12T15:40:21.227Z</time></trkpt><trkpt lat="43.5020867" lon="13.247475"><ele>65.0</ele><time>2026-04-12T15:40:22.226Z</time></trkpt><trkpt lat="43.5019267" lon="13.24706"><ele>65.0</ele><time>2026-04-12T15:40:23.226Z</time></trkpt><trkpt lat="43.50177" lon="13.2466467"><ele>65.0</ele><time>2026-04-12T15:40:24.227Z</time></trkpt><trkpt lat="43.5016117" lon="13.2462483"><ele>65.5</ele><time>2026-04-12T15:40:25.227Z</time></trkpt><trkpt lat="43.501455" lon="13.2458533"><ele>66.0</ele><time>2026-04-12T15:40:26.227Z</time></trkpt><trkpt lat="43.5012983" lon="13.2454567"><ele>66.5</ele><time>2026-04-12T15:40:27.227Z</time></trkpt><trkpt lat="43.5011383" lon="13.245065"><ele>67.0</ele><time>2026-04-12T15:40:28.226Z</time></trkpt><trkpt lat="43.5009883" lon="13.2446867"><ele>67.0</ele><time>2026-04-12T15:40:29.226Z</time></trkpt><trkpt lat="43.5008267" lon="13.24431"><ele>67.0</ele><time>2026-04-12T15:40:30.226Z</time></trkpt><trkpt lat="43.50066" lon="13.2439533"><ele>67.0</ele><time>2026-04-12T15:40:31.226Z</time></trkpt><trkpt lat="43.500475" lon="13.243605"><ele>67.0</ele><time>2026-04-12T15:40:32.227Z</time></trkpt><trkpt lat="43.5002833" lon="13.2432717"><ele>68.0</ele><time>2026-04-12T15:40:33.227Z</time></trkpt><trkpt lat="43.50008" lon="13.24294"><ele>69.0</ele><time>2026-04-12T15:40:34.227Z</time></trkpt><trkpt lat="43.49987" lon="13.2426267"><ele>69.0</ele><time>2026-04-12T15:40:35.227Z</time></trkpt><trkpt lat="43.4996567" lon="13.2423267"><ele>69.0</ele><time>2026-04-12T15:40:36.227Z</time></trkpt><trkpt lat="43.4994367" lon="13.24204"><ele>70.0</ele><time>2026-04-12T15:40:37.227Z</time></trkpt><trkpt lat="43.4992133" lon="13.2417667"><ele>71.0</ele><time>2026-04-12T15:40:38.226Z</time></trkpt><trkpt lat="43.498985" lon="13.241495"><ele>69.5</ele><time>2026-04-12T15:40:39.227Z</time></trkpt><trkpt lat="43.4987567" lon="13.2412367"><ele>68.0</ele><time>2026-04-12T15:40:40.226Z</time></trkpt><trkpt lat="43.4985233" lon="13.2409767"><ele>68.0</ele><time>2026-04-12T15:40:41.227Z</time></trkpt><trkpt lat="43.4983" lon="13.2407267"><ele>68.0</ele><time>2026-04-12T15:40:42.227Z</time></trkpt><trkpt lat="43.4980717" lon="13.2404683"><ele>69.5</ele><time>2026-04-12T15:40:43.227Z</time></trkpt><trkpt lat="43.4978517" lon="13.2402033"><ele>71.0</ele><time>2026-04-12T15:40:44.227Z</time></trkpt><trkpt lat="43.4976283" lon="13.2399333"><ele>70.5</ele><time>2026-04-12T15:40:45.227Z</time></trkpt><trkpt lat="43.4974117" lon="13.2396567"><ele>70.0</ele><time>2026-04-12T15:40:46.227Z</time></trkpt><trkpt lat="43.4972017" lon="13.2393733"><ele>70.5</ele><time>2026-04-12T15:40:47.227Z</time></trkpt><trkpt lat="43.4969917" lon="13.2390933"><ele>71.0</ele><time>2026-04-12T15:40:48.227Z</time></trkpt><trkpt lat="43.4967917" lon="13.2388033"><ele>71.0</ele><time>2026-04-12T15:40:49.227Z</time></trkpt><trkpt lat="43.4966017" lon="13.2385267"><ele>71.0</ele><time>2026-04-12T15:40:50.227Z</time></trkpt><trkpt lat="43.4964033" lon="13.23823"><ele>72.5</ele><time>2026-04-12T15:40:51.227Z</time></trkpt><trkpt lat="43.4962133" lon="13.2379383"><ele>74.0</ele><time>2026-04-12T15:40:52.227Z</time></trkpt><trkpt lat="43.4960167" lon="13.23763"><ele>74.0</ele><time>2026-04-12T15:40:53.227Z</time></trkpt><trkpt lat="43.495835" lon="13.2373233"><ele>74.0</ele><time>2026-04-12T15:40:54.226Z</time></trkpt><trkpt lat="43.49565" lon="13.23701"><ele>74.0</ele><time>2026-04-12T15:40:55.227Z</time></trkpt><trkpt lat="43.4954733" lon="13.236695"><ele>74.0</ele><time>2026-04-12T15:40:56.227Z</time></trkpt><trkpt lat="43.4952983" lon="13.2363617"><ele>74.5</ele><time>2026-04-12T15:40:57.227Z</time></trkpt><trkpt lat="43.4951283" lon="13.236035"><ele>75.0</ele><time>2026-04-12T15:40:58.226Z</time></trkpt><trkpt lat="43.494955" lon="13.2357033"><ele>74.5</ele><time>2026-04-12T15:40:59.227Z</time></trkpt><trkpt lat="43.494795" lon="13.23538"><ele>74.0</ele><time>2026-04-12T15:41:00.226Z</time></trkpt><trkpt lat="43.49464" lon="13.2350483"><ele>74.5</ele><time>2026-04-12T15:41:01.227Z</time></trkpt><trkpt lat="43.4944833" lon="13.2347167"><ele>75.0</ele><time>2026-04-12T15:41:02.227Z</time></trkpt><trkpt lat="43.494325" lon="13.23439"><ele>75.0</ele><time>2026-04-12T15:41:03.226Z</time></trkpt><trkpt lat="43.4941733" lon="13.2340667"><ele>75.0</ele><time>2026-04-12T15:41:04.227Z</time></trkpt><trkpt lat="43.49402" lon="13.2337383"><ele>74.5</ele><time>2026-04-12T15:41:05.227Z</time></trkpt><trkpt lat="43.49387" lon="13.2334067"><ele>74.0</ele><time>2026-04-12T15:41:06.226Z</time></trkpt><trkpt lat="43.4937133" lon="13.23308"><ele>73.5</ele><time>2026-04-12T15:41:07.227Z</time></trkpt><trkpt lat="43.4935567" lon="13.2327567"><ele>73.0</ele><time>2026-04-12T15:41:08.226Z</time></trkpt><trkpt lat="43.4933967" lon="13.2324333"><ele>72.5</ele><time>2026-04-12T15:41:09.227Z</time></trkpt><trkpt lat="43.4932383" lon="13.232105"><ele>72.0</ele><time>2026-04-12T15:41:10.227Z</time></trkpt><trkpt lat="43.493085" lon="13.2317833"><ele>72.5</ele><time>2026-04-12T15:41:11.227Z</time></trkpt><trkpt lat="43.4929333" lon="13.23146"><ele>73.0</ele><time>2026-04-12T15:41:12.226Z</time></trkpt><trkpt lat="43.49278" lon="13.2311417"><ele>74.0</ele><time>2026-04-12T15:41:13.227Z</time></trkpt><trkpt lat="43.4926283" lon="13.2308233"><ele>75.0</ele><time>2026-04-12T15:41:14.227Z</time></trkpt><trkpt lat="43.4924717" lon="13.2305067"><ele>75.0</ele><time>2026-04-12T15:41:15.226Z</time></trkpt><trkpt lat="43.4923217" lon="13.2301867"><ele>75.0</ele><time>2026-04-12T15:41:16.226Z</time></trkpt><trkpt lat="43.4921717" lon="13.2298683"><ele>74.5</ele><time>2026-04-12T15:41:17.226Z</time></trkpt><trkpt lat="43.4920233" lon="13.229555"><ele>74.0</ele><time>2026-04-12T15:41:18.227Z</time></trkpt><trkpt lat="43.49187" lon="13.2292483"><ele>74.0</ele><time>2026-04-12T15:41:19.226Z</time></trkpt><trkpt lat="43.4917233" lon="13.2289283"><ele>74.0</ele><time>2026-04-12T15:41:20.226Z</time></trkpt><trkpt lat="43.491575" lon="13.2286183"><ele>74.0</ele><time>2026-04-12T15:41:21.227Z</time></trkpt><trkpt lat="43.4914283" lon="13.2283083"><ele>74.0</ele><time>2026-04-12T15:41:22.226Z</time></trkpt><trkpt lat="43.49128" lon="13.2280067"><ele>76.0</ele><time>2026-04-12T15:41:23.227Z</time></trkpt><trkpt lat="43.4911383" lon="13.2276967"><ele>78.0</ele><time>2026-04-12T15:41:24.227Z</time></trkpt><trkpt lat="43.491" lon="13.2273833"><ele>78.0</ele><time>2026-04-12T15:41:25.226Z</time></trkpt><trkpt lat="43.4908617" lon="13.2270733"><ele>78.0</ele><time>2026-04-12T15:41:26.226Z</time></trkpt><trkpt lat="43.490725" lon="13.226755"><ele>77.5</ele><time>2026-04-12T15:41:27.227Z</time></trkpt><trkpt lat="43.4905917" lon="13.2264417"><ele>77.0</ele><time>2026-04-12T15:41:28.227Z</time></trkpt><trkpt lat="43.4904583" lon="13.2261333"><ele>77.5</ele><time>2026-04-12T15:41:29.226Z</time></trkpt><trkpt lat="43.4903217" lon="13.22582"><ele>78.0</ele><time>2026-04-12T15:41:30.227Z</time></trkpt><trkpt lat="43.4901883" lon="13.225505"><ele>78.0</ele><time>2026-04-12T15:41:31.226Z</time></trkpt><trkpt lat="43.4900617" lon="13.225205"><ele>78.0</ele><time>2026-04-12T15:41:32.227Z</time></trkpt><trkpt lat="43.4899367" lon="13.2249033"><ele>78.5</ele><time>2026-04-12T15:41:33.227Z</time></trkpt><trkpt lat="43.4898217" lon="13.224605"><ele>79.0</ele><time>2026-04-12T15:41:34.227Z</time></trkpt><trkpt lat="43.4897067" lon="13.2243183"><ele>79.0</ele><time>2026-04-12T15:41:35.226Z</time></trkpt><trkpt lat="43.4896" lon="13.2240433"><ele>79.0</ele><time>2026-04-12T15:41:36.226Z</time></trkpt><trkpt lat="43.4894983" lon="13.2237783"><ele>79.0</ele><time>2026-04-12T15:41:37.227Z</time></trkpt><trkpt lat="43.4894067" lon="13.2235183"><ele>79.0</ele><time>2026-04-12T15:41:38.227Z</time></trkpt><trkpt lat="43.48933" lon="13.2232583"><ele>79.0</ele><time>2026-04-12T15:41:39.227Z</time></trkpt><trkpt lat="43.48924" lon="13.2230317"><ele>79.0</ele><time>2026-04-12T15:41:40.227Z</time></trkpt><trkpt lat="43.4891567" lon="13.22281"><ele>79.0</ele><time>2026-04-12T15:41:41.227Z</time></trkpt><trkpt lat="43.48908" lon="13.2225983"><ele>79.0</ele><time>2026-04-12T15:41:42.227Z</time></trkpt><trkpt lat="43.4890133" lon="13.2224033"><ele>79.0</ele><time>2026-04-12T15:41:43.227Z</time></trkpt><trkpt lat="43.4889667" lon="13.2222183"><ele>79.25</ele><time>2026-04-12T15:41:44.226Z</time></trkpt><trkpt lat="43.4889533" lon="13.2220317"><ele>79.5</ele><time>2026-04-12T15:41:45.226Z</time></trkpt><trkpt lat="43.488975" lon="13.2218567"><ele>79.75</ele><time>2026-04-12T15:41:46.226Z</time></trkpt><trkpt lat="43.489035" lon="13.2217017"><ele>80.0</ele><time>2026-04-12T15:41:47.226Z</time></trkpt><trkpt lat="43.48913" lon="13.2215767"><ele>80.0</ele><time>2026-04-12T15:41:48.227Z</time></trkpt><trkpt lat="43.489245" lon="13.2214633"><ele>80.0</ele><time>2026-04-12T15:41:49.227Z</time></trkpt><trkpt lat="43.489375" lon="13.2213417"><ele>80.0</ele><time>2026-04-12T15:41:50.227Z</time></trkpt><trkpt lat="43.4895067" lon="13.2212217"><ele>80.0</ele><time>2026-04-12T15:41:51.226Z</time></trkpt><trkpt lat="43.48963" lon="13.2211083"><ele>80.0</ele><time>2026-04-12T15:41:52.227Z</time></trkpt><trkpt lat="43.48974" lon="13.2210017"><ele>80.0</ele><time>2026-04-12T15:41:53.227Z</time></trkpt><trkpt lat="43.48984" lon="13.220905"><ele>80.0</ele><time>2026-04-12T15:41:54.227Z</time></trkpt><trkpt lat="43.4899317" lon="13.2208067"><ele>80.0</ele><time>2026-04-12T15:41:55.227Z</time></trkpt><trkpt lat="43.4900317" lon="13.2206983"><ele>80.0</ele><time>2026-04-12T15:41:56.227Z</time></trkpt><trkpt lat="43.490135" lon="13.2205867"><ele>80.0</ele><time>2026-04-12T15:41:57.227Z</time></trkpt><trkpt lat="43.4902483" lon="13.220475"><ele>80.0</ele><time>2026-04-12T15:41:58.227Z</time></trkpt><trkpt lat="43.490355" lon="13.22037"><ele>80.0</ele><time>2026-04-12T15:41:59.226Z</time></trkpt><trkpt lat="43.4904583" lon="13.2202867"><ele>80.0</ele><time>2026-04-12T15:42:00.227Z</time></trkpt><trkpt lat="43.4905667" lon="13.2202167"><ele>80.0</ele><time>2026-04-12T15:42:01.227Z</time></trkpt><trkpt lat="43.4906767" lon="13.2201667"><ele>80.0</ele><time>2026-04-12T15:42:02.226Z</time></trkpt><trkpt lat="43.4907867" lon="13.22012"><ele>80.0</ele><time>2026-04-12T15:42:03.227Z</time></trkpt><trkpt lat="43.4908983" lon="13.220085"><ele>80.0</ele><time>2026-04-12T15:42:04.226Z</time></trkpt><trkpt lat="43.49101" lon="13.2200483"><ele>80.0</ele><time>2026-04-12T15:42:05.227Z</time></trkpt><trkpt lat="43.491115" lon="13.2200033"><ele>80.0</ele><time>2026-04-12T15:42:06.227Z</time></trkpt><trkpt lat="43.4911983" lon="13.2199367"><ele>80.0</ele><time>2026-04-12T15:42:07.227Z</time></trkpt><trkpt lat="43.4912617" lon="13.2198417"><ele>80.0</ele><time>2026-04-12T15:42:08.226Z</time></trkpt><trkpt lat="43.4912967" lon="13.2197217"><ele>80.0</ele><time>2026-04-12T15:42:09.227Z</time></trkpt><trkpt lat="43.4913" lon="13.219595"><ele>80.0</ele><time>2026-04-12T15:42:10.226Z</time></trkpt><trkpt lat="43.491285" lon="13.2194717"><ele>80.0</ele><time>2026-04-12T15:42:11.227Z</time></trkpt><trkpt lat="43.4912483" lon="13.219365"><ele>80.0</ele><time>2026-04-12T15:42:12.227Z</time></trkpt><trkpt lat="43.4911883" lon="13.2192833"><ele>80.0</ele><time>2026-04-12T15:42:13.227Z</time></trkpt><trkpt lat="43.4911033" lon="13.2192233"><ele>80.0</ele><time>2026-04-12T15:42:14.226Z</time></trkpt><trkpt lat="43.4910033" lon="13.2192067"><ele>80.0</ele><time>2026-04-12T15:42:15.226Z</time></trkpt><trkpt lat="43.4908967" lon="13.2191983"><ele>80.0</ele><time>2026-04-12T15:42:16.227Z</time></trkpt><trkpt lat="43.49078" lon="13.2191833"><ele>80.0</ele><time>2026-04-12T15:42:17.226Z</time></trkpt><trkpt lat="43.49066" lon="13.2191667"><ele>80.0</ele><time>2026-04-12T15:42:18.227Z</time></trkpt><trkpt lat="43.490545" lon="13.219145"><ele>80.0</ele><time>2026-04-12T15:42:19.227Z</time></trkpt><trkpt lat="43.490425" lon="13.21911"><ele>80.0</ele><time>2026-04-12T15:42:20.227Z</time></trkpt><trkpt lat="43.490295" lon="13.21906"><ele>80.0</ele><time>2026-04-12T15:42:21.227Z</time></trkpt><trkpt lat="43.4901617" lon="13.218985"><ele>80.0</ele><time>2026-04-12T15:42:22.227Z</time></trkpt><trkpt lat="43.4900233" lon="13.2189017"><ele>80.0</ele><time>2026-04-12T15:42:23.227Z</time></trkpt><trkpt lat="43.48987" lon="13.2188117"><ele>80.0</ele><time>2026-04-12T15:42:24.226Z</time></trkpt><trkpt lat="43.489715" lon="13.218725"><ele>80.0</ele><time>2026-04-12T15:42:25.227Z</time></trkpt><trkpt lat="43.4895567" lon="13.2186317"><ele>80.0</ele><time>2026-04-12T15:42:26.227Z</time></trkpt><trkpt lat="43.4893883" lon="13.2185383"><ele>80.0</ele><time>2026-04-12T15:42:27.226Z</time></trkpt><trkpt lat="43.4892133" lon="13.2184467"><ele>80.0</ele><time>2026-04-12T15:42:28.227Z</time></trkpt><trkpt lat="43.4890383" lon="13.2183483"><ele>80.0</ele><time>2026-04-12T15:42:29.227Z</time></trkpt><trkpt lat="43.48886" lon="13.21824"><ele>80.0</ele><time>2026-04-12T15:42:30.226Z</time></trkpt><trkpt lat="43.4886783" lon="13.2181367"><ele>80.0</ele><time>2026-04-12T15:42:31.226Z</time></trkpt><trkpt lat="43.4884917" lon="13.2180317"><ele>80.66666666666667</ele><time>2026-04-12T15:42:32.226Z</time></trkpt><trkpt lat="43.4883017" lon="13.21792"><ele>81.33333333333333</ele><time>2026-04-12T15:42:33.227Z</time></trkpt><trkpt lat="43.48811" lon="13.2178083"><ele>82.0</ele><time>2026-04-12T15:42:34.227Z</time></trkpt><trkpt lat="43.48791" lon="13.21769"><ele>83.0</ele><time>2026-04-12T15:42:35.226Z</time></trkpt><trkpt lat="43.4877067" lon="13.2175767"><ele>84.0</ele><time>2026-04-12T15:42:36.226Z</time></trkpt><trkpt lat="43.4874967" lon="13.2174633"><ele>85.0</ele><time>2026-04-12T15:42:37.226Z</time></trkpt><trkpt lat="43.4872783" lon="13.2173467"><ele>86.0</ele><time>2026-04-12T15:42:38.226Z</time></trkpt><trkpt lat="43.4870667" lon="13.2172417"><ele>87.0</ele><time>2026-04-12T15:42:39.227Z</time></trkpt><trkpt lat="43.4868467" lon="13.2171417"><ele>87.0</ele><time>2026-04-12T15:42:40.226Z</time></trkpt><trkpt lat="43.486615" lon="13.2170267"><ele>87.0</ele><time>2026-04-12T15:42:41.227Z</time></trkpt><trkpt lat="43.4863783" lon="13.2169067"><ele>86.5</ele><time>2026-04-12T15:42:42.226Z</time></trkpt><trkpt lat="43.4861317" lon="13.2167883"><ele>86.0</ele><time>2026-04-12T15:42:43.227Z</time></trkpt><trkpt lat="43.4858867" lon="13.2166683"><ele>86.0</ele><time>2026-04-12T15:42:44.227Z</time></trkpt><trkpt lat="43.4856367" lon="13.2165467"><ele>86.0</ele><time>2026-04-12T15:42:45.227Z</time></trkpt><trkpt lat="43.485385" lon="13.2164267"><ele>85.0</ele><time>2026-04-12T15:42:46.227Z</time></trkpt><trkpt lat="43.485125" lon="13.2162967"><ele>84.0</ele><time>2026-04-12T15:42:47.227Z</time></trkpt><trkpt lat="43.48487" lon="13.2161667"><ele>84.0</ele><time>2026-04-12T15:42:48.227Z</time></trkpt><trkpt lat="43.4846083" lon="13.2160417"><ele>84.0</ele><time>2026-04-12T15:42:49.226Z</time></trkpt><trkpt lat="43.484345" lon="13.2159133"><ele>85.5</ele><time>2026-04-12T15:42:50.226Z</time></trkpt><trkpt lat="43.4840867" lon="13.2157883"><ele>87.0</ele><time>2026-04-12T15:42:51.226Z</time></trkpt><trkpt lat="43.4838217" lon="13.2156633"><ele>87.5</ele><time>2026-04-12T15:42:52.227Z</time></trkpt><trkpt lat="43.4835633" lon="13.21554"><ele>88.0</ele><time>2026-04-12T15:42:53.226Z</time></trkpt><trkpt lat="43.4833117" lon="13.2154183"><ele>88.0</ele><time>2026-04-12T15:42:54.227Z</time></trkpt><trkpt lat="43.4830667" lon="13.2152867"><ele>88.0</ele><time>2026-04-12T15:42:55.227Z</time></trkpt><trkpt lat="43.482835" lon="13.2151467"><ele>89.0</ele><time>2026-04-12T15:42:56.227Z</time></trkpt><trkpt lat="43.482625" lon="13.2149767"><ele>90.0</ele><time>2026-04-12T15:42:57.226Z</time></trkpt><trkpt lat="43.482425" lon="13.2147583"><ele>90.0</ele><time>2026-04-12T15:42:58.227Z</time></trkpt><trkpt lat="43.4822433" lon="13.2145233"><ele>90.0</ele><time>2026-04-12T15:42:59.227Z</time></trkpt><trkpt lat="43.4820583" lon="13.2142783"><ele>93.5</ele><time>2026-04-12T15:43:00.227Z</time></trkpt><trkpt lat="43.4818733" lon="13.2140383"><ele>97.0</ele><time>2026-04-12T15:43:01.227Z</time></trkpt><trkpt lat="43.4816917" lon="13.213805"><ele>97.0</ele><time>2026-04-12T15:43:02.227Z</time></trkpt><trkpt lat="43.481515" lon="13.213565"><ele>97.0</ele><time>2026-04-12T15:43:03.226Z</time></trkpt><trkpt lat="43.48133" lon="13.213335"><ele>100.5</ele><time>2026-04-12T15:43:04.227Z</time></trkpt><trkpt lat="43.48115" lon="13.213105"><ele>104.0</ele><time>2026-04-12T15:43:05.227Z</time></trkpt><trkpt lat="43.48097" lon="13.2128817"><ele>104.0</ele><time>2026-04-12T15:43:06.226Z</time></trkpt><trkpt lat="43.48079" lon="13.21267"><ele>104.0</ele><time>2026-04-12T15:43:07.227Z</time></trkpt><trkpt lat="43.4806017" lon="13.2124717"><ele>105.5</ele><time>2026-04-12T15:43:08.227Z</time></trkpt><trkpt lat="43.4804017" lon="13.2123083"><ele>107.0</ele><time>2026-04-12T15:43:09.227Z</time></trkpt><trkpt lat="43.4801983" lon="13.2121833"><ele>107.0</ele><time>2026-04-12T15:43:10.226Z</time></trkpt><trkpt lat="43.4799967" lon="13.21208"><ele>107.0</ele><time>2026-04-12T15:43:11.226Z</time></trkpt><trkpt lat="43.479795" lon="13.2119883"><ele>107.0</ele><time>2026-04-12T15:43:12.227Z</time></trkpt><trkpt lat="43.479595" lon="13.2119267"><ele>109.66666666666666</ele><time>2026-04-12T15:43:13.227Z</time></trkpt><trkpt lat="43.4794117" lon="13.2119167"><ele>112.33333333333334</ele><time>2026-04-12T15:43:14.227Z</time></trkpt><trkpt lat="43.47922" lon="13.21197"><ele>115.0</ele><time>2026-04-12T15:43:15.227Z</time></trkpt><trkpt lat="43.4790367" lon="13.2120717"><ele>115.0</ele><time>2026-04-12T15:43:16.227Z</time></trkpt><trkpt lat="43.478875" lon="13.2122317"><ele>115.0</ele><time>2026-04-12T15:43:17.227Z</time></trkpt><trkpt lat="43.4787217" lon="13.2124067"><ele>115.0</ele><time>2026-04-12T15:43:18.227Z</time></trkpt><trkpt lat="43.4785567" lon="13.21256"><ele>117.0</ele><time>2026-04-12T15:43:19.226Z</time></trkpt><trkpt lat="43.4783817" lon="13.2126733"><ele>119.0</ele><time>2026-04-12T15:43:20.226Z</time></trkpt><trkpt lat="43.4781883" lon="13.2127217"><ele>121.0</ele><time>2026-04-12T15:43:21.227Z</time></trkpt><trkpt lat="43.47799" lon="13.212715"><ele>122.66666666666667</ele><time>2026-04-12T15:43:22.227Z</time></trkpt><trkpt lat="43.4777933" lon="13.2126633"><ele>124.33333333333334</ele><time>2026-04-12T15:43:23.227Z</time></trkpt><trkpt lat="43.477585" lon="13.212575"><ele>126.0</ele><time>2026-04-12T15:43:24.227Z</time></trkpt><trkpt lat="43.477375" lon="13.2124833"><ele>126.0</ele><time>2026-04-12T15:43:25.226Z</time></trkpt><trkpt lat="43.47716" lon="13.212395"><ele>126.0</ele><time>2026-04-12T15:43:26.227Z</time></trkpt><trkpt lat="43.4769417" lon="13.21231"><ele>127.5</ele><time>2026-04-12T15:43:27.226Z</time></trkpt><trkpt lat="43.4767217" lon="13.2122167"><ele>129.0</ele><time>2026-04-12T15:43:28.226Z</time></trkpt><trkpt lat="43.476505" lon="13.21213"><ele>129.0</ele><time>2026-04-12T15:43:29.226Z</time></trkpt><trkpt lat="43.476285" lon="13.2120467"><ele>129.0</ele><time>2026-04-12T15:43:30.227Z</time></trkpt><trkpt lat="43.47607" lon="13.2119583"><ele>132.0</ele><time>2026-04-12T15:43:31.227Z</time></trkpt><trkpt lat="43.4758583" lon="13.21185"><ele>135.0</ele><time>2026-04-12T15:43:32.226Z</time></trkpt><trkpt lat="43.4756533" lon="13.2117267"><ele>138.0</ele><time>2026-04-12T15:43:33.227Z</time></trkpt><trkpt lat="43.4754633" lon="13.2115783"><ele>139.66666666666666</ele><time>2026-04-12T15:43:34.227Z</time></trkpt><trkpt lat="43.475275" lon="13.21141"><ele>141.33333333333331</ele><time>2026-04-12T15:43:35.227Z</time></trkpt><trkpt lat="43.4750983" lon="13.2112383"><ele>143.0</ele><time>2026-04-12T15:43:36.227Z</time></trkpt><trkpt lat="43.4749067" lon="13.2110883"><ele>143.0</ele><time>2026-04-12T15:43:37.227Z</time></trkpt><trkpt lat="43.47471" lon="13.2109667"><ele>143.0</ele><time>2026-04-12T15:43:38.227Z</time></trkpt><trkpt lat="43.4745083" lon="13.2108667"><ele>143.0</ele><time>2026-04-12T15:43:39.226Z</time></trkpt><trkpt lat="43.474295" lon="13.2107933"><ele>146.66666666666666</ele><time>2026-04-12T15:43:40.227Z</time></trkpt><trkpt lat="43.4740917" lon="13.21074"><ele>150.33333333333334</ele><time>2026-04-12T15:43:41.226Z</time></trkpt><trkpt lat="43.4738983" lon="13.210695"><ele>154.0</ele><time>2026-04-12T15:43:42.226Z</time></trkpt><trkpt lat="43.47371" lon="13.2106417"><ele>156.0</ele><time>2026-04-12T15:43:43.227Z</time></trkpt><trkpt lat="43.4735183" lon="13.2105567"><ele>158.0</ele><time>2026-04-12T15:43:44.227Z</time></trkpt><trkpt lat="43.4733683" lon="13.21043"><ele>160.0</ele><time>2026-04-12T15:43:45.226Z</time></trkpt><trkpt lat="43.4732417" lon="13.2102533"><ele>160.0</ele><time>2026-04-12T15:43:46.226Z</time></trkpt><trkpt lat="43.4731367" lon="13.2100483"><ele>160.0</ele><time>2026-04-12T15:43:47.227Z</time></trkpt><trkpt lat="43.4730533" lon="13.2098283"><ele>160.0</ele><time>2026-04-12T15:43:48.226Z</time></trkpt><trkpt lat="43.4729667" lon="13.209605"><ele>163.33333333333334</ele><time>2026-04-12T15:43:49.226Z</time></trkpt><trkpt lat="43.47289" lon="13.2093867"><ele>166.66666666666666</ele><time>2026-04-12T15:43:50.227Z</time></trkpt><trkpt lat="43.47281" lon="13.2091833"><ele>170.0</ele><time>2026-04-12T15:43:51.226Z</time></trkpt><trkpt lat="43.4727417" lon="13.2089883"><ele>170.0</ele><time>2026-04-12T15:43:52.227Z</time></trkpt><trkpt lat="43.4726683" lon="13.2088133"><ele>170.0</ele><time>2026-04-12T15:43:53.226Z</time></trkpt><trkpt lat="43.472585" lon="13.2086733"><ele>170.0</ele><time>2026-04-12T15:43:54.227Z</time></trkpt><trkpt lat="43.4725017" lon="13.2085567"><ele>170.0</ele><time>2026-04-12T15:43:55.227Z</time></trkpt><trkpt lat="43.47241" lon="13.2085217"><ele>170.0</ele><time>2026-04-12T15:43:56.227Z</time></trkpt><trkpt lat="43.4723133" lon="13.2085633"><ele>170.0</ele><time>2026-04-12T15:43:57.226Z</time></trkpt><trkpt lat="43.4722533" lon="13.2086717"><ele>170.0</ele><time>2026-04-12T15:43:58.227Z</time></trkpt><trkpt lat="43.472225" lon="13.208825"><ele>170.0</ele><time>2026-04-12T15:43:59.226Z</time></trkpt><trkpt lat="43.4722267" lon="13.209"><ele>170.0</ele><time>2026-04-12T15:44:00.227Z</time></trkpt><trkpt lat="43.472255" lon="13.2091983"><ele>171.0</ele><time>2026-04-12T15:44:01.227Z</time></trkpt><trkpt lat="43.4722783" lon="13.2094167"><ele>172.0</ele><time>2026-04-12T15:44:02.227Z</time></trkpt><trkpt lat="43.4722933" lon="13.209645"><ele>173.0</ele><time>2026-04-12T15:44:03.226Z</time></trkpt><trkpt lat="43.4723017" lon="13.2098883"><ele>173.33333333333331</ele><time>2026-04-12T15:44:04.227Z</time></trkpt><trkpt lat="43.4723083" lon="13.21015"><ele>173.66666666666666</ele><time>2026-04-12T15:44:05.227Z</time></trkpt><trkpt lat="43.47231" lon="13.2104217"><ele>174.0</ele><time>2026-04-12T15:44:06.227Z</time></trkpt><trkpt lat="43.4723033" lon="13.21069"><ele>175.0</ele><time>2026-04-12T15:44:07.227Z</time></trkpt><trkpt lat="43.4722783" lon="13.21094"><ele>176.0</ele><time>2026-04-12T15:44:08.227Z</time></trkpt><trkpt lat="43.4722333" lon="13.211195"><ele>177.0</ele><time>2026-04-12T15:44:09.227Z</time></trkpt><trkpt lat="43.4721717" lon="13.2114483"><ele>181.33333333333334</ele><time>2026-04-12T15:44:10.227Z</time></trkpt><trkpt lat="43.4720883" lon="13.2116917"><ele>185.66666666666669</ele><time>2026-04-12T15:44:11.227Z</time></trkpt><trkpt lat="43.4720067" lon="13.2119467"><ele>190.0</ele><time>2026-04-12T15:44:12.226Z</time></trkpt><trkpt lat="43.47192" lon="13.2122117"><ele>189.33333333333334</ele><time>2026-04-12T15:44:13.227Z</time></trkpt><trkpt lat="43.4718217" lon="13.2124767"><ele>188.66666666666666</ele><time>2026-04-12T15:44:14.226Z</time></trkpt><trkpt lat="43.4717133" lon="13.212745"><ele>188.0</ele><time>2026-04-12T15:44:15.226Z</time></trkpt><trkpt lat="43.4715967" lon="13.2130183"><ele>186.5</ele><time>2026-04-12T15:44:16.226Z</time></trkpt><trkpt lat="43.471475" lon="13.2132883"><ele>185.0</ele><time>2026-04-12T15:44:17.227Z</time></trkpt><trkpt lat="43.47135" lon="13.2135633"><ele>185.5</ele><time>2026-04-12T15:44:18.226Z</time></trkpt><trkpt lat="43.471225" lon="13.213835"><ele>186.0</ele><time>2026-04-12T15:44:19.227Z</time></trkpt><trkpt lat="43.47111" lon="13.2141067"><ele>188.0</ele><time>2026-04-12T15:44:20.227Z</time></trkpt><trkpt lat="43.4709933" lon="13.2143717"><ele>190.0</ele><time>2026-04-12T15:44:21.227Z</time></trkpt><trkpt lat="43.4708733" lon="13.2146367"><ele>191.33333333333334</ele><time>2026-04-12T15:44:22.227Z</time></trkpt><trkpt lat="43.4707583" lon="13.214885"><ele>192.66666666666669</ele><time>2026-04-12T15:44:23.227Z</time></trkpt><trkpt lat="43.4706383" lon="13.215125"><ele>194.0</ele><time>2026-04-12T15:44:24.227Z</time></trkpt><trkpt lat="43.4705033" lon="13.2153517"><ele>196.33333333333334</ele><time>2026-04-12T15:44:25.227Z</time></trkpt><trkpt lat="43.4703717" lon="13.215575"><ele>198.66666666666669</ele><time>2026-04-12T15:44:26.227Z</time></trkpt><trkpt lat="43.4702367" lon="13.2157783"><ele>201.0</ele><time>2026-04-12T15:44:27.226Z</time></trkpt><trkpt lat="43.4700967" lon="13.2159667"><ele>202.0</ele><time>2026-04-12T15:44:28.227Z</time></trkpt><trkpt lat="43.4699567" lon="13.2161433"><ele>203.0</ele><time>2026-04-12T15:44:29.227Z</time></trkpt><trkpt lat="43.4698017" lon="13.2163067"><ele>204.0</ele><time>2026-04-12T15:44:30.227Z</time></trkpt><trkpt lat="43.469655" lon="13.216465"><ele>206.33333333333331</ele><time>2026-04-12T15:44:31.226Z</time></trkpt><trkpt lat="43.4695083" lon="13.2166067"><ele>208.66666666666666</ele><time>2026-04-12T15:44:32.226Z</time></trkpt><trkpt lat="43.46937" lon="13.2167267"><ele>211.0</ele><time>2026-04-12T15:44:33.227Z</time></trkpt><trkpt lat="43.4692333" lon="13.216825"><ele>211.0</ele><time>2026-04-12T15:44:34.226Z</time></trkpt><trkpt lat="43.469095" lon="13.21687"><ele>211.0</ele><time>2026-04-12T15:44:35.227Z</time></trkpt><trkpt lat="43.4689617" lon="13.2168583"><ele>211.0</ele><time>2026-04-12T15:44:36.227Z</time></trkpt><trkpt lat="43.4688517" lon="13.2167767"><ele>211.0</ele><time>2026-04-12T15:44:37.227Z</time></trkpt><trkpt lat="43.4687633" lon="13.216635"><ele>213.0</ele><time>2026-04-12T15:44:38.227Z</time></trkpt><trkpt lat="43.4686967" lon="13.2164633"><ele>215.0</ele><time>2026-04-12T15:44:39.227Z</time></trkpt><trkpt lat="43.4686333" lon="13.216285"><ele>217.0</ele><time>2026-04-12T15:44:40.226Z</time></trkpt><trkpt lat="43.46857" lon="13.216125"><ele>219.0</ele><time>2026-04-12T15:44:41.227Z</time></trkpt><trkpt lat="43.4685" lon="13.2159867"><ele>219.0</ele><time>2026-04-12T15:44:42.227Z</time></trkpt><trkpt lat="43.4683967" lon="13.2158833"><ele>219.0</ele><time>2026-04-12T15:44:43.227Z</time></trkpt><trkpt lat="43.4682783" lon="13.2158267"><ele>219.0</ele><time>2026-04-12T15:44:44.226Z</time></trkpt><trkpt lat="43.4681367" lon="13.2157983"><ele>219.0</ele><time>2026-04-12T15:44:45.226Z</time></trkpt><trkpt lat="43.46799" lon="13.2157783"><ele>221.25</ele><time>2026-04-12T15:44:46.227Z</time></trkpt><trkpt lat="43.4678533" lon="13.2157567"><ele>223.5</ele><time>2026-04-12T15:44:47.227Z</time></trkpt><trkpt lat="43.4677267" lon="13.2157367"><ele>225.75</ele><time>2026-04-12T15:44:48.228Z</time></trkpt><trkpt lat="43.46761" lon="13.2157167"><ele>228.0</ele><time>2026-04-12T15:44:49.227Z</time></trkpt><trkpt lat="43.4674933" lon="13.2156983"><ele>228.0</ele><time>2026-04-12T15:44:50.228Z</time></trkpt><trkpt lat="43.4673733" lon="13.215685"><ele>228.0</ele><time>2026-04-12T15:44:51.228Z</time></trkpt><trkpt lat="43.4672533" lon="13.21567"><ele>228.0</ele><time>2026-04-12T15:44:52.227Z</time></trkpt><trkpt lat="43.467145" lon="13.2156517"><ele>228.0</ele><time>2026-04-12T15:44:53.228Z</time></trkpt><trkpt lat="43.4670433" lon="13.2156417"><ele>229.0</ele><time>2026-04-12T15:44:54.228Z</time></trkpt><trkpt lat="43.46694" lon="13.2156283"><ele>230.0</ele><time>2026-04-12T15:44:55.228Z</time></trkpt><trkpt lat="43.4668317" lon="13.21562"><ele>231.0</ele><time>2026-04-12T15:44:56.228Z</time></trkpt><trkpt lat="43.466715" lon="13.2156283"><ele>232.0</ele><time>2026-04-12T15:44:57.227Z</time></trkpt><trkpt lat="43.4666" lon="13.21567"><ele>233.0</ele><time>2026-04-12T15:44:58.228Z</time></trkpt><trkpt lat="43.4664833" lon="13.2157383"><ele>233.0</ele><time>2026-04-12T15:44:59.228Z</time></trkpt><trkpt lat="43.4663667" lon="13.2158533"><ele>233.0</ele><time>2026-04-12T15:45:00.228Z</time></trkpt><trkpt lat="43.46625" lon="13.2160067"><ele>233.0</ele><time>2026-04-12T15:45:01.228Z</time></trkpt><trkpt lat="43.4661133" lon="13.21618"><ele>231.33333333333334</ele><time>2026-04-12T15:45:02.228Z</time></trkpt><trkpt lat="43.465965" lon="13.2163717"><ele>229.66666666666669</ele><time>2026-04-12T15:45:03.227Z</time></trkpt><trkpt lat="43.46581" lon="13.2165767"><ele>228.0</ele><time>2026-04-12T15:45:04.228Z</time></trkpt><trkpt lat="43.4656233" lon="13.216795"><ele>231.5</ele><time>2026-04-12T15:45:05.228Z</time></trkpt><trkpt lat="43.46544" lon="13.2170167"><ele>235.0</ele><time>2026-04-12T15:45:06.228Z</time></trkpt><trkpt lat="43.46526" lon="13.217225"><ele>238.5</ele><time>2026-04-12T15:45:07.228Z</time></trkpt><trkpt lat="43.4650717" lon="13.2174333"><ele>242.0</ele><time>2026-04-12T15:45:08.228Z</time></trkpt><trkpt lat="43.4648883" lon="13.2176517"><ele>242.0</ele><time>2026-04-12T15:45:09.227Z</time></trkpt><trkpt lat="43.4647" lon="13.217885"><ele>242.0</ele><time>2026-04-12T15:45:10.228Z</time></trkpt><trkpt lat="43.464525" lon="13.2181367"><ele>241.5</ele><time>2026-04-12T15:45:11.228Z</time></trkpt><trkpt lat="43.4643467" lon="13.2184033"><ele>241.0</ele><time>2026-04-12T15:45:12.227Z</time></trkpt><trkpt lat="43.4641683" lon="13.2186733"><ele>241.0</ele><time>2026-04-12T15:45:13.227Z</time></trkpt><trkpt lat="43.463985" lon="13.2189483"><ele>241.0</ele><time>2026-04-12T15:45:14.228Z</time></trkpt><trkpt lat="43.4637867" lon="13.2192133"><ele>241.0</ele><time>2026-04-12T15:45:15.228Z</time></trkpt><trkpt lat="43.46359" lon="13.2194833"><ele>241.0</ele><time>2026-04-12T15:45:16.228Z</time></trkpt><trkpt lat="43.4634" lon="13.2197467"><ele>242.5</ele><time>2026-04-12T15:45:17.227Z</time></trkpt><trkpt lat="43.4632133" lon="13.22"><ele>244.0</ele><time>2026-04-12T15:45:18.227Z</time></trkpt><trkpt lat="43.4630333" lon="13.2202583"><ele>245.0</ele><time>2026-04-12T15:45:19.228Z</time></trkpt><trkpt lat="43.4628533" lon="13.2205167"><ele>246.0</ele><time>2026-04-12T15:45:20.228Z</time></trkpt><trkpt lat="43.4626767" lon="13.2207733"><ele>249.0</ele><time>2026-04-12T15:45:21.228Z</time></trkpt><trkpt lat="43.46251" lon="13.2210117"><ele>252.0</ele><time>2026-04-12T15:45:22.228Z</time></trkpt><trkpt lat="43.4623483" lon="13.22124"><ele>252.0</ele><time>2026-04-12T15:45:23.228Z</time></trkpt><trkpt lat="43.4621983" lon="13.2214683"><ele>252.0</ele><time>2026-04-12T15:45:24.228Z</time></trkpt><trkpt lat="43.4620467" lon="13.2216783"><ele>252.0</ele><time>2026-04-12T15:45:25.228Z</time></trkpt><trkpt lat="43.4619233" lon="13.2218733"><ele>255.33333333333331</ele><time>2026-04-12T15:45:26.227Z</time></trkpt><trkpt lat="43.4617967" lon="13.22204"><ele>258.66666666666663</ele><time>2026-04-12T15:45:27.227Z</time></trkpt><trkpt lat="43.4616767" lon="13.2221583"><ele>262.0</ele><time>2026-04-12T15:45:28.228Z</time></trkpt><trkpt lat="43.4615483" lon="13.2221933"><ele>262.0</ele><time>2026-04-12T15:45:29.228Z</time></trkpt><trkpt lat="43.4614183" lon="13.2221517"><ele>262.0</ele><time>2026-04-12T15:45:30.228Z</time></trkpt><trkpt lat="43.461295" lon="13.2220683"><ele>262.0</ele><time>2026-04-12T15:45:31.227Z</time></trkpt><trkpt lat="43.46116" lon="13.2220017"><ele>262.0</ele><time>2026-04-12T15:45:32.228Z</time></trkpt><trkpt lat="43.4610167" lon="13.2219933"><ele>263.66666666666663</ele><time>2026-04-12T15:45:33.228Z</time></trkpt><trkpt lat="43.4608717" lon="13.22204"><ele>265.3333333333333</ele><time>2026-04-12T15:45:34.227Z</time></trkpt><trkpt lat="43.4607283" lon="13.2221283"><ele>267.0</ele><time>2026-04-12T15:45:35.228Z</time></trkpt><trkpt lat="43.4605883" lon="13.2222567"><ele>268.0</ele><time>2026-04-12T15:45:36.228Z</time></trkpt><trkpt lat="43.460435" lon="13.2223917"><ele>269.0</ele><time>2026-04-12T15:45:37.227Z</time></trkpt><trkpt lat="43.4602683" lon="13.222545"><ele>270.0</ele><time>2026-04-12T15:45:38.228Z</time></trkpt><trkpt lat="43.4600883" lon="13.2227083"><ele>270.0</ele><time>2026-04-12T15:45:39.228Z</time></trkpt><trkpt lat="43.4599083" lon="13.2228683"><ele>270.0</ele><time>2026-04-12T15:45:40.228Z</time></trkpt><trkpt lat="43.45971" lon="13.2230483"><ele>272.0</ele><time>2026-04-12T15:45:41.228Z</time></trkpt><trkpt lat="43.4594983" lon="13.2232383"><ele>274.0</ele><time>2026-04-12T15:45:42.228Z</time></trkpt><trkpt lat="43.459275" lon="13.2234333"><ele>274.0</ele><time>2026-04-12T15:45:43.228Z</time></trkpt><trkpt lat="43.45905" lon="13.223635"><ele>274.0</ele><time>2026-04-12T15:45:44.228Z</time></trkpt><trkpt lat="43.4588383" lon="13.2238217"><ele>275.0</ele><time>2026-04-12T15:45:45.227Z</time></trkpt><trkpt lat="43.45862" lon="13.224005"><ele>276.0</ele><time>2026-04-12T15:45:46.228Z</time></trkpt><trkpt lat="43.45841" lon="13.2241967"><ele>276.0</ele><time>2026-04-12T15:45:47.227Z</time></trkpt><trkpt lat="43.4582033" lon="13.2243883"><ele>276.0</ele><time>2026-04-12T15:45:48.228Z</time></trkpt><trkpt lat="43.4579933" lon="13.2245767"><ele>278.5</ele><time>2026-04-12T15:45:49.228Z</time></trkpt><trkpt lat="43.4578" lon="13.2247583"><ele>281.0</ele><time>2026-04-12T15:45:50.227Z</time></trkpt><trkpt lat="43.457615" lon="13.224925"><ele>281.0</ele><time>2026-04-12T15:45:51.227Z</time></trkpt><trkpt lat="43.4574467" lon="13.22508"><ele>281.0</ele><time>2026-04-12T15:45:52.227Z</time></trkpt><trkpt lat="43.4572917" lon="13.2252267"><ele>281.0</ele><time>2026-04-12T15:45:53.228Z</time></trkpt><trkpt lat="43.4571717" lon="13.2254267"><ele>284.0</ele><time>2026-04-12T15:45:54.228Z</time></trkpt><trkpt lat="43.4570967" lon="13.225655"><ele>287.0</ele><time>2026-04-12T15:45:55.227Z</time></trkpt><trkpt lat="43.4570283" lon="13.22588"><ele>290.0</ele><time>2026-04-12T15:45:56.228Z</time></trkpt><trkpt lat="43.4569433" lon="13.2261"><ele>290.0</ele><time>2026-04-12T15:45:57.227Z</time></trkpt><trkpt lat="43.4568333" lon="13.2263017"><ele>290.0</ele><time>2026-04-12T15:45:58.228Z</time></trkpt><trkpt lat="43.4567" lon="13.2264917"><ele>290.0</ele><time>2026-04-12T15:45:59.227Z</time></trkpt><trkpt lat="43.45656" lon="13.2266767"><ele>290.33333333333337</ele><time>2026-04-12T15:46:00.227Z</time></trkpt><trkpt lat="43.456425" lon="13.22686"><ele>290.6666666666667</ele><time>2026-04-12T15:46:01.227Z</time></trkpt><trkpt lat="43.4562933" lon="13.2270283"><ele>291.0</ele><time>2026-04-12T15:46:02.227Z</time></trkpt><trkpt lat="43.4561717" lon="13.2271917"><ele>290.0</ele><time>2026-04-12T15:46:03.228Z</time></trkpt><trkpt lat="43.456055" lon="13.2273417"><ele>289.0</ele><time>2026-04-12T15:46:04.228Z</time></trkpt><trkpt lat="43.4559467" lon="13.2274817"><ele>288.0</ele><time>2026-04-12T15:46:05.228Z</time></trkpt><trkpt lat="43.4558267" lon="13.2275683"><ele>287.0</ele><time>2026-04-12T15:46:06.227Z</time></trkpt><trkpt lat="43.45572" lon="13.22759"><ele>287.0</ele><time>2026-04-12T15:46:07.228Z</time></trkpt><trkpt lat="43.4556333" lon="13.2275383"><ele>287.0</ele><time>2026-04-12T15:46:08.228Z</time></trkpt><trkpt lat="43.4555733" lon="13.2274283"><ele>287.0</ele><time>2026-04-12T15:46:09.228Z</time></trkpt><trkpt lat="43.4555367" lon="13.2272733"><ele>287.0</ele><time>2026-04-12T15:46:10.227Z</time></trkpt><trkpt lat="43.45552" lon="13.22709"><ele>287.0</ele><time>2026-04-12T15:46:11.227Z</time></trkpt><trkpt lat="43.45551" lon="13.22688"><ele>287.33333333333337</ele><time>2026-04-12T15:46:12.228Z</time></trkpt><trkpt lat="43.4555" lon="13.2266683"><ele>287.6666666666667</ele><time>2026-04-12T15:46:13.228Z</time></trkpt><trkpt lat="43.4554883" lon="13.2264517"><ele>288.0</ele><time>2026-04-12T15:46:14.227Z</time></trkpt><trkpt lat="43.45545" lon="13.2262383"><ele>288.0</ele><time>2026-04-12T15:46:15.228Z</time></trkpt><trkpt lat="43.455385" lon="13.226035"><ele>288.0</ele><time>2026-04-12T15:46:16.228Z</time></trkpt><trkpt lat="43.4552667" lon="13.22586"><ele>288.0</ele><time>2026-04-12T15:46:17.227Z</time></trkpt><trkpt lat="43.4551317" lon="13.2256917"><ele>289.6666666666667</ele><time>2026-04-12T15:46:18.228Z</time></trkpt><trkpt lat="43.4549967" lon="13.2255317"><ele>291.33333333333337</ele><time>2026-04-12T15:46:19.228Z</time></trkpt><trkpt lat="43.454865" lon="13.2253733"><ele>293.0</ele><time>2026-04-12T15:46:20.228Z</time></trkpt><trkpt lat="43.4547333" lon="13.2252317"><ele>291.75</ele><time>2026-04-12T15:46:21.227Z</time></trkpt><trkpt lat="43.4546083" lon="13.22512"><ele>290.5</ele><time>2026-04-12T15:46:22.228Z</time></trkpt><trkpt lat="43.454465" lon="13.2250667"><ele>289.25</ele><time>2026-04-12T15:46:23.227Z</time></trkpt><trkpt lat="43.4543183" lon="13.2250483"><ele>288.0</ele><time>2026-04-12T15:46:24.228Z</time></trkpt><trkpt lat="43.4541733" lon="13.22504"><ele>288.0</ele><time>2026-04-12T15:46:25.228Z</time></trkpt><trkpt lat="43.454035" lon="13.2250233"><ele>288.0</ele><time>2026-04-12T15:46:26.228Z</time></trkpt><trkpt lat="43.4539033" lon="13.2249967"><ele>288.0</ele><time>2026-04-12T15:46:27.228Z</time></trkpt><trkpt lat="43.4537683" lon="13.2249483"><ele>288.0</ele><time>2026-04-12T15:46:28.228Z</time></trkpt><trkpt lat="43.4536383" lon="13.2248733"><ele>287.6666666666667</ele><time>2026-04-12T15:46:29.228Z</time></trkpt><trkpt lat="43.45351" lon="13.22476"><ele>287.33333333333337</ele><time>2026-04-12T15:46:30.227Z</time></trkpt><trkpt lat="43.4533867" lon="13.2246267"><ele>287.0</ele><time>2026-04-12T15:46:31.227Z</time></trkpt><trkpt lat="43.4532617" lon="13.2244933"><ele>287.0</ele><time>2026-04-12T15:46:32.228Z</time></trkpt><trkpt lat="43.453135" lon="13.224355"><ele>287.0</ele><time>2026-04-12T15:46:33.227Z</time></trkpt><trkpt lat="43.45301" lon="13.22422"><ele>287.0</ele><time>2026-04-12T15:46:34.228Z</time></trkpt><trkpt lat="43.4528883" lon="13.22408"><ele>285.33333333333337</ele><time>2026-04-12T15:46:35.227Z</time></trkpt><trkpt lat="43.45277" lon="13.2239417"><ele>283.6666666666667</ele><time>2026-04-12T15:46:36.228Z</time></trkpt><trkpt lat="43.4526567" lon="13.2238017"><ele>282.0</ele><time>2026-04-12T15:46:37.228Z</time></trkpt><trkpt lat="43.45254" lon="13.223655"><ele>282.0</ele><time>2026-04-12T15:46:38.227Z</time></trkpt><trkpt lat="43.4524333" lon="13.2235"><ele>282.0</ele><time>2026-04-12T15:46:39.228Z</time></trkpt><trkpt lat="43.4523383" lon="13.2233333"><ele>282.0</ele><time>2026-04-12T15:46:40.228Z</time></trkpt><trkpt lat="43.452265" lon="13.2231467"><ele>281.3333333333333</ele><time>2026-04-12T15:46:41.228Z</time></trkpt><trkpt lat="43.4522283" lon="13.222945"><ele>280.66666666666663</ele><time>2026-04-12T15:46:42.227Z</time></trkpt><trkpt lat="43.4522183" lon="13.222735"><ele>280.0</ele><time>2026-04-12T15:46:43.228Z</time></trkpt><trkpt lat="43.4522067" lon="13.2225333"><ele>280.0</ele><time>2026-04-12T15:46:44.228Z</time></trkpt><trkpt lat="43.4521833" lon="13.2223283"><ele>280.0</ele><time>2026-04-12T15:46:45.228Z</time></trkpt><trkpt lat="43.45213" lon="13.22212"><ele>280.0</ele><time>2026-04-12T15:46:46.228Z</time></trkpt><trkpt lat="43.4520567" lon="13.2219383"><ele>277.0</ele><time>2026-04-12T15:46:47.227Z</time></trkpt><trkpt lat="43.451965" lon="13.2217417"><ele>274.0</ele><time>2026-04-12T15:46:48.228Z</time></trkpt><trkpt lat="43.4518617" lon="13.22157"><ele>271.0</ele><time>2026-04-12T15:46:49.228Z</time></trkpt><trkpt lat="43.451755" lon="13.2213983"><ele>270.3333333333333</ele><time>2026-04-12T15:46:50.228Z</time></trkpt><trkpt lat="43.451635" lon="13.22123"><ele>269.6666666666667</ele><time>2026-04-12T15:46:51.228Z</time></trkpt><trkpt lat="43.45152" lon="13.2210567"><ele>269.0</ele><time>2026-04-12T15:46:52.227Z</time></trkpt><trkpt lat="43.4513967" lon="13.22089"><ele>266.33333333333337</ele><time>2026-04-12T15:46:53.228Z</time></trkpt><trkpt lat="43.4512733" lon="13.22072"><ele>263.6666666666667</ele><time>2026-04-12T15:46:54.228Z</time></trkpt><trkpt lat="43.4511483" lon="13.22055"><ele>261.0</ele><time>2026-04-12T15:46:55.228Z</time></trkpt><trkpt lat="43.4510233" lon="13.22038"><ele>260.6666666666667</ele><time>2026-04-12T15:46:56.228Z</time></trkpt><trkpt lat="43.4509017" lon="13.2202183"><ele>260.33333333333337</ele><time>2026-04-12T15:46:57.228Z</time></trkpt><trkpt lat="43.45078" lon="13.2200517"><ele>260.0</ele><time>2026-04-12T15:46:58.227Z</time></trkpt><trkpt lat="43.450645" lon="13.2198867"><ele>258.0</ele><time>2026-04-12T15:46:59.227Z</time></trkpt><trkpt lat="43.4505017" lon="13.21973"><ele>256.0</ele><time>2026-04-12T15:47:00.228Z</time></trkpt><trkpt lat="43.4503417" lon="13.219585"><ele>254.0</ele><time>2026-04-12T15:47:01.228Z</time></trkpt><trkpt lat="43.4501767" lon="13.21944"><ele>254.0</ele><time>2026-04-12T15:47:02.228Z</time></trkpt><trkpt lat="43.4500083" lon="13.2192917"><ele>254.0</ele><time>2026-04-12T15:47:03.228Z</time></trkpt><trkpt lat="43.4498367" lon="13.2191467"><ele>254.0</ele><time>2026-04-12T15:47:04.228Z</time></trkpt><trkpt lat="43.4496683" lon="13.218995"><ele>253.33333333333334</ele><time>2026-04-12T15:47:05.228Z</time></trkpt><trkpt lat="43.4494967" lon="13.2188483"><ele>252.66666666666669</ele><time>2026-04-12T15:47:06.227Z</time></trkpt><trkpt lat="43.4493367" lon="13.218705"><ele>252.0</ele><time>2026-04-12T15:47:07.227Z</time></trkpt><trkpt lat="43.4491767" lon="13.2185617"><ele>252.0</ele><time>2026-04-12T15:47:08.227Z</time></trkpt><trkpt lat="43.4490083" lon="13.2184217"><ele>252.0</ele><time>2026-04-12T15:47:09.228Z</time></trkpt><trkpt lat="43.448845" lon="13.218295"><ele>252.0</ele><time>2026-04-12T15:47:10.227Z</time></trkpt><trkpt lat="43.4486783" lon="13.2181633"><ele>253.0</ele><time>2026-04-12T15:47:11.227Z</time></trkpt><trkpt lat="43.4485083" lon="13.218045"><ele>254.0</ele><time>2026-04-12T15:47:12.227Z</time></trkpt><trkpt lat="43.4483467" lon="13.2179433"><ele>255.0</ele><time>2026-04-12T15:47:13.228Z</time></trkpt><trkpt lat="43.4481933" lon="13.21784"><ele>255.0</ele><time>2026-04-12T15:47:14.228Z</time></trkpt><trkpt lat="43.448045" lon="13.2177533"><ele>255.0</ele><time>2026-04-12T15:47:15.228Z</time></trkpt><trkpt lat="43.447885" lon="13.2176783"><ele>255.0</ele><time>2026-04-12T15:47:16.228Z</time></trkpt><trkpt lat="43.44772" lon="13.2176317"><ele>256.0</ele><time>2026-04-12T15:47:17.228Z</time></trkpt><trkpt lat="43.447555" lon="13.21762"><ele>257.0</ele><time>2026-04-12T15:47:18.228Z</time></trkpt><trkpt lat="43.4473833" lon="13.2176417"><ele>258.0</ele><time>2026-04-12T15:47:19.228Z</time></trkpt><trkpt lat="43.44721" lon="13.21769"><ele>258.6666666666667</ele><time>2026-04-12T15:47:20.228Z</time></trkpt><trkpt lat="43.4470517" lon="13.2177433"><ele>259.33333333333337</ele><time>2026-04-12T15:47:21.228Z</time></trkpt><trkpt lat="43.4468967" lon="13.2177933"><ele>260.0</ele><time>2026-04-12T15:47:22.227Z</time></trkpt><trkpt lat="43.4467433" lon="13.217845"><ele>260.0</ele><time>2026-04-12T15:47:23.227Z</time></trkpt><trkpt lat="43.4465917" lon="13.2179067"><ele>260.0</ele><time>2026-04-12T15:47:24.227Z</time></trkpt><trkpt lat="43.4464317" lon="13.2179667"><ele>260.0</ele><time>2026-04-12T15:47:25.227Z</time></trkpt><trkpt lat="43.4462817" lon="13.2180333"><ele>260.6666666666667</ele><time>2026-04-12T15:47:26.228Z</time></trkpt><trkpt lat="43.4461367" lon="13.2181017"><ele>261.3333333333333</ele><time>2026-04-12T15:47:27.227Z</time></trkpt><trkpt lat="43.4459933" lon="13.2181733"><ele>262.0</ele><time>2026-04-12T15:47:28.228Z</time></trkpt><trkpt lat="43.4458633" lon="13.2182617"><ele>264.0</ele><time>2026-04-12T15:47:29.228Z</time></trkpt><trkpt lat="43.4457467" lon="13.2183567"><ele>266.0</ele><time>2026-04-12T15:47:30.227Z</time></trkpt><trkpt lat="43.4456433" lon="13.2184533"><ele>268.0</ele><time>2026-04-12T15:47:31.228Z</time></trkpt><trkpt lat="43.44554" lon="13.2185517"><ele>270.0</ele><time>2026-04-12T15:47:32.228Z</time></trkpt><trkpt lat="43.4454233" lon="13.2186283"><ele>271.75</ele><time>2026-04-12T15:47:33.228Z</time></trkpt><trkpt lat="43.4453033" lon="13.2186817"><ele>273.5</ele><time>2026-04-12T15:47:34.228Z</time></trkpt><trkpt lat="43.4451883" lon="13.2187233"><ele>275.25</ele><time>2026-04-12T15:47:35.228Z</time></trkpt><trkpt lat="43.4450767" lon="13.2187383"><ele>277.0</ele><time>2026-04-12T15:47:36.228Z</time></trkpt><trkpt lat="43.4449567" lon="13.2187133"><ele>277.0</ele><time>2026-04-12T15:47:37.228Z</time></trkpt><trkpt lat="43.444835" lon="13.2186717"><ele>277.0</ele><time>2026-04-12T15:47:38.228Z</time></trkpt><trkpt lat="43.4447067" lon="13.2185967"><ele>277.0</ele><time>2026-04-12T15:47:39.228Z</time></trkpt><trkpt lat="43.4445783" lon="13.21851"><ele>277.0</ele><time>2026-04-12T15:47:40.228Z</time></trkpt><trkpt lat="43.44445" lon="13.2184267"><ele>278.25</ele><time>2026-04-12T15:47:41.228Z</time></trkpt><trkpt lat="43.44432" lon="13.2183483"><ele>279.5</ele><time>2026-04-12T15:47:42.228Z</time></trkpt><trkpt lat="43.4441883" lon="13.2182617"><ele>280.75</ele><time>2026-04-12T15:47:43.228Z</time></trkpt><trkpt lat="43.4440533" lon="13.218185"><ele>282.0</ele><time>2026-04-12T15:47:44.227Z</time></trkpt><trkpt lat="43.44392" lon="13.21811"><ele>281.5</ele><time>2026-04-12T15:47:45.227Z</time></trkpt><trkpt lat="43.44379" lon="13.2180383"><ele>281.0</ele><time>2026-04-12T15:47:46.228Z</time></trkpt><trkpt lat="43.44366" lon="13.21797"><ele>280.5</ele><time>2026-04-12T15:47:47.227Z</time></trkpt><trkpt lat="43.443535" lon="13.2178933"><ele>280.0</ele><time>2026-04-12T15:47:48.228Z</time></trkpt><trkpt lat="43.4434117" lon="13.2178167"><ele>280.0</ele><time>2026-04-12T15:47:49.227Z</time></trkpt><trkpt lat="43.44328" lon="13.217745"><ele>280.0</ele><time>2026-04-12T15:47:50.228Z</time></trkpt><trkpt lat="43.443155" lon="13.217665"><ele>280.0</ele><time>2026-04-12T15:47:51.228Z</time></trkpt><trkpt lat="43.4430267" lon="13.2175883"><ele>280.0</ele><time>2026-04-12T15:47:52.227Z</time></trkpt><trkpt lat="43.4429" lon="13.2175033"><ele>280.0</ele><time>2026-04-12T15:47:53.228Z</time></trkpt><trkpt lat="43.4427617" lon="13.2174167"><ele>280.0</ele><time>2026-04-12T15:47:54.228Z</time></trkpt><trkpt lat="43.442635" lon="13.217315"><ele>280.0</ele><time>2026-04-12T15:47:55.227Z</time></trkpt><trkpt lat="43.4425233" lon="13.2171983"><ele>280.0</ele><time>2026-04-12T15:47:56.227Z</time></trkpt><trkpt lat="43.442425" lon="13.2170667"><ele>280.0</ele><time>2026-04-12T15:47:57.228Z</time></trkpt><trkpt lat="43.44234" lon="13.21691"><ele>280.0</ele><time>2026-04-12T15:47:58.227Z</time></trkpt><trkpt lat="43.4422783" lon="13.2167467"><ele>280.0</ele><time>2026-04-12T15:47:59.227Z</time></trkpt><trkpt lat="43.4422233" lon="13.216565"><ele>280.0</ele><time>2026-04-12T15:48:00.228Z</time></trkpt><trkpt lat="43.442195" lon="13.2163783"><ele>278.5</ele><time>2026-04-12T15:48:01.228Z</time></trkpt><trkpt lat="43.4421667" lon="13.2161967"><ele>277.0</ele><time>2026-04-12T15:48:02.228Z</time></trkpt><trkpt lat="43.4421483" lon="13.2160133"><ele>275.5</ele><time>2026-04-12T15:48:03.227Z</time></trkpt><trkpt lat="43.4421333" lon="13.21582"><ele>274.0</ele><time>2026-04-12T15:48:04.228Z</time></trkpt><trkpt lat="43.4421233" lon="13.2156083"><ele>274.0</ele><time>2026-04-12T15:48:05.228Z</time></trkpt><trkpt lat="43.4421" lon="13.2154"><ele>274.0</ele><time>2026-04-12T15:48:06.228Z</time></trkpt><trkpt lat="43.442085" lon="13.2151867"><ele>274.0</ele><time>2026-04-12T15:48:07.228Z</time></trkpt><trkpt lat="43.4420617" lon="13.2149783"><ele>275.0</ele><time>2026-04-12T15:48:08.228Z</time></trkpt><trkpt lat="43.44203" lon="13.2147667"><ele>276.0</ele><time>2026-04-12T15:48:09.228Z</time></trkpt><trkpt lat="43.4419733" lon="13.2145683"><ele>277.0</ele><time>2026-04-12T15:48:10.227Z</time></trkpt><trkpt lat="43.4418967" lon="13.2143933"><ele>277.0</ele><time>2026-04-12T15:48:11.228Z</time></trkpt><trkpt lat="43.4418033" lon="13.2142367"><ele>277.0</ele><time>2026-04-12T15:48:12.227Z</time></trkpt><trkpt lat="43.4416967" lon="13.2140867"><ele>277.0</ele><time>2026-04-12T15:48:13.227Z</time></trkpt><trkpt lat="43.4415817" lon="13.2139583"><ele>277.0</ele><time>2026-04-12T15:48:14.228Z</time></trkpt><trkpt lat="43.4414567" lon="13.2138333"><ele>277.75</ele><time>2026-04-12T15:48:15.228Z</time></trkpt><trkpt lat="43.4413317" lon="13.2137233"><ele>278.5</ele><time>2026-04-12T15:48:16.228Z</time></trkpt><trkpt lat="43.4412033" lon="13.2136217"><ele>279.25</ele><time>2026-04-12T15:48:17.227Z</time></trkpt><trkpt lat="43.4410633" lon="13.2135383"><ele>280.0</ele><time>2026-04-12T15:48:18.228Z</time></trkpt><trkpt lat="43.44091" lon="13.2134567"><ele>280.25</ele><time>2026-04-12T15:48:19.228Z</time></trkpt><trkpt lat="43.4407683" lon="13.2133917"><ele>280.5</ele><time>2026-04-12T15:48:20.228Z</time></trkpt><trkpt lat="43.4406267" lon="13.2133517"><ele>280.75</ele><time>2026-04-12T15:48:21.227Z</time></trkpt><trkpt lat="43.440485" lon="13.2133283"><ele>281.0</ele><time>2026-04-12T15:48:22.227Z</time></trkpt><trkpt lat="43.4403333" lon="13.2133083"><ele>281.0</ele><time>2026-04-12T15:48:23.228Z</time></trkpt><trkpt lat="43.4401883" lon="13.2132767"><ele>281.0</ele><time>2026-04-12T15:48:24.227Z</time></trkpt><trkpt lat="43.4400517" lon="13.2132233"><ele>281.0</ele><time>2026-04-12T15:48:25.227Z</time></trkpt><trkpt lat="43.43992" lon="13.21316"><ele>281.0</ele><time>2026-04-12T15:48:26.228Z</time></trkpt><trkpt lat="43.439775" lon="13.2130983"><ele>282.33333333333337</ele><time>2026-04-12T15:48:27.227Z</time></trkpt><trkpt lat="43.4396217" lon="13.213045"><ele>283.6666666666667</ele><time>2026-04-12T15:48:28.227Z</time></trkpt><trkpt lat="43.4394683" lon="13.212995"><ele>285.0</ele><time>2026-04-12T15:48:29.228Z</time></trkpt><trkpt lat="43.4393133" lon="13.2129717"><ele>285.0</ele><time>2026-04-12T15:48:30.227Z</time></trkpt><trkpt lat="43.4391567" lon="13.2129667"><ele>285.0</ele><time>2026-04-12T15:48:31.227Z</time></trkpt><trkpt lat="43.4390017" lon="13.2129617"><ele>285.0</ele><time>2026-04-12T15:48:32.228Z</time></trkpt><trkpt lat="43.4388483" lon="13.2129583"><ele>285.5</ele><time>2026-04-12T15:48:33.228Z</time></trkpt><trkpt lat="43.4387" lon="13.21297"><ele>286.0</ele><time>2026-04-12T15:48:34.228Z</time></trkpt><trkpt lat="43.4385517" lon="13.2129867"><ele>286.5</ele><time>2026-04-12T15:48:35.228Z</time></trkpt><trkpt lat="43.4384017" lon="13.21301"><ele>287.0</ele><time>2026-04-12T15:48:36.228Z</time></trkpt><trkpt lat="43.4382667" lon="13.2130367"><ele>287.0</ele><time>2026-04-12T15:48:37.228Z</time></trkpt><trkpt lat="43.4381383" lon="13.2130783"><ele>287.0</ele><time>2026-04-12T15:48:38.228Z</time></trkpt><trkpt lat="43.438025" lon="13.213125"><ele>287.0</ele><time>2026-04-12T15:48:39.228Z</time></trkpt><trkpt lat="43.4379167" lon="13.213165"><ele>287.0</ele><time>2026-04-12T15:48:40.228Z</time></trkpt><trkpt lat="43.4378033" lon="13.2131883"><ele>286.33333333333337</ele><time>2026-04-12T15:48:41.227Z</time></trkpt><trkpt lat="43.4377" lon="13.2131967"><ele>285.6666666666667</ele><time>2026-04-12T15:48:42.228Z</time></trkpt><trkpt lat="43.4376183" lon="13.21319"><ele>285.0</ele><time>2026-04-12T15:48:43.228Z</time></trkpt><trkpt lat="43.437535" lon="13.2131767"><ele>284.3333333333333</ele><time>2026-04-12T15:48:44.228Z</time></trkpt><trkpt lat="43.4374583" lon="13.2131783"><ele>283.66666666666663</ele><time>2026-04-12T15:48:45.227Z</time></trkpt><trkpt lat="43.437375" lon="13.2132033"><ele>283.0</ele><time>2026-04-12T15:48:46.228Z</time></trkpt><trkpt lat="43.4373067" lon="13.21326"><ele>283.0</ele><time>2026-04-12T15:48:47.227Z</time></trkpt><trkpt lat="43.437235" lon="13.21333"><ele>283.0</ele><time>2026-04-12T15:48:48.228Z</time></trkpt><trkpt lat="43.4371467" lon="13.21339"><ele>283.0</ele><time>2026-04-12T15:48:49.228Z</time></trkpt><trkpt lat="43.4370333" lon="13.213445"><ele>283.0</ele><time>2026-04-12T15:48:50.227Z</time></trkpt><trkpt lat="43.4368917" lon="13.2135133"><ele>284.3333333333333</ele><time>2026-04-12T15:48:51.228Z</time></trkpt><trkpt lat="43.4367233" lon="13.213575"><ele>285.6666666666667</ele><time>2026-04-12T15:48:52.228Z</time></trkpt><trkpt lat="43.436535" lon="13.2136317"><ele>287.0</ele><time>2026-04-12T15:48:53.228Z</time></trkpt><trkpt lat="43.436335" lon="13.2136967"><ele>285.6666666666667</ele><time>2026-04-12T15:48:54.228Z</time></trkpt><trkpt lat="43.43613" lon="13.2137683"><ele>284.3333333333333</ele><time>2026-04-12T15:48:55.227Z</time></trkpt><trkpt lat="43.4359217" lon="13.213855"><ele>283.0</ele><time>2026-04-12T15:48:56.228Z</time></trkpt><trkpt lat="43.4357167" lon="13.2139333"><ele>281.3333333333333</ele><time>2026-04-12T15:48:57.228Z</time></trkpt><trkpt lat="43.4355133" lon="13.2140083"><ele>279.6666666666667</ele><time>2026-04-12T15:48:58.228Z</time></trkpt><trkpt lat="43.4353283" lon="13.214095"><ele>278.0</ele><time>2026-04-12T15:48:59.227Z</time></trkpt><trkpt lat="43.4351433" lon="13.2141717"><ele>278.0</ele><time>2026-04-12T15:49:00.228Z</time></trkpt><trkpt lat="43.4349633" lon="13.214245"><ele>278.0</ele><time>2026-04-12T15:49:01.227Z</time></trkpt><trkpt lat="43.434795" lon="13.214315"><ele>278.0</ele><time>2026-04-12T15:49:02.228Z</time></trkpt><trkpt lat="43.4346317" lon="13.2143783"><ele>277.5</ele><time>2026-04-12T15:49:03.227Z</time></trkpt><trkpt lat="43.4344783" lon="13.2144283"><ele>277.0</ele><time>2026-04-12T15:49:04.228Z</time></trkpt><trkpt lat="43.434335" lon="13.2144833"><ele>276.5</ele><time>2026-04-12T15:49:05.227Z</time></trkpt><trkpt lat="43.4342" lon="13.2145467"><ele>276.0</ele><time>2026-04-12T15:49:06.228Z</time></trkpt><trkpt lat="43.4340683" lon="13.214605"><ele>276.0</ele><time>2026-04-12T15:49:07.228Z</time></trkpt><trkpt lat="43.433925" lon="13.214675"><ele>276.0</ele><time>2026-04-12T15:49:08.228Z</time></trkpt><trkpt lat="43.4337533" lon="13.2147433"><ele>276.0</ele><time>2026-04-12T15:49:09.228Z</time></trkpt><trkpt lat="43.4335617" lon="13.214835"><ele>275.0</ele><time>2026-04-12T15:49:10.227Z</time></trkpt><trkpt lat="43.4333517" lon="13.2149283"><ele>274.0</ele><time>2026-04-12T15:49:11.228Z</time></trkpt><trkpt lat="43.433135" lon="13.2150067"><ele>273.0</ele><time>2026-04-12T15:49:12.228Z</time></trkpt><trkpt lat="43.4329317" lon="13.215075"><ele>272.6666666666667</ele><time>2026-04-12T15:49:13.227Z</time></trkpt><trkpt lat="43.43274" lon="13.2151717"><ele>272.33333333333337</ele><time>2026-04-12T15:49:14.228Z</time></trkpt><trkpt lat="43.4325633" lon="13.215295"><ele>272.0</ele><time>2026-04-12T15:49:15.228Z</time></trkpt><trkpt lat="43.4324033" lon="13.21547"><ele>271.6666666666667</ele><time>2026-04-12T15:49:16.228Z</time></trkpt><trkpt lat="43.4322617" lon="13.21568"><ele>271.3333333333333</ele><time>2026-04-12T15:49:17.228Z</time></trkpt><trkpt lat="43.4321317" lon="13.215915"><ele>271.0</ele><time>2026-04-12T15:49:18.228Z</time></trkpt><trkpt lat="43.4319967" lon="13.216155"><ele>271.0</ele><time>2026-04-12T15:49:19.228Z</time></trkpt><trkpt lat="43.4318517" lon="13.216415"><ele>271.0</ele><time>2026-04-12T15:49:20.228Z</time></trkpt><trkpt lat="43.4317067" lon="13.216675"><ele>267.0</ele><time>2026-04-12T15:49:21.228Z</time></trkpt><trkpt lat="43.431565" lon="13.2169433"><ele>263.0</ele><time>2026-04-12T15:49:22.228Z</time></trkpt><trkpt lat="43.4314183" lon="13.2172017"><ele>262.5</ele><time>2026-04-12T15:49:23.228Z</time></trkpt><trkpt lat="43.4312717" lon="13.2174617"><ele>262.0</ele><time>2026-04-12T15:49:24.228Z</time></trkpt><trkpt lat="43.4311233" lon="13.2177117"><ele>262.0</ele><time>2026-04-12T15:49:25.227Z</time></trkpt><trkpt lat="43.4309667" lon="13.2179617"><ele>262.0</ele><time>2026-04-12T15:49:26.228Z</time></trkpt><trkpt lat="43.430815" lon="13.218205"><ele>259.3333333333333</ele><time>2026-04-12T15:49:27.227Z</time></trkpt><trkpt lat="43.4306633" lon="13.218435"><ele>256.6666666666667</ele><time>2026-04-12T15:49:28.228Z</time></trkpt><trkpt lat="43.430515" lon="13.2186533"><ele>254.0</ele><time>2026-04-12T15:49:29.228Z</time></trkpt><trkpt lat="43.43037" lon="13.21887"><ele>250.66666666666669</ele><time>2026-04-12T15:49:30.227Z</time></trkpt><trkpt lat="43.4302283" lon="13.21908"><ele>247.33333333333331</ele><time>2026-04-12T15:49:31.228Z</time></trkpt><trkpt lat="43.4300917" lon="13.2192783"><ele>244.0</ele><time>2026-04-12T15:49:32.228Z</time></trkpt><trkpt lat="43.4299617" lon="13.21947"><ele>244.0</ele><time>2026-04-12T15:49:33.227Z</time></trkpt><trkpt lat="43.4298333" lon="13.2196633"><ele>244.0</ele><time>2026-04-12T15:49:34.228Z</time></trkpt><trkpt lat="43.4297083" lon="13.2198433"><ele>244.0</ele><time>2026-04-12T15:49:35.228Z</time></trkpt><trkpt lat="43.429585" lon="13.219985"><ele>241.66666666666666</ele><time>2026-04-12T15:49:36.228Z</time></trkpt><trkpt lat="43.4294533" lon="13.2200983"><ele>239.33333333333331</ele><time>2026-04-12T15:49:37.228Z</time></trkpt><trkpt lat="43.429305" lon="13.22018"><ele>237.0</ele><time>2026-04-12T15:49:38.227Z</time></trkpt><trkpt lat="43.429135" lon="13.2202267"><ele>237.0</ele><time>2026-04-12T15:49:39.228Z</time></trkpt><trkpt lat="43.4289567" lon="13.220255"><ele>237.0</ele><time>2026-04-12T15:49:40.228Z</time></trkpt><trkpt lat="43.428775" lon="13.2202583"><ele>237.0</ele><time>2026-04-12T15:49:41.228Z</time></trkpt><trkpt lat="43.4285917" lon="13.2202283"><ele>235.33333333333331</ele><time>2026-04-12T15:49:42.227Z</time></trkpt><trkpt lat="43.4284017" lon="13.2201683"><ele>233.66666666666666</ele><time>2026-04-12T15:49:43.228Z</time></trkpt><trkpt lat="43.428215" lon="13.2201033"><ele>232.0</ele><time>2026-04-12T15:49:44.227Z</time></trkpt><trkpt lat="43.4280317" lon="13.22004"><ele>232.0</ele><time>2026-04-12T15:49:45.228Z</time></trkpt><trkpt lat="43.42786" lon="13.2199683"><ele>232.0</ele><time>2026-04-12T15:49:46.227Z</time></trkpt><trkpt lat="43.4276883" lon="13.2198983"><ele>232.0</ele><time>2026-04-12T15:49:47.228Z</time></trkpt><trkpt lat="43.4275217" lon="13.2198083"><ele>232.0</ele><time>2026-04-12T15:49:48.227Z</time></trkpt><trkpt lat="43.427375" lon="13.219675"><ele>232.0</ele><time>2026-04-12T15:49:49.227Z</time></trkpt><trkpt lat="43.4272383" lon="13.2194983"><ele>232.0</ele><time>2026-04-12T15:49:50.228Z</time></trkpt><trkpt lat="43.4271" lon="13.2193"><ele>228.33333333333331</ele><time>2026-04-12T15:49:51.228Z</time></trkpt><trkpt lat="43.4269667" lon="13.2190833"><ele>224.66666666666669</ele><time>2026-04-12T15:49:52.228Z</time></trkpt><trkpt lat="43.4268217" lon="13.2188617"><ele>221.0</ele><time>2026-04-12T15:49:53.227Z</time></trkpt><trkpt lat="43.4266667" lon="13.2186233"><ele>221.0</ele><time>2026-04-12T15:49:54.228Z</time></trkpt><trkpt lat="43.4265083" lon="13.21838"><ele>221.0</ele><time>2026-04-12T15:49:55.228Z</time></trkpt><trkpt lat="43.426345" lon="13.21813"><ele>218.0</ele><time>2026-04-12T15:49:56.228Z</time></trkpt><trkpt lat="43.4261817" lon="13.21788"><ele>215.0</ele><time>2026-04-12T15:49:57.228Z</time></trkpt><trkpt lat="43.4260083" lon="13.2176267"><ele>215.0</ele><time>2026-04-12T15:49:58.228Z</time></trkpt><trkpt lat="43.42584" lon="13.2173567"><ele>215.0</ele><time>2026-04-12T15:49:59.228Z</time></trkpt><trkpt lat="43.42567" lon="13.2170967"><ele>217.0</ele><time>2026-04-12T15:50:00.228Z</time></trkpt><trkpt lat="43.4255017" lon="13.2168383"><ele>219.0</ele><time>2026-04-12T15:50:01.228Z</time></trkpt><trkpt lat="43.4253417" lon="13.216585"><ele>214.0</ele><time>2026-04-12T15:50:02.228Z</time></trkpt><trkpt lat="43.42518" lon="13.2163317"><ele>209.0</ele><time>2026-04-12T15:50:03.228Z</time></trkpt><trkpt lat="43.4250217" lon="13.2160767"><ele>209.0</ele><time>2026-04-12T15:50:04.228Z</time></trkpt><trkpt lat="43.4248817" lon="13.2158417"><ele>209.0</ele><time>2026-04-12T15:50:05.228Z</time></trkpt><trkpt lat="43.4247433" lon="13.2156217"><ele>209.0</ele><time>2026-04-12T15:50:06.227Z</time></trkpt><trkpt lat="43.4246017" lon="13.21543"><ele>211.66666666666669</ele><time>2026-04-12T15:50:07.227Z</time></trkpt><trkpt lat="43.4244517" lon="13.21527"><ele>214.33333333333331</ele><time>2026-04-12T15:50:08.228Z</time></trkpt><trkpt lat="43.4242983" lon="13.215165"><ele>217.0</ele><time>2026-04-12T15:50:09.227Z</time></trkpt><trkpt lat="43.424125" lon="13.215115"><ele>217.0</ele><time>2026-04-12T15:50:10.228Z</time></trkpt><trkpt lat="43.42394" lon="13.2151"><ele>217.0</ele><time>2026-04-12T15:50:11.228Z</time></trkpt><trkpt lat="43.4237567" lon="13.2150967"><ele>217.0</ele><time>2026-04-12T15:50:12.228Z</time></trkpt><trkpt lat="43.4235683" lon="13.2151067"><ele>218.0</ele><time>2026-04-12T15:50:13.228Z</time></trkpt><trkpt lat="43.4234" lon="13.215085"><ele>219.0</ele><time>2026-04-12T15:50:14.228Z</time></trkpt><trkpt lat="43.4232333" lon="13.21508"><ele>220.0</ele><time>2026-04-12T15:50:15.227Z</time></trkpt><trkpt lat="43.42305" lon="13.2150533"><ele>218.66666666666666</ele><time>2026-04-12T15:50:16.228Z</time></trkpt><trkpt lat="43.422895" lon="13.2150333"><ele>217.33333333333331</ele><time>2026-04-12T15:50:17.228Z</time></trkpt><trkpt lat="43.422745" lon="13.2150017"><ele>216.0</ele><time>2026-04-12T15:50:18.228Z</time></trkpt><trkpt lat="43.422585" lon="13.2149717"><ele>216.0</ele><time>2026-04-12T15:50:19.228Z</time></trkpt><trkpt lat="43.4224417" lon="13.2149383"><ele>216.0</ele><time>2026-04-12T15:50:20.228Z</time></trkpt><trkpt lat="43.4223017" lon="13.214905"><ele>216.0</ele><time>2026-04-12T15:50:21.228Z</time></trkpt><trkpt lat="43.42217" lon="13.21489"><ele>216.0</ele><time>2026-04-12T15:50:22.227Z</time></trkpt><trkpt lat="43.42204" lon="13.2148567"><ele>215.75</ele><time>2026-04-12T15:50:23.228Z</time></trkpt><trkpt lat="43.4219133" lon="13.2148283"><ele>215.5</ele><time>2026-04-12T15:50:24.227Z</time></trkpt><trkpt lat="43.4217933" lon="13.2148"><ele>215.25</ele><time>2026-04-12T15:50:25.227Z</time></trkpt><trkpt lat="43.4216767" lon="13.2147717"><ele>215.0</ele><time>2026-04-12T15:50:26.228Z</time></trkpt><trkpt lat="43.4215667" lon="13.2147483"><ele>215.00000000000003</ele><time>2026-04-12T15:50:27.228Z</time></trkpt><trkpt lat="43.421465" lon="13.2147267"><ele>215.0</ele><time>2026-04-12T15:50:28.228Z</time></trkpt><trkpt lat="43.4213667" lon="13.2147083"><ele>215.0</ele><time>2026-04-12T15:50:29.227Z</time></trkpt><trkpt lat="43.4212783" lon="13.214685"><ele>215.0</ele><time>2026-04-12T15:50:30.228Z</time></trkpt><trkpt lat="43.4212" lon="13.2146667"><ele>215.00000000000003</ele><time>2026-04-12T15:50:31.228Z</time></trkpt><trkpt lat="43.421135" lon="13.2146583"><ele>215.0</ele><time>2026-04-12T15:50:32.228Z</time></trkpt><trkpt lat="43.4210483" lon="13.214645"><ele>213.66666666666669</ele><time>2026-04-12T15:50:34.228Z</time></trkpt><trkpt lat="43.420965" lon="13.2146283"><ele>212.33333333333334</ele><time>2026-04-12T15:50:37.228Z</time></trkpt><trkpt lat="43.4208967" lon="13.2146067"><ele>211.0</ele><time>2026-04-12T15:50:40.227Z</time></trkpt><trkpt lat="43.4207933" lon="13.2146"><ele>209.66666666666669</ele><time>2026-04-12T15:50:53.227Z</time></trkpt><trkpt lat="43.42073" lon="13.214595"><ele>208.33333333333334</ele><time>2026-04-12T15:50:54.228Z</time></trkpt><trkpt lat="43.4206467" lon="13.2145883"><ele>207.0</ele><time>2026-04-12T15:50:55.227Z</time></trkpt><trkpt lat="43.420545" lon="13.214575"><ele>206.5</ele><time>2026-04-12T15:50:56.228Z</time></trkpt><trkpt lat="43.420425" lon="13.2145467"><ele>206.0</ele><time>2026-04-12T15:50:57.227Z</time></trkpt><trkpt lat="43.420295" lon="13.214525"><ele>205.5</ele><time>2026-04-12T15:50:58.227Z</time></trkpt><trkpt lat="43.4201467" lon="13.2145"><ele>205.0</ele><time>2026-04-12T15:50:59.228Z</time></trkpt><trkpt lat="43.4199967" lon="13.214465"><ele>205.0</ele><time>2026-04-12T15:51:00.228Z</time></trkpt><trkpt lat="43.41984" lon="13.21443"><ele>205.0</ele><time>2026-04-12T15:51:01.227Z</time></trkpt><trkpt lat="43.4196683" lon="13.2143983"><ele>205.0</ele><time>2026-04-12T15:51:02.228Z</time></trkpt><trkpt lat="43.4195" lon="13.214355"><ele>206.33333333333331</ele><time>2026-04-12T15:51:03.228Z</time></trkpt><trkpt lat="43.4193233" lon="13.2143167"><ele>207.66666666666669</ele><time>2026-04-12T15:51:04.227Z</time></trkpt><trkpt lat="43.41915" lon="13.214275"><ele>209.0</ele><time>2026-04-12T15:51:05.228Z</time></trkpt><trkpt lat="43.41899" lon="13.21425"><ele>209.0</ele><time>2026-04-12T15:51:06.227Z</time></trkpt><trkpt lat="43.4188317" lon="13.214225"><ele>209.0</ele><time>2026-04-12T15:51:07.227Z</time></trkpt><trkpt lat="43.418685" lon="13.2142017"><ele>209.0</ele><time>2026-04-12T15:51:08.228Z</time></trkpt><trkpt lat="43.4185517" lon="13.2142017"><ele>209.0</ele><time>2026-04-12T15:51:09.228Z</time></trkpt><trkpt lat="43.4184433" lon="13.2142733"><ele>210.0</ele><time>2026-04-12T15:51:10.228Z</time></trkpt><trkpt lat="43.41838" lon="13.214395"><ele>211.0</ele><time>2026-04-12T15:51:11.227Z</time></trkpt><trkpt lat="43.4183683" lon="13.2145417"><ele>212.0</ele><time>2026-04-12T15:51:12.227Z</time></trkpt><trkpt lat="43.4184183" lon="13.2147033"><ele>213.0</ele><time>2026-04-12T15:51:13.228Z</time></trkpt><trkpt lat="43.4184833" lon="13.2148617"><ele>214.8</ele><time>2026-04-12T15:51:14.228Z</time></trkpt><trkpt lat="43.4185383" lon="13.2150117"><ele>216.60000000000002</ele><time>2026-04-12T15:51:15.228Z</time></trkpt><trkpt lat="43.4185633" lon="13.21515"><ele>218.39999999999998</ele><time>2026-04-12T15:51:16.228Z</time></trkpt><trkpt lat="43.4185367" lon="13.2152617"><ele>220.2</ele><time>2026-04-12T15:51:17.228Z</time></trkpt><trkpt lat="43.41849" lon="13.21534"><ele>222.0</ele><time>2026-04-12T15:51:18.228Z</time></trkpt><trkpt lat="43.4184183" lon="13.2153667"><ele>222.0</ele><time>2026-04-12T15:51:19.228Z</time></trkpt><trkpt lat="43.4183033" lon="13.215275"><ele>222.0</ele><time>2026-04-12T15:51:20.228Z</time></trkpt><trkpt lat="43.4182067" lon="13.215155"><ele>222.0</ele><time>2026-04-12T15:51:21.228Z</time></trkpt><trkpt lat="43.4181067" lon="13.2150083"><ele>222.0</ele><time>2026-04-12T15:51:22.228Z</time></trkpt><trkpt lat="43.4180083" lon="13.2148567"><ele>222.33333333333331</ele><time>2026-04-12T15:51:23.227Z</time></trkpt><trkpt lat="43.417905" lon="13.2146983"><ele>222.66666666666666</ele><time>2026-04-12T15:51:24.228Z</time></trkpt><trkpt lat="43.417785" lon="13.2145517"><ele>223.0</ele><time>2026-04-12T15:51:25.228Z</time></trkpt><trkpt lat="43.4176433" lon="13.2144367"><ele>223.0</ele><time>2026-04-12T15:51:26.228Z</time></trkpt><trkpt lat="43.4174967" lon="13.2143767"><ele>223.0</ele><time>2026-04-12T15:51:27.228Z</time></trkpt><trkpt lat="43.4173383" lon="13.214385"><ele>223.0</ele><time>2026-04-12T15:51:28.227Z</time></trkpt><trkpt lat="43.4171783" lon="13.21446"><ele>224.0</ele><time>2026-04-12T15:51:29.228Z</time></trkpt><trkpt lat="43.4170433" lon="13.2145883"><ele>225.0</ele><time>2026-04-12T15:51:30.227Z</time></trkpt><trkpt lat="43.41691" lon="13.214745"><ele>226.0</ele><time>2026-04-12T15:51:31.227Z</time></trkpt><trkpt lat="43.4167767" lon="13.21491"><ele>229.66666666666666</ele><time>2026-04-12T15:51:32.227Z</time></trkpt><trkpt lat="43.4166433" lon="13.215045"><ele>233.33333333333331</ele><time>2026-04-12T15:51:33.228Z</time></trkpt><trkpt lat="43.4164983" lon="13.21515"><ele>237.0</ele><time>2026-04-12T15:51:34.228Z</time></trkpt><trkpt lat="43.41637" lon="13.2152417"><ele>237.0</ele><time>2026-04-12T15:51:35.228Z</time></trkpt><trkpt lat="43.4162383" lon="13.215275"><ele>237.0</ele><time>2026-04-12T15:51:36.228Z</time></trkpt><trkpt lat="43.4160917" lon="13.2152367"><ele>237.0</ele><time>2026-04-12T15:51:37.227Z</time></trkpt><trkpt lat="43.4159383" lon="13.2151517"><ele>237.0</ele><time>2026-04-12T15:51:38.227Z</time></trkpt><trkpt lat="43.4157767" lon="13.2150717"><ele>237.0</ele><time>2026-04-12T15:51:39.227Z</time></trkpt><trkpt lat="43.4155917" lon="13.2149933"><ele>237.0</ele><time>2026-04-12T15:51:40.228Z</time></trkpt><trkpt lat="43.415405" lon="13.2149033"><ele>237.0</ele><time>2026-04-12T15:51:41.228Z</time></trkpt><trkpt lat="43.4152167" lon="13.2148117"><ele>237.5</ele><time>2026-04-12T15:51:42.228Z</time></trkpt><trkpt lat="43.41501" lon="13.21472"><ele>238.0</ele><time>2026-04-12T15:51:43.228Z</time></trkpt><trkpt lat="43.4147883" lon="13.21462"><ele>237.5</ele><time>2026-04-12T15:51:44.228Z</time></trkpt><trkpt lat="43.414545" lon="13.21452"><ele>237.0</ele><time>2026-04-12T15:51:45.227Z</time></trkpt><trkpt lat="43.414305" lon="13.2144183"><ele>237.0</ele><time>2026-04-12T15:51:46.227Z</time></trkpt><trkpt lat="43.41407" lon="13.2143217"><ele>237.0</ele><time>2026-04-12T15:51:47.228Z</time></trkpt><trkpt lat="43.41384" lon="13.2142267"><ele>238.5</ele><time>2026-04-12T15:51:48.228Z</time></trkpt><trkpt lat="43.4136167" lon="13.2141233"><ele>240.0</ele><time>2026-04-12T15:51:49.228Z</time></trkpt><trkpt lat="43.413395" lon="13.214025"><ele>241.0</ele><time>2026-04-12T15:51:50.227Z</time></trkpt><trkpt lat="43.413175" lon="13.2139267"><ele>242.0</ele><time>2026-04-12T15:51:51.227Z</time></trkpt><trkpt lat="43.41296" lon="13.213835"><ele>242.0</ele><time>2026-04-12T15:51:52.227Z</time></trkpt><trkpt lat="43.4127583" lon="13.2137433"><ele>242.0</ele><time>2026-04-12T15:51:53.227Z</time></trkpt><trkpt lat="43.4125583" lon="13.2136633"><ele>242.0</ele><time>2026-04-12T15:51:54.228Z</time></trkpt><trkpt lat="43.412365" lon="13.2135883"><ele>242.0</ele><time>2026-04-12T15:51:55.227Z</time></trkpt><trkpt lat="43.4122067" lon="13.213495"><ele>242.0</ele><time>2026-04-12T15:51:56.227Z</time></trkpt><trkpt lat="43.4120617" lon="13.213375"><ele>242.0</ele><time>2026-04-12T15:51:57.227Z</time></trkpt><trkpt lat="43.4119433" lon="13.213205"><ele>241.33333333333334</ele><time>2026-04-12T15:51:58.228Z</time></trkpt><trkpt lat="43.4118433" lon="13.2130017"><ele>240.66666666666669</ele><time>2026-04-12T15:51:59.228Z</time></trkpt><trkpt lat="43.4117633" lon="13.21277"><ele>240.0</ele><time>2026-04-12T15:52:00.228Z</time></trkpt><trkpt lat="43.4116867" lon="13.2125467"><ele>240.0</ele><time>2026-04-12T15:52:01.228Z</time></trkpt><trkpt lat="43.4116167" lon="13.21233"><ele>240.0</ele><time>2026-04-12T15:52:02.228Z</time></trkpt><trkpt lat="43.4115467" lon="13.212135"><ele>240.0</ele><time>2026-04-12T15:52:03.228Z</time></trkpt><trkpt lat="43.4114733" lon="13.2119433"><ele>240.0</ele><time>2026-04-12T15:52:04.227Z</time></trkpt><trkpt lat="43.4113633" lon="13.211805"><ele>240.0</ele><time>2026-04-12T15:52:05.228Z</time></trkpt><trkpt lat="43.41124" lon="13.2117033"><ele>240.0</ele><time>2026-04-12T15:52:06.228Z</time></trkpt><trkpt lat="43.41108" lon="13.2116367"><ele>240.0</ele><time>2026-04-12T15:52:07.228Z</time></trkpt><trkpt lat="43.4109017" lon="13.2116017"><ele>240.0</ele><time>2026-04-12T15:52:08.228Z</time></trkpt><trkpt lat="43.41071" lon="13.2115783"><ele>240.0</ele><time>2026-04-12T15:52:09.228Z</time></trkpt><trkpt lat="43.4105083" lon="13.2115617"><ele>239.33333333333331</ele><time>2026-04-12T15:52:10.228Z</time></trkpt><trkpt lat="43.410315" lon="13.211555"><ele>238.66666666666666</ele><time>2026-04-12T15:52:11.228Z</time></trkpt><trkpt lat="43.4101233" lon="13.2115533"><ele>238.0</ele><time>2026-04-12T15:52:12.228Z</time></trkpt><trkpt lat="43.409935" lon="13.211535"><ele>238.0</ele><time>2026-04-12T15:52:13.227Z</time></trkpt><trkpt lat="43.4097533" lon="13.2115067"><ele>238.0</ele><time>2026-04-12T15:52:14.227Z</time></trkpt><trkpt lat="43.40957" lon="13.2114467"><ele>238.0</ele><time>2026-04-12T15:52:15.227Z</time></trkpt><trkpt lat="43.4094133" lon="13.21133"><ele>234.0</ele><time>2026-04-12T15:52:16.228Z</time></trkpt><trkpt lat="43.40929" lon="13.21119"><ele>230.0</ele><time>2026-04-12T15:52:17.228Z</time></trkpt><trkpt lat="43.4091633" lon="13.210975"><ele>226.0</ele><time>2026-04-12T15:52:18.227Z</time></trkpt><trkpt lat="43.4090467" lon="13.2107867"><ele>224.33333333333331</ele><time>2026-04-12T15:52:19.228Z</time></trkpt><trkpt lat="43.4089217" lon="13.2105867"><ele>222.66666666666669</ele><time>2026-04-12T15:52:20.228Z</time></trkpt><trkpt lat="43.4087767" lon="13.2104017"><ele>221.0</ele><time>2026-04-12T15:52:21.227Z</time></trkpt><trkpt lat="43.40864" lon="13.2102367"><ele>224.66666666666669</ele><time>2026-04-12T15:52:22.227Z</time></trkpt><trkpt lat="43.4084783" lon="13.210075"><ele>228.33333333333331</ele><time>2026-04-12T15:52:23.227Z</time></trkpt><trkpt lat="43.40834" lon="13.2099467"><ele>232.0</ele><time>2026-04-12T15:52:24.227Z</time></trkpt><trkpt lat="43.4081817" lon="13.2098433"><ele>232.0</ele><time>2026-04-12T15:52:25.227Z</time></trkpt><trkpt lat="43.4079967" lon="13.20979"><ele>232.0</ele><time>2026-04-12T15:52:26.227Z</time></trkpt><trkpt lat="43.4078117" lon="13.2097683"><ele>232.0</ele><time>2026-04-12T15:52:27.228Z</time></trkpt><trkpt lat="43.4076317" lon="13.20972"><ele>232.0</ele><time>2026-04-12T15:52:28.228Z</time></trkpt><trkpt lat="43.4074667" lon="13.2096433"><ele>232.0</ele><time>2026-04-12T15:52:29.228Z</time></trkpt><trkpt lat="43.4073217" lon="13.2095133"><ele>232.0</ele><time>2026-04-12T15:52:30.227Z</time></trkpt><trkpt lat="43.407215" lon="13.209325"><ele>236.66666666666666</ele><time>2026-04-12T15:52:31.228Z</time></trkpt><trkpt lat="43.4071283" lon="13.209105"><ele>241.33333333333331</ele><time>2026-04-12T15:52:32.228Z</time></trkpt><trkpt lat="43.4070433" lon="13.20888"><ele>246.0</ele><time>2026-04-12T15:52:33.228Z</time></trkpt><trkpt lat="43.4069533" lon="13.2086433"><ele>246.0</ele><time>2026-04-12T15:52:34.228Z</time></trkpt><trkpt lat="43.4068417" lon="13.2084233"><ele>246.0</ele><time>2026-04-12T15:52:35.228Z</time></trkpt><trkpt lat="43.4067017" lon="13.2082167"><ele>246.0</ele><time>2026-04-12T15:52:36.227Z</time></trkpt><trkpt lat="43.406545" lon="13.2080167"><ele>242.66666666666669</ele><time>2026-04-12T15:52:37.228Z</time></trkpt><trkpt lat="43.40639" lon="13.2078133"><ele>239.33333333333334</ele><time>2026-04-12T15:52:38.227Z</time></trkpt><trkpt lat="43.4062433" lon="13.2076083"><ele>236.0</ele><time>2026-04-12T15:52:39.228Z</time></trkpt><trkpt lat="43.40611" lon="13.2073783"><ele>249.0</ele><time>2026-04-12T15:52:40.228Z</time></trkpt><trkpt lat="43.4059867" lon="13.2071217"><ele>262.0</ele><time>2026-04-12T15:52:41.228Z</time></trkpt><trkpt lat="43.4058617" lon="13.20686"><ele>262.0</ele><time>2026-04-12T15:52:42.228Z</time></trkpt><trkpt lat="43.4057317" lon="13.206595"><ele>262.0</ele><time>2026-04-12T15:52:43.228Z</time></trkpt><trkpt lat="43.4056067" lon="13.20634"><ele>264.66666666666663</ele><time>2026-04-12T15:52:44.228Z</time></trkpt><trkpt lat="43.4054867" lon="13.20609"><ele>267.3333333333333</ele><time>2026-04-12T15:52:45.228Z</time></trkpt><trkpt lat="43.4053717" lon="13.2058467"><ele>270.0</ele><time>2026-04-12T15:52:46.228Z</time></trkpt><trkpt lat="43.40526" lon="13.2056117"><ele>270.0</ele><time>2026-04-12T15:52:47.228Z</time></trkpt><trkpt lat="43.4051567" lon="13.2053717"><ele>270.0</ele><time>2026-04-12T15:52:48.228Z</time></trkpt><trkpt lat="43.405035" lon="13.2051533"><ele>270.0</ele><time>2026-04-12T15:52:49.228Z</time></trkpt><trkpt lat="43.40487" lon="13.2049617"><ele>269.6666666666667</ele><time>2026-04-12T15:52:50.227Z</time></trkpt><trkpt lat="43.4047117" lon="13.2048067"><ele>269.33333333333337</ele><time>2026-04-12T15:52:51.228Z</time></trkpt><trkpt lat="43.4045583" lon="13.20469"><ele>269.0</ele><time>2026-04-12T15:52:52.227Z</time></trkpt><trkpt lat="43.404405" lon="13.2046117"><ele>269.0</ele><time>2026-04-12T15:52:53.228Z</time></trkpt><trkpt lat="43.4042667" lon="13.204545"><ele>269.0</ele><time>2026-04-12T15:52:54.228Z</time></trkpt><trkpt lat="43.4041317" lon="13.2045317"><ele>269.0</ele><time>2026-04-12T15:52:55.228Z</time></trkpt><trkpt lat="43.4040167" lon="13.2046233"><ele>269.0</ele><time>2026-04-12T15:52:56.227Z</time></trkpt><trkpt lat="43.4039233" lon="13.204765"><ele>271.0</ele><time>2026-04-12T15:52:57.227Z</time></trkpt><trkpt lat="43.403835" lon="13.2049283"><ele>273.0</ele><time>2026-04-12T15:52:58.228Z</time></trkpt><trkpt lat="43.4037417" lon="13.2050833"><ele>275.0</ele><time>2026-04-12T15:52:59.228Z</time></trkpt><trkpt lat="43.403635" lon="13.2051917"><ele>277.0</ele><time>2026-04-12T15:53:00.228Z</time></trkpt><trkpt lat="43.40351" lon="13.2052467"><ele>277.25</ele><time>2026-04-12T15:53:01.228Z</time></trkpt><trkpt lat="43.4033833" lon="13.2052333"><ele>277.5</ele><time>2026-04-12T15:53:02.227Z</time></trkpt><trkpt lat="43.403245" lon="13.2051917"><ele>277.75</ele><time>2026-04-12T15:53:03.228Z</time></trkpt><trkpt lat="43.40309" lon="13.2051383"><ele>278.0</ele><time>2026-04-12T15:53:04.228Z</time></trkpt><trkpt lat="43.4029283" lon="13.20507"><ele>279.6666666666667</ele><time>2026-04-12T15:53:05.228Z</time></trkpt><trkpt lat="43.4027583" lon="13.2050167"><ele>281.3333333333333</ele><time>2026-04-12T15:53:06.228Z</time></trkpt><trkpt lat="43.4026" lon="13.2049567"><ele>283.0</ele><time>2026-04-12T15:53:07.228Z</time></trkpt><trkpt lat="43.4024367" lon="13.2048633"><ele>281.3333333333333</ele><time>2026-04-12T15:53:08.228Z</time></trkpt><trkpt lat="43.40228" lon="13.2047267"><ele>279.6666666666667</ele><time>2026-04-12T15:53:09.228Z</time></trkpt><trkpt lat="43.4021367" lon="13.2045683"><ele>278.0</ele><time>2026-04-12T15:53:10.228Z</time></trkpt><trkpt lat="43.4019983" lon="13.2043883"><ele>279.6666666666667</ele><time>2026-04-12T15:53:11.227Z</time></trkpt><trkpt lat="43.401865" lon="13.2042067"><ele>281.3333333333333</ele><time>2026-04-12T15:53:12.227Z</time></trkpt><trkpt lat="43.4017267" lon="13.2040333"><ele>283.0</ele><time>2026-04-12T15:53:13.228Z</time></trkpt><trkpt lat="43.401605" lon="13.2038683"><ele>283.0</ele><time>2026-04-12T15:53:14.227Z</time></trkpt><trkpt lat="43.401495" lon="13.2037217"><ele>283.0</ele><time>2026-04-12T15:53:15.228Z</time></trkpt><trkpt lat="43.4013867" lon="13.203585"><ele>283.0</ele><time>2026-04-12T15:53:16.228Z</time></trkpt><trkpt lat="43.4012717" lon="13.2034783"><ele>283.0</ele><time>2026-04-12T15:53:17.228Z</time></trkpt><trkpt lat="43.401145" lon="13.20342"><ele>284.66666666666663</ele><time>2026-04-12T15:53:18.228Z</time></trkpt><trkpt lat="43.4009967" lon="13.2034217"><ele>286.3333333333333</ele><time>2026-04-12T15:53:19.228Z</time></trkpt><trkpt lat="43.40084" lon="13.2034717"><ele>288.0</ele><time>2026-04-12T15:53:20.228Z</time></trkpt><trkpt lat="43.4006733" lon="13.2035283"><ele>288.0</ele><time>2026-04-12T15:53:21.227Z</time></trkpt><trkpt lat="43.4005083" lon="13.2036117"><ele>288.0</ele><time>2026-04-12T15:53:22.228Z</time></trkpt><trkpt lat="43.40036" lon="13.20373"><ele>288.0</ele><time>2026-04-12T15:53:23.227Z</time></trkpt><trkpt lat="43.4002367" lon="13.2038783"><ele>291.0</ele><time>2026-04-12T15:53:24.228Z</time></trkpt><trkpt lat="43.400145" lon="13.20407"><ele>294.0</ele><time>2026-04-12T15:53:25.228Z</time></trkpt><trkpt lat="43.4000783" lon="13.204285"><ele>297.0</ele><time>2026-04-12T15:53:26.228Z</time></trkpt><trkpt lat="43.4000467" lon="13.2045117"><ele>297.0</ele><time>2026-04-12T15:53:27.228Z</time></trkpt><trkpt lat="43.4000383" lon="13.2047617"><ele>297.0</ele><time>2026-04-12T15:53:28.228Z</time></trkpt><trkpt lat="43.400045" lon="13.20503"><ele>297.0</ele><time>2026-04-12T15:53:29.227Z</time></trkpt><trkpt lat="43.4000583" lon="13.2052983"><ele>298.6666666666667</ele><time>2026-04-12T15:53:30.228Z</time></trkpt><trkpt lat="43.4000767" lon="13.2055467"><ele>300.33333333333337</ele><time>2026-04-12T15:53:31.228Z</time></trkpt><trkpt lat="43.4001283" lon="13.2057967"><ele>302.0</ele><time>2026-04-12T15:53:32.227Z</time></trkpt><trkpt lat="43.4002" lon="13.206045"><ele>302.6666666666667</ele><time>2026-04-12T15:53:33.228Z</time></trkpt><trkpt lat="43.4002933" lon="13.206305"><ele>303.3333333333333</ele><time>2026-04-12T15:53:34.227Z</time></trkpt><trkpt lat="43.40039" lon="13.2065617"><ele>304.0</ele><time>2026-04-12T15:53:35.228Z</time></trkpt><trkpt lat="43.4004917" lon="13.2068233"><ele>305.66666666666663</ele><time>2026-04-12T15:53:36.228Z</time></trkpt><trkpt lat="43.400595" lon="13.207095"><ele>307.3333333333333</ele><time>2026-04-12T15:53:37.228Z</time></trkpt><trkpt lat="43.4007067" lon="13.2073633"><ele>309.0</ele><time>2026-04-12T15:53:38.228Z</time></trkpt><trkpt lat="43.40081" lon="13.2076317"><ele>309.0</ele><time>2026-04-12T15:53:39.227Z</time></trkpt><trkpt lat="43.4009067" lon="13.2078833"><ele>309.0</ele><time>2026-04-12T15:53:40.228Z</time></trkpt><trkpt lat="43.4009933" lon="13.20811"><ele>309.0</ele><time>2026-04-12T15:53:41.227Z</time></trkpt><trkpt lat="43.4010783" lon="13.2083217"><ele>309.0</ele><time>2026-04-12T15:53:42.227Z</time></trkpt><trkpt lat="43.401145" lon="13.20853"><ele>309.0</ele><time>2026-04-12T15:53:43.228Z</time></trkpt><trkpt lat="43.401205" lon="13.2087333"><ele>309.0</ele><time>2026-04-12T15:53:44.227Z</time></trkpt><trkpt lat="43.4012433" lon="13.2089267"><ele>309.25</ele><time>2026-04-12T15:53:45.228Z</time></trkpt><trkpt lat="43.4012383" lon="13.2091067"><ele>309.5</ele><time>2026-04-12T15:53:46.227Z</time></trkpt><trkpt lat="43.4011883" lon="13.2092783"><ele>309.75</ele><time>2026-04-12T15:53:47.228Z</time></trkpt><trkpt lat="43.4011133" lon="13.2094017"><ele>310.0</ele><time>2026-04-12T15:53:48.227Z</time></trkpt><trkpt lat="43.4010133" lon="13.20946"><ele>310.0</ele><time>2026-04-12T15:53:49.228Z</time></trkpt><trkpt lat="43.400885" lon="13.209445"><ele>310.0</ele><time>2026-04-12T15:53:50.227Z</time></trkpt><trkpt lat="43.4007383" lon="13.20939"><ele>310.0</ele><time>2026-04-12T15:53:51.228Z</time></trkpt><trkpt lat="43.4005833" lon="13.20932"><ele>310.0</ele><time>2026-04-12T15:53:52.227Z</time></trkpt><trkpt lat="43.4004133" lon="13.2092483"><ele>311.3333333333333</ele><time>2026-04-12T15:53:53.228Z</time></trkpt><trkpt lat="43.40026" lon="13.2091783"><ele>312.6666666666667</ele><time>2026-04-12T15:53:54.227Z</time></trkpt><trkpt lat="43.4001167" lon="13.2091367"><ele>314.0</ele><time>2026-04-12T15:53:55.228Z</time></trkpt><trkpt lat="43.399975" lon="13.2091233"><ele>314.0</ele><time>2026-04-12T15:53:56.228Z</time></trkpt><trkpt lat="43.3998517" lon="13.2091917"><ele>314.0</ele><time>2026-04-12T15:53:57.227Z</time></trkpt><trkpt lat="43.3997617" lon="13.2093217"><ele>314.0</ele><time>2026-04-12T15:53:58.228Z</time></trkpt><trkpt lat="43.39971" lon="13.2095017"><ele>314.0</ele><time>2026-04-12T15:53:59.228Z</time></trkpt><trkpt lat="43.39967" lon="13.209705"><ele>318.0</ele><time>2026-04-12T15:54:00.227Z</time></trkpt><trkpt lat="43.399635" lon="13.2099217"><ele>322.0</ele><time>2026-04-12T15:54:01.228Z</time></trkpt><trkpt lat="43.3995933" lon="13.2101283"><ele>326.0</ele><time>2026-04-12T15:54:02.228Z</time></trkpt><trkpt lat="43.399555" lon="13.2103183"><ele>326.0</ele><time>2026-04-12T15:54:03.228Z</time></trkpt><trkpt lat="43.3995017" lon="13.2104933"><ele>326.0</ele><time>2026-04-12T15:54:04.227Z</time></trkpt><trkpt lat="43.399415" lon="13.2106367"><ele>326.0</ele><time>2026-04-12T15:54:05.227Z</time></trkpt><trkpt lat="43.3993033" lon="13.21074"><ele>326.0</ele><time>2026-04-12T15:54:06.227Z</time></trkpt><trkpt lat="43.3991883" lon="13.2107967"><ele>325.4</ele><time>2026-04-12T15:54:07.228Z</time></trkpt><trkpt lat="43.3990667" lon="13.2108033"><ele>324.8</ele><time>2026-04-12T15:54:08.228Z</time></trkpt><trkpt lat="43.3989633" lon="13.2107967"><ele>324.2</ele><time>2026-04-12T15:54:09.228Z</time></trkpt><trkpt lat="43.3988633" lon="13.2107717"><ele>323.59999999999997</ele><time>2026-04-12T15:54:10.228Z</time></trkpt><trkpt lat="43.3987633" lon="13.2107167"><ele>323.0</ele><time>2026-04-12T15:54:11.228Z</time></trkpt><trkpt lat="43.398665" lon="13.210645"><ele>325.0</ele><time>2026-04-12T15:54:12.228Z</time></trkpt><trkpt lat="43.39858" lon="13.2105383"><ele>327.0</ele><time>2026-04-12T15:54:13.227Z</time></trkpt><trkpt lat="43.3985183" lon="13.2103933"><ele>329.0</ele><time>2026-04-12T15:54:14.227Z</time></trkpt><trkpt lat="43.398465" lon="13.2102267"><ele>331.0</ele><time>2026-04-12T15:54:15.228Z</time></trkpt><trkpt lat="43.3984083" lon="13.2100317"><ele>331.0</ele><time>2026-04-12T15:54:16.228Z</time></trkpt><trkpt lat="43.3983483" lon="13.2098267"><ele>331.0</ele><time>2026-04-12T15:54:17.227Z</time></trkpt><trkpt lat="43.3982833" lon="13.2096117"><ele>331.0</ele><time>2026-04-12T15:54:18.228Z</time></trkpt><trkpt lat="43.3982217" lon="13.2093983"><ele>331.66666666666663</ele><time>2026-04-12T15:54:19.228Z</time></trkpt><trkpt lat="43.398145" lon="13.2091883"><ele>332.3333333333333</ele><time>2026-04-12T15:54:20.228Z</time></trkpt><trkpt lat="43.3980367" lon="13.2089717"><ele>333.0</ele><time>2026-04-12T15:54:21.228Z</time></trkpt><trkpt lat="43.39791" lon="13.20877"><ele>334.6666666666667</ele><time>2026-04-12T15:54:22.228Z</time></trkpt><trkpt lat="43.3977783" lon="13.2085567"><ele>336.33333333333337</ele><time>2026-04-12T15:54:23.228Z</time></trkpt><trkpt lat="43.39765" lon="13.208345"><ele>338.0</ele><time>2026-04-12T15:54:24.228Z</time></trkpt><trkpt lat="43.3975217" lon="13.20814"><ele>338.0</ele><time>2026-04-12T15:54:25.228Z</time></trkpt><trkpt lat="43.3973917" lon="13.20794"><ele>338.0</ele><time>2026-04-12T15:54:26.227Z</time></trkpt><trkpt lat="43.3972783" lon="13.2077433"><ele>338.0</ele><time>2026-04-12T15:54:27.228Z</time></trkpt><trkpt lat="43.3971567" lon="13.20754"><ele>340.0</ele><time>2026-04-12T15:54:28.227Z</time></trkpt><trkpt lat="43.3970333" lon="13.2073483"><ele>342.0</ele><time>2026-04-12T15:54:29.228Z</time></trkpt><trkpt lat="43.3969183" lon="13.2071517"><ele>344.0</ele><time>2026-04-12T15:54:30.228Z</time></trkpt><trkpt lat="43.3968067" lon="13.20695"><ele>344.0</ele><time>2026-04-12T15:54:31.228Z</time></trkpt><trkpt lat="43.39669" lon="13.2067433"><ele>344.0</ele><time>2026-04-12T15:54:32.228Z</time></trkpt><trkpt lat="43.396565" lon="13.20654"><ele>344.0</ele><time>2026-04-12T15:54:33.227Z</time></trkpt><trkpt lat="43.3964533" lon="13.2063317"><ele>342.6666666666667</ele><time>2026-04-12T15:54:34.228Z</time></trkpt><trkpt lat="43.3963517" lon="13.206135"><ele>341.3333333333333</ele><time>2026-04-12T15:54:35.228Z</time></trkpt><trkpt lat="43.396235" lon="13.2059483"><ele>340.0</ele><time>2026-04-12T15:54:36.228Z</time></trkpt><trkpt lat="43.3961217" lon="13.2057717"><ele>342.3333333333333</ele><time>2026-04-12T15:54:37.228Z</time></trkpt><trkpt lat="43.395995" lon="13.20561"><ele>344.6666666666667</ele><time>2026-04-12T15:54:38.228Z</time></trkpt><trkpt lat="43.3958683" lon="13.205485"><ele>347.0</ele><time>2026-04-12T15:54:39.228Z</time></trkpt><trkpt lat="43.3957233" lon="13.2054033"><ele>347.0</ele><time>2026-04-12T15:54:40.228Z</time></trkpt><trkpt lat="43.3955617" lon="13.20537"><ele>347.0</ele><time>2026-04-12T15:54:41.227Z</time></trkpt><trkpt lat="43.3954067" lon="13.2053683"><ele>347.0</ele><time>2026-04-12T15:54:42.228Z</time></trkpt><trkpt lat="43.3952267" lon="13.20541"><ele>348.33333333333337</ele><time>2026-04-12T15:54:43.228Z</time></trkpt><trkpt lat="43.39507" lon="13.2055117"><ele>349.6666666666667</ele><time>2026-04-12T15:54:44.228Z</time></trkpt><trkpt lat="43.3949" lon="13.205625"><ele>351.0</ele><time>2026-04-12T15:54:45.228Z</time></trkpt><trkpt lat="43.3947283" lon="13.205735"><ele>352.6666666666667</ele><time>2026-04-12T15:54:46.228Z</time></trkpt><trkpt lat="43.39456" lon="13.2058367"><ele>354.33333333333337</ele><time>2026-04-12T15:54:47.228Z</time></trkpt><trkpt lat="43.3944083" lon="13.205955"><ele>356.0</ele><time>2026-04-12T15:54:48.228Z</time></trkpt><trkpt lat="43.3942783" lon="13.2061117"><ele>356.0</ele><time>2026-04-12T15:54:49.228Z</time></trkpt><trkpt lat="43.39417" lon="13.2063117"><ele>356.0</ele><time>2026-04-12T15:54:50.228Z</time></trkpt><trkpt lat="43.394085" lon="13.206545"><ele>356.0</ele><time>2026-04-12T15:54:51.228Z</time></trkpt><trkpt lat="43.39401" lon="13.206785"><ele>357.33333333333337</ele><time>2026-04-12T15:54:52.228Z</time></trkpt><trkpt lat="43.3939233" lon="13.20701"><ele>358.6666666666667</ele><time>2026-04-12T15:54:53.228Z</time></trkpt><trkpt lat="43.393835" lon="13.2072133"><ele>360.0</ele><time>2026-04-12T15:54:54.227Z</time></trkpt><trkpt lat="43.39375" lon="13.2074"><ele>362.75</ele><time>2026-04-12T15:54:55.227Z</time></trkpt><trkpt lat="43.393655" lon="13.207545"><ele>365.5</ele><time>2026-04-12T15:54:56.228Z</time></trkpt><trkpt lat="43.3935383" lon="13.2076367"><ele>368.25</ele><time>2026-04-12T15:54:57.228Z</time></trkpt><trkpt lat="43.3933983" lon="13.2077067"><ele>371.0</ele><time>2026-04-12T15:54:58.228Z</time></trkpt><trkpt lat="43.39324" lon="13.2077683"><ele>371.0</ele><time>2026-04-12T15:54:59.228Z</time></trkpt><trkpt lat="43.393065" lon="13.2078233"><ele>371.0</ele><time>2026-04-12T15:55:00.227Z</time></trkpt><trkpt lat="43.39289" lon="13.207875"><ele>371.0</ele><time>2026-04-12T15:55:01.228Z</time></trkpt><trkpt lat="43.3927183" lon="13.2079317"><ele>371.25</ele><time>2026-04-12T15:55:02.227Z</time></trkpt><trkpt lat="43.39256" lon="13.207985"><ele>371.5</ele><time>2026-04-12T15:55:03.228Z</time></trkpt><trkpt lat="43.3924367" lon="13.2080767"><ele>371.75</ele><time>2026-04-12T15:55:04.228Z</time></trkpt><trkpt lat="43.3923283" lon="13.2082083"><ele>372.0</ele><time>2026-04-12T15:55:05.228Z</time></trkpt><trkpt lat="43.3922367" lon="13.20838"><ele>375.25</ele><time>2026-04-12T15:55:06.228Z</time></trkpt><trkpt lat="43.3921533" lon="13.2085683"><ele>378.5</ele><time>2026-04-12T15:55:07.228Z</time></trkpt><trkpt lat="43.3920767" lon="13.2087483"><ele>381.75</ele><time>2026-04-12T15:55:08.228Z</time></trkpt><trkpt lat="43.392" lon="13.208905"><ele>385.0</ele><time>2026-04-12T15:55:09.227Z</time></trkpt><trkpt lat="43.3919333" lon="13.2090583"><ele>385.0</ele><time>2026-04-12T15:55:10.228Z</time></trkpt><trkpt lat="43.39187" lon="13.2091817"><ele>385.0</ele><time>2026-04-12T15:55:11.228Z</time></trkpt><trkpt lat="43.3918" lon="13.20925"><ele>385.0</ele><time>2026-04-12T15:55:12.228Z</time></trkpt><trkpt lat="43.3917" lon="13.209185"><ele>385.0</ele><time>2026-04-12T15:55:14.227Z</time></trkpt><trkpt lat="43.3916933" lon="13.209075"><ele>385.0</ele><time>2026-04-12T15:55:15.228Z</time></trkpt><trkpt lat="43.3917017" lon="13.2089217"><ele>386.25</ele><time>2026-04-12T15:55:16.228Z</time></trkpt><trkpt lat="43.3917133" lon="13.20875"><ele>387.5</ele><time>2026-04-12T15:55:17.227Z</time></trkpt><trkpt lat="43.3917167" lon="13.2085783"><ele>388.75</ele><time>2026-04-12T15:55:18.227Z</time></trkpt><trkpt lat="43.3917217" lon="13.2084017"><ele>390.0</ele><time>2026-04-12T15:55:19.228Z</time></trkpt><trkpt lat="43.3917267" lon="13.2082233"><ele>390.75</ele><time>2026-04-12T15:55:20.227Z</time></trkpt><trkpt lat="43.3917317" lon="13.2080483"><ele>391.5</ele><time>2026-04-12T15:55:21.228Z</time></trkpt><trkpt lat="43.3917233" lon="13.20787"><ele>392.25</ele><time>2026-04-12T15:55:22.228Z</time></trkpt><trkpt lat="43.3916967" lon="13.2076967"><ele>393.0</ele><time>2026-04-12T15:55:23.228Z</time></trkpt><trkpt lat="43.3916517" lon="13.20754"><ele>393.0</ele><time>2026-04-12T15:55:24.227Z</time></trkpt><trkpt lat="43.3916033" lon="13.2073933"><ele>393.0</ele><time>2026-04-12T15:55:25.228Z</time></trkpt><trkpt lat="43.3915433" lon="13.20725"><ele>393.0</ele><time>2026-04-12T15:55:26.228Z</time></trkpt><trkpt lat="43.391485" lon="13.2071167"><ele>393.0</ele><time>2026-04-12T15:55:27.227Z</time></trkpt><trkpt lat="43.3914233" lon="13.2069833"><ele>392.2</ele><time>2026-04-12T15:55:28.228Z</time></trkpt><trkpt lat="43.391345" lon="13.2068567"><ele>391.4</ele><time>2026-04-12T15:55:29.227Z</time></trkpt><trkpt lat="43.391275" lon="13.206735"><ele>390.59999999999997</ele><time>2026-04-12T15:55:30.228Z</time></trkpt><trkpt lat="43.391195" lon="13.2066267"><ele>389.79999999999995</ele><time>2026-04-12T15:55:31.228Z</time></trkpt><trkpt lat="43.39111" lon="13.2065467"><ele>389.0</ele><time>2026-04-12T15:55:32.227Z</time></trkpt><trkpt lat="43.391015" lon="13.2064917"><ele>388.0</ele><time>2026-04-12T15:55:33.228Z</time></trkpt><trkpt lat="43.3909067" lon="13.2064783"><ele>387.0</ele><time>2026-04-12T15:55:34.227Z</time></trkpt><trkpt lat="43.3907967" lon="13.2064883"><ele>386.0</ele><time>2026-04-12T15:55:35.228Z</time></trkpt><trkpt lat="43.39069" lon="13.20652"><ele>385.0</ele><time>2026-04-12T15:55:36.228Z</time></trkpt><trkpt lat="43.39059" lon="13.206565"><ele>384.0</ele><time>2026-04-12T15:55:37.228Z</time></trkpt><trkpt lat="43.3905067" lon="13.20663"><ele>388.79999999999995</ele><time>2026-04-12T15:55:38.227Z</time></trkpt><trkpt lat="43.3904217" lon="13.2067"><ele>393.59999999999997</ele><time>2026-04-12T15:55:39.228Z</time></trkpt><trkpt lat="43.3903317" lon="13.2067517"><ele>398.4</ele><time>2026-04-12T15:55:40.227Z</time></trkpt><trkpt lat="43.3902417" lon="13.2067867"><ele>403.2</ele><time>2026-04-12T15:55:41.228Z</time></trkpt><trkpt lat="43.3901517" lon="13.2067883"><ele>408.0</ele><time>2026-04-12T15:55:42.228Z</time></trkpt><trkpt lat="43.3900583" lon="13.206745"><ele>408.0</ele><time>2026-04-12T15:55:43.227Z</time></trkpt><trkpt lat="43.3899933" lon="13.20666"><ele>408.0</ele><time>2026-04-12T15:55:44.228Z</time></trkpt><trkpt lat="43.389945" lon="13.2065533"><ele>408.0</ele><time>2026-04-12T15:55:45.228Z</time></trkpt><trkpt lat="43.3899067" lon="13.206435"><ele>408.0</ele><time>2026-04-12T15:55:46.227Z</time></trkpt><trkpt lat="43.389865" lon="13.206315"><ele>408.0</ele><time>2026-04-12T15:55:47.228Z</time></trkpt><trkpt lat="43.3898067" lon="13.2062033"><ele>406.5</ele><time>2026-04-12T15:55:48.227Z</time></trkpt><trkpt lat="43.3897367" lon="13.2061217"><ele>405.0</ele><time>2026-04-12T15:55:49.228Z</time></trkpt><trkpt lat="43.38965" lon="13.206075"><ele>403.5</ele><time>2026-04-12T15:55:50.228Z</time></trkpt><trkpt lat="43.3895633" lon="13.2060333"><ele>402.0</ele><time>2026-04-12T15:55:51.228Z</time></trkpt><trkpt lat="43.3894867" lon="13.2059767"><ele>400.5</ele><time>2026-04-12T15:55:52.228Z</time></trkpt><trkpt lat="43.3894417" lon="13.2058867"><ele>399.0</ele><time>2026-04-12T15:55:53.228Z</time></trkpt><trkpt lat="43.3894267" lon="13.2057733"><ele>404.25</ele><time>2026-04-12T15:55:54.228Z</time></trkpt><trkpt lat="43.3894333" lon="13.2056367"><ele>409.5</ele><time>2026-04-12T15:55:55.228Z</time></trkpt><trkpt lat="43.3894433" lon="13.205475"><ele>414.75</ele><time>2026-04-12T15:55:56.227Z</time></trkpt><trkpt lat="43.389455" lon="13.2052783"><ele>420.0</ele><time>2026-04-12T15:55:57.228Z</time></trkpt><trkpt lat="43.3894683" lon="13.2050217"><ele>420.66666666666663</ele><time>2026-04-12T15:55:58.228Z</time></trkpt><trkpt lat="43.389475" lon="13.2047233"><ele>421.3333333333333</ele><time>2026-04-12T15:55:59.228Z</time></trkpt><trkpt lat="43.38947" lon="13.2044217"><ele>422.0</ele><time>2026-04-12T15:56:00.228Z</time></trkpt><trkpt lat="43.389455" lon="13.20414"><ele>422.0</ele><time>2026-04-12T15:56:01.228Z</time></trkpt><trkpt lat="43.3894333" lon="13.2038733"><ele>422.0</ele><time>2026-04-12T15:56:02.228Z</time></trkpt><trkpt lat="43.3894017" lon="13.203615"><ele>422.0</ele><time>2026-04-12T15:56:03.228Z</time></trkpt><trkpt lat="43.3893733" lon="13.2033717"><ele>422.0</ele><time>2026-04-12T15:56:04.227Z</time></trkpt><trkpt lat="43.3893467" lon="13.2031517"><ele>422.0</ele><time>2026-04-12T15:56:05.228Z</time></trkpt><trkpt lat="43.389315" lon="13.2029467"><ele>422.0</ele><time>2026-04-12T15:56:06.228Z</time></trkpt><trkpt lat="43.3892883" lon="13.2027633"><ele>422.0</ele><time>2026-04-12T15:56:07.228Z</time></trkpt><trkpt lat="43.3892617" lon="13.2026083"><ele>422.0</ele><time>2026-04-12T15:56:08.228Z</time></trkpt><trkpt lat="43.3892017" lon="13.2024967"><ele>422.0</ele><time>2026-04-12T15:56:09.228Z</time></trkpt><trkpt lat="43.3891317" lon="13.2024533"><ele>422.0</ele><time>2026-04-12T15:56:10.227Z</time></trkpt><trkpt lat="43.38906" lon="13.2024917"><ele>422.0</ele><time>2026-04-12T15:56:11.227Z</time></trkpt><trkpt lat="43.389005" lon="13.2025833"><ele>422.0</ele><time>2026-04-12T15:56:12.228Z</time></trkpt><trkpt lat="43.3889683" lon="13.2027133"><ele>422.0</ele><time>2026-04-12T15:56:13.228Z</time></trkpt><trkpt lat="43.38896" lon="13.20291"><ele>422.0</ele><time>2026-04-12T15:56:14.228Z</time></trkpt><trkpt lat="43.3889467" lon="13.2031333"><ele>422.0</ele><time>2026-04-12T15:56:15.228Z</time></trkpt><trkpt lat="43.3889233" lon="13.203375"><ele>422.0</ele><time>2026-04-12T15:56:16.228Z</time></trkpt><trkpt lat="43.3888883" lon="13.2036133"><ele>422.0</ele><time>2026-04-12T15:56:17.228Z</time></trkpt><trkpt lat="43.3888467" lon="13.2038367"><ele>422.0</ele><time>2026-04-12T15:56:18.228Z</time></trkpt><trkpt lat="43.3888167" lon="13.2040717"><ele>429.0</ele><time>2026-04-12T15:56:19.228Z</time></trkpt><trkpt lat="43.3887783" lon="13.2042967"><ele>436.0</ele><time>2026-04-12T15:56:20.228Z</time></trkpt><trkpt lat="43.3887233" lon="13.2045117"><ele>443.0</ele><time>2026-04-12T15:56:21.227Z</time></trkpt><trkpt lat="43.3886417" lon="13.204735"><ele>442.0</ele><time>2026-04-12T15:56:22.227Z</time></trkpt><trkpt lat="43.3885417" lon="13.2049567"><ele>441.0</ele><time>2026-04-12T15:56:23.228Z</time></trkpt><trkpt lat="43.3884433" lon="13.20518"><ele>440.0</ele><time>2026-04-12T15:56:24.228Z</time></trkpt><trkpt lat="43.3883283" lon="13.2054167"><ele>440.0</ele><time>2026-04-12T15:56:25.227Z</time></trkpt><trkpt lat="43.3882183" lon="13.20565"><ele>440.0</ele><time>2026-04-12T15:56:26.228Z</time></trkpt><trkpt lat="43.3881233" lon="13.2058683"><ele>440.0</ele><time>2026-04-12T15:56:27.228Z</time></trkpt><trkpt lat="43.3880433" lon="13.2060817"><ele>447.0</ele><time>2026-04-12T15:56:28.227Z</time></trkpt><trkpt lat="43.3879883" lon="13.20631"><ele>454.0</ele><time>2026-04-12T15:56:29.228Z</time></trkpt><trkpt lat="43.3879633" lon="13.2065633"><ele>461.0</ele><time>2026-04-12T15:56:30.228Z</time></trkpt><trkpt lat="43.38796" lon="13.2068083"><ele>461.0</ele><time>2026-04-12T15:56:31.228Z</time></trkpt><trkpt lat="43.3879617" lon="13.207045"><ele>461.0</ele><time>2026-04-12T15:56:32.228Z</time></trkpt><trkpt lat="43.3879617" lon="13.2072667"><ele>461.0</ele><time>2026-04-12T15:56:33.227Z</time></trkpt><trkpt lat="43.3879617" lon="13.20748"><ele>460.0</ele><time>2026-04-12T15:56:34.228Z</time></trkpt><trkpt lat="43.3879617" lon="13.20768"><ele>459.0</ele><time>2026-04-12T15:56:35.228Z</time></trkpt><trkpt lat="43.3879617" lon="13.2078667"><ele>458.0</ele><time>2026-04-12T15:56:36.228Z</time></trkpt><trkpt lat="43.3879533" lon="13.20803"><ele>457.0</ele><time>2026-04-12T15:56:37.228Z</time></trkpt><trkpt lat="43.38795" lon="13.208185"><ele>456.6</ele><time>2026-04-12T15:56:38.228Z</time></trkpt><trkpt lat="43.3879533" lon="13.2083217"><ele>456.20000000000005</ele><time>2026-04-12T15:56:39.227Z</time></trkpt><trkpt lat="43.3879517" lon="13.208455"><ele>455.8</ele><time>2026-04-12T15:56:40.228Z</time></trkpt><trkpt lat="43.3879417" lon="13.208585"><ele>455.4</ele><time>2026-04-12T15:56:41.228Z</time></trkpt><trkpt lat="43.3879217" lon="13.2087033"><ele>455.0</ele><time>2026-04-12T15:56:42.228Z</time></trkpt><trkpt lat="43.3878783" lon="13.20879"><ele>454.99999999999994</ele><time>2026-04-12T15:56:43.228Z</time></trkpt><trkpt lat="43.3878117" lon="13.2088467"><ele>455.0</ele><time>2026-04-12T15:56:44.228Z</time></trkpt><trkpt lat="43.38773" lon="13.2088667"><ele>455.0</ele><time>2026-04-12T15:56:45.228Z</time></trkpt><trkpt lat="43.3876467" lon="13.2088533"><ele>455.0</ele><time>2026-04-12T15:56:46.228Z</time></trkpt><trkpt lat="43.3875683" lon="13.20881"><ele>454.99999999999994</ele><time>2026-04-12T15:56:47.228Z</time></trkpt><trkpt lat="43.3875033" lon="13.2087217"><ele>455.0</ele><time>2026-04-12T15:56:48.228Z</time></trkpt><trkpt lat="43.3874717" lon="13.2085883"><ele>455.0</ele><time>2026-04-12T15:56:49.228Z</time></trkpt><trkpt lat="43.387465" lon="13.2084167"><ele>455.0</ele><time>2026-04-12T15:56:50.227Z</time></trkpt><trkpt lat="43.387465" lon="13.208225"><ele>455.0</ele><time>2026-04-12T15:56:51.228Z</time></trkpt><trkpt lat="43.3874567" lon="13.2080483"><ele>455.0</ele><time>2026-04-12T15:56:52.228Z</time></trkpt><trkpt lat="43.3874417" lon="13.2078617"><ele>455.66666666666663</ele><time>2026-04-12T15:56:53.228Z</time></trkpt><trkpt lat="43.387425" lon="13.2076433"><ele>456.33333333333337</ele><time>2026-04-12T15:56:54.227Z</time></trkpt><trkpt lat="43.387415" lon="13.20739"><ele>457.0</ele><time>2026-04-12T15:56:55.228Z</time></trkpt><trkpt lat="43.38742" lon="13.2071133"><ele>458.33333333333337</ele><time>2026-04-12T15:56:56.228Z</time></trkpt><trkpt lat="43.387415" lon="13.2068217"><ele>459.66666666666663</ele><time>2026-04-12T15:56:57.227Z</time></trkpt><trkpt lat="43.3874083" lon="13.2065267"><ele>461.0</ele><time>2026-04-12T15:56:58.227Z</time></trkpt><trkpt lat="43.3874033" lon="13.2062383"><ele>461.66666666666663</ele><time>2026-04-12T15:56:59.228Z</time></trkpt><trkpt lat="43.3873933" lon="13.2059767"><ele>462.33333333333337</ele><time>2026-04-12T15:57:00.228Z</time></trkpt><trkpt lat="43.3873733" lon="13.20572"><ele>463.0</ele><time>2026-04-12T15:57:01.227Z</time></trkpt><trkpt lat="43.38737" lon="13.20548"><ele>463.25</ele><time>2026-04-12T15:57:02.228Z</time></trkpt><trkpt lat="43.3873583" lon="13.2052667"><ele>463.5</ele><time>2026-04-12T15:57:03.228Z</time></trkpt><trkpt lat="43.3873483" lon="13.2050833"><ele>463.75</ele><time>2026-04-12T15:57:04.228Z</time></trkpt><trkpt lat="43.387335" lon="13.20492"><ele>464.0</ele><time>2026-04-12T15:57:05.227Z</time></trkpt><trkpt lat="43.3872983" lon="13.204805"><ele>464.0</ele><time>2026-04-12T15:57:06.228Z</time></trkpt><trkpt lat="43.3872383" lon="13.2047483"><ele>464.0</ele><time>2026-04-12T15:57:07.228Z</time></trkpt><trkpt lat="43.3871733" lon="13.204775"><ele>464.0</ele><time>2026-04-12T15:57:08.228Z</time></trkpt><trkpt lat="43.38713" lon="13.204875"><ele>464.0</ele><time>2026-04-12T15:57:09.227Z</time></trkpt><trkpt lat="43.3871017" lon="13.2050217"><ele>464.0</ele><time>2026-04-12T15:57:10.227Z</time></trkpt><trkpt lat="43.3870883" lon="13.2052033"><ele>470.3333333333333</ele><time>2026-04-12T15:57:11.227Z</time></trkpt><trkpt lat="43.387075" lon="13.2054117"><ele>476.66666666666663</ele><time>2026-04-12T15:57:12.228Z</time></trkpt><trkpt lat="43.3870633" lon="13.2056367"><ele>483.0</ele><time>2026-04-12T15:57:13.227Z</time></trkpt><trkpt lat="43.3870467" lon="13.20586"><ele>483.0</ele><time>2026-04-12T15:57:14.227Z</time></trkpt><trkpt lat="43.3870283" lon="13.2061017"><ele>483.0</ele><time>2026-04-12T15:57:15.227Z</time></trkpt><trkpt lat="43.3870133" lon="13.2063383"><ele>483.0</ele><time>2026-04-12T15:57:16.227Z</time></trkpt><trkpt lat="43.3869883" lon="13.206565"><ele>483.33333333333337</ele><time>2026-04-12T15:57:17.228Z</time></trkpt><trkpt lat="43.3869467" lon="13.20679"><ele>483.6666666666667</ele><time>2026-04-12T15:57:18.228Z</time></trkpt><trkpt lat="43.3868767" lon="13.2069817"><ele>484.0</ele><time>2026-04-12T15:57:19.228Z</time></trkpt><trkpt lat="43.38679" lon="13.2071617"><ele>484.0</ele><time>2026-04-12T15:57:20.228Z</time></trkpt><trkpt lat="43.386675" lon="13.2073267"><ele>484.0</ele><time>2026-04-12T15:57:21.228Z</time></trkpt><trkpt lat="43.3865433" lon="13.2074667"><ele>484.0</ele><time>2026-04-12T15:57:22.228Z</time></trkpt><trkpt lat="43.386405" lon="13.2075833"><ele>485.6666666666667</ele><time>2026-04-12T15:57:23.227Z</time></trkpt><trkpt lat="43.3862567" lon="13.2076767"><ele>487.33333333333337</ele><time>2026-04-12T15:57:24.228Z</time></trkpt><trkpt lat="43.3861" lon="13.20775"><ele>489.0</ele><time>2026-04-12T15:57:25.227Z</time></trkpt><trkpt lat="43.3859283" lon="13.2077967"><ele>489.0</ele><time>2026-04-12T15:57:26.228Z</time></trkpt><trkpt lat="43.3857483" lon="13.2078283"><ele>489.0</ele><time>2026-04-12T15:57:27.227Z</time></trkpt><trkpt lat="43.385555" lon="13.2078517"><ele>489.0</ele><time>2026-04-12T15:57:28.228Z</time></trkpt><trkpt lat="43.38536" lon="13.20788"><ele>494.0</ele><time>2026-04-12T15:57:29.228Z</time></trkpt><trkpt lat="43.3851733" lon="13.20792"><ele>499.0</ele><time>2026-04-12T15:57:30.227Z</time></trkpt><trkpt lat="43.3849983" lon="13.2079583"><ele>504.0</ele><time>2026-04-12T15:57:31.228Z</time></trkpt><trkpt lat="43.38482" lon="13.2080033"><ele>504.33333333333337</ele><time>2026-04-12T15:57:32.228Z</time></trkpt><trkpt lat="43.38465" lon="13.2080567"><ele>504.6666666666667</ele><time>2026-04-12T15:57:33.228Z</time></trkpt><trkpt lat="43.3844867" lon="13.2080967"><ele>505.0</ele><time>2026-04-12T15:57:34.227Z</time></trkpt><trkpt lat="43.3843267" lon="13.2081633"><ele>505.0</ele><time>2026-04-12T15:57:35.228Z</time></trkpt><trkpt lat="43.3841733" lon="13.208245"><ele>505.0</ele><time>2026-04-12T15:57:36.228Z</time></trkpt><trkpt lat="43.3840233" lon="13.20835"><ele>505.0</ele><time>2026-04-12T15:57:37.228Z</time></trkpt><trkpt lat="43.383885" lon="13.20848"><ele>513.6666666666667</ele><time>2026-04-12T15:57:38.228Z</time></trkpt><trkpt lat="43.3837467" lon="13.2086067"><ele>522.3333333333334</ele><time>2026-04-12T15:57:39.228Z</time></trkpt><trkpt lat="43.3836033" lon="13.2087533"><ele>531.0</ele><time>2026-04-12T15:57:40.228Z</time></trkpt><trkpt lat="43.3834617" lon="13.2088967"><ele>523.0</ele><time>2026-04-12T15:57:41.228Z</time></trkpt><trkpt lat="43.3833267" lon="13.2090267"><ele>515.0</ele><time>2026-04-12T15:57:42.228Z</time></trkpt><trkpt lat="43.3831967" lon="13.2091633"><ele>507.0</ele><time>2026-04-12T15:57:43.228Z</time></trkpt><trkpt lat="43.3830717" lon="13.2093033"><ele>519.0</ele><time>2026-04-12T15:57:44.228Z</time></trkpt><trkpt lat="43.38294" lon="13.20944"><ele>531.0</ele><time>2026-04-12T15:57:45.228Z</time></trkpt><trkpt lat="43.3828" lon="13.209565"><ele>543.0</ele><time>2026-04-12T15:57:46.227Z</time></trkpt><trkpt lat="43.3826467" lon="13.2096667"><ele>543.0</ele><time>2026-04-12T15:57:47.228Z</time></trkpt><trkpt lat="43.3824883" lon="13.2097633"><ele>543.0</ele><time>2026-04-12T15:57:48.228Z</time></trkpt><trkpt lat="43.3823283" lon="13.2098317"><ele>543.0</ele><time>2026-04-12T15:57:49.227Z</time></trkpt><trkpt lat="43.3821633" lon="13.2099067"><ele>543.0</ele><time>2026-04-12T15:57:50.227Z</time></trkpt><trkpt lat="43.3820117" lon="13.210005"><ele>543.0</ele><time>2026-04-12T15:57:51.227Z</time></trkpt><trkpt lat="43.38187" lon="13.2101117"><ele>543.0</ele><time>2026-04-12T15:57:52.228Z</time></trkpt><trkpt lat="43.38173" lon="13.2102233"><ele>543.0</ele><time>2026-04-12T15:57:53.228Z</time></trkpt><trkpt lat="43.3815917" lon="13.2103317"><ele>543.0</ele><time>2026-04-12T15:57:54.227Z</time></trkpt><trkpt lat="43.3814617" lon="13.2104567"><ele>543.0</ele><time>2026-04-12T15:57:55.228Z</time></trkpt><trkpt lat="43.3813467" lon="13.2105883"><ele>542.0</ele><time>2026-04-12T15:57:56.227Z</time></trkpt><trkpt lat="43.3812317" lon="13.2107217"><ele>541.0</ele><time>2026-04-12T15:57:57.228Z</time></trkpt><trkpt lat="43.38111" lon="13.21086"><ele>540.0</ele><time>2026-04-12T15:57:58.227Z</time></trkpt><trkpt lat="43.3809867" lon="13.211"><ele>540.0</ele><time>2026-04-12T15:57:59.227Z</time></trkpt><trkpt lat="43.3808517" lon="13.2111117"><ele>540.0</ele><time>2026-04-12T15:58:00.227Z</time></trkpt><trkpt lat="43.3807117" lon="13.2112033"><ele>540.0</ele><time>2026-04-12T15:58:01.227Z</time></trkpt><trkpt lat="43.38057" lon="13.2112667"><ele>541.0</ele><time>2026-04-12T15:58:02.228Z</time></trkpt><trkpt lat="43.380435" lon="13.2113217"><ele>542.0</ele><time>2026-04-12T15:58:03.227Z</time></trkpt><trkpt lat="43.3802783" lon="13.211355"><ele>543.0</ele><time>2026-04-12T15:58:04.228Z</time></trkpt><trkpt lat="43.3801333" lon="13.211365"><ele>544.0</ele><time>2026-04-12T15:58:05.228Z</time></trkpt><trkpt lat="43.3799917" lon="13.2113583"><ele>544.0</ele><time>2026-04-12T15:58:06.227Z</time></trkpt><trkpt lat="43.3798517" lon="13.21135"><ele>544.0</ele><time>2026-04-12T15:58:07.227Z</time></trkpt><trkpt lat="43.37972" lon="13.21134"><ele>544.0</ele><time>2026-04-12T15:58:08.228Z</time></trkpt><trkpt lat="43.3796067" lon="13.211335"><ele>544.0</ele><time>2026-04-12T15:58:09.227Z</time></trkpt><trkpt lat="43.3795067" lon="13.2113333"><ele>544.0</ele><time>2026-04-12T15:58:10.228Z</time></trkpt><trkpt lat="43.3794167" lon="13.2113417"><ele>544.0</ele><time>2026-04-12T15:58:11.227Z</time></trkpt><trkpt lat="43.3793383" lon="13.2113583"><ele>544.0</ele><time>2026-04-12T15:58:12.227Z</time></trkpt><trkpt lat="43.37927" lon="13.2113833"><ele>544.0</ele><time>2026-04-12T15:58:13.227Z</time></trkpt><trkpt lat="43.3792067" lon="13.2114133"><ele>544.0</ele><time>2026-04-12T15:58:14.227Z</time></trkpt><trkpt lat="43.3791283" lon="13.211505"><ele>544.0</ele><time>2026-04-12T15:58:16.227Z</time></trkpt><trkpt lat="43.3791467" lon="13.211675"><ele>544.0</ele><time>2026-04-12T15:58:18.227Z</time></trkpt><trkpt lat="43.379175" lon="13.2117633"><ele>544.0</ele><time>2026-04-12T15:58:19.227Z</time></trkpt><trkpt lat="43.3792083" lon="13.2118483"><ele>544.0</ele><time>2026-04-12T15:58:20.228Z</time></trkpt><trkpt lat="43.3792367" lon="13.2119283"><ele>544.0</ele><time>2026-04-12T15:58:21.228Z</time></trkpt><trkpt lat="43.3792717" lon="13.2120067"><ele>544.0</ele><time>2026-04-12T15:58:22.228Z</time></trkpt><trkpt lat="43.3793017" lon="13.21215"><ele>544.0</ele><time>2026-04-12T15:58:24.227Z</time></trkpt><trkpt lat="43.3792467" lon="13.212225"><ele>543.9999999999999</ele><time>2026-04-12T15:58:26.228Z</time></trkpt><trkpt lat="43.3791867" lon="13.2121917"><ele>544.0</ele><time>2026-04-12T15:58:27.228Z</time></trkpt><trkpt lat="43.3791317" lon="13.2121417"><ele>544.0</ele><time>2026-04-12T15:58:28.228Z</time></trkpt><trkpt lat="43.3790817" lon="13.2120883"><ele>544.0</ele><time>2026-04-12T15:58:29.228Z</time></trkpt><trkpt lat="43.37902" lon="13.212055"><ele>544.0</ele><time>2026-04-12T15:58:30.228Z</time></trkpt><trkpt lat="43.3789517" lon="13.2120217"><ele>543.9999999999999</ele><time>2026-04-12T15:58:31.227Z</time></trkpt><trkpt lat="43.3788733" lon="13.21201"><ele>544.0</ele><time>2026-04-12T15:58:32.228Z</time></trkpt><trkpt lat="43.3787917" lon="13.211985"><ele>547.1666666666667</ele><time>2026-04-12T15:58:33.227Z</time></trkpt><trkpt lat="43.37871" lon="13.2119883"><ele>550.3333333333334</ele><time>2026-04-12T15:58:34.228Z</time></trkpt><trkpt lat="43.3786333" lon="13.21199"><ele>553.5</ele><time>2026-04-12T15:58:35.227Z</time></trkpt><trkpt lat="43.3785583" lon="13.2119933"><ele>556.6666666666666</ele><time>2026-04-12T15:58:36.228Z</time></trkpt><trkpt lat="43.3784817" lon="13.21198"><ele>559.8333333333333</ele><time>2026-04-12T15:58:37.228Z</time></trkpt><trkpt lat="43.3784067" lon="13.2119683"><ele>563.0</ele><time>2026-04-12T15:58:38.228Z</time></trkpt><trkpt lat="43.378335" lon="13.211945"><ele>563.0</ele><time>2026-04-12T15:58:39.227Z</time></trkpt><trkpt lat="43.3782717" lon="13.211915"><ele>563.0</ele><time>2026-04-12T15:58:40.228Z</time></trkpt><trkpt lat="43.3781833" lon="13.21184"><ele>563.0</ele><time>2026-04-12T15:58:42.228Z</time></trkpt><trkpt lat="43.37817" lon="13.2117533"><ele>563.0</ele><time>2026-04-12T15:58:43.227Z</time></trkpt><trkpt lat="43.3781733" lon="13.21166"><ele>563.0</ele><time>2026-04-12T15:58:44.228Z</time></trkpt><trkpt lat="43.3781883" lon="13.21156"><ele>563.0</ele><time>2026-04-12T15:58:45.228Z</time></trkpt><trkpt lat="43.37822" lon="13.2114383"><ele>563.1999999999999</ele><time>2026-04-12T15:58:46.228Z</time></trkpt><trkpt lat="43.3782517" lon="13.2113033"><ele>563.4</ele><time>2026-04-12T15:58:47.227Z</time></trkpt><trkpt lat="43.3782883" lon="13.211155"><ele>563.5999999999999</ele><time>2026-04-12T15:58:48.228Z</time></trkpt><trkpt lat="43.37832" lon="13.21102"><ele>563.8</ele><time>2026-04-12T15:58:49.228Z</time></trkpt><trkpt lat="43.378365" lon="13.2108867"><ele>564.0</ele><time>2026-04-12T15:58:50.228Z</time></trkpt><trkpt lat="43.378415" lon="13.2107483"><ele>565.0</ele><time>2026-04-12T15:58:51.228Z</time></trkpt><trkpt lat="43.378465" lon="13.2106083"><ele>566.0</ele><time>2026-04-12T15:58:52.227Z</time></trkpt><trkpt lat="43.37853" lon="13.2104733"><ele>567.0</ele><time>2026-04-12T15:58:53.227Z</time></trkpt><trkpt lat="43.3786117" lon="13.2103467"><ele>568.0</ele><time>2026-04-12T15:58:54.227Z</time></trkpt><trkpt lat="43.37871" lon="13.210235"><ele>568.0</ele><time>2026-04-12T15:58:55.228Z</time></trkpt><trkpt lat="43.3788217" lon="13.2101417"><ele>568.0</ele><time>2026-04-12T15:58:56.228Z</time></trkpt><trkpt lat="43.3789367" lon="13.21004"><ele>568.0</ele><time>2026-04-12T15:58:57.228Z</time></trkpt><trkpt lat="43.3790483" lon="13.20995"><ele>568.0</ele><time>2026-04-12T15:58:58.228Z</time></trkpt><trkpt lat="43.3791433" lon="13.20987"><ele>567.8333333333334</ele><time>2026-04-12T15:58:59.228Z</time></trkpt><trkpt lat="43.3792283" lon="13.2097867"><ele>567.6666666666667</ele><time>2026-04-12T15:59:00.228Z</time></trkpt><trkpt lat="43.3792933" lon="13.2096933"><ele>567.5</ele><time>2026-04-12T15:59:01.227Z</time></trkpt><trkpt lat="43.37931" lon="13.2095883"><ele>567.3333333333334</ele><time>2026-04-12T15:59:02.228Z</time></trkpt><trkpt lat="43.379295" lon="13.2094767"><ele>567.1666666666666</ele><time>2026-04-12T15:59:03.228Z</time></trkpt><trkpt lat="43.37925" lon="13.2093833"><ele>567.0</ele><time>2026-04-12T15:59:04.228Z</time></trkpt><trkpt lat="43.3791433" lon="13.209355"><ele>567.0</ele><time>2026-04-12T15:59:05.228Z</time></trkpt><trkpt lat="43.3790433" lon="13.209365"><ele>567.0</ele><time>2026-04-12T15:59:06.228Z</time></trkpt><trkpt lat="43.3789417" lon="13.2094"><ele>567.0</ele><time>2026-04-12T15:59:07.227Z</time></trkpt><trkpt lat="43.3788383" lon="13.2094333"><ele>567.0</ele><time>2026-04-12T15:59:08.227Z</time></trkpt><trkpt lat="43.3787333" lon="13.2094717"><ele>567.0</ele><time>2026-04-12T15:59:09.228Z</time></trkpt><trkpt lat="43.3786283" lon="13.20952"><ele>567.25</ele><time>2026-04-12T15:59:10.228Z</time></trkpt><trkpt lat="43.3785183" lon="13.2095683"><ele>567.5</ele><time>2026-04-12T15:59:11.228Z</time></trkpt><trkpt lat="43.3784133" lon="13.209615"><ele>567.75</ele><time>2026-04-12T15:59:12.228Z</time></trkpt><trkpt lat="43.3783033" lon="13.2096583"><ele>568.0</ele><time>2026-04-12T15:59:13.228Z</time></trkpt><trkpt lat="43.3781883" lon="13.2097033"><ele>568.0</ele><time>2026-04-12T15:59:14.227Z</time></trkpt><trkpt lat="43.3780817" lon="13.2097517"><ele>568.0</ele><time>2026-04-12T15:59:15.228Z</time></trkpt><trkpt lat="43.37796" lon="13.2097883"><ele>568.0</ele><time>2026-04-12T15:59:16.227Z</time></trkpt><trkpt lat="43.3778483" lon="13.2098367"><ele>568.0</ele><time>2026-04-12T15:59:17.228Z</time></trkpt><trkpt lat="43.3777333" lon="13.2098767"><ele>569.8</ele><time>2026-04-12T15:59:18.228Z</time></trkpt><trkpt lat="43.3776317" lon="13.2099183"><ele>571.5999999999999</ele><time>2026-04-12T15:59:19.228Z</time></trkpt><trkpt lat="43.37753" lon="13.209955"><ele>573.4000000000001</ele><time>2026-04-12T15:59:20.228Z</time></trkpt><trkpt lat="43.3774267" lon="13.2099933"><ele>575.2</ele><time>2026-04-12T15:59:21.227Z</time></trkpt><trkpt lat="43.37733" lon="13.210025"><ele>577.0</ele><time>2026-04-12T15:59:22.228Z</time></trkpt><trkpt lat="43.3772333" lon="13.2100717"><ele>578.3333333333334</ele><time>2026-04-12T15:59:23.228Z</time></trkpt><trkpt lat="43.37714" lon="13.2101133"><ele>579.6666666666667</ele><time>2026-04-12T15:59:24.227Z</time></trkpt><trkpt lat="43.3770517" lon="13.21016"><ele>581.0</ele><time>2026-04-12T15:59:25.228Z</time></trkpt><trkpt lat="43.3769667" lon="13.2101883"><ele>582.3333333333334</ele><time>2026-04-12T15:59:26.227Z</time></trkpt><trkpt lat="43.3768883" lon="13.2102217"><ele>583.6666666666666</ele><time>2026-04-12T15:59:27.228Z</time></trkpt><trkpt lat="43.3768067" lon="13.210245"><ele>585.0</ele><time>2026-04-12T15:59:28.228Z</time></trkpt><trkpt lat="43.376745" lon="13.21027"><ele>585.0</ele><time>2026-04-12T15:59:29.227Z</time></trkpt><trkpt lat="43.3766383" lon="13.2102983"><ele>585.0</ele><time>2026-04-12T15:59:31.228Z</time></trkpt><trkpt lat="43.37656" lon="13.2103383"><ele>585.0</ele><time>2026-04-12T15:59:33.227Z</time></trkpt><trkpt lat="43.376495" lon="13.2103883"><ele>585.0</ele><time>2026-04-12T15:59:35.228Z</time></trkpt><trkpt lat="43.376465" lon="13.210525"><ele>585.0</ele><time>2026-04-12T15:59:37.228Z</time></trkpt><trkpt lat="43.3764717" lon="13.210625"><ele>585.0</ele><time>2026-04-12T15:59:38.227Z</time></trkpt><trkpt lat="43.37649" lon="13.2107333"><ele>585.8</ele><time>2026-04-12T15:59:39.228Z</time></trkpt><trkpt lat="43.376505" lon="13.2108583"><ele>586.6</ele><time>2026-04-12T15:59:40.228Z</time></trkpt><trkpt lat="43.3765167" lon="13.2109967"><ele>587.4</ele><time>2026-04-12T15:59:41.228Z</time></trkpt><trkpt lat="43.3765233" lon="13.2111283"><ele>588.2</ele><time>2026-04-12T15:59:42.228Z</time></trkpt><trkpt lat="43.376525" lon="13.211265"><ele>589.0</ele><time>2026-04-12T15:59:43.228Z</time></trkpt><trkpt lat="43.37653" lon="13.2113933"><ele>589.5</ele><time>2026-04-12T15:59:44.227Z</time></trkpt><trkpt lat="43.37654" lon="13.2115217"><ele>590.0</ele><time>2026-04-12T15:59:45.228Z</time></trkpt><trkpt lat="43.3765517" lon="13.2116433"><ele>590.5</ele><time>2026-04-12T15:59:46.228Z</time></trkpt><trkpt lat="43.3765567" lon="13.21175"><ele>591.0</ele><time>2026-04-12T15:59:47.228Z</time></trkpt><trkpt lat="43.37658" lon="13.2118683"><ele>591.5</ele><time>2026-04-12T15:59:48.228Z</time></trkpt><trkpt lat="43.3765933" lon="13.21196"><ele>592.0</ele><time>2026-04-12T15:59:49.228Z</time></trkpt><trkpt lat="43.3765717" lon="13.21207"><ele>592.0</ele><time>2026-04-12T15:59:51.228Z</time></trkpt><trkpt lat="43.37649" lon="13.2120833"><ele>592.0</ele><time>2026-04-12T15:59:54.228Z</time></trkpt><trkpt lat="43.3763983" lon="13.212115"><ele>592.0</ele><time>2026-04-12T15:59:57.228Z</time></trkpt><trkpt lat="43.37633" lon="13.2121833"><ele>592.0</ele><time>2026-04-12T15:59:59.227Z</time></trkpt><trkpt lat="43.376295" lon="13.2123917"><ele>592.0</ele><time>2026-04-12T16:00:17.228Z</time></trkpt><trkpt lat="43.3762733" lon="13.2125517"><ele>593.2</ele><time>2026-04-12T16:00:19.228Z</time></trkpt><trkpt lat="43.3762367" lon="13.2127183"><ele>594.4000000000001</ele><time>2026-04-12T16:00:21.228Z</time></trkpt><trkpt lat="43.3762217" lon="13.2128033"><ele>595.5999999999999</ele><time>2026-04-12T16:00:22.228Z</time></trkpt><trkpt lat="43.3761917" lon="13.2129633"><ele>596.8</ele><time>2026-04-12T16:00:24.227Z</time></trkpt><trkpt lat="43.376155" lon="13.2130933"><ele>598.0</ele><time>2026-04-12T16:00:26.228Z</time></trkpt><trkpt lat="43.3761117" lon="13.2131733"><ele>598.0</ele><time>2026-04-12T16:00:28.228Z</time></trkpt><trkpt lat="43.37603" lon="13.2132267"><ele>598.0</ele><time>2026-04-12T16:00:30.228Z</time></trkpt><trkpt lat="43.3759217" lon="13.2132417"><ele>598.0</ele><time>2026-04-12T16:00:32.228Z</time></trkpt><trkpt lat="43.3758267" lon="13.213195"><ele>598.0</ele><time>2026-04-12T16:00:34.228Z</time></trkpt><trkpt lat="43.3757667" lon="13.2131183"><ele>598.0</ele><time>2026-04-12T16:00:36.228Z</time></trkpt><trkpt lat="43.3757417" lon="13.2129967"><ele>598.0</ele><time>2026-04-12T16:00:38.228Z</time></trkpt><trkpt lat="43.375745" lon="13.2128467"><ele>598.0</ele><time>2026-04-12T16:00:40.228Z</time></trkpt><trkpt lat="43.3757467" lon="13.2127517"><ele>598.0</ele><time>2026-04-12T16:00:41.227Z</time></trkpt><trkpt lat="43.375745" lon="13.2126417"><ele>598.0</ele><time>2026-04-12T16:00:42.228Z</time></trkpt><trkpt lat="43.3757433" lon="13.21253"><ele>598.0</ele><time>2026-04-12T16:00:43.227Z</time></trkpt><trkpt lat="43.3757417" lon="13.2124183"><ele>598.0</ele><time>2026-04-12T16:00:44.227Z</time></trkpt><trkpt lat="43.3757467" lon="13.2123183"><ele>597.1666666666667</ele><time>2026-04-12T16:00:45.228Z</time></trkpt><trkpt lat="43.3757467" lon="13.21222"><ele>596.3333333333334</ele><time>2026-04-12T16:00:46.228Z</time></trkpt><trkpt lat="43.37575" lon="13.2121233"><ele>595.5</ele><time>2026-04-12T16:00:47.228Z</time></trkpt><trkpt lat="43.375755" lon="13.2120333"><ele>594.6666666666666</ele><time>2026-04-12T16:00:48.228Z</time></trkpt><trkpt lat="43.375765" lon="13.2118633"><ele>593.8333333333333</ele><time>2026-04-12T16:00:50.228Z</time></trkpt><trkpt lat="43.3757733" lon="13.2117133"><ele>593.0</ele><time>2026-04-12T16:00:52.227Z</time></trkpt><trkpt lat="43.3757833" lon="13.2116183"><ele>593.0</ele><time>2026-04-12T16:00:54.228Z</time></trkpt><trkpt lat="43.3757983" lon="13.2114633"><ele>592.0</ele><time>2026-04-12T16:02:29.227Z</time></trkpt></trkseg></trk></gpx>